<?xml version="1.0" encoding="UTF-8" standalone="no" ?>
<gpx xmlns="http://www.topografix.com/GPX/1/1" xmlns:xsi="http://www.w3.org/2001/XMLSchema-instance" xsi:schemaLocation="http://www.topografix.com/GPX/1/1 http://www.topografix.com/GPX/1/1/gpx.xsd" version="1.1" creator="VisuGPX - https://www.visugpx.com">
  <metadata>
    <name>83-D-St Antonin</name>
    <desc><![CDATA[83-D-St Antonin - St ANTONIN DU VAR : Mentone
2022-12-03]]></desc>
  </metadata>
  <trk>
    <name><![CDATA[2023-12-03-D-St antonin]]></name>
    <extensions>
      <line xmlns="http://www.topografix.com/GPX/gpx_style/0/2">
        <width>4</width>
      </line>
    </extensions>
    <trkseg>
      <trkpt lat="43.51518" lon="6.24163">
        <ele>150.6</ele>
        <time>2023-12-03T08:33:29.000Z</time>
      </trkpt>
      <trkpt lat="43.5152" lon="6.24174">
        <ele>150.4</ele>
        <time>2023-12-03T08:33:53.000Z</time>
      </trkpt>
      <trkpt lat="43.51521" lon="6.2418">
        <ele>150.2</ele>
        <time>2023-12-03T08:34:02.000Z</time>
      </trkpt>
      <trkpt lat="43.51523" lon="6.24185">
        <ele>150</ele>
        <time>2023-12-03T08:34:08.000Z</time>
      </trkpt>
      <trkpt lat="43.51525" lon="6.2419">
        <ele>150</ele>
        <time>2023-12-03T08:34:13.000Z</time>
      </trkpt>
      <trkpt lat="43.51528" lon="6.24194">
        <ele>149.8</ele>
        <time>2023-12-03T08:34:22.000Z</time>
      </trkpt>
      <trkpt lat="43.51531" lon="6.24197">
        <ele>149.8</ele>
        <time>2023-12-03T08:34:29.000Z</time>
      </trkpt>
      <trkpt lat="43.51535" lon="6.242">
        <ele>149.7</ele>
        <time>2023-12-03T08:34:33.000Z</time>
      </trkpt>
      <trkpt lat="43.51536" lon="6.242">
        <ele>149.7</ele>
        <time>2023-12-03T08:34:34.000Z</time>
      </trkpt>
      <trkpt lat="43.51543" lon="6.24202">
        <ele>149.6</ele>
        <time>2023-12-03T08:34:40.000Z</time>
      </trkpt>
      <trkpt lat="43.51546" lon="6.24204">
        <ele>149</ele>
        <time>2023-12-03T08:34:42.000Z</time>
      </trkpt>
      <trkpt lat="43.51549" lon="6.24207">
        <ele>149.5</ele>
        <time>2023-12-03T08:34:46.000Z</time>
      </trkpt>
      <trkpt lat="43.51553" lon="6.24211">
        <ele>149.5</ele>
        <time>2023-12-03T08:34:49.000Z</time>
      </trkpt>
      <trkpt lat="43.51554" lon="6.24215">
        <ele>149.5</ele>
        <time>2023-12-03T08:34:51.000Z</time>
      </trkpt>
      <trkpt lat="43.51556" lon="6.2422">
        <ele>149.4</ele>
        <time>2023-12-03T08:34:55.000Z</time>
      </trkpt>
      <trkpt lat="43.51556" lon="6.24225">
        <ele>149.4</ele>
        <time>2023-12-03T08:34:58.000Z</time>
      </trkpt>
      <trkpt lat="43.51555" lon="6.24231">
        <ele>149.2</ele>
        <time>2023-12-03T08:35:05.000Z</time>
      </trkpt>
      <trkpt lat="43.51553" lon="6.24235">
        <ele>148.5</ele>
        <time>2023-12-03T08:35:24.000Z</time>
      </trkpt>
      <trkpt lat="43.5155" lon="6.2423">
        <ele>148.1</ele>
        <time>2023-12-03T08:35:43.000Z</time>
      </trkpt>
      <trkpt lat="43.5155" lon="6.2423">
        <ele>148.1</ele>
        <time>2023-12-03T08:35:44.000Z</time>
      </trkpt>
      <trkpt lat="43.51549" lon="6.24229">
        <ele>147.7</ele>
        <time>2023-12-03T08:36:56.000Z</time>
      </trkpt>
      <trkpt lat="43.51549" lon="6.24229">
        <ele>147.7</ele>
        <time>2023-12-03T08:36:57.000Z</time>
      </trkpt>
      <trkpt lat="43.51547" lon="6.24233">
        <ele>148</ele>
        <time>2023-12-03T08:38:57.000Z</time>
      </trkpt>
      <trkpt lat="43.51547" lon="6.24234">
        <ele>148</ele>
        <time>2023-12-03T08:38:58.000Z</time>
      </trkpt>
      <trkpt lat="43.51544" lon="6.24244">
        <ele>147.7</ele>
        <time>2023-12-03T08:39:18.000Z</time>
      </trkpt>
      <trkpt lat="43.51541" lon="6.2424">
        <ele>147.4</ele>
        <time>2023-12-03T08:39:26.000Z</time>
      </trkpt>
      <trkpt lat="43.51538" lon="6.24243">
        <ele>147.3</ele>
        <time>2023-12-03T08:39:31.000Z</time>
      </trkpt>
      <trkpt lat="43.51537" lon="6.24249">
        <ele>147.2</ele>
        <time>2023-12-03T08:39:34.000Z</time>
      </trkpt>
      <trkpt lat="43.51536" lon="6.24255">
        <ele>147.2</ele>
        <time>2023-12-03T08:39:37.000Z</time>
      </trkpt>
      <trkpt lat="43.51537" lon="6.24261">
        <ele>147.2</ele>
        <time>2023-12-03T08:39:42.000Z</time>
      </trkpt>
      <trkpt lat="43.51537" lon="6.24267">
        <ele>147.1</ele>
        <time>2023-12-03T08:39:49.000Z</time>
      </trkpt>
      <trkpt lat="43.51537" lon="6.24273">
        <ele>147.1</ele>
        <time>2023-12-03T08:39:54.000Z</time>
      </trkpt>
      <trkpt lat="43.51539" lon="6.24278">
        <ele>147.1</ele>
        <time>2023-12-03T08:40:04.000Z</time>
      </trkpt>
      <trkpt lat="43.51539" lon="6.24279">
        <ele>147.1</ele>
        <time>2023-12-03T08:40:05.000Z</time>
      </trkpt>
      <trkpt lat="43.5154" lon="6.24289">
        <ele>147</ele>
        <time>2023-12-03T08:40:44.000Z</time>
      </trkpt>
      <trkpt lat="43.51537" lon="6.24294">
        <ele>147</ele>
        <time>2023-12-03T08:40:53.000Z</time>
      </trkpt>
      <trkpt lat="43.51533" lon="6.24293">
        <ele>147</ele>
        <time>2023-12-03T08:40:59.000Z</time>
      </trkpt>
      <trkpt lat="43.51529" lon="6.24292">
        <ele>147</ele>
        <time>2023-12-03T08:41:04.000Z</time>
      </trkpt>
      <trkpt lat="43.51524" lon="6.24291">
        <ele>147</ele>
        <time>2023-12-03T08:41:08.000Z</time>
      </trkpt>
      <trkpt lat="43.51523" lon="6.24291">
        <ele>147</ele>
        <time>2023-12-03T08:41:09.000Z</time>
      </trkpt>
      <trkpt lat="43.51517" lon="6.24285">
        <ele>147</ele>
        <time>2023-12-03T08:41:19.000Z</time>
      </trkpt>
      <trkpt lat="43.51513" lon="6.24281">
        <ele>147</ele>
        <time>2023-12-03T08:41:30.000Z</time>
      </trkpt>
      <trkpt lat="43.5151" lon="6.24282">
        <ele>147.2</ele>
        <time>2023-12-03T08:41:43.000Z</time>
      </trkpt>
      <trkpt lat="43.51506" lon="6.24281">
        <ele>147.2</ele>
        <time>2023-12-03T08:41:46.000Z</time>
      </trkpt>
      <trkpt lat="43.51503" lon="6.24279">
        <ele>147.2</ele>
        <time>2023-12-03T08:41:49.000Z</time>
      </trkpt>
      <trkpt lat="43.51499" lon="6.24278">
        <ele>147.2</ele>
        <time>2023-12-03T08:41:52.000Z</time>
      </trkpt>
      <trkpt lat="43.51495" lon="6.24276">
        <ele>147.2</ele>
        <time>2023-12-03T08:41:58.000Z</time>
      </trkpt>
      <trkpt lat="43.51491" lon="6.24274">
        <ele>147.1</ele>
        <time>2023-12-03T08:42:06.000Z</time>
      </trkpt>
      <trkpt lat="43.5149" lon="6.24269">
        <ele>148.8</ele>
        <time>2023-12-03T08:42:45.000Z</time>
      </trkpt>
      <trkpt lat="43.51489" lon="6.24269">
        <ele>148.9</ele>
        <time>2023-12-03T08:42:46.000Z</time>
      </trkpt>
      <trkpt lat="43.51483" lon="6.24274">
        <ele>150.1</ele>
        <time>2023-12-03T08:43:15.000Z</time>
      </trkpt>
      <trkpt lat="43.51482" lon="6.2428">
        <ele>150.2</ele>
        <time>2023-12-03T08:43:22.000Z</time>
      </trkpt>
      <trkpt lat="43.51482" lon="6.24286">
        <ele>150.3</ele>
        <time>2023-12-03T08:43:31.000Z</time>
      </trkpt>
      <trkpt lat="43.51482" lon="6.24292">
        <ele>150.3</ele>
        <time>2023-12-03T08:43:38.000Z</time>
      </trkpt>
      <trkpt lat="43.51481" lon="6.24298">
        <ele>150.4</ele>
        <time>2023-12-03T08:43:44.000Z</time>
      </trkpt>
      <trkpt lat="43.51483" lon="6.24303">
        <ele>150.5</ele>
        <time>2023-12-03T08:43:52.000Z</time>
      </trkpt>
      <trkpt lat="43.51483" lon="6.24304">
        <ele>150.5</ele>
        <time>2023-12-03T08:43:53.000Z</time>
      </trkpt>
      <trkpt lat="43.5149" lon="6.2431">
        <ele>150.5</ele>
        <time>2023-12-03T08:44:17.000Z</time>
      </trkpt>
      <trkpt lat="43.51493" lon="6.24314">
        <ele>150.8</ele>
        <time>2023-12-03T08:44:24.000Z</time>
      </trkpt>
      <trkpt lat="43.51496" lon="6.24318">
        <ele>151</ele>
        <time>2023-12-03T08:44:30.000Z</time>
      </trkpt>
      <trkpt lat="43.515" lon="6.24321">
        <ele>151.6</ele>
        <time>2023-12-03T08:44:37.000Z</time>
      </trkpt>
      <trkpt lat="43.51504" lon="6.24319">
        <ele>152.6</ele>
        <time>2023-12-03T08:44:46.000Z</time>
      </trkpt>
      <trkpt lat="43.51508" lon="6.2432">
        <ele>153.4</ele>
        <time>2023-12-03T08:44:54.000Z</time>
      </trkpt>
      <trkpt lat="43.51508" lon="6.24321">
        <ele>153.5</ele>
        <time>2023-12-03T08:44:55.000Z</time>
      </trkpt>
      <trkpt lat="43.51516" lon="6.24326">
        <ele>155.1</ele>
        <time>2023-12-03T08:45:09.000Z</time>
      </trkpt>
      <trkpt lat="43.5152" lon="6.24326">
        <ele>156.5</ele>
        <time>2023-12-03T08:45:19.000Z</time>
      </trkpt>
      <trkpt lat="43.51524" lon="6.24328">
        <ele>157.6</ele>
        <time>2023-12-03T08:45:27.000Z</time>
      </trkpt>
      <trkpt lat="43.51527" lon="6.24332">
        <ele>158.2</ele>
        <time>2023-12-03T08:45:32.000Z</time>
      </trkpt>
      <trkpt lat="43.51529" lon="6.24337">
        <ele>158.7</ele>
        <time>2023-12-03T08:45:37.000Z</time>
      </trkpt>
      <trkpt lat="43.51531" lon="6.24341">
        <ele>159.2</ele>
        <time>2023-12-03T08:45:43.000Z</time>
      </trkpt>
      <trkpt lat="43.51534" lon="6.24345">
        <ele>159.4</ele>
        <time>2023-12-03T08:45:47.000Z</time>
      </trkpt>
      <trkpt lat="43.51537" lon="6.24349">
        <ele>159.6</ele>
        <time>2023-12-03T08:45:52.000Z</time>
      </trkpt>
      <trkpt lat="43.51533" lon="6.24348">
        <ele>160.6</ele>
        <time>2023-12-03T08:46:14.000Z</time>
      </trkpt>
      <trkpt lat="43.51533" lon="6.24349">
        <ele>160.7</ele>
        <time>2023-12-03T08:46:15.000Z</time>
      </trkpt>
      <trkpt lat="43.51527" lon="6.24354">
        <ele>161.3</ele>
        <time>2023-12-03T08:46:27.000Z</time>
      </trkpt>
      <trkpt lat="43.51527" lon="6.2436">
        <ele>161.9</ele>
        <time>2023-12-03T08:46:37.000Z</time>
      </trkpt>
      <trkpt lat="43.51526" lon="6.24366">
        <ele>162.3</ele>
        <time>2023-12-03T08:46:54.000Z</time>
      </trkpt>
      <trkpt lat="43.51524" lon="6.24371">
        <ele>162.7</ele>
        <time>2023-12-03T08:47:06.000Z</time>
      </trkpt>
      <trkpt lat="43.51523" lon="6.24377">
        <ele>162.9</ele>
        <time>2023-12-03T08:47:13.000Z</time>
      </trkpt>
      <trkpt lat="43.51522" lon="6.24381">
        <ele>163</ele>
        <time>2023-12-03T08:47:18.000Z</time>
      </trkpt>
      <trkpt lat="43.51521" lon="6.24383">
        <ele>163.1</ele>
        <time>2023-12-03T08:47:19.000Z</time>
      </trkpt>
      <trkpt lat="43.5152" lon="6.24389">
        <ele>163.2</ele>
        <time>2023-12-03T08:47:23.000Z</time>
      </trkpt>
      <trkpt lat="43.51519" lon="6.24395">
        <ele>163.2</ele>
        <time>2023-12-03T08:47:26.000Z</time>
      </trkpt>
      <trkpt lat="43.51515" lon="6.24399">
        <ele>163.2</ele>
        <time>2023-12-03T08:47:30.000Z</time>
      </trkpt>
      <trkpt lat="43.51514" lon="6.24404">
        <ele>163.2</ele>
        <time>2023-12-03T08:47:34.000Z</time>
      </trkpt>
      <trkpt lat="43.51514" lon="6.2441">
        <ele>163.1</ele>
        <time>2023-12-03T08:47:44.000Z</time>
      </trkpt>
      <trkpt lat="43.51517" lon="6.24409">
        <ele>162.8</ele>
        <time>2023-12-03T08:47:58.000Z</time>
      </trkpt>
      <trkpt lat="43.5152" lon="6.24407">
        <ele>162.8</ele>
        <time>2023-12-03T08:48:00.000Z</time>
      </trkpt>
      <trkpt lat="43.51524" lon="6.24406">
        <ele>162.8</ele>
        <time>2023-12-03T08:48:03.000Z</time>
      </trkpt>
      <trkpt lat="43.51528" lon="6.24404">
        <ele>162.7</ele>
        <time>2023-12-03T08:48:07.000Z</time>
      </trkpt>
      <trkpt lat="43.51531" lon="6.24405">
        <ele>162.6</ele>
        <time>2023-12-03T08:48:10.000Z</time>
      </trkpt>
      <trkpt lat="43.51533" lon="6.244">
        <ele>162.3</ele>
        <time>2023-12-03T08:48:23.000Z</time>
      </trkpt>
      <trkpt lat="43.51532" lon="6.24399">
        <ele>162.2</ele>
        <time>2023-12-03T08:48:24.000Z</time>
      </trkpt>
      <trkpt lat="43.51528" lon="6.24393">
        <ele>162.2</ele>
        <time>2023-12-03T08:48:29.000Z</time>
      </trkpt>
      <trkpt lat="43.51525" lon="6.24398">
        <ele>162</ele>
        <time>2023-12-03T08:48:57.000Z</time>
      </trkpt>
      <trkpt lat="43.51522" lon="6.24396">
        <ele>162</ele>
        <time>2023-12-03T08:49:13.000Z</time>
      </trkpt>
      <trkpt lat="43.51518" lon="6.24399">
        <ele>161</ele>
        <time>2023-12-03T08:49:23.000Z</time>
      </trkpt>
      <trkpt lat="43.51521" lon="6.24404">
        <ele>161.9</ele>
        <time>2023-12-03T08:49:29.000Z</time>
      </trkpt>
      <trkpt lat="43.51517" lon="6.24407">
        <ele>161.4</ele>
        <time>2023-12-03T08:49:45.000Z</time>
      </trkpt>
      <trkpt lat="43.51517" lon="6.24413">
        <ele>161.1</ele>
        <time>2023-12-03T08:49:50.000Z</time>
      </trkpt>
      <trkpt lat="43.51516" lon="6.24418">
        <ele>160.7</ele>
        <time>2023-12-03T08:49:55.000Z</time>
      </trkpt>
      <trkpt lat="43.51515" lon="6.24423">
        <ele>159.8</ele>
        <time>2023-12-03T08:50:03.000Z</time>
      </trkpt>
      <trkpt lat="43.51512" lon="6.24428">
        <ele>159.1</ele>
        <time>2023-12-03T08:50:09.000Z</time>
      </trkpt>
      <trkpt lat="43.51511" lon="6.24434">
        <ele>158.5</ele>
        <time>2023-12-03T08:50:15.000Z</time>
      </trkpt>
      <trkpt lat="43.51507" lon="6.24434">
        <ele>157.5</ele>
        <time>2023-12-03T08:50:22.000Z</time>
      </trkpt>
      <trkpt lat="43.51509" lon="6.24439">
        <ele>156</ele>
        <time>2023-12-03T08:50:34.000Z</time>
      </trkpt>
      <trkpt lat="43.5151" lon="6.2444">
        <ele>155.8</ele>
        <time>2023-12-03T08:50:35.000Z</time>
      </trkpt>
      <trkpt lat="43.51516" lon="6.24443">
        <ele>155.1</ele>
        <time>2023-12-03T08:50:43.000Z</time>
      </trkpt>
      <trkpt lat="43.51519" lon="6.24447">
        <ele>154.9</ele>
        <time>2023-12-03T08:50:47.000Z</time>
      </trkpt>
      <trkpt lat="43.51523" lon="6.24447">
        <ele>154.7</ele>
        <time>2023-12-03T08:50:52.000Z</time>
      </trkpt>
      <trkpt lat="43.51525" lon="6.24444">
        <ele>154.6</ele>
        <time>2023-12-03T08:50:56.000Z</time>
      </trkpt>
      <trkpt lat="43.51555" lon="6.24491">
        <ele>154</ele>
        <time>2023-12-03T08:51:02.000Z</time>
      </trkpt>
      <trkpt lat="43.51554" lon="6.24429">
        <ele>154</ele>
        <time>2023-12-03T08:51:18.000Z</time>
      </trkpt>
      <trkpt lat="43.5153" lon="6.24415">
        <ele>154</ele>
        <time>2023-12-03T08:51:25.000Z</time>
      </trkpt>
      <trkpt lat="43.51534" lon="6.24412">
        <ele>154.7</ele>
        <time>2023-12-03T08:51:30.000Z</time>
      </trkpt>
      <trkpt lat="43.51537" lon="6.2441">
        <ele>154.6</ele>
        <time>2023-12-03T08:51:32.000Z</time>
      </trkpt>
      <trkpt lat="43.51539" lon="6.24405">
        <ele>154.4</ele>
        <time>2023-12-03T08:51:36.000Z</time>
      </trkpt>
      <trkpt lat="43.51538" lon="6.24404">
        <ele>154.3</ele>
        <time>2023-12-03T08:51:37.000Z</time>
      </trkpt>
      <trkpt lat="43.51543" lon="6.24396">
        <ele>153.7</ele>
        <time>2023-12-03T08:51:43.000Z</time>
      </trkpt>
      <trkpt lat="43.51546" lon="6.24393">
        <ele>153.4</ele>
        <time>2023-12-03T08:51:46.000Z</time>
      </trkpt>
      <trkpt lat="43.51547" lon="6.24389">
        <ele>153.2</ele>
        <time>2023-12-03T08:51:49.000Z</time>
      </trkpt>
      <trkpt lat="43.51549" lon="6.24387">
        <ele>152</ele>
        <time>2023-12-03T08:51:51.000Z</time>
      </trkpt>
      <trkpt lat="43.5155" lon="6.24383">
        <ele>152.6</ele>
        <time>2023-12-03T08:51:54.000Z</time>
      </trkpt>
      <trkpt lat="43.51554" lon="6.24381">
        <ele>152.4</ele>
        <time>2023-12-03T08:51:56.000Z</time>
      </trkpt>
      <trkpt lat="43.51554" lon="6.24375">
        <ele>151.9</ele>
        <time>2023-12-03T08:52:00.000Z</time>
      </trkpt>
      <trkpt lat="43.51556" lon="6.2437">
        <ele>151.4</ele>
        <time>2023-12-03T08:52:04.000Z</time>
      </trkpt>
      <trkpt lat="43.51559" lon="6.24366">
        <ele>151</ele>
        <time>2023-12-03T08:52:07.000Z</time>
      </trkpt>
      <trkpt lat="43.51561" lon="6.24362">
        <ele>150.4</ele>
        <time>2023-12-03T08:52:11.000Z</time>
      </trkpt>
      <trkpt lat="43.51564" lon="6.24358">
        <ele>149.5</ele>
        <time>2023-12-03T08:52:16.000Z</time>
      </trkpt>
      <trkpt lat="43.51567" lon="6.24354">
        <ele>148.7</ele>
        <time>2023-12-03T08:52:21.000Z</time>
      </trkpt>
      <trkpt lat="43.5157" lon="6.24356">
        <ele>148.2</ele>
        <time>2023-12-03T08:52:25.000Z</time>
      </trkpt>
      <trkpt lat="43.51571" lon="6.24362">
        <ele>147.8</ele>
        <time>2023-12-03T08:52:29.000Z</time>
      </trkpt>
      <trkpt lat="43.51571" lon="6.24367">
        <ele>147.6</ele>
        <time>2023-12-03T08:52:32.000Z</time>
      </trkpt>
      <trkpt lat="43.51569" lon="6.24372">
        <ele>147.4</ele>
        <time>2023-12-03T08:52:35.000Z</time>
      </trkpt>
      <trkpt lat="43.51569" lon="6.24378">
        <ele>147.1</ele>
        <time>2023-12-03T08:52:38.000Z</time>
      </trkpt>
      <trkpt lat="43.51569" lon="6.24379">
        <ele>147</ele>
        <time>2023-12-03T08:52:39.000Z</time>
      </trkpt>
      <trkpt lat="43.51568" lon="6.24387">
        <ele>146.3</ele>
        <time>2023-12-03T08:52:44.000Z</time>
      </trkpt>
      <trkpt lat="43.51568" lon="6.24393">
        <ele>145.7</ele>
        <time>2023-12-03T08:52:48.000Z</time>
      </trkpt>
      <trkpt lat="43.51568" lon="6.24399">
        <ele>145</ele>
        <time>2023-12-03T08:52:53.000Z</time>
      </trkpt>
      <trkpt lat="43.51569" lon="6.24405">
        <ele>144.5</ele>
        <time>2023-12-03T08:52:58.000Z</time>
      </trkpt>
      <trkpt lat="43.51571" lon="6.2441">
        <ele>143.9</ele>
        <time>2023-12-03T08:53:05.000Z</time>
      </trkpt>
      <trkpt lat="43.51573" lon="6.24416">
        <ele>143</ele>
        <time>2023-12-03T08:53:19.000Z</time>
      </trkpt>
      <trkpt lat="43.51575" lon="6.2442">
        <ele>142.8</ele>
        <time>2023-12-03T08:53:24.000Z</time>
      </trkpt>
      <trkpt lat="43.51576" lon="6.24424">
        <ele>142.6</ele>
        <time>2023-12-03T08:53:28.000Z</time>
      </trkpt>
      <trkpt lat="43.51578" lon="6.2443">
        <ele>142.4</ele>
        <time>2023-12-03T08:53:32.000Z</time>
      </trkpt>
      <trkpt lat="43.51579" lon="6.24436">
        <ele>142.1</ele>
        <time>2023-12-03T08:53:37.000Z</time>
      </trkpt>
      <trkpt lat="43.51579" lon="6.24441">
        <ele>141.9</ele>
        <time>2023-12-03T08:53:41.000Z</time>
      </trkpt>
      <trkpt lat="43.51579" lon="6.24443">
        <ele>141.8</ele>
        <time>2023-12-03T08:53:42.000Z</time>
      </trkpt>
      <trkpt lat="43.51579" lon="6.24453">
        <ele>141.6</ele>
        <time>2023-12-03T08:53:47.000Z</time>
      </trkpt>
      <trkpt lat="43.51579" lon="6.24458">
        <ele>141.5</ele>
        <time>2023-12-03T08:53:51.000Z</time>
      </trkpt>
      <trkpt lat="43.51578" lon="6.24464">
        <ele>141.5</ele>
        <time>2023-12-03T08:54:12.000Z</time>
      </trkpt>
      <trkpt lat="43.51576" lon="6.2447">
        <ele>141.5</ele>
        <time>2023-12-03T08:54:40.000Z</time>
      </trkpt>
      <trkpt lat="43.51576" lon="6.24464">
        <ele>141.4</ele>
        <time>2023-12-03T08:55:01.000Z</time>
      </trkpt>
      <trkpt lat="43.51576" lon="6.24463">
        <ele>141.4</ele>
        <time>2023-12-03T08:55:02.000Z</time>
      </trkpt>
      <trkpt lat="43.51568" lon="6.24462">
        <ele>141</ele>
        <time>2023-12-03T08:55:41.000Z</time>
      </trkpt>
      <trkpt lat="43.5157" lon="6.24456">
        <ele>140.7</ele>
        <time>2023-12-03T08:55:54.000Z</time>
      </trkpt>
      <trkpt lat="43.51574" lon="6.24458">
        <ele>140.5</ele>
        <time>2023-12-03T08:56:13.000Z</time>
      </trkpt>
      <trkpt lat="43.51574" lon="6.24459">
        <ele>140.6</ele>
        <time>2023-12-03T08:56:14.000Z</time>
      </trkpt>
      <trkpt lat="43.51578" lon="6.24467">
        <ele>141.3</ele>
        <time>2023-12-03T08:56:37.000Z</time>
      </trkpt>
      <trkpt lat="43.51579" lon="6.24471">
        <ele>141.4</ele>
        <time>2023-12-03T08:56:42.000Z</time>
      </trkpt>
      <trkpt lat="43.51578" lon="6.24477">
        <ele>141.6</ele>
        <time>2023-12-03T08:56:48.000Z</time>
      </trkpt>
      <trkpt lat="43.51578" lon="6.24483">
        <ele>142</ele>
        <time>2023-12-03T08:56:54.000Z</time>
      </trkpt>
      <trkpt lat="43.51579" lon="6.24489">
        <ele>142.3</ele>
        <time>2023-12-03T08:56:59.000Z</time>
      </trkpt>
      <trkpt lat="43.5158" lon="6.24494">
        <ele>142.6</ele>
        <time>2023-12-03T08:57:03.000Z</time>
      </trkpt>
      <trkpt lat="43.51581" lon="6.245">
        <ele>142.9</ele>
        <time>2023-12-03T08:57:07.000Z</time>
      </trkpt>
      <trkpt lat="43.51582" lon="6.24505">
        <ele>143.2</ele>
        <time>2023-12-03T08:57:11.000Z</time>
      </trkpt>
      <trkpt lat="43.51583" lon="6.2451">
        <ele>143.5</ele>
        <time>2023-12-03T08:57:15.000Z</time>
      </trkpt>
      <trkpt lat="43.51583" lon="6.24512">
        <ele>143.6</ele>
        <time>2023-12-03T08:57:16.000Z</time>
      </trkpt>
      <trkpt lat="43.51585" lon="6.24521">
        <ele>144.4</ele>
        <time>2023-12-03T08:57:25.000Z</time>
      </trkpt>
      <trkpt lat="43.51586" lon="6.24527">
        <ele>144.8</ele>
        <time>2023-12-03T08:57:33.000Z</time>
      </trkpt>
      <trkpt lat="43.51589" lon="6.24532">
        <ele>145</ele>
        <time>2023-12-03T08:57:41.000Z</time>
      </trkpt>
      <trkpt lat="43.5159" lon="6.24537">
        <ele>145.6</ele>
        <time>2023-12-03T08:57:47.000Z</time>
      </trkpt>
      <trkpt lat="43.51589" lon="6.24542">
        <ele>146.2</ele>
        <time>2023-12-03T08:57:53.000Z</time>
      </trkpt>
      <trkpt lat="43.51589" lon="6.24548">
        <ele>147</ele>
        <time>2023-12-03T08:57:59.000Z</time>
      </trkpt>
      <trkpt lat="43.5159" lon="6.24554">
        <ele>147.9</ele>
        <time>2023-12-03T08:58:05.000Z</time>
      </trkpt>
      <trkpt lat="43.51591" lon="6.24559">
        <ele>148.6</ele>
        <time>2023-12-03T08:58:10.000Z</time>
      </trkpt>
      <trkpt lat="43.51592" lon="6.24564">
        <ele>149.2</ele>
        <time>2023-12-03T08:58:14.000Z</time>
      </trkpt>
      <trkpt lat="43.51593" lon="6.2457">
        <ele>149.9</ele>
        <time>2023-12-03T08:58:19.000Z</time>
      </trkpt>
      <trkpt lat="43.51593" lon="6.24571">
        <ele>150</ele>
        <time>2023-12-03T08:58:20.000Z</time>
      </trkpt>
      <trkpt lat="43.51596" lon="6.24581">
        <ele>151.5</ele>
        <time>2023-12-03T08:58:31.000Z</time>
      </trkpt>
      <trkpt lat="43.51597" lon="6.24587">
        <ele>152.2</ele>
        <time>2023-12-03T08:58:37.000Z</time>
      </trkpt>
      <trkpt lat="43.51598" lon="6.24592">
        <ele>152.9</ele>
        <time>2023-12-03T08:58:42.000Z</time>
      </trkpt>
      <trkpt lat="43.51597" lon="6.24598">
        <ele>153.8</ele>
        <time>2023-12-03T08:58:49.000Z</time>
      </trkpt>
      <trkpt lat="43.51598" lon="6.24603">
        <ele>154.3</ele>
        <time>2023-12-03T08:58:53.000Z</time>
      </trkpt>
      <trkpt lat="43.51599" lon="6.24608">
        <ele>154.8</ele>
        <time>2023-12-03T08:58:57.000Z</time>
      </trkpt>
      <trkpt lat="43.51599" lon="6.24613">
        <ele>155.2</ele>
        <time>2023-12-03T08:59:00.000Z</time>
      </trkpt>
      <trkpt lat="43.51601" lon="6.24618">
        <ele>155.8</ele>
        <time>2023-12-03T08:59:05.000Z</time>
      </trkpt>
      <trkpt lat="43.51601" lon="6.24624">
        <ele>156.4</ele>
        <time>2023-12-03T08:59:10.000Z</time>
      </trkpt>
      <trkpt lat="43.51601" lon="6.2463">
        <ele>156.9</ele>
        <time>2023-12-03T08:59:14.000Z</time>
      </trkpt>
      <trkpt lat="43.51601" lon="6.24634">
        <ele>157.4</ele>
        <time>2023-12-03T08:59:18.000Z</time>
      </trkpt>
      <trkpt lat="43.51601" lon="6.24641">
        <ele>158</ele>
        <time>2023-12-03T08:59:25.000Z</time>
      </trkpt>
      <trkpt lat="43.51601" lon="6.24641">
        <ele>158.1</ele>
        <time>2023-12-03T08:59:26.000Z</time>
      </trkpt>
      <trkpt lat="43.51602" lon="6.24651">
        <ele>159</ele>
        <time>2023-12-03T08:59:37.000Z</time>
      </trkpt>
      <trkpt lat="43.51601" lon="6.24656">
        <ele>159.5</ele>
        <time>2023-12-03T08:59:42.000Z</time>
      </trkpt>
      <trkpt lat="43.51601" lon="6.24662">
        <ele>160.1</ele>
        <time>2023-12-03T08:59:47.000Z</time>
      </trkpt>
      <trkpt lat="43.516" lon="6.24667">
        <ele>160.7</ele>
        <time>2023-12-03T08:59:52.000Z</time>
      </trkpt>
      <trkpt lat="43.51599" lon="6.24673">
        <ele>161.1</ele>
        <time>2023-12-03T08:59:56.000Z</time>
      </trkpt>
      <trkpt lat="43.51598" lon="6.24678">
        <ele>161.5</ele>
        <time>2023-12-03T09:00:00.000Z</time>
      </trkpt>
      <trkpt lat="43.51597" lon="6.24683">
        <ele>161.8</ele>
        <time>2023-12-03T09:00:04.000Z</time>
      </trkpt>
      <trkpt lat="43.51596" lon="6.24689">
        <ele>162</ele>
        <time>2023-12-03T09:00:08.000Z</time>
      </trkpt>
      <trkpt lat="43.51595" lon="6.24695">
        <ele>162.3</ele>
        <time>2023-12-03T09:00:14.000Z</time>
      </trkpt>
      <trkpt lat="43.51594" lon="6.247">
        <ele>162.8</ele>
        <time>2023-12-03T09:00:20.000Z</time>
      </trkpt>
      <trkpt lat="43.51594" lon="6.24705">
        <ele>163</ele>
        <time>2023-12-03T09:00:24.000Z</time>
      </trkpt>
      <trkpt lat="43.51593" lon="6.2471">
        <ele>163.2</ele>
        <time>2023-12-03T09:00:27.000Z</time>
      </trkpt>
      <trkpt lat="43.51593" lon="6.24712">
        <ele>163.3</ele>
        <time>2023-12-03T09:00:28.000Z</time>
      </trkpt>
      <trkpt lat="43.51591" lon="6.24721">
        <ele>164.1</ele>
        <time>2023-12-03T09:00:34.000Z</time>
      </trkpt>
      <trkpt lat="43.5159" lon="6.24726">
        <ele>164.5</ele>
        <time>2023-12-03T09:00:40.000Z</time>
      </trkpt>
      <trkpt lat="43.5159" lon="6.24732">
        <ele>165.2</ele>
        <time>2023-12-03T09:00:48.000Z</time>
      </trkpt>
      <trkpt lat="43.51592" lon="6.24738">
        <ele>165.7</ele>
        <time>2023-12-03T09:00:52.000Z</time>
      </trkpt>
      <trkpt lat="43.51593" lon="6.24743">
        <ele>166</ele>
        <time>2023-12-03T09:00:55.000Z</time>
      </trkpt>
      <trkpt lat="43.5159" lon="6.24748">
        <ele>166.4</ele>
        <time>2023-12-03T09:01:00.000Z</time>
      </trkpt>
      <trkpt lat="43.5159" lon="6.24754">
        <ele>166.8</ele>
        <time>2023-12-03T09:01:07.000Z</time>
      </trkpt>
      <trkpt lat="43.51591" lon="6.2476">
        <ele>167.3</ele>
        <time>2023-12-03T09:01:15.000Z</time>
      </trkpt>
      <trkpt lat="43.51591" lon="6.24766">
        <ele>167.8</ele>
        <time>2023-12-03T09:01:21.000Z</time>
      </trkpt>
      <trkpt lat="43.51591" lon="6.24772">
        <ele>168.3</ele>
        <time>2023-12-03T09:01:29.000Z</time>
      </trkpt>
      <trkpt lat="43.51591" lon="6.24772">
        <ele>168.4</ele>
        <time>2023-12-03T09:01:30.000Z</time>
      </trkpt>
      <trkpt lat="43.51592" lon="6.24783">
        <ele>169.7</ele>
        <time>2023-12-03T09:01:44.000Z</time>
      </trkpt>
      <trkpt lat="43.51592" lon="6.24788">
        <ele>170.4</ele>
        <time>2023-12-03T09:01:49.000Z</time>
      </trkpt>
      <trkpt lat="43.51593" lon="6.24793">
        <ele>170.8</ele>
        <time>2023-12-03T09:01:52.000Z</time>
      </trkpt>
      <trkpt lat="43.51592" lon="6.24797">
        <ele>171</ele>
        <time>2023-12-03T09:01:54.000Z</time>
      </trkpt>
      <trkpt lat="43.51592" lon="6.24802">
        <ele>171.2</ele>
        <time>2023-12-03T09:01:56.000Z</time>
      </trkpt>
      <trkpt lat="43.51591" lon="6.24806">
        <ele>171.4</ele>
        <time>2023-12-03T09:01:58.000Z</time>
      </trkpt>
      <trkpt lat="43.51591" lon="6.24811">
        <ele>171.5</ele>
        <time>2023-12-03T09:02:00.000Z</time>
      </trkpt>
      <trkpt lat="43.5159" lon="6.24816">
        <ele>171.8</ele>
        <time>2023-12-03T09:02:03.000Z</time>
      </trkpt>
      <trkpt lat="43.51586" lon="6.2482">
        <ele>172</ele>
        <time>2023-12-03T09:02:07.000Z</time>
      </trkpt>
      <trkpt lat="43.51582" lon="6.24818">
        <ele>172.8</ele>
        <time>2023-12-03T09:02:16.000Z</time>
      </trkpt>
      <trkpt lat="43.5158" lon="6.24813">
        <ele>173.1</ele>
        <time>2023-12-03T09:02:21.000Z</time>
      </trkpt>
      <trkpt lat="43.51578" lon="6.24809">
        <ele>173.6</ele>
        <time>2023-12-03T09:02:26.000Z</time>
      </trkpt>
      <trkpt lat="43.51576" lon="6.24804">
        <ele>174</ele>
        <time>2023-12-03T09:02:32.000Z</time>
      </trkpt>
      <trkpt lat="43.51576" lon="6.24803">
        <ele>174.1</ele>
        <time>2023-12-03T09:02:33.000Z</time>
      </trkpt>
      <trkpt lat="43.51571" lon="6.24797">
        <ele>175.4</ele>
        <time>2023-12-03T09:02:44.000Z</time>
      </trkpt>
      <trkpt lat="43.51568" lon="6.248">
        <ele>176.2</ele>
        <time>2023-12-03T09:02:50.000Z</time>
      </trkpt>
      <trkpt lat="43.51564" lon="6.24803">
        <ele>177.1</ele>
        <time>2023-12-03T09:02:56.000Z</time>
      </trkpt>
      <trkpt lat="43.51562" lon="6.24808">
        <ele>177.6</ele>
        <time>2023-12-03T09:03:01.000Z</time>
      </trkpt>
      <trkpt lat="43.51561" lon="6.24812">
        <ele>178.1</ele>
        <time>2023-12-03T09:03:06.000Z</time>
      </trkpt>
      <trkpt lat="43.51559" lon="6.24817">
        <ele>178.5</ele>
        <time>2023-12-03T09:03:11.000Z</time>
      </trkpt>
      <trkpt lat="43.51559" lon="6.24823">
        <ele>179.1</ele>
        <time>2023-12-03T09:03:17.000Z</time>
      </trkpt>
      <trkpt lat="43.51557" lon="6.24828">
        <ele>179.6</ele>
        <time>2023-12-03T09:03:22.000Z</time>
      </trkpt>
      <trkpt lat="43.51556" lon="6.24833">
        <ele>180</ele>
        <time>2023-12-03T09:03:26.000Z</time>
      </trkpt>
      <trkpt lat="43.51555" lon="6.24839">
        <ele>180.4</ele>
        <time>2023-12-03T09:03:32.000Z</time>
      </trkpt>
      <trkpt lat="43.51553" lon="6.24843">
        <ele>180.9</ele>
        <time>2023-12-03T09:03:38.000Z</time>
      </trkpt>
      <trkpt lat="43.51552" lon="6.24844">
        <ele>180.9</ele>
        <time>2023-12-03T09:03:39.000Z</time>
      </trkpt>
      <trkpt lat="43.51548" lon="6.24852">
        <ele>182.1</ele>
        <time>2023-12-03T09:03:52.000Z</time>
      </trkpt>
      <trkpt lat="43.51548" lon="6.24857">
        <ele>182.6</ele>
        <time>2023-12-03T09:03:57.000Z</time>
      </trkpt>
      <trkpt lat="43.51549" lon="6.24863">
        <ele>183.5</ele>
        <time>2023-12-03T09:04:04.000Z</time>
      </trkpt>
      <trkpt lat="43.51551" lon="6.24868">
        <ele>184.1</ele>
        <time>2023-12-03T09:04:10.000Z</time>
      </trkpt>
      <trkpt lat="43.51552" lon="6.24873">
        <ele>184.5</ele>
        <time>2023-12-03T09:04:14.000Z</time>
      </trkpt>
      <trkpt lat="43.51554" lon="6.24877">
        <ele>184.9</ele>
        <time>2023-12-03T09:04:18.000Z</time>
      </trkpt>
      <trkpt lat="43.51556" lon="6.24883">
        <ele>185.4</ele>
        <time>2023-12-03T09:04:23.000Z</time>
      </trkpt>
      <trkpt lat="43.51557" lon="6.24888">
        <ele>185.9</ele>
        <time>2023-12-03T09:04:28.000Z</time>
      </trkpt>
      <trkpt lat="43.51559" lon="6.24893">
        <ele>186.6</ele>
        <time>2023-12-03T09:04:34.000Z</time>
      </trkpt>
      <trkpt lat="43.51561" lon="6.24898">
        <ele>187.1</ele>
        <time>2023-12-03T09:04:39.000Z</time>
      </trkpt>
      <trkpt lat="43.51561" lon="6.24899">
        <ele>187.2</ele>
        <time>2023-12-03T09:04:40.000Z</time>
      </trkpt>
      <trkpt lat="43.51562" lon="6.24909">
        <ele>188.5</ele>
        <time>2023-12-03T09:04:52.000Z</time>
      </trkpt>
      <trkpt lat="43.51562" lon="6.24915">
        <ele>189</ele>
        <time>2023-12-03T09:04:57.000Z</time>
      </trkpt>
      <trkpt lat="43.51562" lon="6.2492">
        <ele>189.3</ele>
        <time>2023-12-03T09:05:00.000Z</time>
      </trkpt>
      <trkpt lat="43.51561" lon="6.24926">
        <ele>189.7</ele>
        <time>2023-12-03T09:05:05.000Z</time>
      </trkpt>
      <trkpt lat="43.51561" lon="6.24932">
        <ele>190.1</ele>
        <time>2023-12-03T09:05:10.000Z</time>
      </trkpt>
      <trkpt lat="43.51561" lon="6.24938">
        <ele>190.5</ele>
        <time>2023-12-03T09:05:14.000Z</time>
      </trkpt>
      <trkpt lat="43.51561" lon="6.24942">
        <ele>190.8</ele>
        <time>2023-12-03T09:05:17.000Z</time>
      </trkpt>
      <trkpt lat="43.51561" lon="6.24947">
        <ele>191.1</ele>
        <time>2023-12-03T09:05:20.000Z</time>
      </trkpt>
      <trkpt lat="43.5156" lon="6.24952">
        <ele>191.4</ele>
        <time>2023-12-03T09:05:23.000Z</time>
      </trkpt>
      <trkpt lat="43.51559" lon="6.24957">
        <ele>191.6</ele>
        <time>2023-12-03T09:05:26.000Z</time>
      </trkpt>
      <trkpt lat="43.51558" lon="6.24962">
        <ele>191.8</ele>
        <time>2023-12-03T09:05:30.000Z</time>
      </trkpt>
      <trkpt lat="43.51557" lon="6.24968">
        <ele>192.2</ele>
        <time>2023-12-03T09:05:34.000Z</time>
      </trkpt>
      <trkpt lat="43.51556" lon="6.24973">
        <ele>192.6</ele>
        <time>2023-12-03T09:05:38.000Z</time>
      </trkpt>
      <trkpt lat="43.51555" lon="6.24978">
        <ele>193</ele>
        <time>2023-12-03T09:05:42.000Z</time>
      </trkpt>
      <trkpt lat="43.51555" lon="6.2498">
        <ele>193.1</ele>
        <time>2023-12-03T09:05:43.000Z</time>
      </trkpt>
      <trkpt lat="43.51555" lon="6.2499">
        <ele>193.7</ele>
        <time>2023-12-03T09:05:51.000Z</time>
      </trkpt>
      <trkpt lat="43.51553" lon="6.24994">
        <ele>194</ele>
        <time>2023-12-03T09:05:56.000Z</time>
      </trkpt>
      <trkpt lat="43.51552" lon="6.25">
        <ele>194.4</ele>
        <time>2023-12-03T09:06:01.000Z</time>
      </trkpt>
      <trkpt lat="43.51552" lon="6.25006">
        <ele>194.7</ele>
        <time>2023-12-03T09:06:06.000Z</time>
      </trkpt>
      <trkpt lat="43.51551" lon="6.25011">
        <ele>195</ele>
        <time>2023-12-03T09:06:12.000Z</time>
      </trkpt>
      <trkpt lat="43.5155" lon="6.25017">
        <ele>195.3</ele>
        <time>2023-12-03T09:06:17.000Z</time>
      </trkpt>
      <trkpt lat="43.51548" lon="6.25021">
        <ele>195.6</ele>
        <time>2023-12-03T09:06:20.000Z</time>
      </trkpt>
      <trkpt lat="43.51547" lon="6.25026">
        <ele>195.8</ele>
        <time>2023-12-03T09:06:23.000Z</time>
      </trkpt>
      <trkpt lat="43.51545" lon="6.2503">
        <ele>196</ele>
        <time>2023-12-03T09:06:26.000Z</time>
      </trkpt>
      <trkpt lat="43.51543" lon="6.25034">
        <ele>196.2</ele>
        <time>2023-12-03T09:06:29.000Z</time>
      </trkpt>
      <trkpt lat="43.5154" lon="6.25038">
        <ele>196.5</ele>
        <time>2023-12-03T09:06:34.000Z</time>
      </trkpt>
      <trkpt lat="43.51539" lon="6.25044">
        <ele>196.9</ele>
        <time>2023-12-03T09:06:42.000Z</time>
      </trkpt>
      <trkpt lat="43.51539" lon="6.2505">
        <ele>197.5</ele>
        <time>2023-12-03T09:06:50.000Z</time>
      </trkpt>
      <trkpt lat="43.51538" lon="6.25051">
        <ele>197.6</ele>
        <time>2023-12-03T09:06:51.000Z</time>
      </trkpt>
      <trkpt lat="43.51539" lon="6.25061">
        <ele>198.1</ele>
        <time>2023-12-03T09:06:58.000Z</time>
      </trkpt>
      <trkpt lat="43.51539" lon="6.25066">
        <ele>198.6</ele>
        <time>2023-12-03T09:07:05.000Z</time>
      </trkpt>
      <trkpt lat="43.51537" lon="6.25072">
        <ele>199.6</ele>
        <time>2023-12-03T09:07:14.000Z</time>
      </trkpt>
      <trkpt lat="43.51539" lon="6.25075">
        <ele>200.1</ele>
        <time>2023-12-03T09:07:18.000Z</time>
      </trkpt>
      <trkpt lat="43.51541" lon="6.2508">
        <ele>200.4</ele>
        <time>2023-12-03T09:07:21.000Z</time>
      </trkpt>
      <trkpt lat="43.51545" lon="6.2508">
        <ele>200.8</ele>
        <time>2023-12-03T09:07:27.000Z</time>
      </trkpt>
      <trkpt lat="43.51549" lon="6.25083">
        <ele>201.1</ele>
        <time>2023-12-03T09:07:32.000Z</time>
      </trkpt>
      <trkpt lat="43.51552" lon="6.25086">
        <ele>201.4</ele>
        <time>2023-12-03T09:07:37.000Z</time>
      </trkpt>
      <trkpt lat="43.51556" lon="6.25086">
        <ele>201.7</ele>
        <time>2023-12-03T09:07:41.000Z</time>
      </trkpt>
      <trkpt lat="43.5156" lon="6.25086">
        <ele>202.2</ele>
        <time>2023-12-03T09:07:46.000Z</time>
      </trkpt>
      <trkpt lat="43.51564" lon="6.25086">
        <ele>202.7</ele>
        <time>2023-12-03T09:07:51.000Z</time>
      </trkpt>
      <trkpt lat="43.51565" lon="6.25086">
        <ele>202.8</ele>
        <time>2023-12-03T09:07:52.000Z</time>
      </trkpt>
      <trkpt lat="43.51572" lon="6.25087">
        <ele>203.5</ele>
        <time>2023-12-03T09:08:02.000Z</time>
      </trkpt>
      <trkpt lat="43.51576" lon="6.25087">
        <ele>203.8</ele>
        <time>2023-12-03T09:08:07.000Z</time>
      </trkpt>
      <trkpt lat="43.5158" lon="6.25088">
        <ele>204.1</ele>
        <time>2023-12-03T09:08:13.000Z</time>
      </trkpt>
      <trkpt lat="43.51583" lon="6.2509">
        <ele>204.3</ele>
        <time>2023-12-03T09:08:17.000Z</time>
      </trkpt>
      <trkpt lat="43.51587" lon="6.25093">
        <ele>204.8</ele>
        <time>2023-12-03T09:08:22.000Z</time>
      </trkpt>
      <trkpt lat="43.51591" lon="6.25095">
        <ele>205.1</ele>
        <time>2023-12-03T09:08:27.000Z</time>
      </trkpt>
      <trkpt lat="43.51595" lon="6.25097">
        <ele>205.4</ele>
        <time>2023-12-03T09:08:31.000Z</time>
      </trkpt>
      <trkpt lat="43.51599" lon="6.25098">
        <ele>205.7</ele>
        <time>2023-12-03T09:08:36.000Z</time>
      </trkpt>
      <trkpt lat="43.51603" lon="6.25101">
        <ele>205.8</ele>
        <time>2023-12-03T09:08:40.000Z</time>
      </trkpt>
      <trkpt lat="43.51607" lon="6.25102">
        <ele>206.1</ele>
        <time>2023-12-03T09:08:45.000Z</time>
      </trkpt>
      <trkpt lat="43.5161" lon="6.25105">
        <ele>206.3</ele>
        <time>2023-12-03T09:08:49.000Z</time>
      </trkpt>
      <trkpt lat="43.51613" lon="6.25108">
        <ele>206.5</ele>
        <time>2023-12-03T09:08:52.000Z</time>
      </trkpt>
      <trkpt lat="43.51614" lon="6.25109">
        <ele>206.6</ele>
        <time>2023-12-03T09:08:53.000Z</time>
      </trkpt>
      <trkpt lat="43.51619" lon="6.25117">
        <ele>207.1</ele>
        <time>2023-12-03T09:09:00.000Z</time>
      </trkpt>
      <trkpt lat="43.51621" lon="6.25121">
        <ele>207.5</ele>
        <time>2023-12-03T09:09:04.000Z</time>
      </trkpt>
      <trkpt lat="43.51622" lon="6.25126">
        <ele>207.9</ele>
        <time>2023-12-03T09:09:08.000Z</time>
      </trkpt>
      <trkpt lat="43.51624" lon="6.25132">
        <ele>208.1</ele>
        <time>2023-12-03T09:09:12.000Z</time>
      </trkpt>
      <trkpt lat="43.51627" lon="6.25136">
        <ele>208.5</ele>
        <time>2023-12-03T09:09:18.000Z</time>
      </trkpt>
      <trkpt lat="43.51629" lon="6.25141">
        <ele>208.9</ele>
        <time>2023-12-03T09:09:23.000Z</time>
      </trkpt>
      <trkpt lat="43.51631" lon="6.25145">
        <ele>209.4</ele>
        <time>2023-12-03T09:09:27.000Z</time>
      </trkpt>
      <trkpt lat="43.51632" lon="6.25151">
        <ele>209.8</ele>
        <time>2023-12-03T09:09:31.000Z</time>
      </trkpt>
      <trkpt lat="43.51634" lon="6.25156">
        <ele>210.3</ele>
        <time>2023-12-03T09:09:36.000Z</time>
      </trkpt>
      <trkpt lat="43.51635" lon="6.25162">
        <ele>210.7</ele>
        <time>2023-12-03T09:09:41.000Z</time>
      </trkpt>
      <trkpt lat="43.51635" lon="6.25167">
        <ele>211.1</ele>
        <time>2023-12-03T09:09:45.000Z</time>
      </trkpt>
      <trkpt lat="43.51636" lon="6.25171">
        <ele>211.5</ele>
        <time>2023-12-03T09:09:48.000Z</time>
      </trkpt>
      <trkpt lat="43.51637" lon="6.25177">
        <ele>212.1</ele>
        <time>2023-12-03T09:09:53.000Z</time>
      </trkpt>
      <trkpt lat="43.51637" lon="6.25178">
        <ele>212.2</ele>
        <time>2023-12-03T09:09:54.000Z</time>
      </trkpt>
      <trkpt lat="43.5164" lon="6.25189">
        <ele>213.4</ele>
        <time>2023-12-03T09:10:08.000Z</time>
      </trkpt>
      <trkpt lat="43.5164" lon="6.25194">
        <ele>213.8</ele>
        <time>2023-12-03T09:10:13.000Z</time>
      </trkpt>
      <trkpt lat="43.51641" lon="6.252">
        <ele>214.3</ele>
        <time>2023-12-03T09:10:18.000Z</time>
      </trkpt>
      <trkpt lat="43.51642" lon="6.25205">
        <ele>214.8</ele>
        <time>2023-12-03T09:10:23.000Z</time>
      </trkpt>
      <trkpt lat="43.51644" lon="6.2521">
        <ele>215.2</ele>
        <time>2023-12-03T09:10:27.000Z</time>
      </trkpt>
      <trkpt lat="43.51644" lon="6.25216">
        <ele>215.4</ele>
        <time>2023-12-03T09:10:31.000Z</time>
      </trkpt>
      <trkpt lat="43.51646" lon="6.2522">
        <ele>215.7</ele>
        <time>2023-12-03T09:10:35.000Z</time>
      </trkpt>
      <trkpt lat="43.51647" lon="6.25225">
        <ele>216.1</ele>
        <time>2023-12-03T09:10:39.000Z</time>
      </trkpt>
      <trkpt lat="43.51647" lon="6.2523">
        <ele>216.5</ele>
        <time>2023-12-03T09:10:44.000Z</time>
      </trkpt>
      <trkpt lat="43.51648" lon="6.25236">
        <ele>216.7</ele>
        <time>2023-12-03T09:10:48.000Z</time>
      </trkpt>
      <trkpt lat="43.51649" lon="6.25242">
        <ele>217.1</ele>
        <time>2023-12-03T09:10:53.000Z</time>
      </trkpt>
      <trkpt lat="43.51649" lon="6.25246">
        <ele>217.4</ele>
        <time>2023-12-03T09:10:57.000Z</time>
      </trkpt>
      <trkpt lat="43.51649" lon="6.25248">
        <ele>217.4</ele>
        <time>2023-12-03T09:10:58.000Z</time>
      </trkpt>
      <trkpt lat="43.51649" lon="6.25257">
        <ele>217.9</ele>
        <time>2023-12-03T09:11:05.000Z</time>
      </trkpt>
      <trkpt lat="43.51649" lon="6.25263">
        <ele>218.2</ele>
        <time>2023-12-03T09:11:09.000Z</time>
      </trkpt>
      <trkpt lat="43.51648" lon="6.25269">
        <ele>218.7</ele>
        <time>2023-12-03T09:11:14.000Z</time>
      </trkpt>
      <trkpt lat="43.51647" lon="6.25274">
        <ele>219.2</ele>
        <time>2023-12-03T09:11:19.000Z</time>
      </trkpt>
      <trkpt lat="43.51647" lon="6.2528">
        <ele>219.5</ele>
        <time>2023-12-03T09:11:23.000Z</time>
      </trkpt>
      <trkpt lat="43.51646" lon="6.25286">
        <ele>219.8</ele>
        <time>2023-12-03T09:11:28.000Z</time>
      </trkpt>
      <trkpt lat="43.51646" lon="6.2529">
        <ele>220.3</ele>
        <time>2023-12-03T09:11:32.000Z</time>
      </trkpt>
      <trkpt lat="43.51644" lon="6.25295">
        <ele>220.8</ele>
        <time>2023-12-03T09:11:36.000Z</time>
      </trkpt>
      <trkpt lat="43.51643" lon="6.25301">
        <ele>221.2</ele>
        <time>2023-12-03T09:11:41.000Z</time>
      </trkpt>
      <trkpt lat="43.51642" lon="6.25307">
        <ele>221.4</ele>
        <time>2023-12-03T09:11:45.000Z</time>
      </trkpt>
      <trkpt lat="43.51641" lon="6.25312">
        <ele>221.7</ele>
        <time>2023-12-03T09:11:49.000Z</time>
      </trkpt>
      <trkpt lat="43.51641" lon="6.25317">
        <ele>221.9</ele>
        <time>2023-12-03T09:11:52.000Z</time>
      </trkpt>
      <trkpt lat="43.51641" lon="6.25322">
        <ele>222.1</ele>
        <time>2023-12-03T09:11:55.000Z</time>
      </trkpt>
      <trkpt lat="43.51641" lon="6.25328">
        <ele>222.3</ele>
        <time>2023-12-03T09:11:58.000Z</time>
      </trkpt>
      <trkpt lat="43.51641" lon="6.2533">
        <ele>222.3</ele>
        <time>2023-12-03T09:11:59.000Z</time>
      </trkpt>
      <trkpt lat="43.51639" lon="6.25339">
        <ele>222.9</ele>
        <time>2023-12-03T09:12:05.000Z</time>
      </trkpt>
      <trkpt lat="43.51637" lon="6.25344">
        <ele>223.3</ele>
        <time>2023-12-03T09:12:10.000Z</time>
      </trkpt>
      <trkpt lat="43.51636" lon="6.2535">
        <ele>223.7</ele>
        <time>2023-12-03T09:12:15.000Z</time>
      </trkpt>
      <trkpt lat="43.51635" lon="6.25355">
        <ele>223.9</ele>
        <time>2023-12-03T09:12:20.000Z</time>
      </trkpt>
      <trkpt lat="43.51634" lon="6.25361">
        <ele>224.1</ele>
        <time>2023-12-03T09:12:23.000Z</time>
      </trkpt>
      <trkpt lat="43.51632" lon="6.25366">
        <ele>224.2</ele>
        <time>2023-12-03T09:12:26.000Z</time>
      </trkpt>
      <trkpt lat="43.5163" lon="6.2537">
        <ele>224.4</ele>
        <time>2023-12-03T09:12:30.000Z</time>
      </trkpt>
      <trkpt lat="43.51628" lon="6.25375">
        <ele>224.7</ele>
        <time>2023-12-03T09:12:34.000Z</time>
      </trkpt>
      <trkpt lat="43.51629" lon="6.25381">
        <ele>225.2</ele>
        <time>2023-12-03T09:12:39.000Z</time>
      </trkpt>
      <trkpt lat="43.51627" lon="6.25386">
        <ele>225.5</ele>
        <time>2023-12-03T09:12:43.000Z</time>
      </trkpt>
      <trkpt lat="43.51625" lon="6.25391">
        <ele>225.9</ele>
        <time>2023-12-03T09:12:47.000Z</time>
      </trkpt>
      <trkpt lat="43.51623" lon="6.25395">
        <ele>226.2</ele>
        <time>2023-12-03T09:12:50.000Z</time>
      </trkpt>
      <trkpt lat="43.5162" lon="6.254">
        <ele>226.6</ele>
        <time>2023-12-03T09:12:54.000Z</time>
      </trkpt>
      <trkpt lat="43.5162" lon="6.25405">
        <ele>226.9</ele>
        <time>2023-12-03T09:12:57.000Z</time>
      </trkpt>
      <trkpt lat="43.51618" lon="6.25409">
        <ele>227.2</ele>
        <time>2023-12-03T09:13:00.000Z</time>
      </trkpt>
      <trkpt lat="43.51617" lon="6.2541">
        <ele>227.2</ele>
        <time>2023-12-03T09:13:01.000Z</time>
      </trkpt>
      <trkpt lat="43.51612" lon="6.25416">
        <ele>227.8</ele>
        <time>2023-12-03T09:13:08.000Z</time>
      </trkpt>
      <trkpt lat="43.51609" lon="6.2542">
        <ele>228.2</ele>
        <time>2023-12-03T09:13:13.000Z</time>
      </trkpt>
      <trkpt lat="43.51607" lon="6.25425">
        <ele>228.5</ele>
        <time>2023-12-03T09:13:18.000Z</time>
      </trkpt>
      <trkpt lat="43.51604" lon="6.25429">
        <ele>228.8</ele>
        <time>2023-12-03T09:13:23.000Z</time>
      </trkpt>
      <trkpt lat="43.51601" lon="6.25433">
        <ele>229.2</ele>
        <time>2023-12-03T09:13:28.000Z</time>
      </trkpt>
      <trkpt lat="43.51598" lon="6.25437">
        <ele>229.5</ele>
        <time>2023-12-03T09:13:34.000Z</time>
      </trkpt>
      <trkpt lat="43.51596" lon="6.25441">
        <ele>229.8</ele>
        <time>2023-12-03T09:13:39.000Z</time>
      </trkpt>
      <trkpt lat="43.51596" lon="6.25447">
        <ele>230</ele>
        <time>2023-12-03T09:13:45.000Z</time>
      </trkpt>
      <trkpt lat="43.51593" lon="6.25451">
        <ele>230.3</ele>
        <time>2023-12-03T09:13:49.000Z</time>
      </trkpt>
      <trkpt lat="43.51591" lon="6.25456">
        <ele>230.5</ele>
        <time>2023-12-03T09:13:53.000Z</time>
      </trkpt>
      <trkpt lat="43.5159" lon="6.25462">
        <ele>230.7</ele>
        <time>2023-12-03T09:13:57.000Z</time>
      </trkpt>
      <trkpt lat="43.5159" lon="6.25468">
        <ele>230.9</ele>
        <time>2023-12-03T09:14:02.000Z</time>
      </trkpt>
      <trkpt lat="43.5159" lon="6.2547">
        <ele>231</ele>
        <time>2023-12-03T09:14:03.000Z</time>
      </trkpt>
      <trkpt lat="43.51589" lon="6.2548">
        <ele>231.6</ele>
        <time>2023-12-03T09:14:11.000Z</time>
      </trkpt>
      <trkpt lat="43.51588" lon="6.25485">
        <ele>232</ele>
        <time>2023-12-03T09:14:16.000Z</time>
      </trkpt>
      <trkpt lat="43.51589" lon="6.2549">
        <ele>232.1</ele>
        <time>2023-12-03T09:14:19.000Z</time>
      </trkpt>
      <trkpt lat="43.5159" lon="6.25496">
        <ele>232.3</ele>
        <time>2023-12-03T09:14:24.000Z</time>
      </trkpt>
      <trkpt lat="43.5159" lon="6.25501">
        <ele>232.6</ele>
        <time>2023-12-03T09:14:28.000Z</time>
      </trkpt>
      <trkpt lat="43.51591" lon="6.25508">
        <ele>233</ele>
        <time>2023-12-03T09:14:32.000Z</time>
      </trkpt>
      <trkpt lat="43.51591" lon="6.25512">
        <ele>233.3</ele>
        <time>2023-12-03T09:14:35.000Z</time>
      </trkpt>
      <trkpt lat="43.51591" lon="6.25518">
        <ele>233.5</ele>
        <time>2023-12-03T09:14:38.000Z</time>
      </trkpt>
      <trkpt lat="43.5159" lon="6.25524">
        <ele>233.8</ele>
        <time>2023-12-03T09:14:43.000Z</time>
      </trkpt>
      <trkpt lat="43.51589" lon="6.2553">
        <ele>234.3</ele>
        <time>2023-12-03T09:14:49.000Z</time>
      </trkpt>
      <trkpt lat="43.51588" lon="6.25535">
        <ele>234.6</ele>
        <time>2023-12-03T09:14:54.000Z</time>
      </trkpt>
      <trkpt lat="43.51587" lon="6.2554">
        <ele>234.9</ele>
        <time>2023-12-03T09:14:58.000Z</time>
      </trkpt>
      <trkpt lat="43.51585" lon="6.25545">
        <ele>235.1</ele>
        <time>2023-12-03T09:15:02.000Z</time>
      </trkpt>
      <trkpt lat="43.51584" lon="6.25551">
        <ele>235.3</ele>
        <time>2023-12-03T09:15:06.000Z</time>
      </trkpt>
      <trkpt lat="43.51584" lon="6.25552">
        <ele>235.4</ele>
        <time>2023-12-03T09:15:07.000Z</time>
      </trkpt>
      <trkpt lat="43.51583" lon="6.2556">
        <ele>235.6</ele>
        <time>2023-12-03T09:15:12.000Z</time>
      </trkpt>
      <trkpt lat="43.51581" lon="6.25565">
        <ele>236</ele>
        <time>2023-12-03T09:15:18.000Z</time>
      </trkpt>
      <trkpt lat="43.51581" lon="6.2557">
        <ele>236.1</ele>
        <time>2023-12-03T09:15:21.000Z</time>
      </trkpt>
      <trkpt lat="43.5158" lon="6.25575">
        <ele>236.3</ele>
        <time>2023-12-03T09:15:24.000Z</time>
      </trkpt>
      <trkpt lat="43.5158" lon="6.25581">
        <ele>236.5</ele>
        <time>2023-12-03T09:15:27.000Z</time>
      </trkpt>
      <trkpt lat="43.51579" lon="6.25585">
        <ele>236.8</ele>
        <time>2023-12-03T09:15:31.000Z</time>
      </trkpt>
      <trkpt lat="43.51577" lon="6.2559">
        <ele>236.9</ele>
        <time>2023-12-03T09:15:34.000Z</time>
      </trkpt>
      <trkpt lat="43.51576" lon="6.25596">
        <ele>237.1</ele>
        <time>2023-12-03T09:15:38.000Z</time>
      </trkpt>
      <trkpt lat="43.51574" lon="6.25601">
        <ele>237.3</ele>
        <time>2023-12-03T09:15:42.000Z</time>
      </trkpt>
      <trkpt lat="43.51572" lon="6.25597">
        <ele>238</ele>
        <time>2023-12-03T09:16:51.000Z</time>
      </trkpt>
      <trkpt lat="43.51571" lon="6.25597">
        <ele>238</ele>
        <time>2023-12-03T09:16:52.000Z</time>
      </trkpt>
      <trkpt lat="43.51568" lon="6.25604">
        <ele>237.6</ele>
        <time>2023-12-03T09:18:01.000Z</time>
      </trkpt>
      <trkpt lat="43.51567" lon="6.25605">
        <ele>237.6</ele>
        <time>2023-12-03T09:18:02.000Z</time>
      </trkpt>
      <trkpt lat="43.51567" lon="6.25615">
        <ele>237.7</ele>
        <time>2023-12-03T09:18:11.000Z</time>
      </trkpt>
      <trkpt lat="43.51567" lon="6.25621">
        <ele>237.7</ele>
        <time>2023-12-03T09:18:16.000Z</time>
      </trkpt>
      <trkpt lat="43.51566" lon="6.25627">
        <ele>238</ele>
        <time>2023-12-03T09:18:21.000Z</time>
      </trkpt>
      <trkpt lat="43.51567" lon="6.25631">
        <ele>238.1</ele>
        <time>2023-12-03T09:18:25.000Z</time>
      </trkpt>
      <trkpt lat="43.51567" lon="6.25638">
        <ele>238.3</ele>
        <time>2023-12-03T09:18:31.000Z</time>
      </trkpt>
      <trkpt lat="43.51569" lon="6.25643">
        <ele>238.6</ele>
        <time>2023-12-03T09:18:40.000Z</time>
      </trkpt>
      <trkpt lat="43.51571" lon="6.25648">
        <ele>238.7</ele>
        <time>2023-12-03T09:18:50.000Z</time>
      </trkpt>
      <trkpt lat="43.51571" lon="6.25654">
        <ele>238.8</ele>
        <time>2023-12-03T09:18:57.000Z</time>
      </trkpt>
      <trkpt lat="43.51572" lon="6.2566">
        <ele>239.1</ele>
        <time>2023-12-03T09:19:04.000Z</time>
      </trkpt>
      <trkpt lat="43.51572" lon="6.2566">
        <ele>239.2</ele>
        <time>2023-12-03T09:19:05.000Z</time>
      </trkpt>
      <trkpt lat="43.51575" lon="6.25671">
        <ele>239.8</ele>
        <time>2023-12-03T09:19:20.000Z</time>
      </trkpt>
      <trkpt lat="43.51576" lon="6.25675">
        <ele>239.9</ele>
        <time>2023-12-03T09:19:22.000Z</time>
      </trkpt>
      <trkpt lat="43.51577" lon="6.2568">
        <ele>240</ele>
        <time>2023-12-03T09:19:24.000Z</time>
      </trkpt>
      <trkpt lat="43.51577" lon="6.25685">
        <ele>240.1</ele>
        <time>2023-12-03T09:19:27.000Z</time>
      </trkpt>
      <trkpt lat="43.51578" lon="6.25689">
        <ele>240.1</ele>
        <time>2023-12-03T09:19:30.000Z</time>
      </trkpt>
      <trkpt lat="43.51579" lon="6.25695">
        <ele>240.3</ele>
        <time>2023-12-03T09:19:34.000Z</time>
      </trkpt>
      <trkpt lat="43.5158" lon="6.25701">
        <ele>240.6</ele>
        <time>2023-12-03T09:19:39.000Z</time>
      </trkpt>
      <trkpt lat="43.51582" lon="6.25706">
        <ele>240.9</ele>
        <time>2023-12-03T09:19:45.000Z</time>
      </trkpt>
      <trkpt lat="43.51584" lon="6.25711">
        <ele>241.6</ele>
        <time>2023-12-03T09:19:55.000Z</time>
      </trkpt>
      <trkpt lat="43.51585" lon="6.25716">
        <ele>241.9</ele>
        <time>2023-12-03T09:19:59.000Z</time>
      </trkpt>
      <trkpt lat="43.51585" lon="6.25721">
        <ele>242.2</ele>
        <time>2023-12-03T09:20:02.000Z</time>
      </trkpt>
      <trkpt lat="43.51586" lon="6.25726">
        <ele>242.3</ele>
        <time>2023-12-03T09:20:05.000Z</time>
      </trkpt>
      <trkpt lat="43.51586" lon="6.25727">
        <ele>242.4</ele>
        <time>2023-12-03T09:20:06.000Z</time>
      </trkpt>
      <trkpt lat="43.51587" lon="6.25737">
        <ele>242.7</ele>
        <time>2023-12-03T09:20:13.000Z</time>
      </trkpt>
      <trkpt lat="43.51588" lon="6.25742">
        <ele>242.8</ele>
        <time>2023-12-03T09:20:16.000Z</time>
      </trkpt>
      <trkpt lat="43.51589" lon="6.25747">
        <ele>243</ele>
        <time>2023-12-03T09:20:20.000Z</time>
      </trkpt>
      <trkpt lat="43.5159" lon="6.25753">
        <ele>243.3</ele>
        <time>2023-12-03T09:20:24.000Z</time>
      </trkpt>
      <trkpt lat="43.51591" lon="6.25758">
        <ele>243.7</ele>
        <time>2023-12-03T09:20:30.000Z</time>
      </trkpt>
      <trkpt lat="43.51591" lon="6.25763">
        <ele>244.2</ele>
        <time>2023-12-03T09:20:37.000Z</time>
      </trkpt>
      <trkpt lat="43.5159" lon="6.25769">
        <ele>244.6</ele>
        <time>2023-12-03T09:20:42.000Z</time>
      </trkpt>
      <trkpt lat="43.51591" lon="6.25775">
        <ele>244.9</ele>
        <time>2023-12-03T09:20:47.000Z</time>
      </trkpt>
      <trkpt lat="43.51591" lon="6.25781">
        <ele>245.4</ele>
        <time>2023-12-03T09:20:52.000Z</time>
      </trkpt>
      <trkpt lat="43.51592" lon="6.25786">
        <ele>245.7</ele>
        <time>2023-12-03T09:20:57.000Z</time>
      </trkpt>
      <trkpt lat="43.51593" lon="6.25791">
        <ele>246</ele>
        <time>2023-12-03T09:21:01.000Z</time>
      </trkpt>
      <trkpt lat="43.51594" lon="6.25797">
        <ele>246.2</ele>
        <time>2023-12-03T09:21:06.000Z</time>
      </trkpt>
      <trkpt lat="43.51594" lon="6.25798">
        <ele>246.3</ele>
        <time>2023-12-03T09:21:07.000Z</time>
      </trkpt>
      <trkpt lat="43.51595" lon="6.25806">
        <ele>246.5</ele>
        <time>2023-12-03T09:21:14.000Z</time>
      </trkpt>
      <trkpt lat="43.51596" lon="6.25812">
        <ele>246.6</ele>
        <time>2023-12-03T09:21:17.000Z</time>
      </trkpt>
      <trkpt lat="43.51597" lon="6.25817">
        <ele>246.8</ele>
        <time>2023-12-03T09:21:20.000Z</time>
      </trkpt>
      <trkpt lat="43.51598" lon="6.25822">
        <ele>247</ele>
        <time>2023-12-03T09:21:24.000Z</time>
      </trkpt>
      <trkpt lat="43.51599" lon="6.25826">
        <ele>247.2</ele>
        <time>2023-12-03T09:21:27.000Z</time>
      </trkpt>
      <trkpt lat="43.516" lon="6.25831">
        <ele>247.6</ele>
        <time>2023-12-03T09:21:30.000Z</time>
      </trkpt>
      <trkpt lat="43.51601" lon="6.25837">
        <ele>248</ele>
        <time>2023-12-03T09:21:34.000Z</time>
      </trkpt>
      <trkpt lat="43.51601" lon="6.25842">
        <ele>248.5</ele>
        <time>2023-12-03T09:21:39.000Z</time>
      </trkpt>
      <trkpt lat="43.51601" lon="6.25847">
        <ele>248.7</ele>
        <time>2023-12-03T09:21:43.000Z</time>
      </trkpt>
      <trkpt lat="43.51602" lon="6.25852">
        <ele>248.9</ele>
        <time>2023-12-03T09:21:47.000Z</time>
      </trkpt>
      <trkpt lat="43.51603" lon="6.25858">
        <ele>249.2</ele>
        <time>2023-12-03T09:21:51.000Z</time>
      </trkpt>
      <trkpt lat="43.51605" lon="6.25863">
        <ele>249.6</ele>
        <time>2023-12-03T09:21:56.000Z</time>
      </trkpt>
      <trkpt lat="43.51606" lon="6.25869">
        <ele>249.8</ele>
        <time>2023-12-03T09:22:00.000Z</time>
      </trkpt>
      <trkpt lat="43.51608" lon="6.25873">
        <ele>250</ele>
        <time>2023-12-03T09:22:03.000Z</time>
      </trkpt>
      <trkpt lat="43.5161" lon="6.25879">
        <ele>250.1</ele>
        <time>2023-12-03T09:22:06.000Z</time>
      </trkpt>
      <trkpt lat="43.51611" lon="6.25883">
        <ele>250.4</ele>
        <time>2023-12-03T09:22:09.000Z</time>
      </trkpt>
      <trkpt lat="43.51612" lon="6.25884">
        <ele>250.4</ele>
        <time>2023-12-03T09:22:10.000Z</time>
      </trkpt>
      <trkpt lat="43.51616" lon="6.25892">
        <ele>250.9</ele>
        <time>2023-12-03T09:22:17.000Z</time>
      </trkpt>
      <trkpt lat="43.51618" lon="6.25896">
        <ele>251.1</ele>
        <time>2023-12-03T09:22:21.000Z</time>
      </trkpt>
      <trkpt lat="43.51621" lon="6.25901">
        <ele>251.2</ele>
        <time>2023-12-03T09:22:25.000Z</time>
      </trkpt>
      <trkpt lat="43.51624" lon="6.25906">
        <ele>251.6</ele>
        <time>2023-12-03T09:22:29.000Z</time>
      </trkpt>
      <trkpt lat="43.51626" lon="6.2591">
        <ele>251.9</ele>
        <time>2023-12-03T09:22:33.000Z</time>
      </trkpt>
      <trkpt lat="43.51629" lon="6.25915">
        <ele>252.1</ele>
        <time>2023-12-03T09:22:37.000Z</time>
      </trkpt>
      <trkpt lat="43.51631" lon="6.2592">
        <ele>252.3</ele>
        <time>2023-12-03T09:22:41.000Z</time>
      </trkpt>
      <trkpt lat="43.51634" lon="6.25925">
        <ele>252.8</ele>
        <time>2023-12-03T09:22:47.000Z</time>
      </trkpt>
      <trkpt lat="43.51634" lon="6.2593">
        <ele>253.3</ele>
        <time>2023-12-03T09:22:52.000Z</time>
      </trkpt>
      <trkpt lat="43.51634" lon="6.25935">
        <ele>253.6</ele>
        <time>2023-12-03T09:22:56.000Z</time>
      </trkpt>
      <trkpt lat="43.51633" lon="6.25941">
        <ele>253.8</ele>
        <time>2023-12-03T09:23:00.000Z</time>
      </trkpt>
      <trkpt lat="43.51632" lon="6.25946">
        <ele>254.1</ele>
        <time>2023-12-03T09:23:04.000Z</time>
      </trkpt>
      <trkpt lat="43.51632" lon="6.25951">
        <ele>254.4</ele>
        <time>2023-12-03T09:23:07.000Z</time>
      </trkpt>
      <trkpt lat="43.51633" lon="6.25956">
        <ele>254.6</ele>
        <time>2023-12-03T09:23:10.000Z</time>
      </trkpt>
      <trkpt lat="43.51634" lon="6.25957">
        <ele>254.6</ele>
        <time>2023-12-03T09:23:11.000Z</time>
      </trkpt>
      <trkpt lat="43.51633" lon="6.25966">
        <ele>255.2</ele>
        <time>2023-12-03T09:23:17.000Z</time>
      </trkpt>
      <trkpt lat="43.51631" lon="6.25972">
        <ele>255.6</ele>
        <time>2023-12-03T09:23:21.000Z</time>
      </trkpt>
      <trkpt lat="43.5163" lon="6.25977">
        <ele>256</ele>
        <time>2023-12-03T09:23:26.000Z</time>
      </trkpt>
      <trkpt lat="43.51626" lon="6.2598">
        <ele>257.1</ele>
        <time>2023-12-03T09:23:41.000Z</time>
      </trkpt>
      <trkpt lat="43.51622" lon="6.25983">
        <ele>258.3</ele>
        <time>2023-12-03T09:24:45.000Z</time>
      </trkpt>
      <trkpt lat="43.51622" lon="6.25984">
        <ele>258.3</ele>
        <time>2023-12-03T09:24:46.000Z</time>
      </trkpt>
      <trkpt lat="43.51621" lon="6.25994">
        <ele>258.4</ele>
        <time>2023-12-03T09:24:58.000Z</time>
      </trkpt>
      <trkpt lat="43.51621" lon="6.25999">
        <ele>258.4</ele>
        <time>2023-12-03T09:25:02.000Z</time>
      </trkpt>
      <trkpt lat="43.51621" lon="6.26005">
        <ele>258.4</ele>
        <time>2023-12-03T09:25:06.000Z</time>
      </trkpt>
      <trkpt lat="43.51617" lon="6.26007">
        <ele>258.5</ele>
        <time>2023-12-03T09:25:14.000Z</time>
      </trkpt>
      <trkpt lat="43.51613" lon="6.2601">
        <ele>258.6</ele>
        <time>2023-12-03T09:25:18.000Z</time>
      </trkpt>
      <trkpt lat="43.5161" lon="6.26012">
        <ele>258.7</ele>
        <time>2023-12-03T09:25:21.000Z</time>
      </trkpt>
      <trkpt lat="43.51606" lon="6.26015">
        <ele>258.8</ele>
        <time>2023-12-03T09:25:26.000Z</time>
      </trkpt>
      <trkpt lat="43.51604" lon="6.26018">
        <ele>258.9</ele>
        <time>2023-12-03T09:25:30.000Z</time>
      </trkpt>
      <trkpt lat="43.51601" lon="6.26021">
        <ele>258.9</ele>
        <time>2023-12-03T09:25:34.000Z</time>
      </trkpt>
      <trkpt lat="43.51598" lon="6.26024">
        <ele>259</ele>
        <time>2023-12-03T09:25:38.000Z</time>
      </trkpt>
      <trkpt lat="43.51596" lon="6.26029">
        <ele>259.1</ele>
        <time>2023-12-03T09:25:43.000Z</time>
      </trkpt>
      <trkpt lat="43.51592" lon="6.26033">
        <ele>259.3</ele>
        <time>2023-12-03T09:25:50.000Z</time>
      </trkpt>
      <trkpt lat="43.51591" lon="6.26033">
        <ele>259.3</ele>
        <time>2023-12-03T09:25:51.000Z</time>
      </trkpt>
      <trkpt lat="43.51584" lon="6.26034">
        <ele>259.6</ele>
        <time>2023-12-03T09:25:59.000Z</time>
      </trkpt>
      <trkpt lat="43.5158" lon="6.26035">
        <ele>259.7</ele>
        <time>2023-12-03T09:26:02.000Z</time>
      </trkpt>
      <trkpt lat="43.51576" lon="6.26037">
        <ele>260</ele>
        <time>2023-12-03T09:26:06.000Z</time>
      </trkpt>
      <trkpt lat="43.51572" lon="6.26038">
        <ele>260.2</ele>
        <time>2023-12-03T09:26:10.000Z</time>
      </trkpt>
      <trkpt lat="43.51568" lon="6.2604">
        <ele>260.3</ele>
        <time>2023-12-03T09:26:14.000Z</time>
      </trkpt>
      <trkpt lat="43.51564" lon="6.26041">
        <ele>260.5</ele>
        <time>2023-12-03T09:26:18.000Z</time>
      </trkpt>
      <trkpt lat="43.5156" lon="6.26041">
        <ele>260.7</ele>
        <time>2023-12-03T09:26:22.000Z</time>
      </trkpt>
      <trkpt lat="43.51556" lon="6.26042">
        <ele>260.9</ele>
        <time>2023-12-03T09:26:25.000Z</time>
      </trkpt>
      <trkpt lat="43.51552" lon="6.26043">
        <ele>261.3</ele>
        <time>2023-12-03T09:26:29.000Z</time>
      </trkpt>
      <trkpt lat="43.51548" lon="6.26043">
        <ele>261.6</ele>
        <time>2023-12-03T09:26:33.000Z</time>
      </trkpt>
      <trkpt lat="43.51544" lon="6.26044">
        <ele>262</ele>
        <time>2023-12-03T09:26:38.000Z</time>
      </trkpt>
      <trkpt lat="43.51541" lon="6.26045">
        <ele>262.3</ele>
        <time>2023-12-03T09:26:41.000Z</time>
      </trkpt>
      <trkpt lat="43.51537" lon="6.26044">
        <ele>262.6</ele>
        <time>2023-12-03T09:26:45.000Z</time>
      </trkpt>
      <trkpt lat="43.51534" lon="6.26044">
        <ele>263.1</ele>
        <time>2023-12-03T09:26:49.000Z</time>
      </trkpt>
      <trkpt lat="43.51529" lon="6.26044">
        <ele>263.6</ele>
        <time>2023-12-03T09:26:53.000Z</time>
      </trkpt>
      <trkpt lat="43.51528" lon="6.26044">
        <ele>263.7</ele>
        <time>2023-12-03T09:26:54.000Z</time>
      </trkpt>
      <trkpt lat="43.51521" lon="6.26044">
        <ele>264.3</ele>
        <time>2023-12-03T09:27:02.000Z</time>
      </trkpt>
      <trkpt lat="43.51517" lon="6.26043">
        <ele>264.5</ele>
        <time>2023-12-03T09:27:06.000Z</time>
      </trkpt>
      <trkpt lat="43.51513" lon="6.26043">
        <ele>264.7</ele>
        <time>2023-12-03T09:27:09.000Z</time>
      </trkpt>
      <trkpt lat="43.5151" lon="6.26043">
        <ele>264.8</ele>
        <time>2023-12-03T09:27:11.000Z</time>
      </trkpt>
      <trkpt lat="43.51507" lon="6.26044">
        <ele>265</ele>
        <time>2023-12-03T09:27:14.000Z</time>
      </trkpt>
      <trkpt lat="43.51502" lon="6.26045">
        <ele>265.1</ele>
        <time>2023-12-03T09:27:17.000Z</time>
      </trkpt>
      <trkpt lat="43.51498" lon="6.26048">
        <ele>265.2</ele>
        <time>2023-12-03T09:27:21.000Z</time>
      </trkpt>
      <trkpt lat="43.51496" lon="6.26053">
        <ele>265.3</ele>
        <time>2023-12-03T09:27:26.000Z</time>
      </trkpt>
      <trkpt lat="43.51496" lon="6.26059">
        <ele>265.4</ele>
        <time>2023-12-03T09:27:31.000Z</time>
      </trkpt>
      <trkpt lat="43.51495" lon="6.26064">
        <ele>265.5</ele>
        <time>2023-12-03T09:27:37.000Z</time>
      </trkpt>
      <trkpt lat="43.51494" lon="6.26069">
        <ele>265.8</ele>
        <time>2023-12-03T09:28:01.000Z</time>
      </trkpt>
      <trkpt lat="43.51494" lon="6.2607">
        <ele>265.8</ele>
        <time>2023-12-03T09:28:02.000Z</time>
      </trkpt>
      <trkpt lat="43.51494" lon="6.26078">
        <ele>265.9</ele>
        <time>2023-12-03T09:28:09.000Z</time>
      </trkpt>
      <trkpt lat="43.51494" lon="6.26084">
        <ele>265.9</ele>
        <time>2023-12-03T09:28:12.000Z</time>
      </trkpt>
      <trkpt lat="43.51495" lon="6.26089">
        <ele>266</ele>
        <time>2023-12-03T09:28:15.000Z</time>
      </trkpt>
      <trkpt lat="43.51495" lon="6.26095">
        <ele>266</ele>
        <time>2023-12-03T09:28:18.000Z</time>
      </trkpt>
      <trkpt lat="43.51495" lon="6.261">
        <ele>266</ele>
        <time>2023-12-03T09:28:21.000Z</time>
      </trkpt>
      <trkpt lat="43.51496" lon="6.26105">
        <ele>266</ele>
        <time>2023-12-03T09:28:24.000Z</time>
      </trkpt>
      <trkpt lat="43.51495" lon="6.2611">
        <ele>266</ele>
        <time>2023-12-03T09:28:27.000Z</time>
      </trkpt>
      <trkpt lat="43.51494" lon="6.26116">
        <ele>266</ele>
        <time>2023-12-03T09:28:31.000Z</time>
      </trkpt>
      <trkpt lat="43.51494" lon="6.26121">
        <ele>266</ele>
        <time>2023-12-03T09:28:34.000Z</time>
      </trkpt>
      <trkpt lat="43.51493" lon="6.26126">
        <ele>266</ele>
        <time>2023-12-03T09:28:37.000Z</time>
      </trkpt>
      <trkpt lat="43.51493" lon="6.26131">
        <ele>266</ele>
        <time>2023-12-03T09:28:40.000Z</time>
      </trkpt>
      <trkpt lat="43.51493" lon="6.26136">
        <ele>266.1</ele>
        <time>2023-12-03T09:28:43.000Z</time>
      </trkpt>
      <trkpt lat="43.51493" lon="6.26141">
        <ele>266.1</ele>
        <time>2023-12-03T09:28:46.000Z</time>
      </trkpt>
      <trkpt lat="43.51492" lon="6.26147">
        <ele>266.1</ele>
        <time>2023-12-03T09:28:49.000Z</time>
      </trkpt>
      <trkpt lat="43.51492" lon="6.26151">
        <ele>266.1</ele>
        <time>2023-12-03T09:28:52.000Z</time>
      </trkpt>
      <trkpt lat="43.51493" lon="6.26156">
        <ele>265.9</ele>
        <time>2023-12-03T09:28:55.000Z</time>
      </trkpt>
      <trkpt lat="43.51493" lon="6.26162">
        <ele>265.7</ele>
        <time>2023-12-03T09:28:59.000Z</time>
      </trkpt>
      <trkpt lat="43.51493" lon="6.26167">
        <ele>265.5</ele>
        <time>2023-12-03T09:29:02.000Z</time>
      </trkpt>
      <trkpt lat="43.51493" lon="6.26169">
        <ele>265.5</ele>
        <time>2023-12-03T09:29:03.000Z</time>
      </trkpt>
      <trkpt lat="43.51492" lon="6.26178">
        <ele>265.2</ele>
        <time>2023-12-03T09:29:08.000Z</time>
      </trkpt>
      <trkpt lat="43.51492" lon="6.26183">
        <ele>264.9</ele>
        <time>2023-12-03T09:29:12.000Z</time>
      </trkpt>
      <trkpt lat="43.51492" lon="6.26188">
        <ele>264.7</ele>
        <time>2023-12-03T09:29:15.000Z</time>
      </trkpt>
      <trkpt lat="43.5149" lon="6.26193">
        <ele>264.5</ele>
        <time>2023-12-03T09:29:18.000Z</time>
      </trkpt>
      <trkpt lat="43.51491" lon="6.26198">
        <ele>264.3</ele>
        <time>2023-12-03T09:29:21.000Z</time>
      </trkpt>
      <trkpt lat="43.51491" lon="6.26204">
        <ele>264.1</ele>
        <time>2023-12-03T09:29:24.000Z</time>
      </trkpt>
      <trkpt lat="43.5149" lon="6.26209">
        <ele>264</ele>
        <time>2023-12-03T09:29:27.000Z</time>
      </trkpt>
      <trkpt lat="43.51489" lon="6.26214">
        <ele>263.6</ele>
        <time>2023-12-03T09:29:31.000Z</time>
      </trkpt>
      <trkpt lat="43.51489" lon="6.26219">
        <ele>263.3</ele>
        <time>2023-12-03T09:29:35.000Z</time>
      </trkpt>
      <trkpt lat="43.5149" lon="6.26224">
        <ele>263</ele>
        <time>2023-12-03T09:29:39.000Z</time>
      </trkpt>
      <trkpt lat="43.51488" lon="6.26229">
        <ele>262.8</ele>
        <time>2023-12-03T09:29:43.000Z</time>
      </trkpt>
      <trkpt lat="43.51487" lon="6.26235">
        <ele>262.5</ele>
        <time>2023-12-03T09:29:47.000Z</time>
      </trkpt>
      <trkpt lat="43.51487" lon="6.2624">
        <ele>262.2</ele>
        <time>2023-12-03T09:29:52.000Z</time>
      </trkpt>
      <trkpt lat="43.51486" lon="6.26246">
        <ele>261.8</ele>
        <time>2023-12-03T09:29:56.000Z</time>
      </trkpt>
      <trkpt lat="43.51486" lon="6.26252">
        <ele>261.4</ele>
        <time>2023-12-03T09:30:01.000Z</time>
      </trkpt>
      <trkpt lat="43.51485" lon="6.26258">
        <ele>261</ele>
        <time>2023-12-03T09:30:06.000Z</time>
      </trkpt>
      <trkpt lat="43.51484" lon="6.26259">
        <ele>260.8</ele>
        <time>2023-12-03T09:30:07.000Z</time>
      </trkpt>
      <trkpt lat="43.51484" lon="6.26268">
        <ele>259.9</ele>
        <time>2023-12-03T09:30:14.000Z</time>
      </trkpt>
      <trkpt lat="43.51484" lon="6.26274">
        <ele>259.3</ele>
        <time>2023-12-03T09:30:19.000Z</time>
      </trkpt>
      <trkpt lat="43.51484" lon="6.26278">
        <ele>258.9</ele>
        <time>2023-12-03T09:30:23.000Z</time>
      </trkpt>
      <trkpt lat="43.51483" lon="6.26283">
        <ele>258.5</ele>
        <time>2023-12-03T09:30:26.000Z</time>
      </trkpt>
      <trkpt lat="43.51483" lon="6.26289">
        <ele>257.9</ele>
        <time>2023-12-03T09:30:30.000Z</time>
      </trkpt>
      <trkpt lat="43.51484" lon="6.26295">
        <ele>257.4</ele>
        <time>2023-12-03T09:30:34.000Z</time>
      </trkpt>
      <trkpt lat="43.51483" lon="6.263">
        <ele>256.9</ele>
        <time>2023-12-03T09:30:38.000Z</time>
      </trkpt>
      <trkpt lat="43.51483" lon="6.26306">
        <ele>256.5</ele>
        <time>2023-12-03T09:30:42.000Z</time>
      </trkpt>
      <trkpt lat="43.51481" lon="6.26311">
        <ele>256.1</ele>
        <time>2023-12-03T09:30:46.000Z</time>
      </trkpt>
      <trkpt lat="43.51482" lon="6.26316">
        <ele>255.5</ele>
        <time>2023-12-03T09:30:50.000Z</time>
      </trkpt>
      <trkpt lat="43.51481" lon="6.26322">
        <ele>255</ele>
        <time>2023-12-03T09:30:54.000Z</time>
      </trkpt>
      <trkpt lat="43.5148" lon="6.26327">
        <ele>254.6</ele>
        <time>2023-12-03T09:30:57.000Z</time>
      </trkpt>
      <trkpt lat="43.5148" lon="6.26333">
        <ele>253.8</ele>
        <time>2023-12-03T09:31:02.000Z</time>
      </trkpt>
      <trkpt lat="43.51481" lon="6.26338">
        <ele>253.3</ele>
        <time>2023-12-03T09:31:06.000Z</time>
      </trkpt>
      <trkpt lat="43.51481" lon="6.26345">
        <ele>252.6</ele>
        <time>2023-12-03T09:31:10.000Z</time>
      </trkpt>
      <trkpt lat="43.51481" lon="6.26346">
        <ele>252.4</ele>
        <time>2023-12-03T09:31:11.000Z</time>
      </trkpt>
      <trkpt lat="43.51478" lon="6.26356">
        <ele>251.3</ele>
        <time>2023-12-03T09:31:18.000Z</time>
      </trkpt>
      <trkpt lat="43.51478" lon="6.2636">
        <ele>250.8</ele>
        <time>2023-12-03T09:31:21.000Z</time>
      </trkpt>
      <trkpt lat="43.51477" lon="6.26365">
        <ele>250.4</ele>
        <time>2023-12-03T09:31:24.000Z</time>
      </trkpt>
      <trkpt lat="43.51476" lon="6.26371">
        <ele>250</ele>
        <time>2023-12-03T09:31:27.000Z</time>
      </trkpt>
      <trkpt lat="43.51476" lon="6.26375">
        <ele>249.5</ele>
        <time>2023-12-03T09:31:30.000Z</time>
      </trkpt>
      <trkpt lat="43.51476" lon="6.26381">
        <ele>248.3</ele>
        <time>2023-12-03T09:31:39.000Z</time>
      </trkpt>
      <trkpt lat="43.51475" lon="6.26387">
        <ele>247.7</ele>
        <time>2023-12-03T09:31:45.000Z</time>
      </trkpt>
      <trkpt lat="43.51475" lon="6.26393">
        <ele>247</ele>
        <time>2023-12-03T09:31:51.000Z</time>
      </trkpt>
      <trkpt lat="43.51473" lon="6.26398">
        <ele>246.4</ele>
        <time>2023-12-03T09:31:56.000Z</time>
      </trkpt>
      <trkpt lat="43.5147" lon="6.26402">
        <ele>246</ele>
        <time>2023-12-03T09:32:00.000Z</time>
      </trkpt>
      <trkpt lat="43.51468" lon="6.26407">
        <ele>245.6</ele>
        <time>2023-12-03T09:32:05.000Z</time>
      </trkpt>
      <trkpt lat="43.51466" lon="6.26412">
        <ele>245.2</ele>
        <time>2023-12-03T09:32:09.000Z</time>
      </trkpt>
      <trkpt lat="43.51464" lon="6.26417">
        <ele>244.7</ele>
        <time>2023-12-03T09:32:14.000Z</time>
      </trkpt>
      <trkpt lat="43.51464" lon="6.26418">
        <ele>244.6</ele>
        <time>2023-12-03T09:32:15.000Z</time>
      </trkpt>
      <trkpt lat="43.5146" lon="6.26427">
        <ele>243.9</ele>
        <time>2023-12-03T09:32:23.000Z</time>
      </trkpt>
      <trkpt lat="43.51457" lon="6.26431">
        <ele>243.5</ele>
        <time>2023-12-03T09:32:28.000Z</time>
      </trkpt>
      <trkpt lat="43.51454" lon="6.26436">
        <ele>242.9</ele>
        <time>2023-12-03T09:32:33.000Z</time>
      </trkpt>
      <trkpt lat="43.51452" lon="6.2644">
        <ele>242.3</ele>
        <time>2023-12-03T09:32:39.000Z</time>
      </trkpt>
      <trkpt lat="43.51449" lon="6.26444">
        <ele>241.9</ele>
        <time>2023-12-03T09:32:44.000Z</time>
      </trkpt>
      <trkpt lat="43.51448" lon="6.26448">
        <ele>241.5</ele>
        <time>2023-12-03T09:32:48.000Z</time>
      </trkpt>
      <trkpt lat="43.51445" lon="6.26453">
        <ele>241.1</ele>
        <time>2023-12-03T09:32:52.000Z</time>
      </trkpt>
      <trkpt lat="43.51442" lon="6.26456">
        <ele>240.8</ele>
        <time>2023-12-03T09:32:55.000Z</time>
      </trkpt>
      <trkpt lat="43.51439" lon="6.26459">
        <ele>240.6</ele>
        <time>2023-12-03T09:32:58.000Z</time>
      </trkpt>
      <trkpt lat="43.51435" lon="6.26462">
        <ele>240.2</ele>
        <time>2023-12-03T09:33:02.000Z</time>
      </trkpt>
      <trkpt lat="43.51433" lon="6.26468">
        <ele>239.9</ele>
        <time>2023-12-03T09:33:06.000Z</time>
      </trkpt>
      <trkpt lat="43.51431" lon="6.26472">
        <ele>239.5</ele>
        <time>2023-12-03T09:33:10.000Z</time>
      </trkpt>
      <trkpt lat="43.51427" lon="6.26476">
        <ele>239.2</ele>
        <time>2023-12-03T09:33:14.000Z</time>
      </trkpt>
      <trkpt lat="43.51424" lon="6.26479">
        <ele>239</ele>
        <time>2023-12-03T09:33:17.000Z</time>
      </trkpt>
      <trkpt lat="43.51423" lon="6.2648">
        <ele>239</ele>
        <time>2023-12-03T09:33:18.000Z</time>
      </trkpt>
      <trkpt lat="43.51418" lon="6.26487">
        <ele>238.5</ele>
        <time>2023-12-03T09:33:26.000Z</time>
      </trkpt>
      <trkpt lat="43.51415" lon="6.2649">
        <ele>238.2</ele>
        <time>2023-12-03T09:33:30.000Z</time>
      </trkpt>
      <trkpt lat="43.51412" lon="6.26494">
        <ele>238</ele>
        <time>2023-12-03T09:33:34.000Z</time>
      </trkpt>
      <trkpt lat="43.51409" lon="6.26498">
        <ele>237.6</ele>
        <time>2023-12-03T09:33:39.000Z</time>
      </trkpt>
      <trkpt lat="43.51406" lon="6.265">
        <ele>237.1</ele>
        <time>2023-12-03T09:33:43.000Z</time>
      </trkpt>
      <trkpt lat="43.51403" lon="6.26504">
        <ele>236.7</ele>
        <time>2023-12-03T09:33:47.000Z</time>
      </trkpt>
      <trkpt lat="43.514" lon="6.26508">
        <ele>236.2</ele>
        <time>2023-12-03T09:33:51.000Z</time>
      </trkpt>
      <trkpt lat="43.51397" lon="6.26512">
        <ele>236</ele>
        <time>2023-12-03T09:33:54.000Z</time>
      </trkpt>
      <trkpt lat="43.51394" lon="6.26516">
        <ele>235.3</ele>
        <time>2023-12-03T09:34:02.000Z</time>
      </trkpt>
      <trkpt lat="43.51392" lon="6.2652">
        <ele>234.9</ele>
        <time>2023-12-03T09:34:07.000Z</time>
      </trkpt>
      <trkpt lat="43.51389" lon="6.26524">
        <ele>234.6</ele>
        <time>2023-12-03T09:34:13.000Z</time>
      </trkpt>
      <trkpt lat="43.51385" lon="6.26527">
        <ele>233.8</ele>
        <time>2023-12-03T09:34:23.000Z</time>
      </trkpt>
      <trkpt lat="43.51385" lon="6.26528">
        <ele>233.8</ele>
        <time>2023-12-03T09:34:24.000Z</time>
      </trkpt>
      <trkpt lat="43.5138" lon="6.26537">
        <ele>233.1</ele>
        <time>2023-12-03T09:34:37.000Z</time>
      </trkpt>
      <trkpt lat="43.51379" lon="6.26541">
        <ele>232.9</ele>
        <time>2023-12-03T09:34:41.000Z</time>
      </trkpt>
      <trkpt lat="43.51377" lon="6.26546">
        <ele>232.8</ele>
        <time>2023-12-03T09:34:45.000Z</time>
      </trkpt>
      <trkpt lat="43.51374" lon="6.2655">
        <ele>232.7</ele>
        <time>2023-12-03T09:34:49.000Z</time>
      </trkpt>
      <trkpt lat="43.51371" lon="6.26553">
        <ele>232.5</ele>
        <time>2023-12-03T09:34:55.000Z</time>
      </trkpt>
      <trkpt lat="43.51368" lon="6.26556">
        <ele>232.3</ele>
        <time>2023-12-03T09:35:00.000Z</time>
      </trkpt>
      <trkpt lat="43.51365" lon="6.26558">
        <ele>232.2</ele>
        <time>2023-12-03T09:35:03.000Z</time>
      </trkpt>
      <trkpt lat="43.51361" lon="6.2656">
        <ele>232.1</ele>
        <time>2023-12-03T09:35:08.000Z</time>
      </trkpt>
      <trkpt lat="43.51357" lon="6.26561">
        <ele>232.1</ele>
        <time>2023-12-03T09:35:12.000Z</time>
      </trkpt>
      <trkpt lat="43.51352" lon="6.26562">
        <ele>232.1</ele>
        <time>2023-12-03T09:35:19.000Z</time>
      </trkpt>
      <trkpt lat="43.51348" lon="6.26562">
        <ele>232.2</ele>
        <time>2023-12-03T09:35:23.000Z</time>
      </trkpt>
      <trkpt lat="43.51344" lon="6.2656">
        <ele>232.4</ele>
        <time>2023-12-03T09:35:27.000Z</time>
      </trkpt>
      <trkpt lat="43.51344" lon="6.2656">
        <ele>232.4</ele>
        <time>2023-12-03T09:35:28.000Z</time>
      </trkpt>
      <trkpt lat="43.51337" lon="6.26558">
        <ele>232.7</ele>
        <time>2023-12-03T09:35:36.000Z</time>
      </trkpt>
      <trkpt lat="43.51334" lon="6.26558">
        <ele>232.8</ele>
        <time>2023-12-03T09:35:38.000Z</time>
      </trkpt>
      <trkpt lat="43.5133" lon="6.26558">
        <ele>232.8</ele>
        <time>2023-12-03T09:35:40.000Z</time>
      </trkpt>
      <trkpt lat="43.51325" lon="6.26559">
        <ele>233</ele>
        <time>2023-12-03T09:35:43.000Z</time>
      </trkpt>
      <trkpt lat="43.51322" lon="6.26558">
        <ele>233.1</ele>
        <time>2023-12-03T09:35:46.000Z</time>
      </trkpt>
      <trkpt lat="43.51318" lon="6.26556">
        <ele>233.2</ele>
        <time>2023-12-03T09:35:50.000Z</time>
      </trkpt>
      <trkpt lat="43.51314" lon="6.26556">
        <ele>233.4</ele>
        <time>2023-12-03T09:35:53.000Z</time>
      </trkpt>
      <trkpt lat="43.5131" lon="6.26554">
        <ele>233.5</ele>
        <time>2023-12-03T09:35:57.000Z</time>
      </trkpt>
      <trkpt lat="43.51307" lon="6.26554">
        <ele>233.8</ele>
        <time>2023-12-03T09:36:01.000Z</time>
      </trkpt>
      <trkpt lat="43.51302" lon="6.26553">
        <ele>234.2</ele>
        <time>2023-12-03T09:36:05.000Z</time>
      </trkpt>
      <trkpt lat="43.51298" lon="6.26552">
        <ele>234.6</ele>
        <time>2023-12-03T09:36:10.000Z</time>
      </trkpt>
      <trkpt lat="43.51294" lon="6.2655">
        <ele>235.6</ele>
        <time>2023-12-03T09:36:19.000Z</time>
      </trkpt>
      <trkpt lat="43.5129" lon="6.26552">
        <ele>236.2</ele>
        <time>2023-12-03T09:36:25.000Z</time>
      </trkpt>
      <trkpt lat="43.51286" lon="6.26553">
        <ele>236.8</ele>
        <time>2023-12-03T09:36:30.000Z</time>
      </trkpt>
      <trkpt lat="43.51285" lon="6.26554">
        <ele>236.9</ele>
        <time>2023-12-03T09:36:31.000Z</time>
      </trkpt>
      <trkpt lat="43.51278" lon="6.26556">
        <ele>237.7</ele>
        <time>2023-12-03T09:36:39.000Z</time>
      </trkpt>
      <trkpt lat="43.51275" lon="6.26559">
        <ele>238.4</ele>
        <time>2023-12-03T09:36:44.000Z</time>
      </trkpt>
      <trkpt lat="43.51271" lon="6.26561">
        <ele>238.9</ele>
        <time>2023-12-03T09:36:48.000Z</time>
      </trkpt>
      <trkpt lat="43.51268" lon="6.26563">
        <ele>239.3</ele>
        <time>2023-12-03T09:36:52.000Z</time>
      </trkpt>
      <trkpt lat="43.51264" lon="6.26566">
        <ele>239.9</ele>
        <time>2023-12-03T09:36:57.000Z</time>
      </trkpt>
      <trkpt lat="43.51261" lon="6.26568">
        <ele>240.5</ele>
        <time>2023-12-03T09:37:03.000Z</time>
      </trkpt>
      <trkpt lat="43.51257" lon="6.2657">
        <ele>240.8</ele>
        <time>2023-12-03T09:37:07.000Z</time>
      </trkpt>
      <trkpt lat="43.51254" lon="6.26574">
        <ele>241.5</ele>
        <time>2023-12-03T09:37:13.000Z</time>
      </trkpt>
      <trkpt lat="43.5125" lon="6.26576">
        <ele>242</ele>
        <time>2023-12-03T09:37:18.000Z</time>
      </trkpt>
      <trkpt lat="43.51246" lon="6.26578">
        <ele>242.4</ele>
        <time>2023-12-03T09:37:22.000Z</time>
      </trkpt>
      <trkpt lat="43.51243" lon="6.26581">
        <ele>243</ele>
        <time>2023-12-03T09:37:27.000Z</time>
      </trkpt>
      <trkpt lat="43.51239" lon="6.26583">
        <ele>243.5</ele>
        <time>2023-12-03T09:37:32.000Z</time>
      </trkpt>
      <trkpt lat="43.51238" lon="6.26583">
        <ele>243.7</ele>
        <time>2023-12-03T09:37:33.000Z</time>
      </trkpt>
      <trkpt lat="43.51232" lon="6.26589">
        <ele>244.9</ele>
        <time>2023-12-03T09:37:42.000Z</time>
      </trkpt>
      <trkpt lat="43.51229" lon="6.26591">
        <ele>245.6</ele>
        <time>2023-12-03T09:37:48.000Z</time>
      </trkpt>
      <trkpt lat="43.51224" lon="6.26593">
        <ele>246.1</ele>
        <time>2023-12-03T09:37:53.000Z</time>
      </trkpt>
      <trkpt lat="43.51221" lon="6.26594">
        <ele>246.4</ele>
        <time>2023-12-03T09:37:57.000Z</time>
      </trkpt>
      <trkpt lat="43.51218" lon="6.26596">
        <ele>246.8</ele>
        <time>2023-12-03T09:38:02.000Z</time>
      </trkpt>
      <trkpt lat="43.51214" lon="6.26597">
        <ele>247.1</ele>
        <time>2023-12-03T09:38:05.000Z</time>
      </trkpt>
      <trkpt lat="43.5121" lon="6.266">
        <ele>247.4</ele>
        <time>2023-12-03T09:38:10.000Z</time>
      </trkpt>
      <trkpt lat="43.51207" lon="6.26601">
        <ele>247.5</ele>
        <time>2023-12-03T09:38:12.000Z</time>
      </trkpt>
      <trkpt lat="43.51205" lon="6.26604">
        <ele>247.6</ele>
        <time>2023-12-03T09:38:14.000Z</time>
      </trkpt>
      <trkpt lat="43.51201" lon="6.26606">
        <ele>247.8</ele>
        <time>2023-12-03T09:38:18.000Z</time>
      </trkpt>
      <trkpt lat="43.51197" lon="6.26607">
        <ele>248.2</ele>
        <time>2023-12-03T09:38:24.000Z</time>
      </trkpt>
      <trkpt lat="43.51193" lon="6.26609">
        <ele>248.5</ele>
        <time>2023-12-03T09:38:28.000Z</time>
      </trkpt>
      <trkpt lat="43.5119" lon="6.26611">
        <ele>248.6</ele>
        <time>2023-12-03T09:38:31.000Z</time>
      </trkpt>
      <trkpt lat="43.51187" lon="6.26614">
        <ele>248.8</ele>
        <time>2023-12-03T09:38:35.000Z</time>
      </trkpt>
      <trkpt lat="43.51186" lon="6.26615">
        <ele>248.8</ele>
        <time>2023-12-03T09:38:36.000Z</time>
      </trkpt>
      <trkpt lat="43.5118" lon="6.26619">
        <ele>249.2</ele>
        <time>2023-12-03T09:38:44.000Z</time>
      </trkpt>
      <trkpt lat="43.51177" lon="6.26621">
        <ele>249.5</ele>
        <time>2023-12-03T09:38:50.000Z</time>
      </trkpt>
      <trkpt lat="43.51173" lon="6.26624">
        <ele>249.9</ele>
        <time>2023-12-03T09:38:54.000Z</time>
      </trkpt>
      <trkpt lat="43.51171" lon="6.26628">
        <ele>250.2</ele>
        <time>2023-12-03T09:38:58.000Z</time>
      </trkpt>
      <trkpt lat="43.51167" lon="6.26631">
        <ele>250.6</ele>
        <time>2023-12-03T09:39:03.000Z</time>
      </trkpt>
      <trkpt lat="43.51165" lon="6.26636">
        <ele>250.9</ele>
        <time>2023-12-03T09:39:09.000Z</time>
      </trkpt>
      <trkpt lat="43.51163" lon="6.26641">
        <ele>251.2</ele>
        <time>2023-12-03T09:39:14.000Z</time>
      </trkpt>
      <trkpt lat="43.5116" lon="6.26645">
        <ele>251.4</ele>
        <time>2023-12-03T09:39:18.000Z</time>
      </trkpt>
      <trkpt lat="43.51157" lon="6.26648">
        <ele>251.6</ele>
        <time>2023-12-03T09:39:21.000Z</time>
      </trkpt>
      <trkpt lat="43.51154" lon="6.26652">
        <ele>251.7</ele>
        <time>2023-12-03T09:39:24.000Z</time>
      </trkpt>
      <trkpt lat="43.51151" lon="6.26654">
        <ele>251.9</ele>
        <time>2023-12-03T09:39:27.000Z</time>
      </trkpt>
      <trkpt lat="43.51148" lon="6.26657">
        <ele>252.2</ele>
        <time>2023-12-03T09:39:33.000Z</time>
      </trkpt>
      <trkpt lat="43.51146" lon="6.26662">
        <ele>252.4</ele>
        <time>2023-12-03T09:39:38.000Z</time>
      </trkpt>
      <trkpt lat="43.51146" lon="6.26663">
        <ele>252.4</ele>
        <time>2023-12-03T09:39:39.000Z</time>
      </trkpt>
      <trkpt lat="43.51142" lon="6.26672">
        <ele>252.8</ele>
        <time>2023-12-03T09:39:47.000Z</time>
      </trkpt>
      <trkpt lat="43.5114" lon="6.26677">
        <ele>253</ele>
        <time>2023-12-03T09:39:52.000Z</time>
      </trkpt>
      <trkpt lat="43.51137" lon="6.26681">
        <ele>253.1</ele>
        <time>2023-12-03T09:39:56.000Z</time>
      </trkpt>
      <trkpt lat="43.51135" lon="6.26686">
        <ele>253.2</ele>
        <time>2023-12-03T09:40:01.000Z</time>
      </trkpt>
      <trkpt lat="43.51132" lon="6.2669">
        <ele>253.4</ele>
        <time>2023-12-03T09:40:05.000Z</time>
      </trkpt>
      <trkpt lat="43.5113" lon="6.26694">
        <ele>253.5</ele>
        <time>2023-12-03T09:40:09.000Z</time>
      </trkpt>
      <trkpt lat="43.51127" lon="6.26698">
        <ele>253.7</ele>
        <time>2023-12-03T09:40:13.000Z</time>
      </trkpt>
      <trkpt lat="43.51125" lon="6.26703">
        <ele>253.8</ele>
        <time>2023-12-03T09:40:17.000Z</time>
      </trkpt>
      <trkpt lat="43.51123" lon="6.26708">
        <ele>253.9</ele>
        <time>2023-12-03T09:40:21.000Z</time>
      </trkpt>
      <trkpt lat="43.51122" lon="6.26712">
        <ele>254.1</ele>
        <time>2023-12-03T09:40:24.000Z</time>
      </trkpt>
      <trkpt lat="43.51121" lon="6.26717">
        <ele>254.3</ele>
        <time>2023-12-03T09:40:28.000Z</time>
      </trkpt>
      <trkpt lat="43.51119" lon="6.26722">
        <ele>254.5</ele>
        <time>2023-12-03T09:40:32.000Z</time>
      </trkpt>
      <trkpt lat="43.51118" lon="6.26727">
        <ele>254.7</ele>
        <time>2023-12-03T09:40:35.000Z</time>
      </trkpt>
      <trkpt lat="43.51117" lon="6.26732">
        <ele>254.8</ele>
        <time>2023-12-03T09:40:39.000Z</time>
      </trkpt>
      <trkpt lat="43.51114" lon="6.26737">
        <ele>255.2</ele>
        <time>2023-12-03T09:40:44.000Z</time>
      </trkpt>
      <trkpt lat="43.51114" lon="6.26738">
        <ele>255.3</ele>
        <time>2023-12-03T09:40:45.000Z</time>
      </trkpt>
      <trkpt lat="43.51112" lon="6.26747">
        <ele>255.7</ele>
        <time>2023-12-03T09:40:52.000Z</time>
      </trkpt>
      <trkpt lat="43.51112" lon="6.26753">
        <ele>255.9</ele>
        <time>2023-12-03T09:40:57.000Z</time>
      </trkpt>
      <trkpt lat="43.5111" lon="6.26758">
        <ele>256.4</ele>
        <time>2023-12-03T09:41:02.000Z</time>
      </trkpt>
      <trkpt lat="43.51109" lon="6.26764">
        <ele>256.9</ele>
        <time>2023-12-03T09:41:08.000Z</time>
      </trkpt>
      <trkpt lat="43.51108" lon="6.26769">
        <ele>257.4</ele>
        <time>2023-12-03T09:41:13.000Z</time>
      </trkpt>
      <trkpt lat="43.51106" lon="6.26773">
        <ele>257.6</ele>
        <time>2023-12-03T09:41:16.000Z</time>
      </trkpt>
      <trkpt lat="43.51105" lon="6.26778">
        <ele>257.8</ele>
        <time>2023-12-03T09:41:19.000Z</time>
      </trkpt>
      <trkpt lat="43.51104" lon="6.26783">
        <ele>258</ele>
        <time>2023-12-03T09:41:23.000Z</time>
      </trkpt>
      <trkpt lat="43.51103" lon="6.26788">
        <ele>258.3</ele>
        <time>2023-12-03T09:41:28.000Z</time>
      </trkpt>
      <trkpt lat="43.51102" lon="6.26794">
        <ele>258.6</ele>
        <time>2023-12-03T09:41:33.000Z</time>
      </trkpt>
      <trkpt lat="43.51102" lon="6.26799">
        <ele>258.9</ele>
        <time>2023-12-03T09:41:38.000Z</time>
      </trkpt>
      <trkpt lat="43.51101" lon="6.26804">
        <ele>259.2</ele>
        <time>2023-12-03T09:41:42.000Z</time>
      </trkpt>
      <trkpt lat="43.51099" lon="6.26809">
        <ele>259.6</ele>
        <time>2023-12-03T09:41:46.000Z</time>
      </trkpt>
      <trkpt lat="43.51099" lon="6.26811">
        <ele>259.7</ele>
        <time>2023-12-03T09:41:47.000Z</time>
      </trkpt>
      <trkpt lat="43.51096" lon="6.26819">
        <ele>260.4</ele>
        <time>2023-12-03T09:41:56.000Z</time>
      </trkpt>
      <trkpt lat="43.51094" lon="6.26825">
        <ele>260.6</ele>
        <time>2023-12-03T09:42:00.000Z</time>
      </trkpt>
      <trkpt lat="43.51092" lon="6.2683">
        <ele>260.9</ele>
        <time>2023-12-03T09:42:05.000Z</time>
      </trkpt>
      <trkpt lat="43.51091" lon="6.26836">
        <ele>261.1</ele>
        <time>2023-12-03T09:42:10.000Z</time>
      </trkpt>
      <trkpt lat="43.5109" lon="6.26841">
        <ele>261.5</ele>
        <time>2023-12-03T09:42:20.000Z</time>
      </trkpt>
      <trkpt lat="43.51087" lon="6.26846">
        <ele>261.6</ele>
        <time>2023-12-03T09:42:25.000Z</time>
      </trkpt>
      <trkpt lat="43.51085" lon="6.26851">
        <ele>261.8</ele>
        <time>2023-12-03T09:42:29.000Z</time>
      </trkpt>
      <trkpt lat="43.51084" lon="6.26856">
        <ele>261.9</ele>
        <time>2023-12-03T09:42:33.000Z</time>
      </trkpt>
      <trkpt lat="43.51081" lon="6.26861">
        <ele>262</ele>
        <time>2023-12-03T09:42:38.000Z</time>
      </trkpt>
      <trkpt lat="43.51078" lon="6.26865">
        <ele>262.1</ele>
        <time>2023-12-03T09:42:42.000Z</time>
      </trkpt>
      <trkpt lat="43.51076" lon="6.2687">
        <ele>262.2</ele>
        <time>2023-12-03T09:42:46.000Z</time>
      </trkpt>
      <trkpt lat="43.51073" lon="6.26873">
        <ele>262.3</ele>
        <time>2023-12-03T09:42:49.000Z</time>
      </trkpt>
      <trkpt lat="43.51073" lon="6.26874">
        <ele>262.3</ele>
        <time>2023-12-03T09:42:50.000Z</time>
      </trkpt>
      <trkpt lat="43.51069" lon="6.26881">
        <ele>262.4</ele>
        <time>2023-12-03T09:42:55.000Z</time>
      </trkpt>
      <trkpt lat="43.51067" lon="6.26886">
        <ele>262.5</ele>
        <time>2023-12-03T09:42:59.000Z</time>
      </trkpt>
      <trkpt lat="43.51065" lon="6.2689">
        <ele>262.6</ele>
        <time>2023-12-03T09:43:02.000Z</time>
      </trkpt>
      <trkpt lat="43.51063" lon="6.26895">
        <ele>262.7</ele>
        <time>2023-12-03T09:43:06.000Z</time>
      </trkpt>
      <trkpt lat="43.51061" lon="6.26901">
        <ele>262.7</ele>
        <time>2023-12-03T09:43:10.000Z</time>
      </trkpt>
      <trkpt lat="43.51059" lon="6.26906">
        <ele>262.8</ele>
        <time>2023-12-03T09:43:14.000Z</time>
      </trkpt>
      <trkpt lat="43.51056" lon="6.2691">
        <ele>262.9</ele>
        <time>2023-12-03T09:43:17.000Z</time>
      </trkpt>
      <trkpt lat="43.51054" lon="6.26914">
        <ele>263</ele>
        <time>2023-12-03T09:43:20.000Z</time>
      </trkpt>
      <trkpt lat="43.51051" lon="6.26919">
        <ele>263</ele>
        <time>2023-12-03T09:43:23.000Z</time>
      </trkpt>
      <trkpt lat="43.51048" lon="6.26923">
        <ele>263.1</ele>
        <time>2023-12-03T09:43:26.000Z</time>
      </trkpt>
      <trkpt lat="43.51046" lon="6.26927">
        <ele>263.1</ele>
        <time>2023-12-03T09:43:29.000Z</time>
      </trkpt>
      <trkpt lat="43.51044" lon="6.26932">
        <ele>263.2</ele>
        <time>2023-12-03T09:43:33.000Z</time>
      </trkpt>
      <trkpt lat="43.51043" lon="6.26937">
        <ele>263.3</ele>
        <time>2023-12-03T09:43:37.000Z</time>
      </trkpt>
      <trkpt lat="43.51041" lon="6.26943">
        <ele>263.3</ele>
        <time>2023-12-03T09:43:40.000Z</time>
      </trkpt>
      <trkpt lat="43.51039" lon="6.26947">
        <ele>263.4</ele>
        <time>2023-12-03T09:43:42.000Z</time>
      </trkpt>
      <trkpt lat="43.51036" lon="6.2695">
        <ele>263.4</ele>
        <time>2023-12-03T09:43:44.000Z</time>
      </trkpt>
      <trkpt lat="43.51034" lon="6.26953">
        <ele>263.4</ele>
        <time>2023-12-03T09:43:46.000Z</time>
      </trkpt>
      <trkpt lat="43.51031" lon="6.26956">
        <ele>263.4</ele>
        <time>2023-12-03T09:43:48.000Z</time>
      </trkpt>
      <trkpt lat="43.51029" lon="6.2696">
        <ele>263.4</ele>
        <time>2023-12-03T09:43:51.000Z</time>
      </trkpt>
      <trkpt lat="43.51028" lon="6.26962">
        <ele>263.4</ele>
        <time>2023-12-03T09:43:52.000Z</time>
      </trkpt>
      <trkpt lat="43.51023" lon="6.2697">
        <ele>263.5</ele>
        <time>2023-12-03T09:43:58.000Z</time>
      </trkpt>
      <trkpt lat="43.51021" lon="6.26974">
        <ele>263.5</ele>
        <time>2023-12-03T09:44:01.000Z</time>
      </trkpt>
      <trkpt lat="43.51019" lon="6.26979">
        <ele>263.5</ele>
        <time>2023-12-03T09:44:04.000Z</time>
      </trkpt>
      <trkpt lat="43.51018" lon="6.26983">
        <ele>263.5</ele>
        <time>2023-12-03T09:44:07.000Z</time>
      </trkpt>
      <trkpt lat="43.51015" lon="6.26988">
        <ele>263.5</ele>
        <time>2023-12-03T09:44:10.000Z</time>
      </trkpt>
      <trkpt lat="43.51013" lon="6.26992">
        <ele>263.4</ele>
        <time>2023-12-03T09:44:13.000Z</time>
      </trkpt>
      <trkpt lat="43.51012" lon="6.26997">
        <ele>263.3</ele>
        <time>2023-12-03T09:44:16.000Z</time>
      </trkpt>
      <trkpt lat="43.5101" lon="6.27003">
        <ele>263.2</ele>
        <time>2023-12-03T09:44:19.000Z</time>
      </trkpt>
      <trkpt lat="43.51008" lon="6.27008">
        <ele>263.1</ele>
        <time>2023-12-03T09:44:22.000Z</time>
      </trkpt>
      <trkpt lat="43.51007" lon="6.27012">
        <ele>263.1</ele>
        <time>2023-12-03T09:44:25.000Z</time>
      </trkpt>
      <trkpt lat="43.51004" lon="6.27017">
        <ele>262.9</ele>
        <time>2023-12-03T09:44:29.000Z</time>
      </trkpt>
      <trkpt lat="43.51005" lon="6.27023">
        <ele>262.4</ele>
        <time>2023-12-03T09:44:56.000Z</time>
      </trkpt>
      <trkpt lat="43.51005" lon="6.27023">
        <ele>262.4</ele>
        <time>2023-12-03T09:44:57.000Z</time>
      </trkpt>
      <trkpt lat="43.51002" lon="6.27028">
        <ele>262.2</ele>
        <time>2023-12-03T09:46:46.000Z</time>
      </trkpt>
      <trkpt lat="43.51001" lon="6.27028">
        <ele>262.2</ele>
        <time>2023-12-03T09:46:47.000Z</time>
      </trkpt>
      <trkpt lat="43.51" lon="6.27033">
        <ele>262</ele>
        <time>2023-12-03T09:49:28.000Z</time>
      </trkpt>
      <trkpt lat="43.51" lon="6.27034">
        <ele>262</ele>
        <time>2023-12-03T09:49:29.000Z</time>
      </trkpt>
      <trkpt lat="43.51002" lon="6.27034">
        <ele>261.9</ele>
        <time>2023-12-03T09:50:03.000Z</time>
      </trkpt>
      <trkpt lat="43.50999" lon="6.27038">
        <ele>261.9</ele>
        <time>2023-12-03T09:50:07.000Z</time>
      </trkpt>
      <trkpt lat="43.50996" lon="6.27043">
        <ele>261.9</ele>
        <time>2023-12-03T09:50:12.000Z</time>
      </trkpt>
      <trkpt lat="43.50993" lon="6.27047">
        <ele>261.8</ele>
        <time>2023-12-03T09:50:19.000Z</time>
      </trkpt>
      <trkpt lat="43.50991" lon="6.27051">
        <ele>261.8</ele>
        <time>2023-12-03T09:50:26.000Z</time>
      </trkpt>
      <trkpt lat="43.50988" lon="6.27054">
        <ele>261.6</ele>
        <time>2023-12-03T09:50:34.000Z</time>
      </trkpt>
      <trkpt lat="43.50987" lon="6.27055">
        <ele>261.6</ele>
        <time>2023-12-03T09:50:35.000Z</time>
      </trkpt>
      <trkpt lat="43.50984" lon="6.27065">
        <ele>261.1</ele>
        <time>2023-12-03T09:50:46.000Z</time>
      </trkpt>
      <trkpt lat="43.50984" lon="6.2707">
        <ele>260.8</ele>
        <time>2023-12-03T09:50:52.000Z</time>
      </trkpt>
      <trkpt lat="43.50983" lon="6.27075">
        <ele>260.6</ele>
        <time>2023-12-03T09:50:57.000Z</time>
      </trkpt>
      <trkpt lat="43.50985" lon="6.27079">
        <ele>260.4</ele>
        <time>2023-12-03T09:51:01.000Z</time>
      </trkpt>
      <trkpt lat="43.50984" lon="6.27085">
        <ele>260.1</ele>
        <time>2023-12-03T09:51:06.000Z</time>
      </trkpt>
      <trkpt lat="43.50981" lon="6.27087">
        <ele>260</ele>
        <time>2023-12-03T09:51:09.000Z</time>
      </trkpt>
      <trkpt lat="43.50977" lon="6.27091">
        <ele>259.8</ele>
        <time>2023-12-03T09:51:13.000Z</time>
      </trkpt>
      <trkpt lat="43.50974" lon="6.27094">
        <ele>259.7</ele>
        <time>2023-12-03T09:51:18.000Z</time>
      </trkpt>
      <trkpt lat="43.50971" lon="6.27097">
        <ele>259.4</ele>
        <time>2023-12-03T09:51:21.000Z</time>
      </trkpt>
      <trkpt lat="43.50969" lon="6.27103">
        <ele>258.9</ele>
        <time>2023-12-03T09:51:26.000Z</time>
      </trkpt>
      <trkpt lat="43.50969" lon="6.27108">
        <ele>258.3</ele>
        <time>2023-12-03T09:51:35.000Z</time>
      </trkpt>
      <trkpt lat="43.50969" lon="6.27109">
        <ele>258.2</ele>
        <time>2023-12-03T09:51:36.000Z</time>
      </trkpt>
      <trkpt lat="43.50966" lon="6.27119">
        <ele>257.3</ele>
        <time>2023-12-03T09:51:48.000Z</time>
      </trkpt>
      <trkpt lat="43.50965" lon="6.27124">
        <ele>256.8</ele>
        <time>2023-12-03T09:51:53.000Z</time>
      </trkpt>
      <trkpt lat="43.50962" lon="6.27128">
        <ele>256.3</ele>
        <time>2023-12-03T09:51:57.000Z</time>
      </trkpt>
      <trkpt lat="43.5096" lon="6.27133">
        <ele>256</ele>
        <time>2023-12-03T09:52:01.000Z</time>
      </trkpt>
      <trkpt lat="43.50959" lon="6.27138">
        <ele>255.8</ele>
        <time>2023-12-03T09:52:05.000Z</time>
      </trkpt>
      <trkpt lat="43.50956" lon="6.27142">
        <ele>255.5</ele>
        <time>2023-12-03T09:52:09.000Z</time>
      </trkpt>
      <trkpt lat="43.50954" lon="6.27147">
        <ele>255.2</ele>
        <time>2023-12-03T09:52:13.000Z</time>
      </trkpt>
      <trkpt lat="43.50953" lon="6.27153">
        <ele>255</ele>
        <time>2023-12-03T09:52:17.000Z</time>
      </trkpt>
      <trkpt lat="43.50951" lon="6.27158">
        <ele>254.7</ele>
        <time>2023-12-03T09:52:21.000Z</time>
      </trkpt>
      <trkpt lat="43.5095" lon="6.27164">
        <ele>254.2</ele>
        <time>2023-12-03T09:52:26.000Z</time>
      </trkpt>
      <trkpt lat="43.50947" lon="6.27169">
        <ele>253.6</ele>
        <time>2023-12-03T09:52:31.000Z</time>
      </trkpt>
      <trkpt lat="43.50946" lon="6.27174">
        <ele>253.1</ele>
        <time>2023-12-03T09:52:35.000Z</time>
      </trkpt>
      <trkpt lat="43.50945" lon="6.27179">
        <ele>252.6</ele>
        <time>2023-12-03T09:52:40.000Z</time>
      </trkpt>
      <trkpt lat="43.50945" lon="6.2718">
        <ele>252.5</ele>
        <time>2023-12-03T09:52:41.000Z</time>
      </trkpt>
      <trkpt lat="43.50943" lon="6.2719">
        <ele>251.8</ele>
        <time>2023-12-03T09:52:52.000Z</time>
      </trkpt>
      <trkpt lat="43.50941" lon="6.27195">
        <ele>251.7</ele>
        <time>2023-12-03T09:52:56.000Z</time>
      </trkpt>
      <trkpt lat="43.5094" lon="6.272">
        <ele>251.5</ele>
        <time>2023-12-03T09:53:01.000Z</time>
      </trkpt>
      <trkpt lat="43.50938" lon="6.27205">
        <ele>250.5</ele>
        <time>2023-12-03T09:53:15.000Z</time>
      </trkpt>
      <trkpt lat="43.50936" lon="6.2721">
        <ele>250.1</ele>
        <time>2023-12-03T09:53:22.000Z</time>
      </trkpt>
      <trkpt lat="43.50935" lon="6.27216">
        <ele>249.7</ele>
        <time>2023-12-03T09:53:29.000Z</time>
      </trkpt>
      <trkpt lat="43.50933" lon="6.27221">
        <ele>249.2</ele>
        <time>2023-12-03T09:53:35.000Z</time>
      </trkpt>
      <trkpt lat="43.50932" lon="6.27226">
        <ele>248.8</ele>
        <time>2023-12-03T09:53:40.000Z</time>
      </trkpt>
      <trkpt lat="43.50931" lon="6.27232">
        <ele>248.4</ele>
        <time>2023-12-03T09:53:46.000Z</time>
      </trkpt>
      <trkpt lat="43.50931" lon="6.27233">
        <ele>248.3</ele>
        <time>2023-12-03T09:53:47.000Z</time>
      </trkpt>
      <trkpt lat="43.50927" lon="6.27242">
        <ele>247.4</ele>
        <time>2023-12-03T09:53:56.000Z</time>
      </trkpt>
      <trkpt lat="43.50927" lon="6.27248">
        <ele>246.5</ele>
        <time>2023-12-03T09:54:04.000Z</time>
      </trkpt>
      <trkpt lat="43.50926" lon="6.27253">
        <ele>245.9</ele>
        <time>2023-12-03T09:54:10.000Z</time>
      </trkpt>
      <trkpt lat="43.50923" lon="6.27258">
        <ele>245.2</ele>
        <time>2023-12-03T09:54:17.000Z</time>
      </trkpt>
      <trkpt lat="43.50923" lon="6.27263">
        <ele>244.6</ele>
        <time>2023-12-03T09:54:23.000Z</time>
      </trkpt>
      <trkpt lat="43.5092" lon="6.27268">
        <ele>244</ele>
        <time>2023-12-03T09:54:28.000Z</time>
      </trkpt>
      <trkpt lat="43.50918" lon="6.27273">
        <ele>243.1</ele>
        <time>2023-12-03T09:54:36.000Z</time>
      </trkpt>
      <trkpt lat="43.50916" lon="6.27278">
        <ele>242</ele>
        <time>2023-12-03T09:54:44.000Z</time>
      </trkpt>
      <trkpt lat="43.50913" lon="6.27283">
        <ele>241.2</ele>
        <time>2023-12-03T09:54:51.000Z</time>
      </trkpt>
      <trkpt lat="43.50912" lon="6.27283">
        <ele>241.1</ele>
        <time>2023-12-03T09:54:52.000Z</time>
      </trkpt>
      <trkpt lat="43.50906" lon="6.27289">
        <ele>240.3</ele>
        <time>2023-12-03T09:54:58.000Z</time>
      </trkpt>
      <trkpt lat="43.50903" lon="6.27292">
        <ele>239.7</ele>
        <time>2023-12-03T09:55:03.000Z</time>
      </trkpt>
      <trkpt lat="43.50899" lon="6.27295">
        <ele>239</ele>
        <time>2023-12-03T09:55:10.000Z</time>
      </trkpt>
      <trkpt lat="43.50895" lon="6.27296">
        <ele>238.4</ele>
        <time>2023-12-03T09:55:17.000Z</time>
      </trkpt>
      <trkpt lat="43.50891" lon="6.27298">
        <ele>237.9</ele>
        <time>2023-12-03T09:55:22.000Z</time>
      </trkpt>
      <trkpt lat="43.50887" lon="6.27299">
        <ele>236.9</ele>
        <time>2023-12-03T09:55:30.000Z</time>
      </trkpt>
      <trkpt lat="43.50883" lon="6.27299">
        <ele>235.9</ele>
        <time>2023-12-03T09:55:40.000Z</time>
      </trkpt>
      <trkpt lat="43.50878" lon="6.27299">
        <ele>235.1</ele>
        <time>2023-12-03T09:55:48.000Z</time>
      </trkpt>
      <trkpt lat="43.50874" lon="6.27299">
        <ele>234.2</ele>
        <time>2023-12-03T09:55:55.000Z</time>
      </trkpt>
      <trkpt lat="43.50873" lon="6.273">
        <ele>234.1</ele>
        <time>2023-12-03T09:55:56.000Z</time>
      </trkpt>
      <trkpt lat="43.50866" lon="6.27302">
        <ele>233</ele>
        <time>2023-12-03T09:56:06.000Z</time>
      </trkpt>
      <trkpt lat="43.50862" lon="6.273">
        <ele>232.2</ele>
        <time>2023-12-03T09:56:12.000Z</time>
      </trkpt>
      <trkpt lat="43.50859" lon="6.27297">
        <ele>231.5</ele>
        <time>2023-12-03T09:56:18.000Z</time>
      </trkpt>
      <trkpt lat="43.50854" lon="6.27297">
        <ele>230.1</ele>
        <time>2023-12-03T09:56:29.000Z</time>
      </trkpt>
      <trkpt lat="43.5085" lon="6.27297">
        <ele>229.5</ele>
        <time>2023-12-03T09:56:35.000Z</time>
      </trkpt>
      <trkpt lat="43.50846" lon="6.27296">
        <ele>228.8</ele>
        <time>2023-12-03T09:56:43.000Z</time>
      </trkpt>
      <trkpt lat="43.50842" lon="6.27297">
        <ele>228.2</ele>
        <time>2023-12-03T09:56:50.000Z</time>
      </trkpt>
      <trkpt lat="43.50838" lon="6.27297">
        <ele>226.6</ele>
        <time>2023-12-03T09:57:01.000Z</time>
      </trkpt>
      <trkpt lat="43.50838" lon="6.27297">
        <ele>226.5</ele>
        <time>2023-12-03T09:57:02.000Z</time>
      </trkpt>
      <trkpt lat="43.50831" lon="6.27303">
        <ele>222.7</ele>
        <time>2023-12-03T09:57:38.000Z</time>
      </trkpt>
      <trkpt lat="43.50827" lon="6.27306">
        <ele>222.2</ele>
        <time>2023-12-03T09:57:56.000Z</time>
      </trkpt>
      <trkpt lat="43.50824" lon="6.27311">
        <ele>221.9</ele>
        <time>2023-12-03T09:58:08.000Z</time>
      </trkpt>
      <trkpt lat="43.50824" lon="6.27311">
        <ele>221.9</ele>
        <time>2023-12-03T09:58:09.000Z</time>
      </trkpt>
      <trkpt lat="43.50818" lon="6.27319">
        <ele>220.9</ele>
        <time>2023-12-03T09:58:26.000Z</time>
      </trkpt>
      <trkpt lat="43.50816" lon="6.27323">
        <ele>220.4</ele>
        <time>2023-12-03T09:58:33.000Z</time>
      </trkpt>
      <trkpt lat="43.50815" lon="6.27329">
        <ele>219.7</ele>
        <time>2023-12-03T09:58:40.000Z</time>
      </trkpt>
      <trkpt lat="43.50813" lon="6.27333">
        <ele>219.1</ele>
        <time>2023-12-03T09:58:46.000Z</time>
      </trkpt>
      <trkpt lat="43.5081" lon="6.27337">
        <ele>218.7</ele>
        <time>2023-12-03T09:58:50.000Z</time>
      </trkpt>
      <trkpt lat="43.50808" lon="6.27342">
        <ele>218.3</ele>
        <time>2023-12-03T09:58:55.000Z</time>
      </trkpt>
      <trkpt lat="43.50805" lon="6.27347">
        <ele>217.7</ele>
        <time>2023-12-03T09:59:00.000Z</time>
      </trkpt>
      <trkpt lat="43.50804" lon="6.27353">
        <ele>217.2</ele>
        <time>2023-12-03T09:59:05.000Z</time>
      </trkpt>
      <trkpt lat="43.50802" lon="6.27358">
        <ele>216.4</ele>
        <time>2023-12-03T09:59:11.000Z</time>
      </trkpt>
      <trkpt lat="43.50802" lon="6.27359">
        <ele>216.3</ele>
        <time>2023-12-03T09:59:12.000Z</time>
      </trkpt>
      <trkpt lat="43.50799" lon="6.27368">
        <ele>215</ele>
        <time>2023-12-03T09:59:22.000Z</time>
      </trkpt>
      <trkpt lat="43.50795" lon="6.27372">
        <ele>214.1</ele>
        <time>2023-12-03T09:59:29.000Z</time>
      </trkpt>
      <trkpt lat="43.50792" lon="6.27376">
        <ele>213.4</ele>
        <time>2023-12-03T09:59:36.000Z</time>
      </trkpt>
      <trkpt lat="43.50788" lon="6.27378">
        <ele>212.8</ele>
        <time>2023-12-03T09:59:44.000Z</time>
      </trkpt>
      <trkpt lat="43.50784" lon="6.2738">
        <ele>212.5</ele>
        <time>2023-12-03T09:59:50.000Z</time>
      </trkpt>
      <trkpt lat="43.50781" lon="6.27384">
        <ele>212.3</ele>
        <time>2023-12-03T09:59:55.000Z</time>
      </trkpt>
      <trkpt lat="43.50778" lon="6.27387">
        <ele>211.6</ele>
        <time>2023-12-03T10:00:03.000Z</time>
      </trkpt>
      <trkpt lat="43.50774" lon="6.2739">
        <ele>211.1</ele>
        <time>2023-12-03T10:00:09.000Z</time>
      </trkpt>
      <trkpt lat="43.5077" lon="6.27392">
        <ele>210.7</ele>
        <time>2023-12-03T10:00:13.000Z</time>
      </trkpt>
      <trkpt lat="43.50769" lon="6.27393">
        <ele>210.6</ele>
        <time>2023-12-03T10:00:14.000Z</time>
      </trkpt>
      <trkpt lat="43.50764" lon="6.27397">
        <ele>209.7</ele>
        <time>2023-12-03T10:00:22.000Z</time>
      </trkpt>
      <trkpt lat="43.5076" lon="6.27401">
        <ele>209.1</ele>
        <time>2023-12-03T10:00:27.000Z</time>
      </trkpt>
      <trkpt lat="43.50757" lon="6.27404">
        <ele>208.6</ele>
        <time>2023-12-03T10:00:32.000Z</time>
      </trkpt>
      <trkpt lat="43.50753" lon="6.27408">
        <ele>207.9</ele>
        <time>2023-12-03T10:00:39.000Z</time>
      </trkpt>
      <trkpt lat="43.5075" lon="6.27412">
        <ele>207.4</ele>
        <time>2023-12-03T10:00:43.000Z</time>
      </trkpt>
      <trkpt lat="43.50748" lon="6.27415">
        <ele>207</ele>
        <time>2023-12-03T10:00:46.000Z</time>
      </trkpt>
      <trkpt lat="43.50746" lon="6.2742">
        <ele>206.6</ele>
        <time>2023-12-03T10:00:50.000Z</time>
      </trkpt>
      <trkpt lat="43.50743" lon="6.27424">
        <ele>205.9</ele>
        <time>2023-12-03T10:00:55.000Z</time>
      </trkpt>
      <trkpt lat="43.5074" lon="6.27429">
        <ele>205.3</ele>
        <time>2023-12-03T10:01:00.000Z</time>
      </trkpt>
      <trkpt lat="43.50738" lon="6.27432">
        <ele>204.9</ele>
        <time>2023-12-03T10:01:04.000Z</time>
      </trkpt>
      <trkpt lat="43.50735" lon="6.27437">
        <ele>204.4</ele>
        <time>2023-12-03T10:01:10.000Z</time>
      </trkpt>
      <trkpt lat="43.50732" lon="6.2744">
        <ele>204.2</ele>
        <time>2023-12-03T10:01:12.000Z</time>
      </trkpt>
      <trkpt lat="43.5073" lon="6.27444">
        <ele>203.6</ele>
        <time>2023-12-03T10:01:17.000Z</time>
      </trkpt>
      <trkpt lat="43.50729" lon="6.27446">
        <ele>203.5</ele>
        <time>2023-12-03T10:01:18.000Z</time>
      </trkpt>
      <trkpt lat="43.50727" lon="6.27455">
        <ele>202.6</ele>
        <time>2023-12-03T10:01:26.000Z</time>
      </trkpt>
      <trkpt lat="43.50726" lon="6.27459">
        <ele>202.2</ele>
        <time>2023-12-03T10:01:29.000Z</time>
      </trkpt>
      <trkpt lat="43.50723" lon="6.27464">
        <ele>201.6</ele>
        <time>2023-12-03T10:01:33.000Z</time>
      </trkpt>
      <trkpt lat="43.50722" lon="6.27468">
        <ele>201.1</ele>
        <time>2023-12-03T10:01:37.000Z</time>
      </trkpt>
      <trkpt lat="43.5072" lon="6.27473">
        <ele>200.6</ele>
        <time>2023-12-03T10:01:42.000Z</time>
      </trkpt>
      <trkpt lat="43.50719" lon="6.27479">
        <ele>199.9</ele>
        <time>2023-12-03T10:01:47.000Z</time>
      </trkpt>
      <trkpt lat="43.50718" lon="6.27484">
        <ele>199.3</ele>
        <time>2023-12-03T10:01:51.000Z</time>
      </trkpt>
      <trkpt lat="43.50715" lon="6.27487">
        <ele>198.8</ele>
        <time>2023-12-03T10:01:54.000Z</time>
      </trkpt>
      <trkpt lat="43.50713" lon="6.27491">
        <ele>198.3</ele>
        <time>2023-12-03T10:01:57.000Z</time>
      </trkpt>
      <trkpt lat="43.5071" lon="6.27496">
        <ele>197.7</ele>
        <time>2023-12-03T10:02:01.000Z</time>
      </trkpt>
      <trkpt lat="43.50707" lon="6.27499">
        <ele>197.5</ele>
        <time>2023-12-03T10:02:03.000Z</time>
      </trkpt>
      <trkpt lat="43.50704" lon="6.27502">
        <ele>197.1</ele>
        <time>2023-12-03T10:02:06.000Z</time>
      </trkpt>
      <trkpt lat="43.50703" lon="6.27507">
        <ele>196.6</ele>
        <time>2023-12-03T10:02:10.000Z</time>
      </trkpt>
      <trkpt lat="43.50702" lon="6.27513">
        <ele>196</ele>
        <time>2023-12-03T10:02:15.000Z</time>
      </trkpt>
      <trkpt lat="43.507" lon="6.27517">
        <ele>195.4</ele>
        <time>2023-12-03T10:02:19.000Z</time>
      </trkpt>
      <trkpt lat="43.50699" lon="6.27518">
        <ele>195.3</ele>
        <time>2023-12-03T10:02:20.000Z</time>
      </trkpt>
      <trkpt lat="43.50695" lon="6.27526">
        <ele>194.3</ele>
        <time>2023-12-03T10:02:27.000Z</time>
      </trkpt>
      <trkpt lat="43.50694" lon="6.27531">
        <ele>193.9</ele>
        <time>2023-12-03T10:02:30.000Z</time>
      </trkpt>
      <trkpt lat="43.50692" lon="6.27536">
        <ele>193.2</ele>
        <time>2023-12-03T10:02:35.000Z</time>
      </trkpt>
      <trkpt lat="43.50691" lon="6.27541">
        <ele>192.6</ele>
        <time>2023-12-03T10:02:39.000Z</time>
      </trkpt>
      <trkpt lat="43.5069" lon="6.27547">
        <ele>191.9</ele>
        <time>2023-12-03T10:02:44.000Z</time>
      </trkpt>
      <trkpt lat="43.50687" lon="6.27551">
        <ele>191</ele>
        <time>2023-12-03T10:02:50.000Z</time>
      </trkpt>
      <trkpt lat="43.50685" lon="6.27556">
        <ele>190.2</ele>
        <time>2023-12-03T10:02:55.000Z</time>
      </trkpt>
      <trkpt lat="43.50682" lon="6.2756">
        <ele>189.7</ele>
        <time>2023-12-03T10:02:59.000Z</time>
      </trkpt>
      <trkpt lat="43.50681" lon="6.27564">
        <ele>189.4</ele>
        <time>2023-12-03T10:03:02.000Z</time>
      </trkpt>
      <trkpt lat="43.50679" lon="6.2757">
        <ele>189.1</ele>
        <time>2023-12-03T10:03:05.000Z</time>
      </trkpt>
      <trkpt lat="43.5068" lon="6.27574">
        <ele>188.9</ele>
        <time>2023-12-03T10:03:08.000Z</time>
      </trkpt>
      <trkpt lat="43.50679" lon="6.27579">
        <ele>188.7</ele>
        <time>2023-12-03T10:03:10.000Z</time>
      </trkpt>
      <trkpt lat="43.50678" lon="6.27584">
        <ele>188.4</ele>
        <time>2023-12-03T10:03:13.000Z</time>
      </trkpt>
      <trkpt lat="43.50677" lon="6.2759">
        <ele>188.2</ele>
        <time>2023-12-03T10:03:17.000Z</time>
      </trkpt>
      <trkpt lat="43.50675" lon="6.27595">
        <ele>187.9</ele>
        <time>2023-12-03T10:03:21.000Z</time>
      </trkpt>
      <trkpt lat="43.50675" lon="6.27596">
        <ele>187.8</ele>
        <time>2023-12-03T10:03:22.000Z</time>
      </trkpt>
      <trkpt lat="43.50673" lon="6.27605">
        <ele>187.4</ele>
        <time>2023-12-03T10:03:28.000Z</time>
      </trkpt>
      <trkpt lat="43.50672" lon="6.27611">
        <ele>187</ele>
        <time>2023-12-03T10:03:34.000Z</time>
      </trkpt>
      <trkpt lat="43.5067" lon="6.27616">
        <ele>186.7</ele>
        <time>2023-12-03T10:03:39.000Z</time>
      </trkpt>
      <trkpt lat="43.50668" lon="6.27621">
        <ele>186.3</ele>
        <time>2023-12-03T10:03:43.000Z</time>
      </trkpt>
      <trkpt lat="43.50666" lon="6.27626">
        <ele>185.9</ele>
        <time>2023-12-03T10:03:47.000Z</time>
      </trkpt>
      <trkpt lat="43.50664" lon="6.2763">
        <ele>185.7</ele>
        <time>2023-12-03T10:03:51.000Z</time>
      </trkpt>
      <trkpt lat="43.50662" lon="6.27635">
        <ele>185.4</ele>
        <time>2023-12-03T10:03:55.000Z</time>
      </trkpt>
      <trkpt lat="43.50659" lon="6.27639">
        <ele>185.3</ele>
        <time>2023-12-03T10:03:58.000Z</time>
      </trkpt>
      <trkpt lat="43.50656" lon="6.27643">
        <ele>185.2</ele>
        <time>2023-12-03T10:04:00.000Z</time>
      </trkpt>
      <trkpt lat="43.50654" lon="6.27647">
        <ele>185</ele>
        <time>2023-12-03T10:04:03.000Z</time>
      </trkpt>
      <trkpt lat="43.50651" lon="6.27651">
        <ele>184.8</ele>
        <time>2023-12-03T10:04:06.000Z</time>
      </trkpt>
      <trkpt lat="43.50648" lon="6.27654">
        <ele>184.6</ele>
        <time>2023-12-03T10:04:09.000Z</time>
      </trkpt>
      <trkpt lat="43.50645" lon="6.27658">
        <ele>184.4</ele>
        <time>2023-12-03T10:04:14.000Z</time>
      </trkpt>
      <trkpt lat="43.50643" lon="6.27661">
        <ele>184.2</ele>
        <time>2023-12-03T10:04:17.000Z</time>
      </trkpt>
      <trkpt lat="43.5064" lon="6.27664">
        <ele>184.1</ele>
        <time>2023-12-03T10:04:19.000Z</time>
      </trkpt>
      <trkpt lat="43.50637" lon="6.27668">
        <ele>184</ele>
        <time>2023-12-03T10:04:22.000Z</time>
      </trkpt>
      <trkpt lat="43.50636" lon="6.2767">
        <ele>183.9</ele>
        <time>2023-12-03T10:04:23.000Z</time>
      </trkpt>
      <trkpt lat="43.50632" lon="6.27677">
        <ele>183.6</ele>
        <time>2023-12-03T10:04:30.000Z</time>
      </trkpt>
      <trkpt lat="43.50629" lon="6.27681">
        <ele>183.2</ele>
        <time>2023-12-03T10:04:35.000Z</time>
      </trkpt>
      <trkpt lat="43.50626" lon="6.27683">
        <ele>182.9</ele>
        <time>2023-12-03T10:04:38.000Z</time>
      </trkpt>
      <trkpt lat="43.50623" lon="6.27686">
        <ele>182.6</ele>
        <time>2023-12-03T10:04:42.000Z</time>
      </trkpt>
      <trkpt lat="43.5062" lon="6.27691">
        <ele>182.2</ele>
        <time>2023-12-03T10:04:46.000Z</time>
      </trkpt>
      <trkpt lat="43.50618" lon="6.27695">
        <ele>181.7</ele>
        <time>2023-12-03T10:04:51.000Z</time>
      </trkpt>
      <trkpt lat="43.50616" lon="6.277">
        <ele>181.1</ele>
        <time>2023-12-03T10:04:56.000Z</time>
      </trkpt>
      <trkpt lat="43.50613" lon="6.27704">
        <ele>180.6</ele>
        <time>2023-12-03T10:05:00.000Z</time>
      </trkpt>
      <trkpt lat="43.5061" lon="6.27708">
        <ele>180.2</ele>
        <time>2023-12-03T10:05:04.000Z</time>
      </trkpt>
      <trkpt lat="43.50607" lon="6.27713">
        <ele>179.9</ele>
        <time>2023-12-03T10:05:07.000Z</time>
      </trkpt>
      <trkpt lat="43.50605" lon="6.27717">
        <ele>179.6</ele>
        <time>2023-12-03T10:05:10.000Z</time>
      </trkpt>
      <trkpt lat="43.50602" lon="6.27721">
        <ele>179.3</ele>
        <time>2023-12-03T10:05:13.000Z</time>
      </trkpt>
      <trkpt lat="43.50599" lon="6.27724">
        <ele>179</ele>
        <time>2023-12-03T10:05:16.000Z</time>
      </trkpt>
      <trkpt lat="43.50595" lon="6.27728">
        <ele>178.1</ele>
        <time>2023-12-03T10:05:23.000Z</time>
      </trkpt>
      <trkpt lat="43.50595" lon="6.27729">
        <ele>178</ele>
        <time>2023-12-03T10:05:24.000Z</time>
      </trkpt>
      <trkpt lat="43.50587" lon="6.2773">
        <ele>177.2</ele>
        <time>2023-12-03T10:05:30.000Z</time>
      </trkpt>
      <trkpt lat="43.50583" lon="6.27731">
        <ele>176.5</ele>
        <time>2023-12-03T10:05:35.000Z</time>
      </trkpt>
      <trkpt lat="43.50579" lon="6.27733">
        <ele>175.7</ele>
        <time>2023-12-03T10:05:40.000Z</time>
      </trkpt>
      <trkpt lat="43.50575" lon="6.27735">
        <ele>175.2</ele>
        <time>2023-12-03T10:05:44.000Z</time>
      </trkpt>
      <trkpt lat="43.50572" lon="6.27736">
        <ele>174.8</ele>
        <time>2023-12-03T10:05:47.000Z</time>
      </trkpt>
      <trkpt lat="43.50568" lon="6.27738">
        <ele>174.2</ele>
        <time>2023-12-03T10:05:51.000Z</time>
      </trkpt>
      <trkpt lat="43.50565" lon="6.2774">
        <ele>173.5</ele>
        <time>2023-12-03T10:05:56.000Z</time>
      </trkpt>
      <trkpt lat="43.50561" lon="6.2774">
        <ele>173.3</ele>
        <time>2023-12-03T10:05:58.000Z</time>
      </trkpt>
      <trkpt lat="43.50558" lon="6.27741">
        <ele>173.1</ele>
        <time>2023-12-03T10:06:00.000Z</time>
      </trkpt>
      <trkpt lat="43.50555" lon="6.27741">
        <ele>172.9</ele>
        <time>2023-12-03T10:06:02.000Z</time>
      </trkpt>
      <trkpt lat="43.50551" lon="6.27743">
        <ele>172.6</ele>
        <time>2023-12-03T10:06:05.000Z</time>
      </trkpt>
      <trkpt lat="43.50547" lon="6.27743">
        <ele>172.4</ele>
        <time>2023-12-03T10:06:08.000Z</time>
      </trkpt>
      <trkpt lat="43.50544" lon="6.27744">
        <ele>172.1</ele>
        <time>2023-12-03T10:06:10.000Z</time>
      </trkpt>
      <trkpt lat="43.5054" lon="6.27747">
        <ele>171.8</ele>
        <time>2023-12-03T10:06:13.000Z</time>
      </trkpt>
      <trkpt lat="43.50537" lon="6.2775">
        <ele>171.4</ele>
        <time>2023-12-03T10:06:17.000Z</time>
      </trkpt>
      <trkpt lat="43.50534" lon="6.27754">
        <ele>171.1</ele>
        <time>2023-12-03T10:06:21.000Z</time>
      </trkpt>
      <trkpt lat="43.50532" lon="6.27757">
        <ele>170.8</ele>
        <time>2023-12-03T10:06:25.000Z</time>
      </trkpt>
      <trkpt lat="43.50531" lon="6.27758">
        <ele>170.7</ele>
        <time>2023-12-03T10:06:26.000Z</time>
      </trkpt>
      <trkpt lat="43.50525" lon="6.27764">
        <ele>169.9</ele>
        <time>2023-12-03T10:06:40.000Z</time>
      </trkpt>
      <trkpt lat="43.50522" lon="6.27768">
        <ele>169.6</ele>
        <time>2023-12-03T10:06:42.000Z</time>
      </trkpt>
      <trkpt lat="43.50519" lon="6.27771">
        <ele>169.3</ele>
        <time>2023-12-03T10:06:44.000Z</time>
      </trkpt>
      <trkpt lat="43.50517" lon="6.27776">
        <ele>168.9</ele>
        <time>2023-12-03T10:06:48.000Z</time>
      </trkpt>
      <trkpt lat="43.50516" lon="6.2778">
        <ele>168.6</ele>
        <time>2023-12-03T10:06:51.000Z</time>
      </trkpt>
      <trkpt lat="43.50514" lon="6.27785">
        <ele>168.4</ele>
        <time>2023-12-03T10:06:54.000Z</time>
      </trkpt>
      <trkpt lat="43.50513" lon="6.27789">
        <ele>168</ele>
        <time>2023-12-03T10:06:57.000Z</time>
      </trkpt>
      <trkpt lat="43.50511" lon="6.27794">
        <ele>167.6</ele>
        <time>2023-12-03T10:07:00.000Z</time>
      </trkpt>
      <trkpt lat="43.50509" lon="6.27799">
        <ele>167.2</ele>
        <time>2023-12-03T10:07:04.000Z</time>
      </trkpt>
      <trkpt lat="43.50507" lon="6.27804">
        <ele>166.6</ele>
        <time>2023-12-03T10:07:11.000Z</time>
      </trkpt>
      <trkpt lat="43.50504" lon="6.27809">
        <ele>165.2</ele>
        <time>2023-12-03T10:09:16.000Z</time>
      </trkpt>
      <trkpt lat="43.50504" lon="6.27809">
        <ele>165.2</ele>
        <time>2023-12-03T10:09:17.000Z</time>
      </trkpt>
      <trkpt lat="43.50506" lon="6.27818">
        <ele>165.2</ele>
        <time>2023-12-03T10:09:45.000Z</time>
      </trkpt>
      <trkpt lat="43.50509" lon="6.27822">
        <ele>164.9</ele>
        <time>2023-12-03T10:10:06.000Z</time>
      </trkpt>
      <trkpt lat="43.50514" lon="6.27824">
        <ele>164.8</ele>
        <time>2023-12-03T10:10:16.000Z</time>
      </trkpt>
      <trkpt lat="43.50518" lon="6.27826">
        <ele>164.5</ele>
        <time>2023-12-03T10:10:22.000Z</time>
      </trkpt>
      <trkpt lat="43.50518" lon="6.27826">
        <ele>164.4</ele>
        <time>2023-12-03T10:10:23.000Z</time>
      </trkpt>
      <trkpt lat="43.50526" lon="6.27828">
        <ele>163.6</ele>
        <time>2023-12-03T10:10:32.000Z</time>
      </trkpt>
      <trkpt lat="43.5053" lon="6.27829">
        <ele>163.3</ele>
        <time>2023-12-03T10:10:37.000Z</time>
      </trkpt>
      <trkpt lat="43.50534" lon="6.2783">
        <ele>163</ele>
        <time>2023-12-03T10:10:42.000Z</time>
      </trkpt>
      <trkpt lat="43.50538" lon="6.2783">
        <ele>162.8</ele>
        <time>2023-12-03T10:10:46.000Z</time>
      </trkpt>
      <trkpt lat="43.50541" lon="6.27831">
        <ele>162.6</ele>
        <time>2023-12-03T10:10:49.000Z</time>
      </trkpt>
      <trkpt lat="43.50545" lon="6.27833">
        <ele>162.4</ele>
        <time>2023-12-03T10:10:53.000Z</time>
      </trkpt>
      <trkpt lat="43.50549" lon="6.27834">
        <ele>162.2</ele>
        <time>2023-12-03T10:10:57.000Z</time>
      </trkpt>
      <trkpt lat="43.50552" lon="6.27836">
        <ele>162</ele>
        <time>2023-12-03T10:11:01.000Z</time>
      </trkpt>
      <trkpt lat="43.50556" lon="6.27838">
        <ele>161.9</ele>
        <time>2023-12-03T10:11:06.000Z</time>
      </trkpt>
      <trkpt lat="43.5056" lon="6.2784">
        <ele>161.8</ele>
        <time>2023-12-03T10:11:12.000Z</time>
      </trkpt>
      <trkpt lat="43.50564" lon="6.27843">
        <ele>161.6</ele>
        <time>2023-12-03T10:11:21.000Z</time>
      </trkpt>
      <trkpt lat="43.50565" lon="6.27848">
        <ele>161.2</ele>
        <time>2023-12-03T10:11:29.000Z</time>
      </trkpt>
      <trkpt lat="43.50566" lon="6.27849">
        <ele>161.1</ele>
        <time>2023-12-03T10:11:30.000Z</time>
      </trkpt>
      <trkpt lat="43.50569" lon="6.27857">
        <ele>160.6</ele>
        <time>2023-12-03T10:11:38.000Z</time>
      </trkpt>
      <trkpt lat="43.50572" lon="6.27862">
        <ele>159.7</ele>
        <time>2023-12-03T10:11:46.000Z</time>
      </trkpt>
      <trkpt lat="43.50571" lon="6.27868">
        <ele>158.4</ele>
        <time>2023-12-03T10:12:03.000Z</time>
      </trkpt>
      <trkpt lat="43.5057" lon="6.27874">
        <ele>157.7</ele>
        <time>2023-12-03T10:12:49.000Z</time>
      </trkpt>
      <trkpt lat="43.5057" lon="6.27874">
        <ele>157.7</ele>
        <time>2023-12-03T10:12:50.000Z</time>
      </trkpt>
      <trkpt lat="43.50569" lon="6.27876">
        <ele>157.3</ele>
        <time>2023-12-03T10:13:51.000Z</time>
      </trkpt>
      <trkpt lat="43.50569" lon="6.27875">
        <ele>157.3</ele>
        <time>2023-12-03T10:13:52.000Z</time>
      </trkpt>
      <trkpt lat="43.50571" lon="6.27865">
        <ele>157.6</ele>
        <time>2023-12-03T10:14:01.000Z</time>
      </trkpt>
      <trkpt lat="43.5057" lon="6.2786">
        <ele>159</ele>
        <time>2023-12-03T10:14:15.000Z</time>
      </trkpt>
      <trkpt lat="43.50568" lon="6.27854">
        <ele>160.4</ele>
        <time>2023-12-03T10:14:29.000Z</time>
      </trkpt>
      <trkpt lat="43.50567" lon="6.27848">
        <ele>161.5</ele>
        <time>2023-12-03T10:14:57.000Z</time>
      </trkpt>
      <trkpt lat="43.50567" lon="6.27848">
        <ele>161.5</ele>
        <time>2023-12-03T10:14:58.000Z</time>
      </trkpt>
      <trkpt lat="43.50574" lon="6.27842">
        <ele>162.3</ele>
        <time>2023-12-03T10:15:09.000Z</time>
      </trkpt>
      <trkpt lat="43.50577" lon="6.27841">
        <ele>162.8</ele>
        <time>2023-12-03T10:15:13.000Z</time>
      </trkpt>
      <trkpt lat="43.50582" lon="6.27839">
        <ele>163.2</ele>
        <time>2023-12-03T10:15:18.000Z</time>
      </trkpt>
      <trkpt lat="43.50586" lon="6.27838">
        <ele>163.6</ele>
        <time>2023-12-03T10:15:24.000Z</time>
      </trkpt>
      <trkpt lat="43.5059" lon="6.27837">
        <ele>163.9</ele>
        <time>2023-12-03T10:15:30.000Z</time>
      </trkpt>
      <trkpt lat="43.50594" lon="6.27838">
        <ele>164.4</ele>
        <time>2023-12-03T10:15:46.000Z</time>
      </trkpt>
      <trkpt lat="43.50598" lon="6.27837">
        <ele>164.5</ele>
        <time>2023-12-03T10:15:55.000Z</time>
      </trkpt>
      <trkpt lat="43.50603" lon="6.27838">
        <ele>164.6</ele>
        <time>2023-12-03T10:16:02.000Z</time>
      </trkpt>
      <trkpt lat="43.50603" lon="6.27839">
        <ele>164.6</ele>
        <time>2023-12-03T10:16:03.000Z</time>
      </trkpt>
      <trkpt lat="43.50607" lon="6.27847">
        <ele>164.7</ele>
        <time>2023-12-03T10:16:12.000Z</time>
      </trkpt>
      <trkpt lat="43.50611" lon="6.2785">
        <ele>164.7</ele>
        <time>2023-12-03T10:16:16.000Z</time>
      </trkpt>
      <trkpt lat="43.50613" lon="6.27855">
        <ele>164.6</ele>
        <time>2023-12-03T10:16:20.000Z</time>
      </trkpt>
      <trkpt lat="43.50616" lon="6.27859">
        <ele>164.4</ele>
        <time>2023-12-03T10:16:24.000Z</time>
      </trkpt>
      <trkpt lat="43.50619" lon="6.27864">
        <ele>164.3</ele>
        <time>2023-12-03T10:16:28.000Z</time>
      </trkpt>
      <trkpt lat="43.50622" lon="6.27868">
        <ele>164.2</ele>
        <time>2023-12-03T10:16:31.000Z</time>
      </trkpt>
      <trkpt lat="43.50625" lon="6.27871">
        <ele>164</ele>
        <time>2023-12-03T10:16:34.000Z</time>
      </trkpt>
      <trkpt lat="43.50628" lon="6.27874">
        <ele>163.9</ele>
        <time>2023-12-03T10:16:37.000Z</time>
      </trkpt>
      <trkpt lat="43.50631" lon="6.27877">
        <ele>163.8</ele>
        <time>2023-12-03T10:16:40.000Z</time>
      </trkpt>
      <trkpt lat="43.50633" lon="6.2788">
        <ele>163.6</ele>
        <time>2023-12-03T10:16:43.000Z</time>
      </trkpt>
      <trkpt lat="43.50637" lon="6.27883">
        <ele>163.4</ele>
        <time>2023-12-03T10:16:47.000Z</time>
      </trkpt>
      <trkpt lat="43.5064" lon="6.27886">
        <ele>163.3</ele>
        <time>2023-12-03T10:16:51.000Z</time>
      </trkpt>
      <trkpt lat="43.50644" lon="6.27889">
        <ele>163.2</ele>
        <time>2023-12-03T10:16:55.000Z</time>
      </trkpt>
      <trkpt lat="43.50647" lon="6.27892">
        <ele>163.2</ele>
        <time>2023-12-03T10:16:59.000Z</time>
      </trkpt>
      <trkpt lat="43.5065" lon="6.27895">
        <ele>163.2</ele>
        <time>2023-12-03T10:17:02.000Z</time>
      </trkpt>
      <trkpt lat="43.50653" lon="6.27897">
        <ele>163.2</ele>
        <time>2023-12-03T10:17:05.000Z</time>
      </trkpt>
      <trkpt lat="43.50655" lon="6.27898">
        <ele>163.2</ele>
        <time>2023-12-03T10:17:06.000Z</time>
      </trkpt>
      <trkpt lat="43.50661" lon="6.27902">
        <ele>163.3</ele>
        <time>2023-12-03T10:17:13.000Z</time>
      </trkpt>
      <trkpt lat="43.50665" lon="6.27905">
        <ele>163.5</ele>
        <time>2023-12-03T10:17:17.000Z</time>
      </trkpt>
      <trkpt lat="43.50667" lon="6.2791">
        <ele>163.7</ele>
        <time>2023-12-03T10:17:21.000Z</time>
      </trkpt>
      <trkpt lat="43.50671" lon="6.27913">
        <ele>163.8</ele>
        <time>2023-12-03T10:17:25.000Z</time>
      </trkpt>
      <trkpt lat="43.50674" lon="6.27916">
        <ele>164.1</ele>
        <time>2023-12-03T10:17:32.000Z</time>
      </trkpt>
      <trkpt lat="43.50678" lon="6.27919">
        <ele>164.4</ele>
        <time>2023-12-03T10:17:58.000Z</time>
      </trkpt>
      <trkpt lat="43.50682" lon="6.27918">
        <ele>164.7</ele>
        <time>2023-12-03T10:18:11.000Z</time>
      </trkpt>
      <trkpt lat="43.50682" lon="6.27919">
        <ele>164.7</ele>
        <time>2023-12-03T10:18:12.000Z</time>
      </trkpt>
      <trkpt lat="43.50681" lon="6.27907">
        <ele>165.6</ele>
        <time>2023-12-03T10:18:34.000Z</time>
      </trkpt>
      <trkpt lat="43.50684" lon="6.27903">
        <ele>166</ele>
        <time>2023-12-03T10:18:39.000Z</time>
      </trkpt>
      <trkpt lat="43.50687" lon="6.279">
        <ele>166.4</ele>
        <time>2023-12-03T10:18:43.000Z</time>
      </trkpt>
      <trkpt lat="43.50691" lon="6.27897">
        <ele>166.8</ele>
        <time>2023-12-03T10:18:48.000Z</time>
      </trkpt>
      <trkpt lat="43.50695" lon="6.27895">
        <ele>167.3</ele>
        <time>2023-12-03T10:18:52.000Z</time>
      </trkpt>
      <trkpt lat="43.50699" lon="6.27893">
        <ele>167.9</ele>
        <time>2023-12-03T10:18:57.000Z</time>
      </trkpt>
      <trkpt lat="43.50703" lon="6.27892">
        <ele>168.4</ele>
        <time>2023-12-03T10:19:03.000Z</time>
      </trkpt>
      <trkpt lat="43.50707" lon="6.27891">
        <ele>169</ele>
        <time>2023-12-03T10:19:10.000Z</time>
      </trkpt>
      <trkpt lat="43.50711" lon="6.27888">
        <ele>169.3</ele>
        <time>2023-12-03T10:19:14.000Z</time>
      </trkpt>
      <trkpt lat="43.50711" lon="6.27888">
        <ele>169.4</ele>
        <time>2023-12-03T10:19:15.000Z</time>
      </trkpt>
      <trkpt lat="43.50717" lon="6.27887">
        <ele>169.8</ele>
        <time>2023-12-03T10:19:21.000Z</time>
      </trkpt>
      <trkpt lat="43.50721" lon="6.27885">
        <ele>170</ele>
        <time>2023-12-03T10:19:24.000Z</time>
      </trkpt>
      <trkpt lat="43.50724" lon="6.27884">
        <ele>170.4</ele>
        <time>2023-12-03T10:19:28.000Z</time>
      </trkpt>
      <trkpt lat="43.50728" lon="6.27881">
        <ele>170.8</ele>
        <time>2023-12-03T10:19:33.000Z</time>
      </trkpt>
      <trkpt lat="43.50732" lon="6.27882">
        <ele>171.2</ele>
        <time>2023-12-03T10:19:38.000Z</time>
      </trkpt>
      <trkpt lat="43.50736" lon="6.27881">
        <ele>171.6</ele>
        <time>2023-12-03T10:19:43.000Z</time>
      </trkpt>
      <trkpt lat="43.5074" lon="6.27881">
        <ele>172</ele>
        <time>2023-12-03T10:19:47.000Z</time>
      </trkpt>
      <trkpt lat="43.50744" lon="6.2788">
        <ele>172.5</ele>
        <time>2023-12-03T10:19:52.000Z</time>
      </trkpt>
      <trkpt lat="43.50749" lon="6.2788">
        <ele>172.9</ele>
        <time>2023-12-03T10:19:56.000Z</time>
      </trkpt>
      <trkpt lat="43.50752" lon="6.2788">
        <ele>173.3</ele>
        <time>2023-12-03T10:20:00.000Z</time>
      </trkpt>
      <trkpt lat="43.50756" lon="6.2788">
        <ele>173.6</ele>
        <time>2023-12-03T10:20:04.000Z</time>
      </trkpt>
      <trkpt lat="43.5076" lon="6.27881">
        <ele>174</ele>
        <time>2023-12-03T10:20:08.000Z</time>
      </trkpt>
      <trkpt lat="43.50764" lon="6.27881">
        <ele>174.4</ele>
        <time>2023-12-03T10:20:13.000Z</time>
      </trkpt>
      <trkpt lat="43.50768" lon="6.27882">
        <ele>174.9</ele>
        <time>2023-12-03T10:20:18.000Z</time>
      </trkpt>
      <trkpt lat="43.50769" lon="6.27882">
        <ele>175</ele>
        <time>2023-12-03T10:20:19.000Z</time>
      </trkpt>
      <trkpt lat="43.50776" lon="6.27883">
        <ele>175.8</ele>
        <time>2023-12-03T10:20:27.000Z</time>
      </trkpt>
      <trkpt lat="43.5078" lon="6.27883">
        <ele>176.4</ele>
        <time>2023-12-03T10:20:31.000Z</time>
      </trkpt>
      <trkpt lat="43.50784" lon="6.27885">
        <ele>176.9</ele>
        <time>2023-12-03T10:20:36.000Z</time>
      </trkpt>
      <trkpt lat="43.50788" lon="6.27886">
        <ele>177.5</ele>
        <time>2023-12-03T10:20:41.000Z</time>
      </trkpt>
      <trkpt lat="43.50791" lon="6.27888">
        <ele>177.8</ele>
        <time>2023-12-03T10:20:44.000Z</time>
      </trkpt>
      <trkpt lat="43.50795" lon="6.27891">
        <ele>178</ele>
        <time>2023-12-03T10:20:47.000Z</time>
      </trkpt>
      <trkpt lat="43.50799" lon="6.27892">
        <ele>178.3</ele>
        <time>2023-12-03T10:20:50.000Z</time>
      </trkpt>
      <trkpt lat="43.50802" lon="6.27892">
        <ele>178.7</ele>
        <time>2023-12-03T10:20:54.000Z</time>
      </trkpt>
      <trkpt lat="43.50806" lon="6.27891">
        <ele>179</ele>
        <time>2023-12-03T10:20:58.000Z</time>
      </trkpt>
      <trkpt lat="43.50809" lon="6.27891">
        <ele>179.2</ele>
        <time>2023-12-03T10:21:01.000Z</time>
      </trkpt>
      <trkpt lat="43.50814" lon="6.27892">
        <ele>179.3</ele>
        <time>2023-12-03T10:21:05.000Z</time>
      </trkpt>
      <trkpt lat="43.50817" lon="6.27893">
        <ele>179.5</ele>
        <time>2023-12-03T10:21:08.000Z</time>
      </trkpt>
      <trkpt lat="43.50822" lon="6.27894">
        <ele>179.6</ele>
        <time>2023-12-03T10:21:12.000Z</time>
      </trkpt>
      <trkpt lat="43.50825" lon="6.27895">
        <ele>179.6</ele>
        <time>2023-12-03T10:21:15.000Z</time>
      </trkpt>
      <trkpt lat="43.50828" lon="6.27894">
        <ele>179.7</ele>
        <time>2023-12-03T10:21:18.000Z</time>
      </trkpt>
      <trkpt lat="43.50832" lon="6.27893">
        <ele>179.7</ele>
        <time>2023-12-03T10:21:22.000Z</time>
      </trkpt>
      <trkpt lat="43.50833" lon="6.27893">
        <ele>179.7</ele>
        <time>2023-12-03T10:21:23.000Z</time>
      </trkpt>
      <trkpt lat="43.5084" lon="6.27894">
        <ele>179.7</ele>
        <time>2023-12-03T10:21:29.000Z</time>
      </trkpt>
      <trkpt lat="43.50844" lon="6.27896">
        <ele>179.6</ele>
        <time>2023-12-03T10:21:33.000Z</time>
      </trkpt>
      <trkpt lat="43.50848" lon="6.27896">
        <ele>179.5</ele>
        <time>2023-12-03T10:21:37.000Z</time>
      </trkpt>
      <trkpt lat="43.50852" lon="6.27896">
        <ele>179.4</ele>
        <time>2023-12-03T10:21:41.000Z</time>
      </trkpt>
      <trkpt lat="43.50856" lon="6.27897">
        <ele>179.4</ele>
        <time>2023-12-03T10:21:46.000Z</time>
      </trkpt>
      <trkpt lat="43.50859" lon="6.279">
        <ele>179.4</ele>
        <time>2023-12-03T10:21:51.000Z</time>
      </trkpt>
      <trkpt lat="43.50864" lon="6.27902">
        <ele>179.6</ele>
        <time>2023-12-03T10:21:57.000Z</time>
      </trkpt>
      <trkpt lat="43.50867" lon="6.27905">
        <ele>179.8</ele>
        <time>2023-12-03T10:22:03.000Z</time>
      </trkpt>
      <trkpt lat="43.5087" lon="6.27909">
        <ele>180.3</ele>
        <time>2023-12-03T10:22:09.000Z</time>
      </trkpt>
      <trkpt lat="43.50872" lon="6.27913">
        <ele>180.8</ele>
        <time>2023-12-03T10:22:14.000Z</time>
      </trkpt>
      <trkpt lat="43.50876" lon="6.27918">
        <ele>181.2</ele>
        <time>2023-12-03T10:22:18.000Z</time>
      </trkpt>
      <trkpt lat="43.50878" lon="6.27921">
        <ele>181.5</ele>
        <time>2023-12-03T10:22:22.000Z</time>
      </trkpt>
      <trkpt lat="43.50881" lon="6.27925">
        <ele>181.8</ele>
        <time>2023-12-03T10:22:26.000Z</time>
      </trkpt>
      <trkpt lat="43.50881" lon="6.27926">
        <ele>181.9</ele>
        <time>2023-12-03T10:22:27.000Z</time>
      </trkpt>
      <trkpt lat="43.50886" lon="6.27932">
        <ele>182.5</ele>
        <time>2023-12-03T10:22:33.000Z</time>
      </trkpt>
      <trkpt lat="43.5089" lon="6.27936">
        <ele>182.8</ele>
        <time>2023-12-03T10:22:38.000Z</time>
      </trkpt>
      <trkpt lat="43.50893" lon="6.27938">
        <ele>183.2</ele>
        <time>2023-12-03T10:22:43.000Z</time>
      </trkpt>
      <trkpt lat="43.50897" lon="6.27941">
        <ele>183.8</ele>
        <time>2023-12-03T10:22:48.000Z</time>
      </trkpt>
      <trkpt lat="43.509" lon="6.27943">
        <ele>184.4</ele>
        <time>2023-12-03T10:22:53.000Z</time>
      </trkpt>
      <trkpt lat="43.50904" lon="6.27945">
        <ele>184.9</ele>
        <time>2023-12-03T10:22:58.000Z</time>
      </trkpt>
      <trkpt lat="43.50908" lon="6.27947">
        <ele>185.6</ele>
        <time>2023-12-03T10:23:04.000Z</time>
      </trkpt>
      <trkpt lat="43.50912" lon="6.27946">
        <ele>186.7</ele>
        <time>2023-12-03T10:23:14.000Z</time>
      </trkpt>
      <trkpt lat="43.50917" lon="6.27945">
        <ele>187.1</ele>
        <time>2023-12-03T10:23:19.000Z</time>
      </trkpt>
      <trkpt lat="43.50921" lon="6.27946">
        <ele>187.6</ele>
        <time>2023-12-03T10:23:25.000Z</time>
      </trkpt>
      <trkpt lat="43.50924" lon="6.27948">
        <ele>187.8</ele>
        <time>2023-12-03T10:23:29.000Z</time>
      </trkpt>
      <trkpt lat="43.50925" lon="6.27949">
        <ele>187.8</ele>
        <time>2023-12-03T10:23:30.000Z</time>
      </trkpt>
      <trkpt lat="43.50932" lon="6.27955">
        <ele>188.3</ele>
        <time>2023-12-03T10:23:37.000Z</time>
      </trkpt>
      <trkpt lat="43.50934" lon="6.27958">
        <ele>188.6</ele>
        <time>2023-12-03T10:23:43.000Z</time>
      </trkpt>
      <trkpt lat="43.50938" lon="6.27961">
        <ele>188.7</ele>
        <time>2023-12-03T10:23:48.000Z</time>
      </trkpt>
      <trkpt lat="43.50942" lon="6.27964">
        <ele>189.2</ele>
        <time>2023-12-03T10:23:53.000Z</time>
      </trkpt>
      <trkpt lat="43.50945" lon="6.27968">
        <ele>189.5</ele>
        <time>2023-12-03T10:23:57.000Z</time>
      </trkpt>
      <trkpt lat="43.50948" lon="6.27971">
        <ele>189.7</ele>
        <time>2023-12-03T10:24:01.000Z</time>
      </trkpt>
      <trkpt lat="43.50952" lon="6.27974">
        <ele>189.9</ele>
        <time>2023-12-03T10:24:05.000Z</time>
      </trkpt>
      <trkpt lat="43.50954" lon="6.27977">
        <ele>189.9</ele>
        <time>2023-12-03T10:24:07.000Z</time>
      </trkpt>
      <trkpt lat="43.50957" lon="6.2798">
        <ele>190</ele>
        <time>2023-12-03T10:24:09.000Z</time>
      </trkpt>
      <trkpt lat="43.5096" lon="6.27982">
        <ele>190.1</ele>
        <time>2023-12-03T10:24:12.000Z</time>
      </trkpt>
      <trkpt lat="43.50963" lon="6.27985">
        <ele>190.3</ele>
        <time>2023-12-03T10:24:15.000Z</time>
      </trkpt>
      <trkpt lat="43.50967" lon="6.27987">
        <ele>190.7</ele>
        <time>2023-12-03T10:24:19.000Z</time>
      </trkpt>
      <trkpt lat="43.50971" lon="6.2799">
        <ele>191</ele>
        <time>2023-12-03T10:24:24.000Z</time>
      </trkpt>
      <trkpt lat="43.50974" lon="6.27993">
        <ele>191.2</ele>
        <time>2023-12-03T10:24:27.000Z</time>
      </trkpt>
      <trkpt lat="43.50978" lon="6.27995">
        <ele>191.4</ele>
        <time>2023-12-03T10:24:31.000Z</time>
      </trkpt>
      <trkpt lat="43.5098" lon="6.27995">
        <ele>191.5</ele>
        <time>2023-12-03T10:24:32.000Z</time>
      </trkpt>
      <trkpt lat="43.50985" lon="6.27998">
        <ele>191.7</ele>
        <time>2023-12-03T10:24:37.000Z</time>
      </trkpt>
      <trkpt lat="43.50989" lon="6.27999">
        <ele>191.7</ele>
        <time>2023-12-03T10:24:40.000Z</time>
      </trkpt>
      <trkpt lat="43.50993" lon="6.28001">
        <ele>191.9</ele>
        <time>2023-12-03T10:24:44.000Z</time>
      </trkpt>
      <trkpt lat="43.50997" lon="6.28002">
        <ele>192.1</ele>
        <time>2023-12-03T10:24:49.000Z</time>
      </trkpt>
      <trkpt lat="43.51001" lon="6.28003">
        <ele>192.4</ele>
        <time>2023-12-03T10:24:55.000Z</time>
      </trkpt>
      <trkpt lat="43.51005" lon="6.28005">
        <ele>192.9</ele>
        <time>2023-12-03T10:25:02.000Z</time>
      </trkpt>
      <trkpt lat="43.51009" lon="6.28006">
        <ele>193.3</ele>
        <time>2023-12-03T10:25:08.000Z</time>
      </trkpt>
      <trkpt lat="43.51012" lon="6.28007">
        <ele>193.6</ele>
        <time>2023-12-03T10:25:13.000Z</time>
      </trkpt>
      <trkpt lat="43.51016" lon="6.28008">
        <ele>193.8</ele>
        <time>2023-12-03T10:25:18.000Z</time>
      </trkpt>
      <trkpt lat="43.5102" lon="6.2801">
        <ele>194.1</ele>
        <time>2023-12-03T10:25:22.000Z</time>
      </trkpt>
      <trkpt lat="43.51024" lon="6.28012">
        <ele>194.8</ele>
        <time>2023-12-03T10:25:32.000Z</time>
      </trkpt>
      <trkpt lat="43.51024" lon="6.28012">
        <ele>194.8</ele>
        <time>2023-12-03T10:25:33.000Z</time>
      </trkpt>
      <trkpt lat="43.51032" lon="6.28017">
        <ele>195.2</ele>
        <time>2023-12-03T10:25:45.000Z</time>
      </trkpt>
      <trkpt lat="43.51036" lon="6.28019">
        <ele>195.3</ele>
        <time>2023-12-03T10:25:50.000Z</time>
      </trkpt>
      <trkpt lat="43.5104" lon="6.28019">
        <ele>195.5</ele>
        <time>2023-12-03T10:25:57.000Z</time>
      </trkpt>
      <trkpt lat="43.51044" lon="6.28018">
        <ele>195.7</ele>
        <time>2023-12-03T10:26:03.000Z</time>
      </trkpt>
      <trkpt lat="43.51048" lon="6.28019">
        <ele>195.8</ele>
        <time>2023-12-03T10:26:07.000Z</time>
      </trkpt>
      <trkpt lat="43.51052" lon="6.2802">
        <ele>196.1</ele>
        <time>2023-12-03T10:26:13.000Z</time>
      </trkpt>
      <trkpt lat="43.51056" lon="6.28021">
        <ele>196.7</ele>
        <time>2023-12-03T10:26:18.000Z</time>
      </trkpt>
      <trkpt lat="43.5106" lon="6.28022">
        <ele>197.6</ele>
        <time>2023-12-03T10:26:26.000Z</time>
      </trkpt>
      <trkpt lat="43.51064" lon="6.28024">
        <ele>198.3</ele>
        <time>2023-12-03T10:26:38.000Z</time>
      </trkpt>
      <trkpt lat="43.51065" lon="6.28024">
        <ele>198.3</ele>
        <time>2023-12-03T10:26:39.000Z</time>
      </trkpt>
      <trkpt lat="43.51072" lon="6.28025">
        <ele>198.7</ele>
        <time>2023-12-03T10:27:10.000Z</time>
      </trkpt>
      <trkpt lat="43.51076" lon="6.28025">
        <ele>198.7</ele>
        <time>2023-12-03T10:27:15.000Z</time>
      </trkpt>
      <trkpt lat="43.51079" lon="6.28025">
        <ele>198.7</ele>
        <time>2023-12-03T10:27:19.000Z</time>
      </trkpt>
      <trkpt lat="43.51084" lon="6.28025">
        <ele>198.7</ele>
        <time>2023-12-03T10:27:25.000Z</time>
      </trkpt>
      <trkpt lat="43.51088" lon="6.28026">
        <ele>198.7</ele>
        <time>2023-12-03T10:27:31.000Z</time>
      </trkpt>
      <trkpt lat="43.51092" lon="6.28027">
        <ele>198.7</ele>
        <time>2023-12-03T10:27:38.000Z</time>
      </trkpt>
      <trkpt lat="43.51095" lon="6.28028">
        <ele>198.6</ele>
        <time>2023-12-03T10:27:43.000Z</time>
      </trkpt>
      <trkpt lat="43.51096" lon="6.28028">
        <ele>198.6</ele>
        <time>2023-12-03T10:27:44.000Z</time>
      </trkpt>
      <trkpt lat="43.51103" lon="6.28031">
        <ele>198.4</ele>
        <time>2023-12-03T10:27:53.000Z</time>
      </trkpt>
      <trkpt lat="43.51107" lon="6.28031">
        <ele>198.2</ele>
        <time>2023-12-03T10:27:58.000Z</time>
      </trkpt>
      <trkpt lat="43.51111" lon="6.28032">
        <ele>197.8</ele>
        <time>2023-12-03T10:28:05.000Z</time>
      </trkpt>
      <trkpt lat="43.51115" lon="6.28033">
        <ele>197.6</ele>
        <time>2023-12-03T10:28:09.000Z</time>
      </trkpt>
      <trkpt lat="43.51119" lon="6.28034">
        <ele>197.4</ele>
        <time>2023-12-03T10:28:14.000Z</time>
      </trkpt>
      <trkpt lat="43.51123" lon="6.28035">
        <ele>197.2</ele>
        <time>2023-12-03T10:28:18.000Z</time>
      </trkpt>
      <trkpt lat="43.51127" lon="6.28037">
        <ele>197</ele>
        <time>2023-12-03T10:28:22.000Z</time>
      </trkpt>
      <trkpt lat="43.51131" lon="6.28037">
        <ele>196.9</ele>
        <time>2023-12-03T10:28:26.000Z</time>
      </trkpt>
      <trkpt lat="43.51136" lon="6.28037">
        <ele>196.7</ele>
        <time>2023-12-03T10:28:31.000Z</time>
      </trkpt>
      <trkpt lat="43.51139" lon="6.2804">
        <ele>196.7</ele>
        <time>2023-12-03T10:28:36.000Z</time>
      </trkpt>
      <trkpt lat="43.51144" lon="6.28042">
        <ele>196.6</ele>
        <time>2023-12-03T10:28:43.000Z</time>
      </trkpt>
      <trkpt lat="43.51147" lon="6.28045">
        <ele>196.6</ele>
        <time>2023-12-03T10:28:48.000Z</time>
      </trkpt>
      <trkpt lat="43.51148" lon="6.28045">
        <ele>196.6</ele>
        <time>2023-12-03T10:28:49.000Z</time>
      </trkpt>
      <trkpt lat="43.51155" lon="6.28048">
        <ele>196.5</ele>
        <time>2023-12-03T10:28:57.000Z</time>
      </trkpt>
      <trkpt lat="43.51159" lon="6.28049">
        <ele>196.4</ele>
        <time>2023-12-03T10:29:02.000Z</time>
      </trkpt>
      <trkpt lat="43.51163" lon="6.28051">
        <ele>196.2</ele>
        <time>2023-12-03T10:29:07.000Z</time>
      </trkpt>
      <trkpt lat="43.51167" lon="6.28053">
        <ele>196</ele>
        <time>2023-12-03T10:29:13.000Z</time>
      </trkpt>
      <trkpt lat="43.51171" lon="6.28055">
        <ele>196</ele>
        <time>2023-12-03T10:29:17.000Z</time>
      </trkpt>
      <trkpt lat="43.51175" lon="6.28057">
        <ele>195.9</ele>
        <time>2023-12-03T10:29:22.000Z</time>
      </trkpt>
      <trkpt lat="43.51178" lon="6.28059">
        <ele>195.8</ele>
        <time>2023-12-03T10:29:27.000Z</time>
      </trkpt>
      <trkpt lat="43.51181" lon="6.28061">
        <ele>195.8</ele>
        <time>2023-12-03T10:29:32.000Z</time>
      </trkpt>
      <trkpt lat="43.51185" lon="6.28063">
        <ele>195.9</ele>
        <time>2023-12-03T10:29:35.000Z</time>
      </trkpt>
      <trkpt lat="43.51189" lon="6.28065">
        <ele>196.1</ele>
        <time>2023-12-03T10:29:40.000Z</time>
      </trkpt>
      <trkpt lat="43.51192" lon="6.28067">
        <ele>196.2</ele>
        <time>2023-12-03T10:29:44.000Z</time>
      </trkpt>
      <trkpt lat="43.51196" lon="6.28068">
        <ele>196.3</ele>
        <time>2023-12-03T10:29:48.000Z</time>
      </trkpt>
      <trkpt lat="43.512" lon="6.2807">
        <ele>196.4</ele>
        <time>2023-12-03T10:29:52.000Z</time>
      </trkpt>
      <trkpt lat="43.51201" lon="6.2807">
        <ele>196.4</ele>
        <time>2023-12-03T10:29:53.000Z</time>
      </trkpt>
      <trkpt lat="43.51207" lon="6.28073">
        <ele>196.5</ele>
        <time>2023-12-03T10:30:00.000Z</time>
      </trkpt>
      <trkpt lat="43.51211" lon="6.28076">
        <ele>196.6</ele>
        <time>2023-12-03T10:30:04.000Z</time>
      </trkpt>
      <trkpt lat="43.51215" lon="6.28078">
        <ele>196.8</ele>
        <time>2023-12-03T10:30:11.000Z</time>
      </trkpt>
      <trkpt lat="43.51219" lon="6.28079">
        <ele>197.1</ele>
        <time>2023-12-03T10:30:22.000Z</time>
      </trkpt>
      <trkpt lat="43.51223" lon="6.28081">
        <ele>197.2</ele>
        <time>2023-12-03T10:30:29.000Z</time>
      </trkpt>
      <trkpt lat="43.51227" lon="6.28082">
        <ele>197.4</ele>
        <time>2023-12-03T10:30:33.000Z</time>
      </trkpt>
      <trkpt lat="43.51231" lon="6.28084">
        <ele>197.5</ele>
        <time>2023-12-03T10:30:37.000Z</time>
      </trkpt>
      <trkpt lat="43.51235" lon="6.28086">
        <ele>197.6</ele>
        <time>2023-12-03T10:30:41.000Z</time>
      </trkpt>
      <trkpt lat="43.51239" lon="6.28087">
        <ele>198</ele>
        <time>2023-12-03T10:30:49.000Z</time>
      </trkpt>
      <trkpt lat="43.51243" lon="6.28088">
        <ele>198.3</ele>
        <time>2023-12-03T10:30:55.000Z</time>
      </trkpt>
      <trkpt lat="43.51244" lon="6.28089">
        <ele>198.4</ele>
        <time>2023-12-03T10:30:56.000Z</time>
      </trkpt>
      <trkpt lat="43.51251" lon="6.28091">
        <ele>199</ele>
        <time>2023-12-03T10:31:05.000Z</time>
      </trkpt>
      <trkpt lat="43.51255" lon="6.28091">
        <ele>199.2</ele>
        <time>2023-12-03T10:31:10.000Z</time>
      </trkpt>
      <trkpt lat="43.51259" lon="6.28093">
        <ele>199.4</ele>
        <time>2023-12-03T10:31:14.000Z</time>
      </trkpt>
      <trkpt lat="43.51263" lon="6.28093">
        <ele>199.5</ele>
        <time>2023-12-03T10:31:18.000Z</time>
      </trkpt>
      <trkpt lat="43.51266" lon="6.28093">
        <ele>199.4</ele>
        <time>2023-12-03T10:31:24.000Z</time>
      </trkpt>
      <trkpt lat="43.5127" lon="6.28094">
        <ele>199.2</ele>
        <time>2023-12-03T10:31:28.000Z</time>
      </trkpt>
      <trkpt lat="43.51274" lon="6.28095">
        <ele>198.9</ele>
        <time>2023-12-03T10:31:32.000Z</time>
      </trkpt>
      <trkpt lat="43.51278" lon="6.28095">
        <ele>198.7</ele>
        <time>2023-12-03T10:31:36.000Z</time>
      </trkpt>
      <trkpt lat="43.51282" lon="6.28097">
        <ele>198.4</ele>
        <time>2023-12-03T10:31:40.000Z</time>
      </trkpt>
      <trkpt lat="43.51286" lon="6.28097">
        <ele>198.1</ele>
        <time>2023-12-03T10:31:43.000Z</time>
      </trkpt>
      <trkpt lat="43.5129" lon="6.28098">
        <ele>197.7</ele>
        <time>2023-12-03T10:31:48.000Z</time>
      </trkpt>
      <trkpt lat="43.51294" lon="6.28097">
        <ele>197.2</ele>
        <time>2023-12-03T10:31:56.000Z</time>
      </trkpt>
      <trkpt lat="43.51295" lon="6.28097">
        <ele>197.2</ele>
        <time>2023-12-03T10:31:57.000Z</time>
      </trkpt>
      <trkpt lat="43.51302" lon="6.28096">
        <ele>196.6</ele>
        <time>2023-12-03T10:32:06.000Z</time>
      </trkpt>
      <trkpt lat="43.51306" lon="6.28098">
        <ele>196.2</ele>
        <time>2023-12-03T10:32:10.000Z</time>
      </trkpt>
      <trkpt lat="43.51309" lon="6.28099">
        <ele>195.8</ele>
        <time>2023-12-03T10:32:14.000Z</time>
      </trkpt>
      <trkpt lat="43.51314" lon="6.28099">
        <ele>195.4</ele>
        <time>2023-12-03T10:32:19.000Z</time>
      </trkpt>
      <trkpt lat="43.51317" lon="6.28099">
        <ele>194.8</ele>
        <time>2023-12-03T10:32:25.000Z</time>
      </trkpt>
      <trkpt lat="43.51321" lon="6.28098">
        <ele>194.3</ele>
        <time>2023-12-03T10:32:30.000Z</time>
      </trkpt>
      <trkpt lat="43.51325" lon="6.28098">
        <ele>193.5</ele>
        <time>2023-12-03T10:32:36.000Z</time>
      </trkpt>
      <trkpt lat="43.5133" lon="6.28098">
        <ele>192.9</ele>
        <time>2023-12-03T10:32:41.000Z</time>
      </trkpt>
      <trkpt lat="43.51333" lon="6.28099">
        <ele>192.7</ele>
        <time>2023-12-03T10:32:44.000Z</time>
      </trkpt>
      <trkpt lat="43.51337" lon="6.28099">
        <ele>192.3</ele>
        <time>2023-12-03T10:32:48.000Z</time>
      </trkpt>
      <trkpt lat="43.51341" lon="6.281">
        <ele>192.1</ele>
        <time>2023-12-03T10:32:53.000Z</time>
      </trkpt>
      <trkpt lat="43.51345" lon="6.28101">
        <ele>192</ele>
        <time>2023-12-03T10:32:57.000Z</time>
      </trkpt>
      <trkpt lat="43.51346" lon="6.28101">
        <ele>192</ele>
        <time>2023-12-03T10:32:58.000Z</time>
      </trkpt>
      <trkpt lat="43.51353" lon="6.28101">
        <ele>192</ele>
        <time>2023-12-03T10:33:05.000Z</time>
      </trkpt>
      <trkpt lat="43.51357" lon="6.28103">
        <ele>192</ele>
        <time>2023-12-03T10:33:09.000Z</time>
      </trkpt>
      <trkpt lat="43.51361" lon="6.28104">
        <ele>192.2</ele>
        <time>2023-12-03T10:33:13.000Z</time>
      </trkpt>
      <trkpt lat="43.51365" lon="6.28106">
        <ele>192.3</ele>
        <time>2023-12-03T10:33:17.000Z</time>
      </trkpt>
      <trkpt lat="43.51369" lon="6.28107">
        <ele>192.5</ele>
        <time>2023-12-03T10:33:20.000Z</time>
      </trkpt>
      <trkpt lat="43.51373" lon="6.28109">
        <ele>192.6</ele>
        <time>2023-12-03T10:33:24.000Z</time>
      </trkpt>
      <trkpt lat="43.51377" lon="6.28109">
        <ele>192.7</ele>
        <time>2023-12-03T10:33:29.000Z</time>
      </trkpt>
      <trkpt lat="43.51381" lon="6.28111">
        <ele>192.8</ele>
        <time>2023-12-03T10:33:33.000Z</time>
      </trkpt>
      <trkpt lat="43.51385" lon="6.28113">
        <ele>192.8</ele>
        <time>2023-12-03T10:33:39.000Z</time>
      </trkpt>
      <trkpt lat="43.51389" lon="6.28114">
        <ele>192.9</ele>
        <time>2023-12-03T10:33:43.000Z</time>
      </trkpt>
      <trkpt lat="43.51393" lon="6.28116">
        <ele>192.8</ele>
        <time>2023-12-03T10:33:47.000Z</time>
      </trkpt>
      <trkpt lat="43.51397" lon="6.28118">
        <ele>192.7</ele>
        <time>2023-12-03T10:33:51.000Z</time>
      </trkpt>
      <trkpt lat="43.51401" lon="6.2812">
        <ele>192.6</ele>
        <time>2023-12-03T10:33:56.000Z</time>
      </trkpt>
      <trkpt lat="43.51405" lon="6.28121">
        <ele>192.6</ele>
        <time>2023-12-03T10:34:00.000Z</time>
      </trkpt>
      <trkpt lat="43.51406" lon="6.28122">
        <ele>192.6</ele>
        <time>2023-12-03T10:34:01.000Z</time>
      </trkpt>
      <trkpt lat="43.51413" lon="6.28125">
        <ele>192.5</ele>
        <time>2023-12-03T10:34:08.000Z</time>
      </trkpt>
      <trkpt lat="43.51417" lon="6.28126">
        <ele>192.5</ele>
        <time>2023-12-03T10:34:12.000Z</time>
      </trkpt>
      <trkpt lat="43.51421" lon="6.28128">
        <ele>192.4</ele>
        <time>2023-12-03T10:34:16.000Z</time>
      </trkpt>
      <trkpt lat="43.51425" lon="6.28129">
        <ele>192.4</ele>
        <time>2023-12-03T10:34:20.000Z</time>
      </trkpt>
      <trkpt lat="43.51429" lon="6.28129">
        <ele>192.4</ele>
        <time>2023-12-03T10:34:25.000Z</time>
      </trkpt>
      <trkpt lat="43.51433" lon="6.28129">
        <ele>192.4</ele>
        <time>2023-12-03T10:34:31.000Z</time>
      </trkpt>
      <trkpt lat="43.51436" lon="6.28129">
        <ele>192.4</ele>
        <time>2023-12-03T10:34:36.000Z</time>
      </trkpt>
      <trkpt lat="43.5144" lon="6.28128">
        <ele>192.6</ele>
        <time>2023-12-03T10:34:41.000Z</time>
      </trkpt>
      <trkpt lat="43.51444" lon="6.28127">
        <ele>192.7</ele>
        <time>2023-12-03T10:34:45.000Z</time>
      </trkpt>
      <trkpt lat="43.51448" lon="6.28127">
        <ele>192.8</ele>
        <time>2023-12-03T10:34:50.000Z</time>
      </trkpt>
      <trkpt lat="43.51452" lon="6.28127">
        <ele>192.8</ele>
        <time>2023-12-03T10:34:54.000Z</time>
      </trkpt>
      <trkpt lat="43.51456" lon="6.28128">
        <ele>193</ele>
        <time>2023-12-03T10:34:57.000Z</time>
      </trkpt>
      <trkpt lat="43.5146" lon="6.2813">
        <ele>193.2</ele>
        <time>2023-12-03T10:35:00.000Z</time>
      </trkpt>
      <trkpt lat="43.51464" lon="6.28131">
        <ele>193.4</ele>
        <time>2023-12-03T10:35:03.000Z</time>
      </trkpt>
      <trkpt lat="43.51465" lon="6.28131">
        <ele>193.4</ele>
        <time>2023-12-03T10:35:04.000Z</time>
      </trkpt>
      <trkpt lat="43.51472" lon="6.28132">
        <ele>193.6</ele>
        <time>2023-12-03T10:35:10.000Z</time>
      </trkpt>
      <trkpt lat="43.51476" lon="6.28134">
        <ele>193.7</ele>
        <time>2023-12-03T10:35:14.000Z</time>
      </trkpt>
      <trkpt lat="43.51479" lon="6.28136">
        <ele>193.7</ele>
        <time>2023-12-03T10:35:17.000Z</time>
      </trkpt>
      <trkpt lat="43.51483" lon="6.28136">
        <ele>193.8</ele>
        <time>2023-12-03T10:35:21.000Z</time>
      </trkpt>
      <trkpt lat="43.51487" lon="6.28137">
        <ele>193.9</ele>
        <time>2023-12-03T10:35:26.000Z</time>
      </trkpt>
      <trkpt lat="43.51492" lon="6.28139">
        <ele>194</ele>
        <time>2023-12-03T10:35:30.000Z</time>
      </trkpt>
      <trkpt lat="43.51496" lon="6.2814">
        <ele>194.7</ele>
        <time>2023-12-03T10:35:43.000Z</time>
      </trkpt>
      <trkpt lat="43.515" lon="6.28141">
        <ele>195.9</ele>
        <time>2023-12-03T10:35:55.000Z</time>
      </trkpt>
      <trkpt lat="43.51504" lon="6.28144">
        <ele>197</ele>
        <time>2023-12-03T10:36:04.000Z</time>
      </trkpt>
      <trkpt lat="43.51504" lon="6.28145">
        <ele>197.1</ele>
        <time>2023-12-03T10:36:05.000Z</time>
      </trkpt>
      <trkpt lat="43.51508" lon="6.28153">
        <ele>198</ele>
        <time>2023-12-03T10:36:14.000Z</time>
      </trkpt>
      <trkpt lat="43.51509" lon="6.28159">
        <ele>199</ele>
        <time>2023-12-03T10:36:22.000Z</time>
      </trkpt>
      <trkpt lat="43.5151" lon="6.28164">
        <ele>199.6</ele>
        <time>2023-12-03T10:36:27.000Z</time>
      </trkpt>
      <trkpt lat="43.51512" lon="6.28168">
        <ele>200.1</ele>
        <time>2023-12-03T10:36:31.000Z</time>
      </trkpt>
      <trkpt lat="43.51513" lon="6.28173">
        <ele>200.5</ele>
        <time>2023-12-03T10:36:35.000Z</time>
      </trkpt>
      <trkpt lat="43.51515" lon="6.28178">
        <ele>201.3</ele>
        <time>2023-12-03T10:36:43.000Z</time>
      </trkpt>
      <trkpt lat="43.51518" lon="6.28182">
        <ele>201.8</ele>
        <time>2023-12-03T10:36:49.000Z</time>
      </trkpt>
      <trkpt lat="43.51522" lon="6.28185">
        <ele>202.2</ele>
        <time>2023-12-03T10:36:53.000Z</time>
      </trkpt>
      <trkpt lat="43.51525" lon="6.28186">
        <ele>202.5</ele>
        <time>2023-12-03T10:36:57.000Z</time>
      </trkpt>
      <trkpt lat="43.51528" lon="6.28188">
        <ele>202.7</ele>
        <time>2023-12-03T10:37:00.000Z</time>
      </trkpt>
      <trkpt lat="43.51532" lon="6.2819">
        <ele>202.9</ele>
        <time>2023-12-03T10:37:03.000Z</time>
      </trkpt>
      <trkpt lat="43.51535" lon="6.28192">
        <ele>203</ele>
        <time>2023-12-03T10:37:06.000Z</time>
      </trkpt>
      <trkpt lat="43.51536" lon="6.28192">
        <ele>203.1</ele>
        <time>2023-12-03T10:37:07.000Z</time>
      </trkpt>
      <trkpt lat="43.51543" lon="6.28195">
        <ele>203.6</ele>
        <time>2023-12-03T10:37:13.000Z</time>
      </trkpt>
      <trkpt lat="43.51547" lon="6.28196">
        <ele>204.2</ele>
        <time>2023-12-03T10:37:18.000Z</time>
      </trkpt>
      <trkpt lat="43.5155" lon="6.28198">
        <ele>204.8</ele>
        <time>2023-12-03T10:37:22.000Z</time>
      </trkpt>
      <trkpt lat="43.51554" lon="6.282">
        <ele>205.5</ele>
        <time>2023-12-03T10:37:27.000Z</time>
      </trkpt>
      <trkpt lat="43.51558" lon="6.28201">
        <ele>206.2</ele>
        <time>2023-12-03T10:37:32.000Z</time>
      </trkpt>
      <trkpt lat="43.51562" lon="6.28201">
        <ele>207</ele>
        <time>2023-12-03T10:37:38.000Z</time>
      </trkpt>
      <trkpt lat="43.51566" lon="6.28201">
        <ele>208</ele>
        <time>2023-12-03T10:37:45.000Z</time>
      </trkpt>
      <trkpt lat="43.5157" lon="6.28202">
        <ele>208.8</ele>
        <time>2023-12-03T10:37:51.000Z</time>
      </trkpt>
      <trkpt lat="43.51574" lon="6.28203">
        <ele>209.4</ele>
        <time>2023-12-03T10:37:56.000Z</time>
      </trkpt>
      <trkpt lat="43.51578" lon="6.28205">
        <ele>210.4</ele>
        <time>2023-12-03T10:38:04.000Z</time>
      </trkpt>
      <trkpt lat="43.51582" lon="6.28207">
        <ele>211.1</ele>
        <time>2023-12-03T10:38:10.000Z</time>
      </trkpt>
      <trkpt lat="43.51582" lon="6.28207">
        <ele>211.3</ele>
        <time>2023-12-03T10:38:11.000Z</time>
      </trkpt>
      <trkpt lat="43.5159" lon="6.28204">
        <ele>214</ele>
        <time>2023-12-03T10:38:45.000Z</time>
      </trkpt>
      <trkpt lat="43.51594" lon="6.28207">
        <ele>214</ele>
        <time>2023-12-03T10:39:42.000Z</time>
      </trkpt>
      <trkpt lat="43.51594" lon="6.28207">
        <ele>214</ele>
        <time>2023-12-03T10:39:43.000Z</time>
      </trkpt>
      <trkpt lat="43.51589" lon="6.28205">
        <ele>214.2</ele>
        <time>2023-12-03T10:41:10.000Z</time>
      </trkpt>
      <trkpt lat="43.51598" lon="6.28205">
        <ele>214.3</ele>
        <time>2023-12-03T10:42:19.000Z</time>
      </trkpt>
      <trkpt lat="43.51599" lon="6.28205">
        <ele>214.3</ele>
        <time>2023-12-03T10:42:20.000Z</time>
      </trkpt>
      <trkpt lat="43.51596" lon="6.28214">
        <ele>214.6</ele>
        <time>2023-12-03T10:43:10.000Z</time>
      </trkpt>
      <trkpt lat="43.51598" lon="6.28219">
        <ele>214.6</ele>
        <time>2023-12-03T10:43:16.000Z</time>
      </trkpt>
      <trkpt lat="43.516" lon="6.28224">
        <ele>214.6</ele>
        <time>2023-12-03T10:43:22.000Z</time>
      </trkpt>
      <trkpt lat="43.516" lon="6.28225">
        <ele>214.6</ele>
        <time>2023-12-03T10:43:23.000Z</time>
      </trkpt>
      <trkpt lat="43.51605" lon="6.28233">
        <ele>214.2</ele>
        <time>2023-12-03T10:43:36.000Z</time>
      </trkpt>
      <trkpt lat="43.51605" lon="6.28239">
        <ele>213.9</ele>
        <time>2023-12-03T10:43:47.000Z</time>
      </trkpt>
      <trkpt lat="43.51607" lon="6.28244">
        <ele>213.6</ele>
        <time>2023-12-03T10:43:55.000Z</time>
      </trkpt>
      <trkpt lat="43.51607" lon="6.28249">
        <ele>213.3</ele>
        <time>2023-12-03T10:44:05.000Z</time>
      </trkpt>
      <trkpt lat="43.51604" lon="6.28254">
        <ele>213.1</ele>
        <time>2023-12-03T10:44:10.000Z</time>
      </trkpt>
      <trkpt lat="43.51603" lon="6.2826">
        <ele>212.9</ele>
        <time>2023-12-03T10:44:14.000Z</time>
      </trkpt>
      <trkpt lat="43.51601" lon="6.28265">
        <ele>212.7</ele>
        <time>2023-12-03T10:44:19.000Z</time>
      </trkpt>
      <trkpt lat="43.516" lon="6.28269">
        <ele>212.4</ele>
        <time>2023-12-03T10:44:22.000Z</time>
      </trkpt>
      <trkpt lat="43.51599" lon="6.28275">
        <ele>212.1</ele>
        <time>2023-12-03T10:44:26.000Z</time>
      </trkpt>
      <trkpt lat="43.51598" lon="6.28277">
        <ele>212</ele>
        <time>2023-12-03T10:44:27.000Z</time>
      </trkpt>
      <trkpt lat="43.51596" lon="6.28285">
        <ele>211.4</ele>
        <time>2023-12-03T10:44:34.000Z</time>
      </trkpt>
      <trkpt lat="43.51594" lon="6.2829">
        <ele>211.1</ele>
        <time>2023-12-03T10:44:38.000Z</time>
      </trkpt>
      <trkpt lat="43.51592" lon="6.28295">
        <ele>210.8</ele>
        <time>2023-12-03T10:44:42.000Z</time>
      </trkpt>
      <trkpt lat="43.51591" lon="6.283">
        <ele>210.4</ele>
        <time>2023-12-03T10:44:46.000Z</time>
      </trkpt>
      <trkpt lat="43.51594" lon="6.28305">
        <ele>209.9</ele>
        <time>2023-12-03T10:44:52.000Z</time>
      </trkpt>
      <trkpt lat="43.51598" lon="6.28303">
        <ele>209.4</ele>
        <time>2023-12-03T10:44:57.000Z</time>
      </trkpt>
      <trkpt lat="43.51602" lon="6.28301">
        <ele>208.9</ele>
        <time>2023-12-03T10:45:03.000Z</time>
      </trkpt>
      <trkpt lat="43.51606" lon="6.283">
        <ele>208.5</ele>
        <time>2023-12-03T10:45:08.000Z</time>
      </trkpt>
      <trkpt lat="43.5161" lon="6.28298">
        <ele>208.2</ele>
        <time>2023-12-03T10:45:13.000Z</time>
      </trkpt>
      <trkpt lat="43.51614" lon="6.28295">
        <ele>207.9</ele>
        <time>2023-12-03T10:45:18.000Z</time>
      </trkpt>
      <trkpt lat="43.51618" lon="6.28293">
        <ele>207.6</ele>
        <time>2023-12-03T10:45:22.000Z</time>
      </trkpt>
      <trkpt lat="43.51621" lon="6.28292">
        <ele>207.3</ele>
        <time>2023-12-03T10:45:26.000Z</time>
      </trkpt>
      <trkpt lat="43.51625" lon="6.28288">
        <ele>207.1</ele>
        <time>2023-12-03T10:45:30.000Z</time>
      </trkpt>
      <trkpt lat="43.51627" lon="6.28288">
        <ele>207.1</ele>
        <time>2023-12-03T10:45:31.000Z</time>
      </trkpt>
      <trkpt lat="43.51633" lon="6.28284">
        <ele>206.9</ele>
        <time>2023-12-03T10:45:36.000Z</time>
      </trkpt>
      <trkpt lat="43.51637" lon="6.28282">
        <ele>206.7</ele>
        <time>2023-12-03T10:45:40.000Z</time>
      </trkpt>
      <trkpt lat="43.5164" lon="6.28281">
        <ele>206.5</ele>
        <time>2023-12-03T10:45:45.000Z</time>
      </trkpt>
      <trkpt lat="43.51644" lon="6.28278">
        <ele>206.4</ele>
        <time>2023-12-03T10:45:49.000Z</time>
      </trkpt>
      <trkpt lat="43.51648" lon="6.28275">
        <ele>206.3</ele>
        <time>2023-12-03T10:45:53.000Z</time>
      </trkpt>
      <trkpt lat="43.51651" lon="6.28273">
        <ele>206.2</ele>
        <time>2023-12-03T10:45:56.000Z</time>
      </trkpt>
      <trkpt lat="43.51655" lon="6.28271">
        <ele>206.1</ele>
        <time>2023-12-03T10:45:59.000Z</time>
      </trkpt>
      <trkpt lat="43.51658" lon="6.28269">
        <ele>206</ele>
        <time>2023-12-03T10:46:02.000Z</time>
      </trkpt>
      <trkpt lat="43.51662" lon="6.28268">
        <ele>205.8</ele>
        <time>2023-12-03T10:46:05.000Z</time>
      </trkpt>
      <trkpt lat="43.51666" lon="6.28266">
        <ele>205.7</ele>
        <time>2023-12-03T10:46:08.000Z</time>
      </trkpt>
      <trkpt lat="43.5167" lon="6.28266">
        <ele>205.5</ele>
        <time>2023-12-03T10:46:13.000Z</time>
      </trkpt>
      <trkpt lat="43.51674" lon="6.2827">
        <ele>205.2</ele>
        <time>2023-12-03T10:46:20.000Z</time>
      </trkpt>
      <trkpt lat="43.51676" lon="6.28275">
        <ele>205.2</ele>
        <time>2023-12-03T10:46:24.000Z</time>
      </trkpt>
      <trkpt lat="43.51677" lon="6.28279">
        <ele>205.1</ele>
        <time>2023-12-03T10:46:27.000Z</time>
      </trkpt>
      <trkpt lat="43.51678" lon="6.28283">
        <ele>205.1</ele>
        <time>2023-12-03T10:46:29.000Z</time>
      </trkpt>
      <trkpt lat="43.51679" lon="6.28289">
        <ele>205</ele>
        <time>2023-12-03T10:46:32.000Z</time>
      </trkpt>
      <trkpt lat="43.51679" lon="6.28291">
        <ele>205</ele>
        <time>2023-12-03T10:46:33.000Z</time>
      </trkpt>
      <trkpt lat="43.51679" lon="6.28301">
        <ele>205</ele>
        <time>2023-12-03T10:46:38.000Z</time>
      </trkpt>
      <trkpt lat="43.51677" lon="6.28306">
        <ele>204.9</ele>
        <time>2023-12-03T10:46:42.000Z</time>
      </trkpt>
      <trkpt lat="43.51675" lon="6.28311">
        <ele>204.9</ele>
        <time>2023-12-03T10:46:46.000Z</time>
      </trkpt>
      <trkpt lat="43.51672" lon="6.28314">
        <ele>204.9</ele>
        <time>2023-12-03T10:46:49.000Z</time>
      </trkpt>
      <trkpt lat="43.5167" lon="6.28319">
        <ele>204.8</ele>
        <time>2023-12-03T10:46:53.000Z</time>
      </trkpt>
      <trkpt lat="43.51668" lon="6.28324">
        <ele>204.8</ele>
        <time>2023-12-03T10:46:56.000Z</time>
      </trkpt>
      <trkpt lat="43.51666" lon="6.28328">
        <ele>204.8</ele>
        <time>2023-12-03T10:46:59.000Z</time>
      </trkpt>
      <trkpt lat="43.51664" lon="6.28332">
        <ele>204.8</ele>
        <time>2023-12-03T10:47:02.000Z</time>
      </trkpt>
      <trkpt lat="43.5166" lon="6.28336">
        <ele>204.9</ele>
        <time>2023-12-03T10:47:05.000Z</time>
      </trkpt>
      <trkpt lat="43.51658" lon="6.28341">
        <ele>204.9</ele>
        <time>2023-12-03T10:47:09.000Z</time>
      </trkpt>
      <trkpt lat="43.51656" lon="6.28347">
        <ele>204.9</ele>
        <time>2023-12-03T10:47:18.000Z</time>
      </trkpt>
      <trkpt lat="43.51653" lon="6.28351">
        <ele>204.9</ele>
        <time>2023-12-03T10:47:22.000Z</time>
      </trkpt>
      <trkpt lat="43.5165" lon="6.28356">
        <ele>204.8</ele>
        <time>2023-12-03T10:47:26.000Z</time>
      </trkpt>
      <trkpt lat="43.51648" lon="6.28359">
        <ele>204.8</ele>
        <time>2023-12-03T10:47:29.000Z</time>
      </trkpt>
      <trkpt lat="43.51645" lon="6.28362">
        <ele>204.8</ele>
        <time>2023-12-03T10:47:32.000Z</time>
      </trkpt>
      <trkpt lat="43.51642" lon="6.28366">
        <ele>204.7</ele>
        <time>2023-12-03T10:47:35.000Z</time>
      </trkpt>
      <trkpt lat="43.51641" lon="6.28367">
        <ele>204.7</ele>
        <time>2023-12-03T10:47:36.000Z</time>
      </trkpt>
      <trkpt lat="43.51638" lon="6.28374">
        <ele>204.7</ele>
        <time>2023-12-03T10:47:41.000Z</time>
      </trkpt>
      <trkpt lat="43.51636" lon="6.28379">
        <ele>204.7</ele>
        <time>2023-12-03T10:47:44.000Z</time>
      </trkpt>
      <trkpt lat="43.51633" lon="6.28384">
        <ele>204.7</ele>
        <time>2023-12-03T10:47:48.000Z</time>
      </trkpt>
      <trkpt lat="43.51631" lon="6.28388">
        <ele>204.6</ele>
        <time>2023-12-03T10:47:51.000Z</time>
      </trkpt>
      <trkpt lat="43.5163" lon="6.28393">
        <ele>204.6</ele>
        <time>2023-12-03T10:47:54.000Z</time>
      </trkpt>
      <trkpt lat="43.51628" lon="6.28398">
        <ele>204.5</ele>
        <time>2023-12-03T10:47:57.000Z</time>
      </trkpt>
      <trkpt lat="43.51626" lon="6.28403">
        <ele>204.5</ele>
        <time>2023-12-03T10:48:00.000Z</time>
      </trkpt>
      <trkpt lat="43.51623" lon="6.28407">
        <ele>204.5</ele>
        <time>2023-12-03T10:48:03.000Z</time>
      </trkpt>
      <trkpt lat="43.51621" lon="6.28411">
        <ele>204.4</ele>
        <time>2023-12-03T10:48:06.000Z</time>
      </trkpt>
      <trkpt lat="43.51619" lon="6.28416">
        <ele>204.4</ele>
        <time>2023-12-03T10:48:10.000Z</time>
      </trkpt>
      <trkpt lat="43.51616" lon="6.2842">
        <ele>204.4</ele>
        <time>2023-12-03T10:48:14.000Z</time>
      </trkpt>
      <trkpt lat="43.51615" lon="6.28424">
        <ele>204.4</ele>
        <time>2023-12-03T10:48:17.000Z</time>
      </trkpt>
      <trkpt lat="43.51612" lon="6.28427">
        <ele>204.3</ele>
        <time>2023-12-03T10:48:20.000Z</time>
      </trkpt>
      <trkpt lat="43.51609" lon="6.28431">
        <ele>204.3</ele>
        <time>2023-12-03T10:48:23.000Z</time>
      </trkpt>
      <trkpt lat="43.51607" lon="6.28435">
        <ele>204.2</ele>
        <time>2023-12-03T10:48:26.000Z</time>
      </trkpt>
      <trkpt lat="43.51605" lon="6.2844">
        <ele>204.2</ele>
        <time>2023-12-03T10:48:29.000Z</time>
      </trkpt>
      <trkpt lat="43.51603" lon="6.28444">
        <ele>204.2</ele>
        <time>2023-12-03T10:48:32.000Z</time>
      </trkpt>
      <trkpt lat="43.51601" lon="6.28449">
        <ele>204.2</ele>
        <time>2023-12-03T10:48:37.000Z</time>
      </trkpt>
      <trkpt lat="43.516" lon="6.2845">
        <ele>204.2</ele>
        <time>2023-12-03T10:48:38.000Z</time>
      </trkpt>
      <trkpt lat="43.51598" lon="6.28458">
        <ele>204.2</ele>
        <time>2023-12-03T10:48:46.000Z</time>
      </trkpt>
      <trkpt lat="43.51596" lon="6.28462">
        <ele>204.2</ele>
        <time>2023-12-03T10:48:49.000Z</time>
      </trkpt>
      <trkpt lat="43.51593" lon="6.28466">
        <ele>204.2</ele>
        <time>2023-12-03T10:48:52.000Z</time>
      </trkpt>
      <trkpt lat="43.51591" lon="6.2847">
        <ele>204.2</ele>
        <time>2023-12-03T10:48:55.000Z</time>
      </trkpt>
      <trkpt lat="43.51589" lon="6.28474">
        <ele>204.2</ele>
        <time>2023-12-03T10:48:58.000Z</time>
      </trkpt>
      <trkpt lat="43.51586" lon="6.28479">
        <ele>204.2</ele>
        <time>2023-12-03T10:49:02.000Z</time>
      </trkpt>
      <trkpt lat="43.51584" lon="6.28483">
        <ele>204.2</ele>
        <time>2023-12-03T10:49:05.000Z</time>
      </trkpt>
      <trkpt lat="43.51582" lon="6.28487">
        <ele>204.2</ele>
        <time>2023-12-03T10:49:08.000Z</time>
      </trkpt>
      <trkpt lat="43.5158" lon="6.28491">
        <ele>204.3</ele>
        <time>2023-12-03T10:49:11.000Z</time>
      </trkpt>
      <trkpt lat="43.51578" lon="6.28496">
        <ele>204.4</ele>
        <time>2023-12-03T10:49:15.000Z</time>
      </trkpt>
      <trkpt lat="43.51576" lon="6.285">
        <ele>204.5</ele>
        <time>2023-12-03T10:49:18.000Z</time>
      </trkpt>
      <trkpt lat="43.51574" lon="6.28504">
        <ele>204.7</ele>
        <time>2023-12-03T10:49:21.000Z</time>
      </trkpt>
      <trkpt lat="43.51572" lon="6.28508">
        <ele>204.8</ele>
        <time>2023-12-03T10:49:24.000Z</time>
      </trkpt>
      <trkpt lat="43.5157" lon="6.28512">
        <ele>204.9</ele>
        <time>2023-12-03T10:49:27.000Z</time>
      </trkpt>
      <trkpt lat="43.51568" lon="6.28517">
        <ele>205.2</ele>
        <time>2023-12-03T10:49:31.000Z</time>
      </trkpt>
      <trkpt lat="43.51566" lon="6.28521">
        <ele>205.5</ele>
        <time>2023-12-03T10:49:35.000Z</time>
      </trkpt>
      <trkpt lat="43.51565" lon="6.28526">
        <ele>205.9</ele>
        <time>2023-12-03T10:49:39.000Z</time>
      </trkpt>
      <trkpt lat="43.51564" lon="6.28528">
        <ele>206</ele>
        <time>2023-12-03T10:49:40.000Z</time>
      </trkpt>
      <trkpt lat="43.51561" lon="6.28537">
        <ele>206.8</ele>
        <time>2023-12-03T10:49:48.000Z</time>
      </trkpt>
      <trkpt lat="43.51559" lon="6.28541">
        <ele>207</ele>
        <time>2023-12-03T10:49:51.000Z</time>
      </trkpt>
      <trkpt lat="43.51556" lon="6.28545">
        <ele>207.2</ele>
        <time>2023-12-03T10:49:54.000Z</time>
      </trkpt>
      <trkpt lat="43.51554" lon="6.28549">
        <ele>207.4</ele>
        <time>2023-12-03T10:49:57.000Z</time>
      </trkpt>
      <trkpt lat="43.51552" lon="6.28553">
        <ele>207.7</ele>
        <time>2023-12-03T10:50:00.000Z</time>
      </trkpt>
      <trkpt lat="43.5155" lon="6.28558">
        <ele>208.1</ele>
        <time>2023-12-03T10:50:03.000Z</time>
      </trkpt>
      <trkpt lat="43.51549" lon="6.28564">
        <ele>208.5</ele>
        <time>2023-12-03T10:50:07.000Z</time>
      </trkpt>
      <trkpt lat="43.51547" lon="6.28568">
        <ele>208.7</ele>
        <time>2023-12-03T10:50:10.000Z</time>
      </trkpt>
      <trkpt lat="43.51545" lon="6.28573">
        <ele>208.9</ele>
        <time>2023-12-03T10:50:13.000Z</time>
      </trkpt>
      <trkpt lat="43.51543" lon="6.28577">
        <ele>209</ele>
        <time>2023-12-03T10:50:16.000Z</time>
      </trkpt>
      <trkpt lat="43.51542" lon="6.28581">
        <ele>209.1</ele>
        <time>2023-12-03T10:50:19.000Z</time>
      </trkpt>
      <trkpt lat="43.5154" lon="6.28586">
        <ele>209.1</ele>
        <time>2023-12-03T10:50:22.000Z</time>
      </trkpt>
      <trkpt lat="43.51538" lon="6.28591">
        <ele>209.1</ele>
        <time>2023-12-03T10:50:25.000Z</time>
      </trkpt>
      <trkpt lat="43.51536" lon="6.28595">
        <ele>209.1</ele>
        <time>2023-12-03T10:50:28.000Z</time>
      </trkpt>
      <trkpt lat="43.51534" lon="6.286">
        <ele>209</ele>
        <time>2023-12-03T10:50:31.000Z</time>
      </trkpt>
      <trkpt lat="43.51533" lon="6.28605">
        <ele>209</ele>
        <time>2023-12-03T10:50:34.000Z</time>
      </trkpt>
      <trkpt lat="43.51531" lon="6.28609">
        <ele>209</ele>
        <time>2023-12-03T10:50:37.000Z</time>
      </trkpt>
      <trkpt lat="43.51529" lon="6.28615">
        <ele>208.8</ele>
        <time>2023-12-03T10:50:41.000Z</time>
      </trkpt>
      <trkpt lat="43.51529" lon="6.28616">
        <ele>208.8</ele>
        <time>2023-12-03T10:50:42.000Z</time>
      </trkpt>
      <trkpt lat="43.51525" lon="6.28625">
        <ele>208.5</ele>
        <time>2023-12-03T10:50:49.000Z</time>
      </trkpt>
      <trkpt lat="43.51524" lon="6.28629">
        <ele>208.4</ele>
        <time>2023-12-03T10:50:52.000Z</time>
      </trkpt>
      <trkpt lat="43.51523" lon="6.28634">
        <ele>208.3</ele>
        <time>2023-12-03T10:50:55.000Z</time>
      </trkpt>
      <trkpt lat="43.51521" lon="6.28639">
        <ele>208.1</ele>
        <time>2023-12-03T10:50:59.000Z</time>
      </trkpt>
      <trkpt lat="43.51519" lon="6.28644">
        <ele>207.8</ele>
        <time>2023-12-03T10:51:12.000Z</time>
      </trkpt>
      <trkpt lat="43.51516" lon="6.28649">
        <ele>207.2</ele>
        <time>2023-12-03T10:51:35.000Z</time>
      </trkpt>
      <trkpt lat="43.51516" lon="6.28654">
        <ele>207.1</ele>
        <time>2023-12-03T10:51:42.000Z</time>
      </trkpt>
      <trkpt lat="43.51516" lon="6.28655">
        <ele>207.1</ele>
        <time>2023-12-03T10:51:43.000Z</time>
      </trkpt>
      <trkpt lat="43.51521" lon="6.28663">
        <ele>207.1</ele>
        <time>2023-12-03T10:51:52.000Z</time>
      </trkpt>
      <trkpt lat="43.51524" lon="6.28667">
        <ele>207.1</ele>
        <time>2023-12-03T10:51:59.000Z</time>
      </trkpt>
      <trkpt lat="43.51524" lon="6.28673">
        <ele>207</ele>
        <time>2023-12-03T10:52:04.000Z</time>
      </trkpt>
      <trkpt lat="43.51523" lon="6.28678">
        <ele>207</ele>
        <time>2023-12-03T10:52:08.000Z</time>
      </trkpt>
      <trkpt lat="43.51522" lon="6.28684">
        <ele>207</ele>
        <time>2023-12-03T10:52:12.000Z</time>
      </trkpt>
      <trkpt lat="43.5152" lon="6.28688">
        <ele>207</ele>
        <time>2023-12-03T10:52:16.000Z</time>
      </trkpt>
      <trkpt lat="43.51518" lon="6.28693">
        <ele>207</ele>
        <time>2023-12-03T10:52:20.000Z</time>
      </trkpt>
      <trkpt lat="43.51516" lon="6.28698">
        <ele>207</ele>
        <time>2023-12-03T10:52:24.000Z</time>
      </trkpt>
      <trkpt lat="43.51513" lon="6.28701">
        <ele>207</ele>
        <time>2023-12-03T10:52:28.000Z</time>
      </trkpt>
      <trkpt lat="43.51512" lon="6.28706">
        <ele>207</ele>
        <time>2023-12-03T10:52:31.000Z</time>
      </trkpt>
      <trkpt lat="43.51511" lon="6.28711">
        <ele>207</ele>
        <time>2023-12-03T10:52:35.000Z</time>
      </trkpt>
      <trkpt lat="43.51509" lon="6.28716">
        <ele>207</ele>
        <time>2023-12-03T10:52:39.000Z</time>
      </trkpt>
      <trkpt lat="43.51507" lon="6.28722">
        <ele>207</ele>
        <time>2023-12-03T10:52:43.000Z</time>
      </trkpt>
      <trkpt lat="43.51506" lon="6.28723">
        <ele>207</ele>
        <time>2023-12-03T10:52:44.000Z</time>
      </trkpt>
      <trkpt lat="43.51504" lon="6.2873">
        <ele>207</ele>
        <time>2023-12-03T10:52:50.000Z</time>
      </trkpt>
      <trkpt lat="43.51502" lon="6.28735">
        <ele>207.1</ele>
        <time>2023-12-03T10:52:54.000Z</time>
      </trkpt>
      <trkpt lat="43.515" lon="6.2874">
        <ele>207.1</ele>
        <time>2023-12-03T10:52:57.000Z</time>
      </trkpt>
      <trkpt lat="43.51498" lon="6.28745">
        <ele>207.1</ele>
        <time>2023-12-03T10:53:01.000Z</time>
      </trkpt>
      <trkpt lat="43.51497" lon="6.28749">
        <ele>207.1</ele>
        <time>2023-12-03T10:53:04.000Z</time>
      </trkpt>
      <trkpt lat="43.51495" lon="6.28755">
        <ele>207.1</ele>
        <time>2023-12-03T10:53:08.000Z</time>
      </trkpt>
      <trkpt lat="43.51494" lon="6.2876">
        <ele>207.1</ele>
        <time>2023-12-03T10:53:11.000Z</time>
      </trkpt>
      <trkpt lat="43.51492" lon="6.28764">
        <ele>207.1</ele>
        <time>2023-12-03T10:53:14.000Z</time>
      </trkpt>
      <trkpt lat="43.5149" lon="6.28768">
        <ele>207.1</ele>
        <time>2023-12-03T10:53:18.000Z</time>
      </trkpt>
      <trkpt lat="43.51486" lon="6.28771">
        <ele>207.1</ele>
        <time>2023-12-03T10:53:22.000Z</time>
      </trkpt>
      <trkpt lat="43.51484" lon="6.28775">
        <ele>207</ele>
        <time>2023-12-03T10:53:27.000Z</time>
      </trkpt>
      <trkpt lat="43.51481" lon="6.28779">
        <ele>206.9</ele>
        <time>2023-12-03T10:53:33.000Z</time>
      </trkpt>
      <trkpt lat="43.51478" lon="6.28783">
        <ele>206.9</ele>
        <time>2023-12-03T10:53:37.000Z</time>
      </trkpt>
      <trkpt lat="43.51476" lon="6.28787">
        <ele>206.8</ele>
        <time>2023-12-03T10:53:42.000Z</time>
      </trkpt>
      <trkpt lat="43.51473" lon="6.28792">
        <ele>206.6</ele>
        <time>2023-12-03T10:53:50.000Z</time>
      </trkpt>
      <trkpt lat="43.51472" lon="6.28792">
        <ele>206.6</ele>
        <time>2023-12-03T10:53:51.000Z</time>
      </trkpt>
      <trkpt lat="43.51465" lon="6.28788">
        <ele>205.8</ele>
        <time>2023-12-03T10:55:19.000Z</time>
      </trkpt>
      <trkpt lat="43.51465" lon="6.28788">
        <ele>205.8</ele>
        <time>2023-12-03T10:55:20.000Z</time>
      </trkpt>
      <trkpt lat="43.51469" lon="6.2879">
        <ele>206.5</ele>
        <time>2023-12-03T11:30:39.000Z</time>
      </trkpt>
      <trkpt lat="43.51469" lon="6.2879">
        <ele>206.5</ele>
        <time>2023-12-03T11:30:40.000Z</time>
      </trkpt>
      <trkpt lat="43.51472" lon="6.28786">
        <ele>206.6</ele>
        <time>2023-12-03T11:35:26.000Z</time>
      </trkpt>
      <trkpt lat="43.51473" lon="6.28786">
        <ele>206.6</ele>
        <time>2023-12-03T11:35:27.000Z</time>
      </trkpt>
      <trkpt lat="43.5148" lon="6.28781">
        <ele>207</ele>
        <time>2023-12-03T11:35:38.000Z</time>
      </trkpt>
      <trkpt lat="43.51483" lon="6.28778">
        <ele>207.3</ele>
        <time>2023-12-03T11:35:43.000Z</time>
      </trkpt>
      <trkpt lat="43.51485" lon="6.28773">
        <ele>207.5</ele>
        <time>2023-12-03T11:35:47.000Z</time>
      </trkpt>
      <trkpt lat="43.51487" lon="6.28768">
        <ele>207.2</ele>
        <time>2023-12-03T11:35:51.000Z</time>
      </trkpt>
      <trkpt lat="43.51488" lon="6.28763">
        <ele>207.3</ele>
        <time>2023-12-03T11:35:55.000Z</time>
      </trkpt>
      <trkpt lat="43.51489" lon="6.28759">
        <ele>207.2</ele>
        <time>2023-12-03T11:35:59.000Z</time>
      </trkpt>
      <trkpt lat="43.51492" lon="6.28754">
        <ele>207.4</ele>
        <time>2023-12-03T11:36:04.000Z</time>
      </trkpt>
      <trkpt lat="43.51494" lon="6.2875">
        <ele>207.6</ele>
        <time>2023-12-03T11:36:08.000Z</time>
      </trkpt>
      <trkpt lat="43.51496" lon="6.28744">
        <ele>207.8</ele>
        <time>2023-12-03T11:36:13.000Z</time>
      </trkpt>
      <trkpt lat="43.51497" lon="6.2874">
        <ele>207.7</ele>
        <time>2023-12-03T11:36:17.000Z</time>
      </trkpt>
      <trkpt lat="43.51499" lon="6.28735">
        <ele>207.8</ele>
        <time>2023-12-03T11:36:21.000Z</time>
      </trkpt>
      <trkpt lat="43.51501" lon="6.2873">
        <ele>207.9</ele>
        <time>2023-12-03T11:36:26.000Z</time>
      </trkpt>
      <trkpt lat="43.51503" lon="6.28725">
        <ele>207.8</ele>
        <time>2023-12-03T11:36:31.000Z</time>
      </trkpt>
      <trkpt lat="43.51504" lon="6.28723">
        <ele>207.7</ele>
        <time>2023-12-03T11:36:32.000Z</time>
      </trkpt>
      <trkpt lat="43.51506" lon="6.28715">
        <ele>207.9</ele>
        <time>2023-12-03T11:36:39.000Z</time>
      </trkpt>
      <trkpt lat="43.51509" lon="6.2871">
        <ele>208</ele>
        <time>2023-12-03T11:36:43.000Z</time>
      </trkpt>
      <trkpt lat="43.51511" lon="6.28705">
        <ele>207.9</ele>
        <time>2023-12-03T11:36:47.000Z</time>
      </trkpt>
      <trkpt lat="43.51513" lon="6.28701">
        <ele>207.9</ele>
        <time>2023-12-03T11:36:51.000Z</time>
      </trkpt>
      <trkpt lat="43.51515" lon="6.28696">
        <ele>208</ele>
        <time>2023-12-03T11:36:55.000Z</time>
      </trkpt>
      <trkpt lat="43.51517" lon="6.2869">
        <ele>208.2</ele>
        <time>2023-12-03T11:36:59.000Z</time>
      </trkpt>
      <trkpt lat="43.51518" lon="6.28685">
        <ele>208.2</ele>
        <time>2023-12-03T11:37:03.000Z</time>
      </trkpt>
      <trkpt lat="43.5152" lon="6.28681">
        <ele>208.2</ele>
        <time>2023-12-03T11:37:06.000Z</time>
      </trkpt>
      <trkpt lat="43.51523" lon="6.28677">
        <ele>208.1</ele>
        <time>2023-12-03T11:37:09.000Z</time>
      </trkpt>
      <trkpt lat="43.51525" lon="6.28672">
        <ele>208</ele>
        <time>2023-12-03T11:37:13.000Z</time>
      </trkpt>
      <trkpt lat="43.51529" lon="6.28673">
        <ele>207.8</ele>
        <time>2023-12-03T11:37:17.000Z</time>
      </trkpt>
      <trkpt lat="43.51533" lon="6.28675">
        <ele>207.8</ele>
        <time>2023-12-03T11:37:21.000Z</time>
      </trkpt>
      <trkpt lat="43.51536" lon="6.28677">
        <ele>207.8</ele>
        <time>2023-12-03T11:37:25.000Z</time>
      </trkpt>
      <trkpt lat="43.5154" lon="6.28679">
        <ele>208</ele>
        <time>2023-12-03T11:37:29.000Z</time>
      </trkpt>
      <trkpt lat="43.51544" lon="6.28681">
        <ele>208</ele>
        <time>2023-12-03T11:37:32.000Z</time>
      </trkpt>
      <trkpt lat="43.51545" lon="6.28681">
        <ele>207.9</ele>
        <time>2023-12-03T11:37:33.000Z</time>
      </trkpt>
      <trkpt lat="43.5155" lon="6.28685">
        <ele>208</ele>
        <time>2023-12-03T11:37:38.000Z</time>
      </trkpt>
      <trkpt lat="43.51554" lon="6.28686">
        <ele>208</ele>
        <time>2023-12-03T11:37:41.000Z</time>
      </trkpt>
      <trkpt lat="43.51557" lon="6.28689">
        <ele>208</ele>
        <time>2023-12-03T11:37:44.000Z</time>
      </trkpt>
      <trkpt lat="43.5156" lon="6.28691">
        <ele>208.1</ele>
        <time>2023-12-03T11:37:47.000Z</time>
      </trkpt>
      <trkpt lat="43.51564" lon="6.28693">
        <ele>208.4</ele>
        <time>2023-12-03T11:37:51.000Z</time>
      </trkpt>
      <trkpt lat="43.51568" lon="6.28696">
        <ele>208.5</ele>
        <time>2023-12-03T11:37:55.000Z</time>
      </trkpt>
      <trkpt lat="43.51572" lon="6.28697">
        <ele>208.4</ele>
        <time>2023-12-03T11:37:59.000Z</time>
      </trkpt>
      <trkpt lat="43.51576" lon="6.28699">
        <ele>208.4</ele>
        <time>2023-12-03T11:38:03.000Z</time>
      </trkpt>
      <trkpt lat="43.5158" lon="6.28702">
        <ele>208.3</ele>
        <time>2023-12-03T11:38:07.000Z</time>
      </trkpt>
      <trkpt lat="43.51584" lon="6.28704">
        <ele>208.4</ele>
        <time>2023-12-03T11:38:12.000Z</time>
      </trkpt>
      <trkpt lat="43.51588" lon="6.28707">
        <ele>208.5</ele>
        <time>2023-12-03T11:38:16.000Z</time>
      </trkpt>
      <trkpt lat="43.51592" lon="6.28709">
        <ele>208.6</ele>
        <time>2023-12-03T11:38:20.000Z</time>
      </trkpt>
      <trkpt lat="43.51595" lon="6.28712">
        <ele>208.6</ele>
        <time>2023-12-03T11:38:23.000Z</time>
      </trkpt>
      <trkpt lat="43.51597" lon="6.28715">
        <ele>208.7</ele>
        <time>2023-12-03T11:38:25.000Z</time>
      </trkpt>
      <trkpt lat="43.516" lon="6.28718">
        <ele>208.8</ele>
        <time>2023-12-03T11:38:28.000Z</time>
      </trkpt>
      <trkpt lat="43.51602" lon="6.28722">
        <ele>208.9</ele>
        <time>2023-12-03T11:38:31.000Z</time>
      </trkpt>
      <trkpt lat="43.51605" lon="6.28725">
        <ele>209.1</ele>
        <time>2023-12-03T11:38:34.000Z</time>
      </trkpt>
      <trkpt lat="43.51606" lon="6.28726">
        <ele>209.2</ele>
        <time>2023-12-03T11:38:35.000Z</time>
      </trkpt>
      <trkpt lat="43.51609" lon="6.28732">
        <ele>209.3</ele>
        <time>2023-12-03T11:38:39.000Z</time>
      </trkpt>
      <trkpt lat="43.51612" lon="6.28736">
        <ele>209.4</ele>
        <time>2023-12-03T11:38:42.000Z</time>
      </trkpt>
      <trkpt lat="43.51615" lon="6.2874">
        <ele>209.5</ele>
        <time>2023-12-03T11:38:45.000Z</time>
      </trkpt>
      <trkpt lat="43.51617" lon="6.28744">
        <ele>209.8</ele>
        <time>2023-12-03T11:38:49.000Z</time>
      </trkpt>
      <trkpt lat="43.51619" lon="6.28748">
        <ele>210</ele>
        <time>2023-12-03T11:38:52.000Z</time>
      </trkpt>
      <trkpt lat="43.51622" lon="6.28752">
        <ele>209.9</ele>
        <time>2023-12-03T11:38:55.000Z</time>
      </trkpt>
      <trkpt lat="43.51625" lon="6.28756">
        <ele>210.2</ele>
        <time>2023-12-03T11:38:58.000Z</time>
      </trkpt>
      <trkpt lat="43.51627" lon="6.28759">
        <ele>210.5</ele>
        <time>2023-12-03T11:39:01.000Z</time>
      </trkpt>
      <trkpt lat="43.51631" lon="6.28763">
        <ele>210.6</ele>
        <time>2023-12-03T11:39:05.000Z</time>
      </trkpt>
      <trkpt lat="43.51634" lon="6.28766">
        <ele>210.7</ele>
        <time>2023-12-03T11:39:09.000Z</time>
      </trkpt>
      <trkpt lat="43.51637" lon="6.2877">
        <ele>210.8</ele>
        <time>2023-12-03T11:39:13.000Z</time>
      </trkpt>
      <trkpt lat="43.5164" lon="6.28773">
        <ele>210.9</ele>
        <time>2023-12-03T11:39:16.000Z</time>
      </trkpt>
      <trkpt lat="43.51644" lon="6.28777">
        <ele>211</ele>
        <time>2023-12-03T11:39:19.000Z</time>
      </trkpt>
      <trkpt lat="43.51646" lon="6.2878">
        <ele>211.1</ele>
        <time>2023-12-03T11:39:22.000Z</time>
      </trkpt>
      <trkpt lat="43.5165" lon="6.28783">
        <ele>211.3</ele>
        <time>2023-12-03T11:39:26.000Z</time>
      </trkpt>
      <trkpt lat="43.51652" lon="6.28787">
        <ele>211.4</ele>
        <time>2023-12-03T11:39:29.000Z</time>
      </trkpt>
      <trkpt lat="43.51655" lon="6.2879">
        <ele>211.5</ele>
        <time>2023-12-03T11:39:33.000Z</time>
      </trkpt>
      <trkpt lat="43.51658" lon="6.28794">
        <ele>211.6</ele>
        <time>2023-12-03T11:39:36.000Z</time>
      </trkpt>
      <trkpt lat="43.51659" lon="6.28795">
        <ele>211.6</ele>
        <time>2023-12-03T11:39:37.000Z</time>
      </trkpt>
      <trkpt lat="43.51664" lon="6.28801">
        <ele>212</ele>
        <time>2023-12-03T11:39:42.000Z</time>
      </trkpt>
      <trkpt lat="43.51667" lon="6.28804">
        <ele>212</ele>
        <time>2023-12-03T11:39:45.000Z</time>
      </trkpt>
      <trkpt lat="43.51671" lon="6.28807">
        <ele>212</ele>
        <time>2023-12-03T11:39:49.000Z</time>
      </trkpt>
      <trkpt lat="43.51675" lon="6.28811">
        <ele>212</ele>
        <time>2023-12-03T11:39:53.000Z</time>
      </trkpt>
      <trkpt lat="43.51678" lon="6.28814">
        <ele>212.4</ele>
        <time>2023-12-03T11:39:57.000Z</time>
      </trkpt>
      <trkpt lat="43.51682" lon="6.28817">
        <ele>212.6</ele>
        <time>2023-12-03T11:40:01.000Z</time>
      </trkpt>
      <trkpt lat="43.51685" lon="6.2882">
        <ele>212.9</ele>
        <time>2023-12-03T11:40:05.000Z</time>
      </trkpt>
      <trkpt lat="43.51688" lon="6.28824">
        <ele>212.9</ele>
        <time>2023-12-03T11:40:10.000Z</time>
      </trkpt>
      <trkpt lat="43.51691" lon="6.28827">
        <ele>213</ele>
        <time>2023-12-03T11:40:13.000Z</time>
      </trkpt>
      <trkpt lat="43.51693" lon="6.28831">
        <ele>213</ele>
        <time>2023-12-03T11:40:16.000Z</time>
      </trkpt>
      <trkpt lat="43.51695" lon="6.28835">
        <ele>213</ele>
        <time>2023-12-03T11:40:19.000Z</time>
      </trkpt>
      <trkpt lat="43.51698" lon="6.2884">
        <ele>213.1</ele>
        <time>2023-12-03T11:40:22.000Z</time>
      </trkpt>
      <trkpt lat="43.517" lon="6.28844">
        <ele>213.2</ele>
        <time>2023-12-03T11:40:25.000Z</time>
      </trkpt>
      <trkpt lat="43.51701" lon="6.28849">
        <ele>213.7</ele>
        <time>2023-12-03T11:40:29.000Z</time>
      </trkpt>
      <trkpt lat="43.51703" lon="6.28853">
        <ele>213.9</ele>
        <time>2023-12-03T11:40:32.000Z</time>
      </trkpt>
      <trkpt lat="43.51704" lon="6.28857">
        <ele>214.1</ele>
        <time>2023-12-03T11:40:35.000Z</time>
      </trkpt>
      <trkpt lat="43.51706" lon="6.28863">
        <ele>214.4</ele>
        <time>2023-12-03T11:40:39.000Z</time>
      </trkpt>
      <trkpt lat="43.51706" lon="6.28865">
        <ele>214.5</ele>
        <time>2023-12-03T11:40:40.000Z</time>
      </trkpt>
      <trkpt lat="43.51709" lon="6.28873">
        <ele>215.2</ele>
        <time>2023-12-03T11:40:46.000Z</time>
      </trkpt>
      <trkpt lat="43.51711" lon="6.28878">
        <ele>215.6</ele>
        <time>2023-12-03T11:40:50.000Z</time>
      </trkpt>
      <trkpt lat="43.51714" lon="6.28883">
        <ele>215.8</ele>
        <time>2023-12-03T11:40:54.000Z</time>
      </trkpt>
      <trkpt lat="43.51717" lon="6.28886">
        <ele>216.1</ele>
        <time>2023-12-03T11:40:58.000Z</time>
      </trkpt>
      <trkpt lat="43.51721" lon="6.28889">
        <ele>216.2</ele>
        <time>2023-12-03T11:41:02.000Z</time>
      </trkpt>
      <trkpt lat="43.51724" lon="6.28891">
        <ele>216.4</ele>
        <time>2023-12-03T11:41:06.000Z</time>
      </trkpt>
      <trkpt lat="43.51728" lon="6.28893">
        <ele>216.5</ele>
        <time>2023-12-03T11:41:09.000Z</time>
      </trkpt>
      <trkpt lat="43.51731" lon="6.28896">
        <ele>216.7</ele>
        <time>2023-12-03T11:41:12.000Z</time>
      </trkpt>
      <trkpt lat="43.51734" lon="6.28899">
        <ele>217.1</ele>
        <time>2023-12-03T11:41:15.000Z</time>
      </trkpt>
      <trkpt lat="43.51737" lon="6.28901">
        <ele>217.3</ele>
        <time>2023-12-03T11:41:18.000Z</time>
      </trkpt>
      <trkpt lat="43.5174" lon="6.28904">
        <ele>217.4</ele>
        <time>2023-12-03T11:41:21.000Z</time>
      </trkpt>
      <trkpt lat="43.51744" lon="6.28906">
        <ele>217.6</ele>
        <time>2023-12-03T11:41:24.000Z</time>
      </trkpt>
      <trkpt lat="43.51747" lon="6.2891">
        <ele>217.7</ele>
        <time>2023-12-03T11:41:28.000Z</time>
      </trkpt>
      <trkpt lat="43.51751" lon="6.28914">
        <ele>217.8</ele>
        <time>2023-12-03T11:41:32.000Z</time>
      </trkpt>
      <trkpt lat="43.51753" lon="6.28916">
        <ele>218</ele>
        <time>2023-12-03T11:41:35.000Z</time>
      </trkpt>
      <trkpt lat="43.51757" lon="6.2892">
        <ele>218.4</ele>
        <time>2023-12-03T11:41:39.000Z</time>
      </trkpt>
      <trkpt lat="43.5176" lon="6.28923">
        <ele>218.4</ele>
        <time>2023-12-03T11:41:43.000Z</time>
      </trkpt>
      <trkpt lat="43.51761" lon="6.28924">
        <ele>218.4</ele>
        <time>2023-12-03T11:41:44.000Z</time>
      </trkpt>
      <trkpt lat="43.51768" lon="6.28927">
        <ele>218.5</ele>
        <time>2023-12-03T11:41:52.000Z</time>
      </trkpt>
      <trkpt lat="43.51772" lon="6.28929">
        <ele>218.6</ele>
        <time>2023-12-03T11:41:56.000Z</time>
      </trkpt>
      <trkpt lat="43.51776" lon="6.28931">
        <ele>219</ele>
        <time>2023-12-03T11:42:00.000Z</time>
      </trkpt>
      <trkpt lat="43.51779" lon="6.28932">
        <ele>219.4</ele>
        <time>2023-12-03T11:42:04.000Z</time>
      </trkpt>
      <trkpt lat="43.51783" lon="6.28933">
        <ele>219.7</ele>
        <time>2023-12-03T11:42:08.000Z</time>
      </trkpt>
      <trkpt lat="43.51787" lon="6.28934">
        <ele>220.2</ele>
        <time>2023-12-03T11:42:13.000Z</time>
      </trkpt>
      <trkpt lat="43.51792" lon="6.28935">
        <ele>220.7</ele>
        <time>2023-12-03T11:42:18.000Z</time>
      </trkpt>
      <trkpt lat="43.51796" lon="6.28937">
        <ele>221.1</ele>
        <time>2023-12-03T11:42:22.000Z</time>
      </trkpt>
      <trkpt lat="43.518" lon="6.28938">
        <ele>221.6</ele>
        <time>2023-12-03T11:42:26.000Z</time>
      </trkpt>
      <trkpt lat="43.51804" lon="6.28939">
        <ele>221.8</ele>
        <time>2023-12-03T11:42:30.000Z</time>
      </trkpt>
      <trkpt lat="43.51808" lon="6.2894">
        <ele>222</ele>
        <time>2023-12-03T11:42:34.000Z</time>
      </trkpt>
      <trkpt lat="43.51811" lon="6.28941">
        <ele>222.2</ele>
        <time>2023-12-03T11:42:37.000Z</time>
      </trkpt>
      <trkpt lat="43.51816" lon="6.28942">
        <ele>222.4</ele>
        <time>2023-12-03T11:42:41.000Z</time>
      </trkpt>
      <trkpt lat="43.51819" lon="6.28943">
        <ele>222.6</ele>
        <time>2023-12-03T11:42:44.000Z</time>
      </trkpt>
      <trkpt lat="43.51821" lon="6.28944">
        <ele>222.7</ele>
        <time>2023-12-03T11:42:45.000Z</time>
      </trkpt>
      <trkpt lat="43.51826" lon="6.28946">
        <ele>222.9</ele>
        <time>2023-12-03T11:42:50.000Z</time>
      </trkpt>
      <trkpt lat="43.5183" lon="6.28948">
        <ele>223.2</ele>
        <time>2023-12-03T11:42:53.000Z</time>
      </trkpt>
      <trkpt lat="43.51834" lon="6.28948">
        <ele>223.5</ele>
        <time>2023-12-03T11:42:57.000Z</time>
      </trkpt>
      <trkpt lat="43.51837" lon="6.28949">
        <ele>223.8</ele>
        <time>2023-12-03T11:43:01.000Z</time>
      </trkpt>
      <trkpt lat="43.51841" lon="6.28949">
        <ele>223.9</ele>
        <time>2023-12-03T11:43:04.000Z</time>
      </trkpt>
      <trkpt lat="43.51845" lon="6.28949">
        <ele>224.4</ele>
        <time>2023-12-03T11:43:08.000Z</time>
      </trkpt>
      <trkpt lat="43.51849" lon="6.2895">
        <ele>224.6</ele>
        <time>2023-12-03T11:43:12.000Z</time>
      </trkpt>
      <trkpt lat="43.51853" lon="6.2895">
        <ele>224.7</ele>
        <time>2023-12-03T11:43:15.000Z</time>
      </trkpt>
      <trkpt lat="43.51857" lon="6.2895">
        <ele>224.8</ele>
        <time>2023-12-03T11:43:18.000Z</time>
      </trkpt>
      <trkpt lat="43.5186" lon="6.28949">
        <ele>225</ele>
        <time>2023-12-03T11:43:21.000Z</time>
      </trkpt>
      <trkpt lat="43.51864" lon="6.28948">
        <ele>225.1</ele>
        <time>2023-12-03T11:43:24.000Z</time>
      </trkpt>
      <trkpt lat="43.51867" lon="6.28947">
        <ele>225.2</ele>
        <time>2023-12-03T11:43:27.000Z</time>
      </trkpt>
      <trkpt lat="43.51871" lon="6.28945">
        <ele>225.2</ele>
        <time>2023-12-03T11:43:31.000Z</time>
      </trkpt>
      <trkpt lat="43.51875" lon="6.28943">
        <ele>225.5</ele>
        <time>2023-12-03T11:43:35.000Z</time>
      </trkpt>
      <trkpt lat="43.51879" lon="6.28942">
        <ele>225.8</ele>
        <time>2023-12-03T11:43:39.000Z</time>
      </trkpt>
      <trkpt lat="43.51884" lon="6.2894">
        <ele>225.9</ele>
        <time>2023-12-03T11:43:43.000Z</time>
      </trkpt>
      <trkpt lat="43.51888" lon="6.28939">
        <ele>226.3</ele>
        <time>2023-12-03T11:43:47.000Z</time>
      </trkpt>
      <trkpt lat="43.51889" lon="6.28939">
        <ele>226.4</ele>
        <time>2023-12-03T11:43:48.000Z</time>
      </trkpt>
      <trkpt lat="43.51895" lon="6.28935">
        <ele>227.2</ele>
        <time>2023-12-03T11:43:55.000Z</time>
      </trkpt>
      <trkpt lat="43.51899" lon="6.28932">
        <ele>227.9</ele>
        <time>2023-12-03T11:43:59.000Z</time>
      </trkpt>
      <trkpt lat="43.51902" lon="6.28931">
        <ele>228.5</ele>
        <time>2023-12-03T11:44:02.000Z</time>
      </trkpt>
      <trkpt lat="43.51905" lon="6.2893">
        <ele>228.9</ele>
        <time>2023-12-03T11:44:05.000Z</time>
      </trkpt>
      <trkpt lat="43.51909" lon="6.2893">
        <ele>229.2</ele>
        <time>2023-12-03T11:44:09.000Z</time>
      </trkpt>
      <trkpt lat="43.51914" lon="6.28931">
        <ele>229.8</ele>
        <time>2023-12-03T11:44:15.000Z</time>
      </trkpt>
      <trkpt lat="43.51918" lon="6.28933">
        <ele>230.4</ele>
        <time>2023-12-03T11:44:20.000Z</time>
      </trkpt>
      <trkpt lat="43.51922" lon="6.28935">
        <ele>231.2</ele>
        <time>2023-12-03T11:44:25.000Z</time>
      </trkpt>
      <trkpt lat="43.51926" lon="6.28933">
        <ele>231.8</ele>
        <time>2023-12-03T11:44:32.000Z</time>
      </trkpt>
      <trkpt lat="43.5193" lon="6.28934">
        <ele>233.1</ele>
        <time>2023-12-03T11:45:04.000Z</time>
      </trkpt>
      <trkpt lat="43.51931" lon="6.28935">
        <ele>233.1</ele>
        <time>2023-12-03T11:45:05.000Z</time>
      </trkpt>
      <trkpt lat="43.51938" lon="6.28935">
        <ele>233.2</ele>
        <time>2023-12-03T11:45:14.000Z</time>
      </trkpt>
      <trkpt lat="43.51942" lon="6.28934">
        <ele>233.5</ele>
        <time>2023-12-03T11:45:18.000Z</time>
      </trkpt>
      <trkpt lat="43.51946" lon="6.28933">
        <ele>234</ele>
        <time>2023-12-03T11:45:22.000Z</time>
      </trkpt>
      <trkpt lat="43.51949" lon="6.28932">
        <ele>234.5</ele>
        <time>2023-12-03T11:45:26.000Z</time>
      </trkpt>
      <trkpt lat="43.51953" lon="6.28932">
        <ele>234.8</ele>
        <time>2023-12-03T11:45:30.000Z</time>
      </trkpt>
      <trkpt lat="43.51958" lon="6.28931">
        <ele>235.1</ele>
        <time>2023-12-03T11:45:35.000Z</time>
      </trkpt>
      <trkpt lat="43.51961" lon="6.2893">
        <ele>235.4</ele>
        <time>2023-12-03T11:45:39.000Z</time>
      </trkpt>
      <trkpt lat="43.51965" lon="6.28929">
        <ele>235.9</ele>
        <time>2023-12-03T11:45:44.000Z</time>
      </trkpt>
      <trkpt lat="43.5197" lon="6.28928">
        <ele>236.4</ele>
        <time>2023-12-03T11:45:48.000Z</time>
      </trkpt>
      <trkpt lat="43.51973" lon="6.28928">
        <ele>236.7</ele>
        <time>2023-12-03T11:45:51.000Z</time>
      </trkpt>
      <trkpt lat="43.51977" lon="6.28927">
        <ele>237</ele>
        <time>2023-12-03T11:45:55.000Z</time>
      </trkpt>
      <trkpt lat="43.51981" lon="6.28926">
        <ele>237.5</ele>
        <time>2023-12-03T11:45:59.000Z</time>
      </trkpt>
      <trkpt lat="43.51986" lon="6.28925">
        <ele>237.6</ele>
        <time>2023-12-03T11:46:03.000Z</time>
      </trkpt>
      <trkpt lat="43.51989" lon="6.28925">
        <ele>237.9</ele>
        <time>2023-12-03T11:46:11.000Z</time>
      </trkpt>
      <trkpt lat="43.5199" lon="6.28925">
        <ele>237.9</ele>
        <time>2023-12-03T11:46:12.000Z</time>
      </trkpt>
      <trkpt lat="43.51997" lon="6.28925">
        <ele>238.2</ele>
        <time>2023-12-03T11:46:22.000Z</time>
      </trkpt>
      <trkpt lat="43.52001" lon="6.28925">
        <ele>238.4</ele>
        <time>2023-12-03T11:46:27.000Z</time>
      </trkpt>
      <trkpt lat="43.52005" lon="6.28924">
        <ele>238.5</ele>
        <time>2023-12-03T11:46:30.000Z</time>
      </trkpt>
      <trkpt lat="43.5201" lon="6.28924">
        <ele>238.6</ele>
        <time>2023-12-03T11:46:34.000Z</time>
      </trkpt>
      <trkpt lat="43.52013" lon="6.28923">
        <ele>238.7</ele>
        <time>2023-12-03T11:46:37.000Z</time>
      </trkpt>
      <trkpt lat="43.52017" lon="6.28922">
        <ele>238.8</ele>
        <time>2023-12-03T11:46:40.000Z</time>
      </trkpt>
      <trkpt lat="43.52021" lon="6.28922">
        <ele>239</ele>
        <time>2023-12-03T11:46:44.000Z</time>
      </trkpt>
      <trkpt lat="43.52025" lon="6.28921">
        <ele>239.3</ele>
        <time>2023-12-03T11:46:48.000Z</time>
      </trkpt>
      <trkpt lat="43.52029" lon="6.28921">
        <ele>239.5</ele>
        <time>2023-12-03T11:46:51.000Z</time>
      </trkpt>
      <trkpt lat="43.52032" lon="6.2892">
        <ele>239.7</ele>
        <time>2023-12-03T11:46:54.000Z</time>
      </trkpt>
      <trkpt lat="43.52037" lon="6.2892">
        <ele>240</ele>
        <time>2023-12-03T11:46:58.000Z</time>
      </trkpt>
      <trkpt lat="43.5204" lon="6.28919">
        <ele>240.2</ele>
        <time>2023-12-03T11:47:02.000Z</time>
      </trkpt>
      <trkpt lat="43.52045" lon="6.28919">
        <ele>240.4</ele>
        <time>2023-12-03T11:47:07.000Z</time>
      </trkpt>
      <trkpt lat="43.52049" lon="6.28919">
        <ele>240.7</ele>
        <time>2023-12-03T11:47:11.000Z</time>
      </trkpt>
      <trkpt lat="43.52053" lon="6.28919">
        <ele>241.3</ele>
        <time>2023-12-03T11:47:16.000Z</time>
      </trkpt>
      <trkpt lat="43.52054" lon="6.28919">
        <ele>241.4</ele>
        <time>2023-12-03T11:47:17.000Z</time>
      </trkpt>
      <trkpt lat="43.52062" lon="6.28919">
        <ele>242.4</ele>
        <time>2023-12-03T11:47:26.000Z</time>
      </trkpt>
      <trkpt lat="43.52066" lon="6.28919">
        <ele>242.8</ele>
        <time>2023-12-03T11:47:31.000Z</time>
      </trkpt>
      <trkpt lat="43.5207" lon="6.2892">
        <ele>243.2</ele>
        <time>2023-12-03T11:47:37.000Z</time>
      </trkpt>
      <trkpt lat="43.52075" lon="6.28921">
        <ele>243.6</ele>
        <time>2023-12-03T11:47:42.000Z</time>
      </trkpt>
      <trkpt lat="43.52079" lon="6.2892">
        <ele>244.3</ele>
        <time>2023-12-03T11:47:48.000Z</time>
      </trkpt>
      <trkpt lat="43.52083" lon="6.2892">
        <ele>244.8</ele>
        <time>2023-12-03T11:47:53.000Z</time>
      </trkpt>
      <trkpt lat="43.52087" lon="6.28919">
        <ele>245.2</ele>
        <time>2023-12-03T11:47:57.000Z</time>
      </trkpt>
      <trkpt lat="43.52091" lon="6.2892">
        <ele>245.8</ele>
        <time>2023-12-03T11:48:02.000Z</time>
      </trkpt>
      <trkpt lat="43.52095" lon="6.28919">
        <ele>246.3</ele>
        <time>2023-12-03T11:48:07.000Z</time>
      </trkpt>
      <trkpt lat="43.52099" lon="6.28918">
        <ele>246.7</ele>
        <time>2023-12-03T11:48:12.000Z</time>
      </trkpt>
      <trkpt lat="43.52102" lon="6.28917">
        <ele>247.1</ele>
        <time>2023-12-03T11:48:17.000Z</time>
      </trkpt>
      <trkpt lat="43.52103" lon="6.28917">
        <ele>247.2</ele>
        <time>2023-12-03T11:48:18.000Z</time>
      </trkpt>
      <trkpt lat="43.52109" lon="6.28914">
        <ele>248.2</ele>
        <time>2023-12-03T11:48:25.000Z</time>
      </trkpt>
      <trkpt lat="43.52113" lon="6.28911">
        <ele>248.6</ele>
        <time>2023-12-03T11:48:29.000Z</time>
      </trkpt>
      <trkpt lat="43.52116" lon="6.28908">
        <ele>249</ele>
        <time>2023-12-03T11:48:33.000Z</time>
      </trkpt>
      <trkpt lat="43.52119" lon="6.28904">
        <ele>249.5</ele>
        <time>2023-12-03T11:48:38.000Z</time>
      </trkpt>
      <trkpt lat="43.52123" lon="6.28901">
        <ele>249.9</ele>
        <time>2023-12-03T11:48:43.000Z</time>
      </trkpt>
      <trkpt lat="43.52127" lon="6.28898">
        <ele>250.3</ele>
        <time>2023-12-03T11:48:50.000Z</time>
      </trkpt>
      <trkpt lat="43.52131" lon="6.28899">
        <ele>251.2</ele>
        <time>2023-12-03T11:49:06.000Z</time>
      </trkpt>
      <trkpt lat="43.52134" lon="6.289">
        <ele>251.4</ele>
        <time>2023-12-03T11:49:21.000Z</time>
      </trkpt>
      <trkpt lat="43.52135" lon="6.289">
        <ele>251.4</ele>
        <time>2023-12-03T11:49:22.000Z</time>
      </trkpt>
      <trkpt lat="43.52134" lon="6.28902">
        <ele>251.7</ele>
        <time>2023-12-03T11:50:22.000Z</time>
      </trkpt>
      <trkpt lat="43.52133" lon="6.28903">
        <ele>251.7</ele>
        <time>2023-12-03T11:50:23.000Z</time>
      </trkpt>
      <trkpt lat="43.52126" lon="6.28901">
        <ele>252.1</ele>
        <time>2023-12-03T11:51:03.000Z</time>
      </trkpt>
      <trkpt lat="43.5213" lon="6.28902">
        <ele>251.8</ele>
        <time>2023-12-03T11:51:36.000Z</time>
      </trkpt>
      <trkpt lat="43.5213" lon="6.28902">
        <ele>251.7</ele>
        <time>2023-12-03T11:51:37.000Z</time>
      </trkpt>
      <trkpt lat="43.52138" lon="6.28897">
        <ele>251.6</ele>
        <time>2023-12-03T11:52:47.000Z</time>
      </trkpt>
      <trkpt lat="43.52138" lon="6.28896">
        <ele>251.7</ele>
        <time>2023-12-03T11:52:48.000Z</time>
      </trkpt>
      <trkpt lat="43.52144" lon="6.28889">
        <ele>252.3</ele>
        <time>2023-12-03T11:53:36.000Z</time>
      </trkpt>
      <trkpt lat="43.52146" lon="6.28883">
        <ele>252.5</ele>
        <time>2023-12-03T11:53:43.000Z</time>
      </trkpt>
      <trkpt lat="43.52149" lon="6.28881">
        <ele>252.6</ele>
        <time>2023-12-03T11:53:47.000Z</time>
      </trkpt>
      <trkpt lat="43.52153" lon="6.2888">
        <ele>252.7</ele>
        <time>2023-12-03T11:53:51.000Z</time>
      </trkpt>
      <trkpt lat="43.52154" lon="6.2888">
        <ele>252.8</ele>
        <time>2023-12-03T11:53:52.000Z</time>
      </trkpt>
      <trkpt lat="43.52161" lon="6.28876">
        <ele>253.3</ele>
        <time>2023-12-03T11:54:00.000Z</time>
      </trkpt>
      <trkpt lat="43.52164" lon="6.28874">
        <ele>253.6</ele>
        <time>2023-12-03T11:54:04.000Z</time>
      </trkpt>
      <trkpt lat="43.52168" lon="6.28872">
        <ele>253.9</ele>
        <time>2023-12-03T11:54:09.000Z</time>
      </trkpt>
      <trkpt lat="43.52172" lon="6.2887">
        <ele>254.3</ele>
        <time>2023-12-03T11:54:13.000Z</time>
      </trkpt>
      <trkpt lat="43.52175" lon="6.28867">
        <ele>254.8</ele>
        <time>2023-12-03T11:54:18.000Z</time>
      </trkpt>
      <trkpt lat="43.52179" lon="6.28864">
        <ele>255.2</ele>
        <time>2023-12-03T11:54:24.000Z</time>
      </trkpt>
      <trkpt lat="43.52183" lon="6.28861">
        <ele>255.7</ele>
        <time>2023-12-03T11:54:30.000Z</time>
      </trkpt>
      <trkpt lat="43.52186" lon="6.28858">
        <ele>256.2</ele>
        <time>2023-12-03T11:54:34.000Z</time>
      </trkpt>
      <trkpt lat="43.52189" lon="6.28855">
        <ele>256.6</ele>
        <time>2023-12-03T11:54:38.000Z</time>
      </trkpt>
      <trkpt lat="43.52191" lon="6.28849">
        <ele>257.3</ele>
        <time>2023-12-03T11:54:43.000Z</time>
      </trkpt>
      <trkpt lat="43.52193" lon="6.28844">
        <ele>257.8</ele>
        <time>2023-12-03T11:54:48.000Z</time>
      </trkpt>
      <trkpt lat="43.52196" lon="6.28839">
        <ele>258.6</ele>
        <time>2023-12-03T11:54:55.000Z</time>
      </trkpt>
      <trkpt lat="43.52196" lon="6.28838">
        <ele>258.6</ele>
        <time>2023-12-03T11:54:56.000Z</time>
      </trkpt>
      <trkpt lat="43.52202" lon="6.28831">
        <ele>259.2</ele>
        <time>2023-12-03T11:55:06.000Z</time>
      </trkpt>
      <trkpt lat="43.52205" lon="6.28827">
        <ele>259.5</ele>
        <time>2023-12-03T11:55:10.000Z</time>
      </trkpt>
      <trkpt lat="43.52208" lon="6.28823">
        <ele>259.7</ele>
        <time>2023-12-03T11:55:14.000Z</time>
      </trkpt>
      <trkpt lat="43.52211" lon="6.28819">
        <ele>259.9</ele>
        <time>2023-12-03T11:55:18.000Z</time>
      </trkpt>
      <trkpt lat="43.52212" lon="6.28814">
        <ele>260.4</ele>
        <time>2023-12-03T11:55:22.000Z</time>
      </trkpt>
      <trkpt lat="43.52215" lon="6.28811">
        <ele>260.7</ele>
        <time>2023-12-03T11:55:25.000Z</time>
      </trkpt>
      <trkpt lat="43.52218" lon="6.28807">
        <ele>261.2</ele>
        <time>2023-12-03T11:55:30.000Z</time>
      </trkpt>
      <trkpt lat="43.52221" lon="6.28803">
        <ele>261.6</ele>
        <time>2023-12-03T11:55:36.000Z</time>
      </trkpt>
      <trkpt lat="43.52225" lon="6.28801">
        <ele>262.2</ele>
        <time>2023-12-03T11:55:40.000Z</time>
      </trkpt>
      <trkpt lat="43.52228" lon="6.28798">
        <ele>262.8</ele>
        <time>2023-12-03T11:55:46.000Z</time>
      </trkpt>
      <trkpt lat="43.52231" lon="6.28795">
        <ele>263.1</ele>
        <time>2023-12-03T11:55:49.000Z</time>
      </trkpt>
      <trkpt lat="43.52234" lon="6.28791">
        <ele>263.3</ele>
        <time>2023-12-03T11:55:53.000Z</time>
      </trkpt>
      <trkpt lat="43.52236" lon="6.28787">
        <ele>263.9</ele>
        <time>2023-12-03T11:55:59.000Z</time>
      </trkpt>
      <trkpt lat="43.52237" lon="6.28786">
        <ele>264</ele>
        <time>2023-12-03T11:56:00.000Z</time>
      </trkpt>
      <trkpt lat="43.52242" lon="6.2878">
        <ele>264.6</ele>
        <time>2023-12-03T11:56:06.000Z</time>
      </trkpt>
      <trkpt lat="43.52245" lon="6.28777">
        <ele>264.8</ele>
        <time>2023-12-03T11:56:10.000Z</time>
      </trkpt>
      <trkpt lat="43.52248" lon="6.28775">
        <ele>265</ele>
        <time>2023-12-03T11:56:13.000Z</time>
      </trkpt>
      <trkpt lat="43.52252" lon="6.28772">
        <ele>265.2</ele>
        <time>2023-12-03T11:56:17.000Z</time>
      </trkpt>
      <trkpt lat="43.52255" lon="6.28768">
        <ele>265.2</ele>
        <time>2023-12-03T11:56:23.000Z</time>
      </trkpt>
      <trkpt lat="43.52258" lon="6.28764">
        <ele>265.6</ele>
        <time>2023-12-03T11:56:30.000Z</time>
      </trkpt>
      <trkpt lat="43.52261" lon="6.2876">
        <ele>266</ele>
        <time>2023-12-03T11:56:36.000Z</time>
      </trkpt>
      <trkpt lat="43.52263" lon="6.28755">
        <ele>266.4</ele>
        <time>2023-12-03T11:56:44.000Z</time>
      </trkpt>
      <trkpt lat="43.52266" lon="6.28752">
        <ele>266.6</ele>
        <time>2023-12-03T11:56:49.000Z</time>
      </trkpt>
      <trkpt lat="43.5227" lon="6.28748">
        <ele>267.2</ele>
        <time>2023-12-03T11:56:54.000Z</time>
      </trkpt>
      <trkpt lat="43.52273" lon="6.28744">
        <ele>267.9</ele>
        <time>2023-12-03T11:56:58.000Z</time>
      </trkpt>
      <trkpt lat="43.52277" lon="6.28741">
        <ele>268.5</ele>
        <time>2023-12-03T11:57:02.000Z</time>
      </trkpt>
      <trkpt lat="43.52277" lon="6.2874">
        <ele>268.6</ele>
        <time>2023-12-03T11:57:03.000Z</time>
      </trkpt>
      <trkpt lat="43.52281" lon="6.28731">
        <ele>269.4</ele>
        <time>2023-12-03T11:57:13.000Z</time>
      </trkpt>
      <trkpt lat="43.52285" lon="6.28729">
        <ele>269.6</ele>
        <time>2023-12-03T11:57:17.000Z</time>
      </trkpt>
      <trkpt lat="43.52289" lon="6.28727">
        <ele>269.8</ele>
        <time>2023-12-03T11:57:21.000Z</time>
      </trkpt>
      <trkpt lat="43.52293" lon="6.28725">
        <ele>270.4</ele>
        <time>2023-12-03T11:57:27.000Z</time>
      </trkpt>
      <trkpt lat="43.52295" lon="6.28721">
        <ele>270.9</ele>
        <time>2023-12-03T11:57:30.000Z</time>
      </trkpt>
      <trkpt lat="43.52299" lon="6.28718">
        <ele>271.3</ele>
        <time>2023-12-03T11:57:34.000Z</time>
      </trkpt>
      <trkpt lat="43.52302" lon="6.28714">
        <ele>272</ele>
        <time>2023-12-03T11:57:40.000Z</time>
      </trkpt>
      <trkpt lat="43.52304" lon="6.2871">
        <ele>272.6</ele>
        <time>2023-12-03T11:57:46.000Z</time>
      </trkpt>
      <trkpt lat="43.52307" lon="6.28706">
        <ele>273</ele>
        <time>2023-12-03T11:57:52.000Z</time>
      </trkpt>
      <trkpt lat="43.5231" lon="6.28702">
        <ele>273.1</ele>
        <time>2023-12-03T11:57:56.000Z</time>
      </trkpt>
      <trkpt lat="43.52312" lon="6.28698">
        <ele>273.6</ele>
        <time>2023-12-03T11:58:01.000Z</time>
      </trkpt>
      <trkpt lat="43.52315" lon="6.28694">
        <ele>274.1</ele>
        <time>2023-12-03T11:58:06.000Z</time>
      </trkpt>
      <trkpt lat="43.52316" lon="6.28693">
        <ele>274.3</ele>
        <time>2023-12-03T11:58:07.000Z</time>
      </trkpt>
      <trkpt lat="43.52321" lon="6.28686">
        <ele>274.9</ele>
        <time>2023-12-03T11:58:15.000Z</time>
      </trkpt>
      <trkpt lat="43.52324" lon="6.28683">
        <ele>274.9</ele>
        <time>2023-12-03T11:58:18.000Z</time>
      </trkpt>
      <trkpt lat="43.52327" lon="6.2868">
        <ele>275.2</ele>
        <time>2023-12-03T11:58:22.000Z</time>
      </trkpt>
      <trkpt lat="43.5233" lon="6.28675">
        <ele>275.5</ele>
        <time>2023-12-03T11:58:26.000Z</time>
      </trkpt>
      <trkpt lat="43.52332" lon="6.28671">
        <ele>275.9</ele>
        <time>2023-12-03T11:58:30.000Z</time>
      </trkpt>
      <trkpt lat="43.52335" lon="6.28667">
        <ele>276.1</ele>
        <time>2023-12-03T11:58:34.000Z</time>
      </trkpt>
      <trkpt lat="43.52338" lon="6.28664">
        <ele>276.6</ele>
        <time>2023-12-03T11:58:38.000Z</time>
      </trkpt>
      <trkpt lat="43.52342" lon="6.28661">
        <ele>276.7</ele>
        <time>2023-12-03T11:58:42.000Z</time>
      </trkpt>
      <trkpt lat="43.52344" lon="6.28657">
        <ele>277.1</ele>
        <time>2023-12-03T11:58:46.000Z</time>
      </trkpt>
      <trkpt lat="43.52346" lon="6.28653">
        <ele>277.7</ele>
        <time>2023-12-03T11:58:51.000Z</time>
      </trkpt>
      <trkpt lat="43.52349" lon="6.28649">
        <ele>278</ele>
        <time>2023-12-03T11:58:55.000Z</time>
      </trkpt>
      <trkpt lat="43.52351" lon="6.28645">
        <ele>278.2</ele>
        <time>2023-12-03T11:58:58.000Z</time>
      </trkpt>
      <trkpt lat="43.52353" lon="6.2864">
        <ele>278.5</ele>
        <time>2023-12-03T11:59:02.000Z</time>
      </trkpt>
      <trkpt lat="43.52354" lon="6.28635">
        <ele>278.9</ele>
        <time>2023-12-03T11:59:06.000Z</time>
      </trkpt>
      <trkpt lat="43.52356" lon="6.2863">
        <ele>279.2</ele>
        <time>2023-12-03T11:59:11.000Z</time>
      </trkpt>
      <trkpt lat="43.52357" lon="6.28629">
        <ele>279.2</ele>
        <time>2023-12-03T11:59:12.000Z</time>
      </trkpt>
      <trkpt lat="43.5236" lon="6.28619">
        <ele>280.1</ele>
        <time>2023-12-03T11:59:21.000Z</time>
      </trkpt>
      <trkpt lat="43.52362" lon="6.28615">
        <ele>280.7</ele>
        <time>2023-12-03T11:59:25.000Z</time>
      </trkpt>
      <trkpt lat="43.52364" lon="6.2861">
        <ele>281.3</ele>
        <time>2023-12-03T11:59:30.000Z</time>
      </trkpt>
      <trkpt lat="43.52366" lon="6.28605">
        <ele>281.7</ele>
        <time>2023-12-03T11:59:34.000Z</time>
      </trkpt>
      <trkpt lat="43.52368" lon="6.28601">
        <ele>281.9</ele>
        <time>2023-12-03T11:59:38.000Z</time>
      </trkpt>
      <trkpt lat="43.5237" lon="6.28596">
        <ele>282.1</ele>
        <time>2023-12-03T11:59:42.000Z</time>
      </trkpt>
      <trkpt lat="43.52372" lon="6.28591">
        <ele>282.3</ele>
        <time>2023-12-03T11:59:47.000Z</time>
      </trkpt>
      <trkpt lat="43.52374" lon="6.28586">
        <ele>282.4</ele>
        <time>2023-12-03T11:59:51.000Z</time>
      </trkpt>
      <trkpt lat="43.52376" lon="6.28581">
        <ele>282.5</ele>
        <time>2023-12-03T11:59:55.000Z</time>
      </trkpt>
      <trkpt lat="43.52377" lon="6.28575">
        <ele>282.8</ele>
        <time>2023-12-03T11:59:59.000Z</time>
      </trkpt>
      <trkpt lat="43.52379" lon="6.28569">
        <ele>282.9</ele>
        <time>2023-12-03T12:00:03.000Z</time>
      </trkpt>
      <trkpt lat="43.5238" lon="6.28564">
        <ele>283</ele>
        <time>2023-12-03T12:00:07.000Z</time>
      </trkpt>
      <trkpt lat="43.52381" lon="6.28558">
        <ele>283.2</ele>
        <time>2023-12-03T12:00:11.000Z</time>
      </trkpt>
      <trkpt lat="43.52382" lon="6.28553">
        <ele>283.3</ele>
        <time>2023-12-03T12:00:15.000Z</time>
      </trkpt>
      <trkpt lat="43.52383" lon="6.28551">
        <ele>283.3</ele>
        <time>2023-12-03T12:00:16.000Z</time>
      </trkpt>
      <trkpt lat="43.52386" lon="6.28542">
        <ele>283.4</ele>
        <time>2023-12-03T12:00:23.000Z</time>
      </trkpt>
      <trkpt lat="43.52387" lon="6.28536">
        <ele>283.5</ele>
        <time>2023-12-03T12:00:27.000Z</time>
      </trkpt>
      <trkpt lat="43.52388" lon="6.2853">
        <ele>283.4</ele>
        <time>2023-12-03T12:00:31.000Z</time>
      </trkpt>
      <trkpt lat="43.5239" lon="6.28525">
        <ele>283.3</ele>
        <time>2023-12-03T12:00:35.000Z</time>
      </trkpt>
      <trkpt lat="43.52391" lon="6.28519">
        <ele>283.2</ele>
        <time>2023-12-03T12:00:39.000Z</time>
      </trkpt>
      <trkpt lat="43.52392" lon="6.28514">
        <ele>283</ele>
        <time>2023-12-03T12:00:43.000Z</time>
      </trkpt>
      <trkpt lat="43.52393" lon="6.28508">
        <ele>282.8</ele>
        <time>2023-12-03T12:00:47.000Z</time>
      </trkpt>
      <trkpt lat="43.52395" lon="6.28502">
        <ele>282.6</ele>
        <time>2023-12-03T12:00:51.000Z</time>
      </trkpt>
      <trkpt lat="43.52396" lon="6.28497">
        <ele>282.4</ele>
        <time>2023-12-03T12:00:55.000Z</time>
      </trkpt>
      <trkpt lat="43.52397" lon="6.28492">
        <ele>282.3</ele>
        <time>2023-12-03T12:00:58.000Z</time>
      </trkpt>
      <trkpt lat="43.52398" lon="6.28486">
        <ele>282</ele>
        <time>2023-12-03T12:01:02.000Z</time>
      </trkpt>
      <trkpt lat="43.524" lon="6.28481">
        <ele>281.6</ele>
        <time>2023-12-03T12:01:06.000Z</time>
      </trkpt>
      <trkpt lat="43.52401" lon="6.28475">
        <ele>281.1</ele>
        <time>2023-12-03T12:01:10.000Z</time>
      </trkpt>
      <trkpt lat="43.52402" lon="6.2847">
        <ele>280.8</ele>
        <time>2023-12-03T12:01:14.000Z</time>
      </trkpt>
      <trkpt lat="43.52404" lon="6.28465">
        <ele>280.6</ele>
        <time>2023-12-03T12:01:18.000Z</time>
      </trkpt>
      <trkpt lat="43.52404" lon="6.28463">
        <ele>280.6</ele>
        <time>2023-12-03T12:01:19.000Z</time>
      </trkpt>
      <trkpt lat="43.52408" lon="6.28456">
        <ele>280.3</ele>
        <time>2023-12-03T12:01:25.000Z</time>
      </trkpt>
      <trkpt lat="43.5241" lon="6.28451">
        <ele>279.9</ele>
        <time>2023-12-03T12:01:29.000Z</time>
      </trkpt>
      <trkpt lat="43.52412" lon="6.28446">
        <ele>279.5</ele>
        <time>2023-12-03T12:01:34.000Z</time>
      </trkpt>
      <trkpt lat="43.52413" lon="6.28441">
        <ele>279.2</ele>
        <time>2023-12-03T12:01:37.000Z</time>
      </trkpt>
      <trkpt lat="43.52415" lon="6.28437">
        <ele>279.1</ele>
        <time>2023-12-03T12:01:40.000Z</time>
      </trkpt>
      <trkpt lat="43.52417" lon="6.28432">
        <ele>278.9</ele>
        <time>2023-12-03T12:01:44.000Z</time>
      </trkpt>
      <trkpt lat="43.52419" lon="6.28426">
        <ele>278.6</ele>
        <time>2023-12-03T12:01:48.000Z</time>
      </trkpt>
      <trkpt lat="43.52422" lon="6.28422">
        <ele>278.5</ele>
        <time>2023-12-03T12:01:52.000Z</time>
      </trkpt>
      <trkpt lat="43.52424" lon="6.2842">
        <ele>278.7</ele>
        <time>2023-12-03T12:01:54.000Z</time>
      </trkpt>
      <trkpt lat="43.52427" lon="6.28416">
        <ele>278.8</ele>
        <time>2023-12-03T12:01:57.000Z</time>
      </trkpt>
      <trkpt lat="43.52429" lon="6.28412">
        <ele>278.7</ele>
        <time>2023-12-03T12:02:01.000Z</time>
      </trkpt>
      <trkpt lat="43.52431" lon="6.28407">
        <ele>278</ele>
        <time>2023-12-03T12:02:05.000Z</time>
      </trkpt>
      <trkpt lat="43.52434" lon="6.28404">
        <ele>278</ele>
        <time>2023-12-03T12:02:08.000Z</time>
      </trkpt>
      <trkpt lat="43.52436" lon="6.284">
        <ele>277.9</ele>
        <time>2023-12-03T12:02:11.000Z</time>
      </trkpt>
      <trkpt lat="43.52438" lon="6.28397">
        <ele>277.7</ele>
        <time>2023-12-03T12:02:13.000Z</time>
      </trkpt>
      <trkpt lat="43.52441" lon="6.28393">
        <ele>277.4</ele>
        <time>2023-12-03T12:02:16.000Z</time>
      </trkpt>
      <trkpt lat="43.52444" lon="6.28389">
        <ele>277</ele>
        <time>2023-12-03T12:02:22.000Z</time>
      </trkpt>
      <trkpt lat="43.52445" lon="6.28387">
        <ele>276.8</ele>
        <time>2023-12-03T12:02:23.000Z</time>
      </trkpt>
      <trkpt lat="43.52449" lon="6.28381">
        <ele>276.3</ele>
        <time>2023-12-03T12:02:28.000Z</time>
      </trkpt>
      <trkpt lat="43.52452" lon="6.28378">
        <ele>276.1</ele>
        <time>2023-12-03T12:02:31.000Z</time>
      </trkpt>
      <trkpt lat="43.52455" lon="6.28373">
        <ele>275.9</ele>
        <time>2023-12-03T12:02:34.000Z</time>
      </trkpt>
      <trkpt lat="43.52457" lon="6.28369">
        <ele>275.7</ele>
        <time>2023-12-03T12:02:37.000Z</time>
      </trkpt>
      <trkpt lat="43.5246" lon="6.28365">
        <ele>275.3</ele>
        <time>2023-12-03T12:02:41.000Z</time>
      </trkpt>
      <trkpt lat="43.52462" lon="6.28361">
        <ele>275.1</ele>
        <time>2023-12-03T12:02:45.000Z</time>
      </trkpt>
      <trkpt lat="43.52464" lon="6.28356">
        <ele>275</ele>
        <time>2023-12-03T12:02:48.000Z</time>
      </trkpt>
      <trkpt lat="43.52466" lon="6.28351">
        <ele>274.7</ele>
        <time>2023-12-03T12:02:52.000Z</time>
      </trkpt>
      <trkpt lat="43.52469" lon="6.28347">
        <ele>274.4</ele>
        <time>2023-12-03T12:02:55.000Z</time>
      </trkpt>
      <trkpt lat="43.52471" lon="6.28343">
        <ele>274.1</ele>
        <time>2023-12-03T12:02:58.000Z</time>
      </trkpt>
      <trkpt lat="43.52473" lon="6.28339">
        <ele>273.9</ele>
        <time>2023-12-03T12:03:01.000Z</time>
      </trkpt>
      <trkpt lat="43.52476" lon="6.28335">
        <ele>273.7</ele>
        <time>2023-12-03T12:03:04.000Z</time>
      </trkpt>
      <trkpt lat="43.52479" lon="6.28332">
        <ele>273.6</ele>
        <time>2023-12-03T12:03:07.000Z</time>
      </trkpt>
      <trkpt lat="43.52482" lon="6.28329">
        <ele>273.4</ele>
        <time>2023-12-03T12:03:10.000Z</time>
      </trkpt>
      <trkpt lat="43.52486" lon="6.28326">
        <ele>273.2</ele>
        <time>2023-12-03T12:03:14.000Z</time>
      </trkpt>
      <trkpt lat="43.52489" lon="6.28324">
        <ele>273.2</ele>
        <time>2023-12-03T12:03:17.000Z</time>
      </trkpt>
      <trkpt lat="43.52493" lon="6.28323">
        <ele>273.2</ele>
        <time>2023-12-03T12:03:20.000Z</time>
      </trkpt>
      <trkpt lat="43.52496" lon="6.28322">
        <ele>273.2</ele>
        <time>2023-12-03T12:03:23.000Z</time>
      </trkpt>
      <trkpt lat="43.52497" lon="6.28321">
        <ele>273.1</ele>
        <time>2023-12-03T12:03:24.000Z</time>
      </trkpt>
      <trkpt lat="43.52504" lon="6.2832">
        <ele>273.1</ele>
        <time>2023-12-03T12:03:29.000Z</time>
      </trkpt>
      <trkpt lat="43.52508" lon="6.28318">
        <ele>273</ele>
        <time>2023-12-03T12:03:32.000Z</time>
      </trkpt>
      <trkpt lat="43.52511" lon="6.28317">
        <ele>273</ele>
        <time>2023-12-03T12:03:35.000Z</time>
      </trkpt>
      <trkpt lat="43.52515" lon="6.28317">
        <ele>272.8</ele>
        <time>2023-12-03T12:03:40.000Z</time>
      </trkpt>
      <trkpt lat="43.52518" lon="6.28314">
        <ele>272.5</ele>
        <time>2023-12-03T12:03:50.000Z</time>
      </trkpt>
      <trkpt lat="43.5252" lon="6.28309">
        <ele>272.4</ele>
        <time>2023-12-03T12:03:55.000Z</time>
      </trkpt>
      <trkpt lat="43.5252" lon="6.28304">
        <ele>272.4</ele>
        <time>2023-12-03T12:03:59.000Z</time>
      </trkpt>
      <trkpt lat="43.5252" lon="6.28298">
        <ele>272.4</ele>
        <time>2023-12-03T12:04:03.000Z</time>
      </trkpt>
      <trkpt lat="43.52521" lon="6.28292">
        <ele>272.3</ele>
        <time>2023-12-03T12:04:07.000Z</time>
      </trkpt>
      <trkpt lat="43.52522" lon="6.28287">
        <ele>272.2</ele>
        <time>2023-12-03T12:04:11.000Z</time>
      </trkpt>
      <trkpt lat="43.52524" lon="6.28281">
        <ele>272.3</ele>
        <time>2023-12-03T12:04:15.000Z</time>
      </trkpt>
      <trkpt lat="43.52527" lon="6.28277">
        <ele>272.3</ele>
        <time>2023-12-03T12:04:19.000Z</time>
      </trkpt>
      <trkpt lat="43.52529" lon="6.28272">
        <ele>272.3</ele>
        <time>2023-12-03T12:04:23.000Z</time>
      </trkpt>
      <trkpt lat="43.52531" lon="6.28267">
        <ele>272.3</ele>
        <time>2023-12-03T12:04:27.000Z</time>
      </trkpt>
      <trkpt lat="43.52532" lon="6.28266">
        <ele>272.3</ele>
        <time>2023-12-03T12:04:28.000Z</time>
      </trkpt>
      <trkpt lat="43.52535" lon="6.28258">
        <ele>272.3</ele>
        <time>2023-12-03T12:04:35.000Z</time>
      </trkpt>
      <trkpt lat="43.52538" lon="6.28253">
        <ele>272.3</ele>
        <time>2023-12-03T12:04:39.000Z</time>
      </trkpt>
      <trkpt lat="43.52541" lon="6.2825">
        <ele>272.2</ele>
        <time>2023-12-03T12:04:44.000Z</time>
      </trkpt>
      <trkpt lat="43.52545" lon="6.28248">
        <ele>272</ele>
        <time>2023-12-03T12:04:50.000Z</time>
      </trkpt>
      <trkpt lat="43.52548" lon="6.28245">
        <ele>272.1</ele>
        <time>2023-12-03T12:04:58.000Z</time>
      </trkpt>
      <trkpt lat="43.5255" lon="6.28241">
        <ele>272</ele>
        <time>2023-12-03T12:05:04.000Z</time>
      </trkpt>
      <trkpt lat="43.52552" lon="6.28236">
        <ele>272.1</ele>
        <time>2023-12-03T12:05:09.000Z</time>
      </trkpt>
      <trkpt lat="43.52554" lon="6.28232">
        <ele>272.1</ele>
        <time>2023-12-03T12:05:13.000Z</time>
      </trkpt>
      <trkpt lat="43.52557" lon="6.28228">
        <ele>272.1</ele>
        <time>2023-12-03T12:05:18.000Z</time>
      </trkpt>
      <trkpt lat="43.5256" lon="6.28224">
        <ele>272.2</ele>
        <time>2023-12-03T12:05:23.000Z</time>
      </trkpt>
      <trkpt lat="43.52563" lon="6.2822">
        <ele>272.2</ele>
        <time>2023-12-03T12:05:31.000Z</time>
      </trkpt>
      <trkpt lat="43.52563" lon="6.28219">
        <ele>272.2</ele>
        <time>2023-12-03T12:05:32.000Z</time>
      </trkpt>
      <trkpt lat="43.52565" lon="6.2821">
        <ele>272</ele>
        <time>2023-12-03T12:05:48.000Z</time>
      </trkpt>
      <trkpt lat="43.52563" lon="6.28205">
        <ele>272</ele>
        <time>2023-12-03T12:05:55.000Z</time>
      </trkpt>
      <trkpt lat="43.52563" lon="6.28199">
        <ele>271.9</ele>
        <time>2023-12-03T12:06:04.000Z</time>
      </trkpt>
      <trkpt lat="43.5256" lon="6.28195">
        <ele>271.8</ele>
        <time>2023-12-03T12:06:12.000Z</time>
      </trkpt>
      <trkpt lat="43.52557" lon="6.28191">
        <ele>271.1</ele>
        <time>2023-12-03T12:06:28.000Z</time>
      </trkpt>
      <trkpt lat="43.52556" lon="6.28186">
        <ele>270.5</ele>
        <time>2023-12-03T12:06:47.000Z</time>
      </trkpt>
      <trkpt lat="43.52557" lon="6.28184">
        <ele>270.5</ele>
        <time>2023-12-03T12:06:48.000Z</time>
      </trkpt>
      <trkpt lat="43.52556" lon="6.28175">
        <ele>269.9</ele>
        <time>2023-12-03T12:06:59.000Z</time>
      </trkpt>
      <trkpt lat="43.52552" lon="6.28175">
        <ele>269.3</ele>
        <time>2023-12-03T12:07:06.000Z</time>
      </trkpt>
      <trkpt lat="43.52548" lon="6.28178">
        <ele>269</ele>
        <time>2023-12-03T12:07:12.000Z</time>
      </trkpt>
      <trkpt lat="43.52545" lon="6.28179">
        <ele>269</ele>
        <time>2023-12-03T12:07:15.000Z</time>
      </trkpt>
      <trkpt lat="43.52541" lon="6.28181">
        <ele>269</ele>
        <time>2023-12-03T12:07:19.000Z</time>
      </trkpt>
      <trkpt lat="43.52537" lon="6.28182">
        <ele>269.1</ele>
        <time>2023-12-03T12:07:23.000Z</time>
      </trkpt>
      <trkpt lat="43.52533" lon="6.28182">
        <ele>269.1</ele>
        <time>2023-12-03T12:07:28.000Z</time>
      </trkpt>
      <trkpt lat="43.52531" lon="6.28188">
        <ele>269.4</ele>
        <time>2023-12-03T12:07:35.000Z</time>
      </trkpt>
      <trkpt lat="43.52534" lon="6.28192">
        <ele>269.8</ele>
        <time>2023-12-03T12:07:40.000Z</time>
      </trkpt>
      <trkpt lat="43.52537" lon="6.28196">
        <ele>270.1</ele>
        <time>2023-12-03T12:07:45.000Z</time>
      </trkpt>
      <trkpt lat="43.5254" lon="6.28201">
        <ele>270.3</ele>
        <time>2023-12-03T12:07:49.000Z</time>
      </trkpt>
      <trkpt lat="43.5254" lon="6.28202">
        <ele>270.4</ele>
        <time>2023-12-03T12:07:50.000Z</time>
      </trkpt>
      <trkpt lat="43.52539" lon="6.28211">
        <ele>270.8</ele>
        <time>2023-12-03T12:07:58.000Z</time>
      </trkpt>
      <trkpt lat="43.52539" lon="6.28217">
        <ele>271.3</ele>
        <time>2023-12-03T12:08:06.000Z</time>
      </trkpt>
      <trkpt lat="43.52537" lon="6.28222">
        <ele>271.4</ele>
        <time>2023-12-03T12:08:10.000Z</time>
      </trkpt>
      <trkpt lat="43.52536" lon="6.28228">
        <ele>271.6</ele>
        <time>2023-12-03T12:08:15.000Z</time>
      </trkpt>
      <trkpt lat="43.52532" lon="6.28229">
        <ele>271.7</ele>
        <time>2023-12-03T12:08:20.000Z</time>
      </trkpt>
      <trkpt lat="43.52528" lon="6.28227">
        <ele>271.8</ele>
        <time>2023-12-03T12:08:24.000Z</time>
      </trkpt>
      <trkpt lat="43.52525" lon="6.28226">
        <ele>271.9</ele>
        <time>2023-12-03T12:08:28.000Z</time>
      </trkpt>
      <trkpt lat="43.52521" lon="6.28223">
        <ele>272</ele>
        <time>2023-12-03T12:08:40.000Z</time>
      </trkpt>
      <trkpt lat="43.52517" lon="6.28225">
        <ele>272.1</ele>
        <time>2023-12-03T12:09:19.000Z</time>
      </trkpt>
      <trkpt lat="43.52517" lon="6.28225">
        <ele>272.1</ele>
        <time>2023-12-03T12:09:20.000Z</time>
      </trkpt>
      <trkpt lat="43.52521" lon="6.28223">
        <ele>271.9</ele>
        <time>2023-12-03T12:13:02.000Z</time>
      </trkpt>
      <trkpt lat="43.52522" lon="6.28224">
        <ele>271.9</ele>
        <time>2023-12-03T12:13:03.000Z</time>
      </trkpt>
      <trkpt lat="43.52513" lon="6.2822">
        <ele>272</ele>
        <time>2023-12-03T12:14:00.000Z</time>
      </trkpt>
      <trkpt lat="43.5251" lon="6.28218">
        <ele>272</ele>
        <time>2023-12-03T12:14:04.000Z</time>
      </trkpt>
      <trkpt lat="43.52509" lon="6.28217">
        <ele>272</ele>
        <time>2023-12-03T12:14:05.000Z</time>
      </trkpt>
      <trkpt lat="43.52505" lon="6.2821">
        <ele>271.9</ele>
        <time>2023-12-03T12:14:14.000Z</time>
      </trkpt>
      <trkpt lat="43.52501" lon="6.28206">
        <ele>271.5</ele>
        <time>2023-12-03T12:14:23.000Z</time>
      </trkpt>
      <trkpt lat="43.52498" lon="6.28203">
        <ele>271.2</ele>
        <time>2023-12-03T12:14:29.000Z</time>
      </trkpt>
      <trkpt lat="43.52495" lon="6.28201">
        <ele>271</ele>
        <time>2023-12-03T12:14:33.000Z</time>
      </trkpt>
      <trkpt lat="43.5249" lon="6.282">
        <ele>270.8</ele>
        <time>2023-12-03T12:14:37.000Z</time>
      </trkpt>
      <trkpt lat="43.52486" lon="6.28199">
        <ele>270.5</ele>
        <time>2023-12-03T12:14:43.000Z</time>
      </trkpt>
      <trkpt lat="43.52482" lon="6.28197">
        <ele>270.3</ele>
        <time>2023-12-03T12:14:47.000Z</time>
      </trkpt>
      <trkpt lat="43.52478" lon="6.28195">
        <ele>270.1</ele>
        <time>2023-12-03T12:14:51.000Z</time>
      </trkpt>
      <trkpt lat="43.52474" lon="6.28195">
        <ele>269.9</ele>
        <time>2023-12-03T12:14:56.000Z</time>
      </trkpt>
      <trkpt lat="43.5247" lon="6.28195">
        <ele>269.7</ele>
        <time>2023-12-03T12:15:00.000Z</time>
      </trkpt>
      <trkpt lat="43.52467" lon="6.28196">
        <ele>269.6</ele>
        <time>2023-12-03T12:15:03.000Z</time>
      </trkpt>
      <trkpt lat="43.52463" lon="6.28198">
        <ele>269.5</ele>
        <time>2023-12-03T12:15:08.000Z</time>
      </trkpt>
      <trkpt lat="43.52462" lon="6.28198">
        <ele>269.5</ele>
        <time>2023-12-03T12:15:09.000Z</time>
      </trkpt>
      <trkpt lat="43.52457" lon="6.282">
        <ele>269.1</ele>
        <time>2023-12-03T12:15:15.000Z</time>
      </trkpt>
      <trkpt lat="43.52452" lon="6.28201">
        <ele>268.8</ele>
        <time>2023-12-03T12:15:19.000Z</time>
      </trkpt>
      <trkpt lat="43.52448" lon="6.28202">
        <ele>268.7</ele>
        <time>2023-12-03T12:15:22.000Z</time>
      </trkpt>
      <trkpt lat="43.52444" lon="6.28201">
        <ele>268</ele>
        <time>2023-12-03T12:15:37.000Z</time>
      </trkpt>
      <trkpt lat="43.5244" lon="6.28203">
        <ele>267.5</ele>
        <time>2023-12-03T12:15:44.000Z</time>
      </trkpt>
      <trkpt lat="43.52437" lon="6.28206">
        <ele>267.1</ele>
        <time>2023-12-03T12:15:50.000Z</time>
      </trkpt>
      <trkpt lat="43.52433" lon="6.28207">
        <ele>266.7</ele>
        <time>2023-12-03T12:15:57.000Z</time>
      </trkpt>
      <trkpt lat="43.52428" lon="6.28206">
        <ele>265.9</ele>
        <time>2023-12-03T12:16:07.000Z</time>
      </trkpt>
      <trkpt lat="43.52424" lon="6.28208">
        <ele>265.1</ele>
        <time>2023-12-03T12:16:13.000Z</time>
      </trkpt>
      <trkpt lat="43.52424" lon="6.28208">
        <ele>265</ele>
        <time>2023-12-03T12:16:14.000Z</time>
      </trkpt>
      <trkpt lat="43.52417" lon="6.28206">
        <ele>262.9</ele>
        <time>2023-12-03T12:16:27.000Z</time>
      </trkpt>
      <trkpt lat="43.52414" lon="6.28204">
        <ele>262.5</ele>
        <time>2023-12-03T12:16:30.000Z</time>
      </trkpt>
      <trkpt lat="43.52411" lon="6.28199">
        <ele>262.1</ele>
        <time>2023-12-03T12:16:33.000Z</time>
      </trkpt>
      <trkpt lat="43.52409" lon="6.28195">
        <ele>261.7</ele>
        <time>2023-12-03T12:16:36.000Z</time>
      </trkpt>
      <trkpt lat="43.52408" lon="6.28189">
        <ele>261.2</ele>
        <time>2023-12-03T12:16:40.000Z</time>
      </trkpt>
      <trkpt lat="43.52409" lon="6.28183">
        <ele>260.8</ele>
        <time>2023-12-03T12:16:44.000Z</time>
      </trkpt>
      <trkpt lat="43.5241" lon="6.28178">
        <ele>260.3</ele>
        <time>2023-12-03T12:16:48.000Z</time>
      </trkpt>
      <trkpt lat="43.52412" lon="6.28173">
        <ele>259.9</ele>
        <time>2023-12-03T12:16:52.000Z</time>
      </trkpt>
      <trkpt lat="43.52414" lon="6.28168">
        <ele>259.6</ele>
        <time>2023-12-03T12:16:55.000Z</time>
      </trkpt>
      <trkpt lat="43.52416" lon="6.28165">
        <ele>259.5</ele>
        <time>2023-12-03T12:16:57.000Z</time>
      </trkpt>
      <trkpt lat="43.52418" lon="6.2816">
        <ele>259.3</ele>
        <time>2023-12-03T12:17:00.000Z</time>
      </trkpt>
      <trkpt lat="43.52419" lon="6.28156">
        <ele>259.1</ele>
        <time>2023-12-03T12:17:03.000Z</time>
      </trkpt>
      <trkpt lat="43.52422" lon="6.28152">
        <ele>258.9</ele>
        <time>2023-12-03T12:17:07.000Z</time>
      </trkpt>
      <trkpt lat="43.52425" lon="6.28147">
        <ele>258.3</ele>
        <time>2023-12-03T12:17:11.000Z</time>
      </trkpt>
      <trkpt lat="43.52427" lon="6.28142">
        <ele>257.9</ele>
        <time>2023-12-03T12:17:15.000Z</time>
      </trkpt>
      <trkpt lat="43.52428" lon="6.28142">
        <ele>257.8</ele>
        <time>2023-12-03T12:17:16.000Z</time>
      </trkpt>
      <trkpt lat="43.52431" lon="6.28132">
        <ele>257</ele>
        <time>2023-12-03T12:17:29.000Z</time>
      </trkpt>
      <trkpt lat="43.52433" lon="6.28129">
        <ele>256.7</ele>
        <time>2023-12-03T12:17:33.000Z</time>
      </trkpt>
      <trkpt lat="43.52436" lon="6.28125">
        <ele>256.5</ele>
        <time>2023-12-03T12:17:37.000Z</time>
      </trkpt>
      <trkpt lat="43.52439" lon="6.28122">
        <ele>256.3</ele>
        <time>2023-12-03T12:17:41.000Z</time>
      </trkpt>
      <trkpt lat="43.52442" lon="6.2812">
        <ele>256.1</ele>
        <time>2023-12-03T12:17:44.000Z</time>
      </trkpt>
      <trkpt lat="43.52446" lon="6.28117">
        <ele>255.8</ele>
        <time>2023-12-03T12:17:47.000Z</time>
      </trkpt>
      <trkpt lat="43.52449" lon="6.28114">
        <ele>255.4</ele>
        <time>2023-12-03T12:17:53.000Z</time>
      </trkpt>
      <trkpt lat="43.52453" lon="6.28111">
        <ele>254.8</ele>
        <time>2023-12-03T12:18:00.000Z</time>
      </trkpt>
      <trkpt lat="43.52455" lon="6.28106">
        <ele>254.4</ele>
        <time>2023-12-03T12:18:06.000Z</time>
      </trkpt>
      <trkpt lat="43.52459" lon="6.28104">
        <ele>254</ele>
        <time>2023-12-03T12:18:14.000Z</time>
      </trkpt>
      <trkpt lat="43.52463" lon="6.28101">
        <ele>253.4</ele>
        <time>2023-12-03T12:18:34.000Z</time>
      </trkpt>
      <trkpt lat="43.52463" lon="6.28102">
        <ele>253.4</ele>
        <time>2023-12-03T12:18:35.000Z</time>
      </trkpt>
      <trkpt lat="43.52455" lon="6.28103">
        <ele>253.1</ele>
        <time>2023-12-03T12:18:54.000Z</time>
      </trkpt>
      <trkpt lat="43.52458" lon="6.28099">
        <ele>253.2</ele>
        <time>2023-12-03T12:19:07.000Z</time>
      </trkpt>
      <trkpt lat="43.52462" lon="6.28097">
        <ele>253.2</ele>
        <time>2023-12-03T12:19:19.000Z</time>
      </trkpt>
      <trkpt lat="43.52461" lon="6.28103">
        <ele>253.9</ele>
        <time>2023-12-03T12:20:46.000Z</time>
      </trkpt>
      <trkpt lat="43.52461" lon="6.28103">
        <ele>253.9</ele>
        <time>2023-12-03T12:20:47.000Z</time>
      </trkpt>
      <trkpt lat="43.52467" lon="6.28097">
        <ele>253.5</ele>
        <time>2023-12-03T12:21:42.000Z</time>
      </trkpt>
      <trkpt lat="43.52463" lon="6.28096">
        <ele>253.2</ele>
        <time>2023-12-03T12:22:49.000Z</time>
      </trkpt>
      <trkpt lat="43.52462" lon="6.28096">
        <ele>253.2</ele>
        <time>2023-12-03T12:22:50.000Z</time>
      </trkpt>
      <trkpt lat="43.52457" lon="6.2809">
        <ele>252.9</ele>
        <time>2023-12-03T12:23:00.000Z</time>
      </trkpt>
      <trkpt lat="43.52453" lon="6.28088">
        <ele>252.5</ele>
        <time>2023-12-03T12:23:05.000Z</time>
      </trkpt>
      <trkpt lat="43.5245" lon="6.28085">
        <ele>252.1</ele>
        <time>2023-12-03T12:23:10.000Z</time>
      </trkpt>
      <trkpt lat="43.52448" lon="6.2808">
        <ele>251.8</ele>
        <time>2023-12-03T12:23:16.000Z</time>
      </trkpt>
      <trkpt lat="43.52444" lon="6.28076">
        <ele>251.2</ele>
        <time>2023-12-03T12:23:21.000Z</time>
      </trkpt>
      <trkpt lat="43.52441" lon="6.28074">
        <ele>250.9</ele>
        <time>2023-12-03T12:23:24.000Z</time>
      </trkpt>
      <trkpt lat="43.52437" lon="6.2807">
        <ele>250.4</ele>
        <time>2023-12-03T12:23:29.000Z</time>
      </trkpt>
      <trkpt lat="43.52435" lon="6.28067">
        <ele>250.1</ele>
        <time>2023-12-03T12:23:33.000Z</time>
      </trkpt>
      <trkpt lat="43.52433" lon="6.28061">
        <ele>249.5</ele>
        <time>2023-12-03T12:23:40.000Z</time>
      </trkpt>
      <trkpt lat="43.5243" lon="6.28057">
        <ele>249.1</ele>
        <time>2023-12-03T12:23:45.000Z</time>
      </trkpt>
      <trkpt lat="43.52427" lon="6.28054">
        <ele>248.8</ele>
        <time>2023-12-03T12:23:50.000Z</time>
      </trkpt>
      <trkpt lat="43.52427" lon="6.28053">
        <ele>248.7</ele>
        <time>2023-12-03T12:23:51.000Z</time>
      </trkpt>
      <trkpt lat="43.52422" lon="6.28046">
        <ele>248.2</ele>
        <time>2023-12-03T12:23:57.000Z</time>
      </trkpt>
      <trkpt lat="43.5242" lon="6.28043">
        <ele>247.9</ele>
        <time>2023-12-03T12:24:00.000Z</time>
      </trkpt>
      <trkpt lat="43.52417" lon="6.28039">
        <ele>247.6</ele>
        <time>2023-12-03T12:24:04.000Z</time>
      </trkpt>
      <trkpt lat="43.52414" lon="6.28035">
        <ele>247.4</ele>
        <time>2023-12-03T12:24:07.000Z</time>
      </trkpt>
      <trkpt lat="43.52412" lon="6.28032">
        <ele>247.1</ele>
        <time>2023-12-03T12:24:10.000Z</time>
      </trkpt>
      <trkpt lat="43.5241" lon="6.28028">
        <ele>246.8</ele>
        <time>2023-12-03T12:24:13.000Z</time>
      </trkpt>
      <trkpt lat="43.52407" lon="6.28025">
        <ele>246.5</ele>
        <time>2023-12-03T12:24:16.000Z</time>
      </trkpt>
      <trkpt lat="43.52404" lon="6.28021">
        <ele>246.2</ele>
        <time>2023-12-03T12:24:19.000Z</time>
      </trkpt>
      <trkpt lat="43.52401" lon="6.28017">
        <ele>245.8</ele>
        <time>2023-12-03T12:24:23.000Z</time>
      </trkpt>
      <trkpt lat="43.52399" lon="6.28012">
        <ele>245.4</ele>
        <time>2023-12-03T12:24:27.000Z</time>
      </trkpt>
      <trkpt lat="43.52396" lon="6.28009">
        <ele>245.1</ele>
        <time>2023-12-03T12:24:30.000Z</time>
      </trkpt>
      <trkpt lat="43.52394" lon="6.28006">
        <ele>244.8</ele>
        <time>2023-12-03T12:24:33.000Z</time>
      </trkpt>
      <trkpt lat="43.52391" lon="6.28002">
        <ele>244.5</ele>
        <time>2023-12-03T12:24:36.000Z</time>
      </trkpt>
      <trkpt lat="43.52389" lon="6.27998">
        <ele>244.2</ele>
        <time>2023-12-03T12:24:39.000Z</time>
      </trkpt>
      <trkpt lat="43.52386" lon="6.27995">
        <ele>243.9</ele>
        <time>2023-12-03T12:24:42.000Z</time>
      </trkpt>
      <trkpt lat="43.52384" lon="6.27991">
        <ele>243.5</ele>
        <time>2023-12-03T12:24:45.000Z</time>
      </trkpt>
      <trkpt lat="43.52381" lon="6.27988">
        <ele>243.2</ele>
        <time>2023-12-03T12:24:48.000Z</time>
      </trkpt>
      <trkpt lat="43.52378" lon="6.27985">
        <ele>243</ele>
        <time>2023-12-03T12:24:51.000Z</time>
      </trkpt>
      <trkpt lat="43.52377" lon="6.27984">
        <ele>242.9</ele>
        <time>2023-12-03T12:24:52.000Z</time>
      </trkpt>
      <trkpt lat="43.52373" lon="6.27979">
        <ele>242.6</ele>
        <time>2023-12-03T12:24:57.000Z</time>
      </trkpt>
      <trkpt lat="43.5237" lon="6.27975">
        <ele>242.3</ele>
        <time>2023-12-03T12:25:01.000Z</time>
      </trkpt>
      <trkpt lat="43.52367" lon="6.27971">
        <ele>242.1</ele>
        <time>2023-12-03T12:25:05.000Z</time>
      </trkpt>
      <trkpt lat="43.52364" lon="6.27968">
        <ele>241.9</ele>
        <time>2023-12-03T12:25:09.000Z</time>
      </trkpt>
      <trkpt lat="43.52361" lon="6.27964">
        <ele>241.8</ele>
        <time>2023-12-03T12:25:13.000Z</time>
      </trkpt>
      <trkpt lat="43.52358" lon="6.2796">
        <ele>241.7</ele>
        <time>2023-12-03T12:25:17.000Z</time>
      </trkpt>
      <trkpt lat="43.52355" lon="6.27956">
        <ele>241.6</ele>
        <time>2023-12-03T12:25:20.000Z</time>
      </trkpt>
      <trkpt lat="43.52352" lon="6.27952">
        <ele>241.3</ele>
        <time>2023-12-03T12:25:24.000Z</time>
      </trkpt>
      <trkpt lat="43.52349" lon="6.27949">
        <ele>241</ele>
        <time>2023-12-03T12:25:27.000Z</time>
      </trkpt>
      <trkpt lat="43.52346" lon="6.27946">
        <ele>240.8</ele>
        <time>2023-12-03T12:25:30.000Z</time>
      </trkpt>
      <trkpt lat="43.52343" lon="6.27943">
        <ele>240.6</ele>
        <time>2023-12-03T12:25:33.000Z</time>
      </trkpt>
      <trkpt lat="43.52341" lon="6.27939">
        <ele>240.5</ele>
        <time>2023-12-03T12:25:36.000Z</time>
      </trkpt>
      <trkpt lat="43.52338" lon="6.27936">
        <ele>240.4</ele>
        <time>2023-12-03T12:25:39.000Z</time>
      </trkpt>
      <trkpt lat="43.52336" lon="6.27932">
        <ele>240.3</ele>
        <time>2023-12-03T12:25:42.000Z</time>
      </trkpt>
      <trkpt lat="43.52333" lon="6.27928">
        <ele>240.2</ele>
        <time>2023-12-03T12:25:45.000Z</time>
      </trkpt>
      <trkpt lat="43.52331" lon="6.27925">
        <ele>240.1</ele>
        <time>2023-12-03T12:25:48.000Z</time>
      </trkpt>
      <trkpt lat="43.52328" lon="6.27921">
        <ele>240.1</ele>
        <time>2023-12-03T12:25:51.000Z</time>
      </trkpt>
      <trkpt lat="43.52325" lon="6.27917">
        <ele>240</ele>
        <time>2023-12-03T12:25:55.000Z</time>
      </trkpt>
      <trkpt lat="43.52324" lon="6.27916">
        <ele>240</ele>
        <time>2023-12-03T12:25:56.000Z</time>
      </trkpt>
      <trkpt lat="43.5232" lon="6.27909">
        <ele>239.8</ele>
        <time>2023-12-03T12:26:01.000Z</time>
      </trkpt>
      <trkpt lat="43.52317" lon="6.27905">
        <ele>239.6</ele>
        <time>2023-12-03T12:26:05.000Z</time>
      </trkpt>
      <trkpt lat="43.52315" lon="6.279">
        <ele>239.4</ele>
        <time>2023-12-03T12:26:09.000Z</time>
      </trkpt>
      <trkpt lat="43.52312" lon="6.27897">
        <ele>239.3</ele>
        <time>2023-12-03T12:26:13.000Z</time>
      </trkpt>
      <trkpt lat="43.52309" lon="6.27893">
        <ele>239.1</ele>
        <time>2023-12-03T12:26:17.000Z</time>
      </trkpt>
      <trkpt lat="43.52306" lon="6.27889">
        <ele>238.9</ele>
        <time>2023-12-03T12:26:20.000Z</time>
      </trkpt>
      <trkpt lat="43.52304" lon="6.27886">
        <ele>238.8</ele>
        <time>2023-12-03T12:26:23.000Z</time>
      </trkpt>
      <trkpt lat="43.52301" lon="6.27882">
        <ele>238.7</ele>
        <time>2023-12-03T12:26:26.000Z</time>
      </trkpt>
      <trkpt lat="43.52298" lon="6.27879">
        <ele>238.6</ele>
        <time>2023-12-03T12:26:29.000Z</time>
      </trkpt>
      <trkpt lat="43.52296" lon="6.27874">
        <ele>238.5</ele>
        <time>2023-12-03T12:26:33.000Z</time>
      </trkpt>
      <trkpt lat="43.52293" lon="6.2787">
        <ele>238.4</ele>
        <time>2023-12-03T12:26:37.000Z</time>
      </trkpt>
      <trkpt lat="43.52289" lon="6.27866">
        <ele>238.3</ele>
        <time>2023-12-03T12:26:41.000Z</time>
      </trkpt>
      <trkpt lat="43.52287" lon="6.27862">
        <ele>238.2</ele>
        <time>2023-12-03T12:26:45.000Z</time>
      </trkpt>
      <trkpt lat="43.52284" lon="6.27858">
        <ele>238.1</ele>
        <time>2023-12-03T12:26:48.000Z</time>
      </trkpt>
      <trkpt lat="43.52282" lon="6.27854">
        <ele>238.1</ele>
        <time>2023-12-03T12:26:51.000Z</time>
      </trkpt>
      <trkpt lat="43.5228" lon="6.27849">
        <ele>238</ele>
        <time>2023-12-03T12:26:55.000Z</time>
      </trkpt>
      <trkpt lat="43.52278" lon="6.27844">
        <ele>238.1</ele>
        <time>2023-12-03T12:26:59.000Z</time>
      </trkpt>
      <trkpt lat="43.52277" lon="6.27842">
        <ele>238.1</ele>
        <time>2023-12-03T12:27:00.000Z</time>
      </trkpt>
      <trkpt lat="43.52275" lon="6.27833">
        <ele>238.2</ele>
        <time>2023-12-03T12:27:07.000Z</time>
      </trkpt>
      <trkpt lat="43.52273" lon="6.27829">
        <ele>238.2</ele>
        <time>2023-12-03T12:27:10.000Z</time>
      </trkpt>
      <trkpt lat="43.52271" lon="6.27824">
        <ele>238.3</ele>
        <time>2023-12-03T12:27:14.000Z</time>
      </trkpt>
      <trkpt lat="43.5227" lon="6.27819">
        <ele>238.3</ele>
        <time>2023-12-03T12:27:18.000Z</time>
      </trkpt>
      <trkpt lat="43.52267" lon="6.27813">
        <ele>238.4</ele>
        <time>2023-12-03T12:27:22.000Z</time>
      </trkpt>
      <trkpt lat="43.52266" lon="6.27808">
        <ele>238.4</ele>
        <time>2023-12-03T12:27:26.000Z</time>
      </trkpt>
      <trkpt lat="43.52264" lon="6.27803">
        <ele>238.3</ele>
        <time>2023-12-03T12:27:30.000Z</time>
      </trkpt>
      <trkpt lat="43.52263" lon="6.27799">
        <ele>238.3</ele>
        <time>2023-12-03T12:27:34.000Z</time>
      </trkpt>
      <trkpt lat="43.52261" lon="6.27794">
        <ele>238.4</ele>
        <time>2023-12-03T12:27:38.000Z</time>
      </trkpt>
      <trkpt lat="43.5226" lon="6.27789">
        <ele>238.4</ele>
        <time>2023-12-03T12:27:42.000Z</time>
      </trkpt>
      <trkpt lat="43.52259" lon="6.27783">
        <ele>238.4</ele>
        <time>2023-12-03T12:27:46.000Z</time>
      </trkpt>
      <trkpt lat="43.52257" lon="6.27778">
        <ele>238.5</ele>
        <time>2023-12-03T12:27:50.000Z</time>
      </trkpt>
      <trkpt lat="43.52255" lon="6.27773">
        <ele>238.5</ele>
        <time>2023-12-03T12:27:53.000Z</time>
      </trkpt>
      <trkpt lat="43.52253" lon="6.27768">
        <ele>238.5</ele>
        <time>2023-12-03T12:27:57.000Z</time>
      </trkpt>
      <trkpt lat="43.52252" lon="6.27763">
        <ele>238.6</ele>
        <time>2023-12-03T12:28:01.000Z</time>
      </trkpt>
      <trkpt lat="43.52251" lon="6.27762">
        <ele>238.6</ele>
        <time>2023-12-03T12:28:02.000Z</time>
      </trkpt>
      <trkpt lat="43.52249" lon="6.27753">
        <ele>238.8</ele>
        <time>2023-12-03T12:28:10.000Z</time>
      </trkpt>
      <trkpt lat="43.52247" lon="6.27747">
        <ele>238.9</ele>
        <time>2023-12-03T12:28:15.000Z</time>
      </trkpt>
      <trkpt lat="43.52246" lon="6.27741">
        <ele>239</ele>
        <time>2023-12-03T12:28:20.000Z</time>
      </trkpt>
      <trkpt lat="43.52245" lon="6.27736">
        <ele>239.2</ele>
        <time>2023-12-03T12:28:31.000Z</time>
      </trkpt>
      <trkpt lat="43.52244" lon="6.2773">
        <ele>239.3</ele>
        <time>2023-12-03T12:28:36.000Z</time>
      </trkpt>
      <trkpt lat="43.52242" lon="6.27725">
        <ele>239.3</ele>
        <time>2023-12-03T12:28:42.000Z</time>
      </trkpt>
      <trkpt lat="43.5224" lon="6.27719">
        <ele>239.5</ele>
        <time>2023-12-03T12:28:47.000Z</time>
      </trkpt>
      <trkpt lat="43.52239" lon="6.27714">
        <ele>239.7</ele>
        <time>2023-12-03T12:28:51.000Z</time>
      </trkpt>
      <trkpt lat="43.52237" lon="6.2771">
        <ele>239.8</ele>
        <time>2023-12-03T12:28:55.000Z</time>
      </trkpt>
      <trkpt lat="43.52235" lon="6.27704">
        <ele>239.8</ele>
        <time>2023-12-03T12:29:00.000Z</time>
      </trkpt>
      <trkpt lat="43.52234" lon="6.27699">
        <ele>239.9</ele>
        <time>2023-12-03T12:29:05.000Z</time>
      </trkpt>
      <trkpt lat="43.52234" lon="6.27698">
        <ele>239.9</ele>
        <time>2023-12-03T12:29:06.000Z</time>
      </trkpt>
      <trkpt lat="43.52231" lon="6.2769">
        <ele>240.2</ele>
        <time>2023-12-03T12:29:14.000Z</time>
      </trkpt>
      <trkpt lat="43.52229" lon="6.27685">
        <ele>240.4</ele>
        <time>2023-12-03T12:29:18.000Z</time>
      </trkpt>
      <trkpt lat="43.52227" lon="6.27681">
        <ele>240.5</ele>
        <time>2023-12-03T12:29:22.000Z</time>
      </trkpt>
      <trkpt lat="43.52225" lon="6.27676">
        <ele>240.8</ele>
        <time>2023-12-03T12:29:27.000Z</time>
      </trkpt>
      <trkpt lat="43.52224" lon="6.2767">
        <ele>241</ele>
        <time>2023-12-03T12:29:32.000Z</time>
      </trkpt>
      <trkpt lat="43.52223" lon="6.27665">
        <ele>241.3</ele>
        <time>2023-12-03T12:29:37.000Z</time>
      </trkpt>
      <trkpt lat="43.52222" lon="6.2766">
        <ele>241.7</ele>
        <time>2023-12-03T12:29:44.000Z</time>
      </trkpt>
      <trkpt lat="43.5222" lon="6.27654">
        <ele>242.1</ele>
        <time>2023-12-03T12:29:49.000Z</time>
      </trkpt>
      <trkpt lat="43.52219" lon="6.27648">
        <ele>242.6</ele>
        <time>2023-12-03T12:29:55.000Z</time>
      </trkpt>
      <trkpt lat="43.52218" lon="6.27643">
        <ele>242.9</ele>
        <time>2023-12-03T12:30:01.000Z</time>
      </trkpt>
      <trkpt lat="43.52217" lon="6.27637">
        <ele>243.7</ele>
        <time>2023-12-03T12:30:09.000Z</time>
      </trkpt>
      <trkpt lat="43.52216" lon="6.27636">
        <ele>243.8</ele>
        <time>2023-12-03T12:30:10.000Z</time>
      </trkpt>
      <trkpt lat="43.52212" lon="6.27627">
        <ele>244.8</ele>
        <time>2023-12-03T12:30:22.000Z</time>
      </trkpt>
      <trkpt lat="43.5221" lon="6.27622">
        <ele>245.6</ele>
        <time>2023-12-03T12:30:31.000Z</time>
      </trkpt>
      <trkpt lat="43.52207" lon="6.27618">
        <ele>246.1</ele>
        <time>2023-12-03T12:30:37.000Z</time>
      </trkpt>
      <trkpt lat="43.52206" lon="6.27613">
        <ele>246.7</ele>
        <time>2023-12-03T12:30:46.000Z</time>
      </trkpt>
      <trkpt lat="43.52205" lon="6.27608">
        <ele>247.2</ele>
        <time>2023-12-03T12:30:53.000Z</time>
      </trkpt>
      <trkpt lat="43.52203" lon="6.27602">
        <ele>247.7</ele>
        <time>2023-12-03T12:30:59.000Z</time>
      </trkpt>
      <trkpt lat="43.52201" lon="6.27597">
        <ele>248.2</ele>
        <time>2023-12-03T12:31:05.000Z</time>
      </trkpt>
      <trkpt lat="43.522" lon="6.27591">
        <ele>248.6</ele>
        <time>2023-12-03T12:31:12.000Z</time>
      </trkpt>
      <trkpt lat="43.522" lon="6.27591">
        <ele>248.8</ele>
        <time>2023-12-03T12:31:13.000Z</time>
      </trkpt>
      <trkpt lat="43.52196" lon="6.27582">
        <ele>249.8</ele>
        <time>2023-12-03T12:31:26.000Z</time>
      </trkpt>
      <trkpt lat="43.52195" lon="6.27576">
        <ele>250.5</ele>
        <time>2023-12-03T12:31:33.000Z</time>
      </trkpt>
      <trkpt lat="43.52193" lon="6.27571">
        <ele>251.4</ele>
        <time>2023-12-03T12:31:41.000Z</time>
      </trkpt>
      <trkpt lat="43.52192" lon="6.27565">
        <ele>252.2</ele>
        <time>2023-12-03T12:31:48.000Z</time>
      </trkpt>
      <trkpt lat="43.52192" lon="6.2756">
        <ele>253.3</ele>
        <time>2023-12-03T12:31:55.000Z</time>
      </trkpt>
      <trkpt lat="43.52191" lon="6.27554">
        <ele>254</ele>
        <time>2023-12-03T12:32:00.000Z</time>
      </trkpt>
      <trkpt lat="43.5219" lon="6.27549">
        <ele>254.7</ele>
        <time>2023-12-03T12:32:06.000Z</time>
      </trkpt>
      <trkpt lat="43.52189" lon="6.27544">
        <ele>255.2</ele>
        <time>2023-12-03T12:32:12.000Z</time>
      </trkpt>
      <trkpt lat="43.52187" lon="6.27539">
        <ele>256.3</ele>
        <time>2023-12-03T12:32:19.000Z</time>
      </trkpt>
      <trkpt lat="43.52187" lon="6.27538">
        <ele>256.4</ele>
        <time>2023-12-03T12:32:20.000Z</time>
      </trkpt>
      <trkpt lat="43.52181" lon="6.27531">
        <ele>257.7</ele>
        <time>2023-12-03T12:32:35.000Z</time>
      </trkpt>
      <trkpt lat="43.52179" lon="6.27526">
        <ele>258.2</ele>
        <time>2023-12-03T12:32:44.000Z</time>
      </trkpt>
      <trkpt lat="43.52176" lon="6.27522">
        <ele>259.3</ele>
        <time>2023-12-03T12:32:53.000Z</time>
      </trkpt>
      <trkpt lat="43.52173" lon="6.27518">
        <ele>259.9</ele>
        <time>2023-12-03T12:32:58.000Z</time>
      </trkpt>
      <trkpt lat="43.52172" lon="6.27512">
        <ele>260.4</ele>
        <time>2023-12-03T12:33:04.000Z</time>
      </trkpt>
      <trkpt lat="43.5217" lon="6.27507">
        <ele>261</ele>
        <time>2023-12-03T12:33:09.000Z</time>
      </trkpt>
      <trkpt lat="43.52169" lon="6.27502">
        <ele>261.5</ele>
        <time>2023-12-03T12:33:13.000Z</time>
      </trkpt>
      <trkpt lat="43.52169" lon="6.27497">
        <ele>262</ele>
        <time>2023-12-03T12:33:18.000Z</time>
      </trkpt>
      <trkpt lat="43.52166" lon="6.27492">
        <ele>262.4</ele>
        <time>2023-12-03T12:33:22.000Z</time>
      </trkpt>
      <trkpt lat="43.52165" lon="6.27492">
        <ele>262.5</ele>
        <time>2023-12-03T12:33:23.000Z</time>
      </trkpt>
      <trkpt lat="43.52159" lon="6.27488">
        <ele>263.8</ele>
        <time>2023-12-03T12:33:32.000Z</time>
      </trkpt>
      <trkpt lat="43.52155" lon="6.27485">
        <ele>264.4</ele>
        <time>2023-12-03T12:33:37.000Z</time>
      </trkpt>
      <trkpt lat="43.52152" lon="6.27481">
        <ele>265.1</ele>
        <time>2023-12-03T12:33:44.000Z</time>
      </trkpt>
      <trkpt lat="43.52149" lon="6.27476">
        <ele>265.6</ele>
        <time>2023-12-03T12:33:49.000Z</time>
      </trkpt>
      <trkpt lat="43.52145" lon="6.27473">
        <ele>266.3</ele>
        <time>2023-12-03T12:33:55.000Z</time>
      </trkpt>
      <trkpt lat="43.52141" lon="6.2747">
        <ele>267</ele>
        <time>2023-12-03T12:34:02.000Z</time>
      </trkpt>
      <trkpt lat="43.52139" lon="6.27465">
        <ele>267.7</ele>
        <time>2023-12-03T12:34:09.000Z</time>
      </trkpt>
      <trkpt lat="43.52136" lon="6.27461">
        <ele>268.5</ele>
        <time>2023-12-03T12:34:16.000Z</time>
      </trkpt>
      <trkpt lat="43.52133" lon="6.27456">
        <ele>269.2</ele>
        <time>2023-12-03T12:34:22.000Z</time>
      </trkpt>
      <trkpt lat="43.52132" lon="6.27451">
        <ele>269.7</ele>
        <time>2023-12-03T12:34:28.000Z</time>
      </trkpt>
      <trkpt lat="43.52131" lon="6.27449">
        <ele>269.7</ele>
        <time>2023-12-03T12:34:29.000Z</time>
      </trkpt>
      <trkpt lat="43.5213" lon="6.2744">
        <ele>270.9</ele>
        <time>2023-12-03T12:34:38.000Z</time>
      </trkpt>
      <trkpt lat="43.5213" lon="6.27433">
        <ele>271.7</ele>
        <time>2023-12-03T12:34:44.000Z</time>
      </trkpt>
      <trkpt lat="43.5213" lon="6.27428">
        <ele>272.3</ele>
        <time>2023-12-03T12:34:51.000Z</time>
      </trkpt>
      <trkpt lat="43.52129" lon="6.27422">
        <ele>273.1</ele>
        <time>2023-12-03T12:34:57.000Z</time>
      </trkpt>
      <trkpt lat="43.52128" lon="6.27417">
        <ele>273.8</ele>
        <time>2023-12-03T12:35:03.000Z</time>
      </trkpt>
      <trkpt lat="43.52127" lon="6.27411">
        <ele>274.8</ele>
        <time>2023-12-03T12:35:11.000Z</time>
      </trkpt>
      <trkpt lat="43.52127" lon="6.27406">
        <ele>275.5</ele>
        <time>2023-12-03T12:35:18.000Z</time>
      </trkpt>
      <trkpt lat="43.52129" lon="6.27401">
        <ele>276.1</ele>
        <time>2023-12-03T12:35:23.000Z</time>
      </trkpt>
      <trkpt lat="43.52128" lon="6.27395">
        <ele>276.7</ele>
        <time>2023-12-03T12:35:29.000Z</time>
      </trkpt>
      <trkpt lat="43.52128" lon="6.27394">
        <ele>276.8</ele>
        <time>2023-12-03T12:35:30.000Z</time>
      </trkpt>
      <trkpt lat="43.52127" lon="6.27384">
        <ele>277.9</ele>
        <time>2023-12-03T12:35:40.000Z</time>
      </trkpt>
      <trkpt lat="43.52126" lon="6.27378">
        <ele>278.7</ele>
        <time>2023-12-03T12:35:46.000Z</time>
      </trkpt>
      <trkpt lat="43.52125" lon="6.27372">
        <ele>279.5</ele>
        <time>2023-12-03T12:35:52.000Z</time>
      </trkpt>
      <trkpt lat="43.52125" lon="6.27367">
        <ele>280.1</ele>
        <time>2023-12-03T12:35:58.000Z</time>
      </trkpt>
      <trkpt lat="43.52125" lon="6.27361">
        <ele>280.7</ele>
        <time>2023-12-03T12:36:06.000Z</time>
      </trkpt>
      <trkpt lat="43.52125" lon="6.27355">
        <ele>281.1</ele>
        <time>2023-12-03T12:36:11.000Z</time>
      </trkpt>
      <trkpt lat="43.52125" lon="6.27349">
        <ele>281.6</ele>
        <time>2023-12-03T12:36:16.000Z</time>
      </trkpt>
      <trkpt lat="43.52124" lon="6.27343">
        <ele>282.2</ele>
        <time>2023-12-03T12:36:22.000Z</time>
      </trkpt>
      <trkpt lat="43.52124" lon="6.27338">
        <ele>282.9</ele>
        <time>2023-12-03T12:36:29.000Z</time>
      </trkpt>
      <trkpt lat="43.52123" lon="6.27333">
        <ele>283.3</ele>
        <time>2023-12-03T12:36:34.000Z</time>
      </trkpt>
      <trkpt lat="43.52123" lon="6.27332">
        <ele>283.4</ele>
        <time>2023-12-03T12:36:35.000Z</time>
      </trkpt>
      <trkpt lat="43.52122" lon="6.27321">
        <ele>284.6</ele>
        <time>2023-12-03T12:36:45.000Z</time>
      </trkpt>
      <trkpt lat="43.52122" lon="6.27316">
        <ele>285.1</ele>
        <time>2023-12-03T12:36:50.000Z</time>
      </trkpt>
      <trkpt lat="43.52123" lon="6.27311">
        <ele>285.4</ele>
        <time>2023-12-03T12:36:54.000Z</time>
      </trkpt>
      <trkpt lat="43.52124" lon="6.27305">
        <ele>285.6</ele>
        <time>2023-12-03T12:36:58.000Z</time>
      </trkpt>
      <trkpt lat="43.52124" lon="6.27299">
        <ele>285.9</ele>
        <time>2023-12-03T12:37:03.000Z</time>
      </trkpt>
      <trkpt lat="43.52125" lon="6.27294">
        <ele>286.3</ele>
        <time>2023-12-03T12:37:07.000Z</time>
      </trkpt>
      <trkpt lat="43.52126" lon="6.27289">
        <ele>286.7</ele>
        <time>2023-12-03T12:37:12.000Z</time>
      </trkpt>
      <trkpt lat="43.52126" lon="6.27284">
        <ele>287</ele>
        <time>2023-12-03T12:37:16.000Z</time>
      </trkpt>
      <trkpt lat="43.52127" lon="6.27278">
        <ele>287.4</ele>
        <time>2023-12-03T12:37:21.000Z</time>
      </trkpt>
      <trkpt lat="43.52128" lon="6.27273">
        <ele>287.8</ele>
        <time>2023-12-03T12:37:26.000Z</time>
      </trkpt>
      <trkpt lat="43.52127" lon="6.27267">
        <ele>288.1</ele>
        <time>2023-12-03T12:37:31.000Z</time>
      </trkpt>
      <trkpt lat="43.52127" lon="6.27261">
        <ele>288.4</ele>
        <time>2023-12-03T12:37:36.000Z</time>
      </trkpt>
      <trkpt lat="43.52126" lon="6.2726">
        <ele>288.5</ele>
        <time>2023-12-03T12:37:37.000Z</time>
      </trkpt>
      <trkpt lat="43.52123" lon="6.27251">
        <ele>289.1</ele>
        <time>2023-12-03T12:37:46.000Z</time>
      </trkpt>
      <trkpt lat="43.52119" lon="6.27247">
        <ele>289.6</ele>
        <time>2023-12-03T12:37:52.000Z</time>
      </trkpt>
      <trkpt lat="43.52116" lon="6.27243">
        <ele>289.9</ele>
        <time>2023-12-03T12:37:58.000Z</time>
      </trkpt>
      <trkpt lat="43.52113" lon="6.27239">
        <ele>290.1</ele>
        <time>2023-12-03T12:38:03.000Z</time>
      </trkpt>
      <trkpt lat="43.5211" lon="6.27235">
        <ele>290.4</ele>
        <time>2023-12-03T12:38:10.000Z</time>
      </trkpt>
      <trkpt lat="43.52107" lon="6.27231">
        <ele>290.8</ele>
        <time>2023-12-03T12:38:15.000Z</time>
      </trkpt>
      <trkpt lat="43.52105" lon="6.27227">
        <ele>291.2</ele>
        <time>2023-12-03T12:38:20.000Z</time>
      </trkpt>
      <trkpt lat="43.52102" lon="6.27222">
        <ele>291.4</ele>
        <time>2023-12-03T12:38:24.000Z</time>
      </trkpt>
      <trkpt lat="43.521" lon="6.27218">
        <ele>291.6</ele>
        <time>2023-12-03T12:38:27.000Z</time>
      </trkpt>
      <trkpt lat="43.52097" lon="6.27213">
        <ele>291.8</ele>
        <time>2023-12-03T12:38:31.000Z</time>
      </trkpt>
      <trkpt lat="43.52095" lon="6.27209">
        <ele>292.1</ele>
        <time>2023-12-03T12:38:36.000Z</time>
      </trkpt>
      <trkpt lat="43.52093" lon="6.27203">
        <ele>292.4</ele>
        <time>2023-12-03T12:38:42.000Z</time>
      </trkpt>
      <trkpt lat="43.52093" lon="6.27202">
        <ele>292.4</ele>
        <time>2023-12-03T12:38:43.000Z</time>
      </trkpt>
      <trkpt lat="43.5209" lon="6.27194">
        <ele>292.9</ele>
        <time>2023-12-03T12:38:52.000Z</time>
      </trkpt>
      <trkpt lat="43.52088" lon="6.27189">
        <ele>293.1</ele>
        <time>2023-12-03T12:38:56.000Z</time>
      </trkpt>
      <trkpt lat="43.52087" lon="6.27185">
        <ele>293.3</ele>
        <time>2023-12-03T12:38:59.000Z</time>
      </trkpt>
      <trkpt lat="43.52085" lon="6.2718">
        <ele>293.4</ele>
        <time>2023-12-03T12:39:02.000Z</time>
      </trkpt>
      <trkpt lat="43.52082" lon="6.27177">
        <ele>293.6</ele>
        <time>2023-12-03T12:39:05.000Z</time>
      </trkpt>
      <trkpt lat="43.52079" lon="6.27173">
        <ele>293.8</ele>
        <time>2023-12-03T12:39:09.000Z</time>
      </trkpt>
      <trkpt lat="43.52076" lon="6.27168">
        <ele>294.1</ele>
        <time>2023-12-03T12:39:13.000Z</time>
      </trkpt>
      <trkpt lat="43.52072" lon="6.27165">
        <ele>294.3</ele>
        <time>2023-12-03T12:39:18.000Z</time>
      </trkpt>
      <trkpt lat="43.5207" lon="6.2716">
        <ele>295</ele>
        <time>2023-12-03T12:39:27.000Z</time>
      </trkpt>
      <trkpt lat="43.52072" lon="6.27155">
        <ele>295.4</ele>
        <time>2023-12-03T12:39:38.000Z</time>
      </trkpt>
      <trkpt lat="43.52071" lon="6.27149">
        <ele>296</ele>
        <time>2023-12-03T12:40:01.000Z</time>
      </trkpt>
      <trkpt lat="43.52071" lon="6.27149">
        <ele>296</ele>
        <time>2023-12-03T12:40:02.000Z</time>
      </trkpt>
      <trkpt lat="43.52072" lon="6.27146">
        <ele>296</ele>
        <time>2023-12-03T12:42:59.000Z</time>
      </trkpt>
      <trkpt lat="43.52071" lon="6.27145">
        <ele>296</ele>
        <time>2023-12-03T12:43:00.000Z</time>
      </trkpt>
      <trkpt lat="43.52067" lon="6.27138">
        <ele>296.1</ele>
        <time>2023-12-03T12:43:08.000Z</time>
      </trkpt>
      <trkpt lat="43.52064" lon="6.27134">
        <ele>296.1</ele>
        <time>2023-12-03T12:43:12.000Z</time>
      </trkpt>
      <trkpt lat="43.52061" lon="6.27129">
        <ele>296.3</ele>
        <time>2023-12-03T12:43:16.000Z</time>
      </trkpt>
      <trkpt lat="43.52058" lon="6.27125">
        <ele>296.5</ele>
        <time>2023-12-03T12:43:21.000Z</time>
      </trkpt>
      <trkpt lat="43.52057" lon="6.2712">
        <ele>296.7</ele>
        <time>2023-12-03T12:43:26.000Z</time>
      </trkpt>
      <trkpt lat="43.52054" lon="6.27116">
        <ele>296.9</ele>
        <time>2023-12-03T12:43:32.000Z</time>
      </trkpt>
      <trkpt lat="43.52052" lon="6.27112">
        <ele>297.1</ele>
        <time>2023-12-03T12:43:37.000Z</time>
      </trkpt>
      <trkpt lat="43.52049" lon="6.27107">
        <ele>297.3</ele>
        <time>2023-12-03T12:43:41.000Z</time>
      </trkpt>
      <trkpt lat="43.52047" lon="6.27103">
        <ele>297.4</ele>
        <time>2023-12-03T12:43:45.000Z</time>
      </trkpt>
      <trkpt lat="43.52045" lon="6.27098">
        <ele>297.5</ele>
        <time>2023-12-03T12:43:50.000Z</time>
      </trkpt>
      <trkpt lat="43.52042" lon="6.27093">
        <ele>297.8</ele>
        <time>2023-12-03T12:43:54.000Z</time>
      </trkpt>
      <trkpt lat="43.5204" lon="6.27089">
        <ele>298</ele>
        <time>2023-12-03T12:43:58.000Z</time>
      </trkpt>
      <trkpt lat="43.52038" lon="6.27084">
        <ele>298.1</ele>
        <time>2023-12-03T12:44:02.000Z</time>
      </trkpt>
      <trkpt lat="43.52038" lon="6.27083">
        <ele>298.2</ele>
        <time>2023-12-03T12:44:03.000Z</time>
      </trkpt>
      <trkpt lat="43.52036" lon="6.27073">
        <ele>298.6</ele>
        <time>2023-12-03T12:44:16.000Z</time>
      </trkpt>
      <trkpt lat="43.52034" lon="6.27069">
        <ele>298.8</ele>
        <time>2023-12-03T12:44:21.000Z</time>
      </trkpt>
      <trkpt lat="43.52033" lon="6.27063">
        <ele>299</ele>
        <time>2023-12-03T12:44:26.000Z</time>
      </trkpt>
      <trkpt lat="43.52032" lon="6.27058">
        <ele>299.1</ele>
        <time>2023-12-03T12:44:31.000Z</time>
      </trkpt>
      <trkpt lat="43.52031" lon="6.27053">
        <ele>299.3</ele>
        <time>2023-12-03T12:44:36.000Z</time>
      </trkpt>
      <trkpt lat="43.5203" lon="6.27047">
        <ele>299.5</ele>
        <time>2023-12-03T12:44:41.000Z</time>
      </trkpt>
      <trkpt lat="43.52029" lon="6.27042">
        <ele>299.8</ele>
        <time>2023-12-03T12:44:48.000Z</time>
      </trkpt>
      <trkpt lat="43.52028" lon="6.27036">
        <ele>300.4</ele>
        <time>2023-12-03T12:44:57.000Z</time>
      </trkpt>
      <trkpt lat="43.52028" lon="6.27031">
        <ele>300.9</ele>
        <time>2023-12-03T12:45:05.000Z</time>
      </trkpt>
      <trkpt lat="43.52027" lon="6.2703">
        <ele>300.9</ele>
        <time>2023-12-03T12:45:06.000Z</time>
      </trkpt>
      <trkpt lat="43.52027" lon="6.2702">
        <ele>301.2</ele>
        <time>2023-12-03T12:45:14.000Z</time>
      </trkpt>
      <trkpt lat="43.52025" lon="6.27014">
        <ele>301.4</ele>
        <time>2023-12-03T12:45:18.000Z</time>
      </trkpt>
      <trkpt lat="43.52024" lon="6.2701">
        <ele>301.5</ele>
        <time>2023-12-03T12:45:21.000Z</time>
      </trkpt>
      <trkpt lat="43.52023" lon="6.27004">
        <ele>301.6</ele>
        <time>2023-12-03T12:45:25.000Z</time>
      </trkpt>
      <trkpt lat="43.52021" lon="6.26999">
        <ele>301.8</ele>
        <time>2023-12-03T12:45:29.000Z</time>
      </trkpt>
      <trkpt lat="43.52019" lon="6.26995">
        <ele>302</ele>
        <time>2023-12-03T12:45:33.000Z</time>
      </trkpt>
      <trkpt lat="43.52017" lon="6.2699">
        <ele>302.2</ele>
        <time>2023-12-03T12:45:37.000Z</time>
      </trkpt>
      <trkpt lat="43.52017" lon="6.26985">
        <ele>302.4</ele>
        <time>2023-12-03T12:45:41.000Z</time>
      </trkpt>
      <trkpt lat="43.52016" lon="6.2698">
        <ele>302.5</ele>
        <time>2023-12-03T12:45:45.000Z</time>
      </trkpt>
      <trkpt lat="43.52015" lon="6.26974">
        <ele>302.7</ele>
        <time>2023-12-03T12:45:49.000Z</time>
      </trkpt>
      <trkpt lat="43.52015" lon="6.26969">
        <ele>302.8</ele>
        <time>2023-12-03T12:45:52.000Z</time>
      </trkpt>
      <trkpt lat="43.52015" lon="6.26965">
        <ele>302.9</ele>
        <time>2023-12-03T12:45:55.000Z</time>
      </trkpt>
      <trkpt lat="43.52015" lon="6.26959">
        <ele>302.9</ele>
        <time>2023-12-03T12:45:59.000Z</time>
      </trkpt>
      <trkpt lat="43.52016" lon="6.26953">
        <ele>303</ele>
        <time>2023-12-03T12:46:03.000Z</time>
      </trkpt>
      <trkpt lat="43.52016" lon="6.26948">
        <ele>303</ele>
        <time>2023-12-03T12:46:06.000Z</time>
      </trkpt>
      <trkpt lat="43.52016" lon="6.26946">
        <ele>303</ele>
        <time>2023-12-03T12:46:07.000Z</time>
      </trkpt>
      <trkpt lat="43.52016" lon="6.26938">
        <ele>302.9</ele>
        <time>2023-12-03T12:46:12.000Z</time>
      </trkpt>
      <trkpt lat="43.52016" lon="6.26932">
        <ele>302.9</ele>
        <time>2023-12-03T12:46:16.000Z</time>
      </trkpt>
      <trkpt lat="43.52016" lon="6.26926">
        <ele>302.8</ele>
        <time>2023-12-03T12:46:20.000Z</time>
      </trkpt>
      <trkpt lat="43.52017" lon="6.26922">
        <ele>302.8</ele>
        <time>2023-12-03T12:46:23.000Z</time>
      </trkpt>
      <trkpt lat="43.52017" lon="6.26916">
        <ele>302.8</ele>
        <time>2023-12-03T12:46:27.000Z</time>
      </trkpt>
      <trkpt lat="43.52017" lon="6.2691">
        <ele>302.6</ele>
        <time>2023-12-03T12:46:31.000Z</time>
      </trkpt>
      <trkpt lat="43.52017" lon="6.26904">
        <ele>302.4</ele>
        <time>2023-12-03T12:46:35.000Z</time>
      </trkpt>
      <trkpt lat="43.52017" lon="6.26898">
        <ele>302.3</ele>
        <time>2023-12-03T12:46:39.000Z</time>
      </trkpt>
      <trkpt lat="43.52016" lon="6.26893">
        <ele>301.9</ele>
        <time>2023-12-03T12:46:43.000Z</time>
      </trkpt>
      <trkpt lat="43.52017" lon="6.26888">
        <ele>301.7</ele>
        <time>2023-12-03T12:46:46.000Z</time>
      </trkpt>
      <trkpt lat="43.52017" lon="6.26882">
        <ele>301.4</ele>
        <time>2023-12-03T12:46:50.000Z</time>
      </trkpt>
      <trkpt lat="43.52017" lon="6.26875">
        <ele>301.1</ele>
        <time>2023-12-03T12:46:54.000Z</time>
      </trkpt>
      <trkpt lat="43.52018" lon="6.26871">
        <ele>300.8</ele>
        <time>2023-12-03T12:46:57.000Z</time>
      </trkpt>
      <trkpt lat="43.52018" lon="6.26865">
        <ele>300.4</ele>
        <time>2023-12-03T12:47:01.000Z</time>
      </trkpt>
      <trkpt lat="43.52018" lon="6.26859">
        <ele>300.1</ele>
        <time>2023-12-03T12:47:05.000Z</time>
      </trkpt>
      <trkpt lat="43.52017" lon="6.26853">
        <ele>299.8</ele>
        <time>2023-12-03T12:47:09.000Z</time>
      </trkpt>
      <trkpt lat="43.52017" lon="6.26852">
        <ele>299.7</ele>
        <time>2023-12-03T12:47:10.000Z</time>
      </trkpt>
      <trkpt lat="43.52018" lon="6.26842">
        <ele>299.2</ele>
        <time>2023-12-03T12:47:17.000Z</time>
      </trkpt>
      <trkpt lat="43.5202" lon="6.26836">
        <ele>298.8</ele>
        <time>2023-12-03T12:47:21.000Z</time>
      </trkpt>
      <trkpt lat="43.52023" lon="6.26833">
        <ele>298.5</ele>
        <time>2023-12-03T12:47:25.000Z</time>
      </trkpt>
      <trkpt lat="43.52026" lon="6.2683">
        <ele>298.3</ele>
        <time>2023-12-03T12:47:29.000Z</time>
      </trkpt>
      <trkpt lat="43.52029" lon="6.26826">
        <ele>298.1</ele>
        <time>2023-12-03T12:47:33.000Z</time>
      </trkpt>
      <trkpt lat="43.52031" lon="6.26822">
        <ele>298</ele>
        <time>2023-12-03T12:47:36.000Z</time>
      </trkpt>
      <trkpt lat="43.52033" lon="6.26817">
        <ele>297.9</ele>
        <time>2023-12-03T12:47:40.000Z</time>
      </trkpt>
      <trkpt lat="43.52034" lon="6.26811">
        <ele>297.7</ele>
        <time>2023-12-03T12:47:44.000Z</time>
      </trkpt>
      <trkpt lat="43.52035" lon="6.26806">
        <ele>297.6</ele>
        <time>2023-12-03T12:47:48.000Z</time>
      </trkpt>
      <trkpt lat="43.52034" lon="6.268">
        <ele>297.5</ele>
        <time>2023-12-03T12:47:52.000Z</time>
      </trkpt>
      <trkpt lat="43.52034" lon="6.26794">
        <ele>297.3</ele>
        <time>2023-12-03T12:47:56.000Z</time>
      </trkpt>
      <trkpt lat="43.52033" lon="6.26789">
        <ele>297.1</ele>
        <time>2023-12-03T12:48:00.000Z</time>
      </trkpt>
      <trkpt lat="43.52032" lon="6.26784">
        <ele>296.9</ele>
        <time>2023-12-03T12:48:05.000Z</time>
      </trkpt>
      <trkpt lat="43.52032" lon="6.26779">
        <ele>296.7</ele>
        <time>2023-12-03T12:48:09.000Z</time>
      </trkpt>
      <trkpt lat="43.52031" lon="6.26773">
        <ele>296.6</ele>
        <time>2023-12-03T12:48:13.000Z</time>
      </trkpt>
      <trkpt lat="43.52031" lon="6.26772">
        <ele>296.6</ele>
        <time>2023-12-03T12:48:14.000Z</time>
      </trkpt>
      <trkpt lat="43.52031" lon="6.26762">
        <ele>296.4</ele>
        <time>2023-12-03T12:48:23.000Z</time>
      </trkpt>
      <trkpt lat="43.52032" lon="6.26756">
        <ele>296.4</ele>
        <time>2023-12-03T12:48:27.000Z</time>
      </trkpt>
      <trkpt lat="43.52033" lon="6.26751">
        <ele>296.3</ele>
        <time>2023-12-03T12:48:30.000Z</time>
      </trkpt>
      <trkpt lat="43.52034" lon="6.26746">
        <ele>296.2</ele>
        <time>2023-12-03T12:48:33.000Z</time>
      </trkpt>
      <trkpt lat="43.52034" lon="6.2674">
        <ele>296.1</ele>
        <time>2023-12-03T12:48:37.000Z</time>
      </trkpt>
      <trkpt lat="43.52034" lon="6.26735">
        <ele>296</ele>
        <time>2023-12-03T12:48:40.000Z</time>
      </trkpt>
      <trkpt lat="43.52034" lon="6.26731">
        <ele>295.9</ele>
        <time>2023-12-03T12:48:42.000Z</time>
      </trkpt>
      <trkpt lat="43.52034" lon="6.26727">
        <ele>295.8</ele>
        <time>2023-12-03T12:48:44.000Z</time>
      </trkpt>
      <trkpt lat="43.52035" lon="6.26722">
        <ele>295.8</ele>
        <time>2023-12-03T12:48:46.000Z</time>
      </trkpt>
      <trkpt lat="43.52036" lon="6.26717">
        <ele>295.8</ele>
        <time>2023-12-03T12:48:49.000Z</time>
      </trkpt>
      <trkpt lat="43.52037" lon="6.26712">
        <ele>295.7</ele>
        <time>2023-12-03T12:48:52.000Z</time>
      </trkpt>
      <trkpt lat="43.52038" lon="6.26707">
        <ele>295.6</ele>
        <time>2023-12-03T12:48:55.000Z</time>
      </trkpt>
      <trkpt lat="43.52038" lon="6.26702">
        <ele>295.5</ele>
        <time>2023-12-03T12:48:58.000Z</time>
      </trkpt>
      <trkpt lat="43.52039" lon="6.26697">
        <ele>295.5</ele>
        <time>2023-12-03T12:49:01.000Z</time>
      </trkpt>
      <trkpt lat="43.5204" lon="6.26692">
        <ele>295.5</ele>
        <time>2023-12-03T12:49:04.000Z</time>
      </trkpt>
      <trkpt lat="43.5204" lon="6.26687">
        <ele>295.4</ele>
        <time>2023-12-03T12:49:07.000Z</time>
      </trkpt>
      <trkpt lat="43.52042" lon="6.26682">
        <ele>295.4</ele>
        <time>2023-12-03T12:49:10.000Z</time>
      </trkpt>
      <trkpt lat="43.52042" lon="6.26678">
        <ele>295.4</ele>
        <time>2023-12-03T12:49:13.000Z</time>
      </trkpt>
      <trkpt lat="43.52043" lon="6.26672">
        <ele>295.4</ele>
        <time>2023-12-03T12:49:17.000Z</time>
      </trkpt>
      <trkpt lat="43.52043" lon="6.2667">
        <ele>295.4</ele>
        <time>2023-12-03T12:49:18.000Z</time>
      </trkpt>
      <trkpt lat="43.52045" lon="6.26662">
        <ele>295.5</ele>
        <time>2023-12-03T12:49:23.000Z</time>
      </trkpt>
      <trkpt lat="43.52045" lon="6.26658">
        <ele>295.5</ele>
        <time>2023-12-03T12:49:26.000Z</time>
      </trkpt>
      <trkpt lat="43.52046" lon="6.26652">
        <ele>295.5</ele>
        <time>2023-12-03T12:49:29.000Z</time>
      </trkpt>
      <trkpt lat="43.52046" lon="6.26647">
        <ele>295.5</ele>
        <time>2023-12-03T12:49:32.000Z</time>
      </trkpt>
      <trkpt lat="43.52047" lon="6.26642">
        <ele>295.6</ele>
        <time>2023-12-03T12:49:35.000Z</time>
      </trkpt>
      <trkpt lat="43.52047" lon="6.26637">
        <ele>295.6</ele>
        <time>2023-12-03T12:49:38.000Z</time>
      </trkpt>
      <trkpt lat="43.52048" lon="6.26631">
        <ele>295.7</ele>
        <time>2023-12-03T12:49:43.000Z</time>
      </trkpt>
      <trkpt lat="43.5205" lon="6.26626">
        <ele>295.8</ele>
        <time>2023-12-03T12:49:47.000Z</time>
      </trkpt>
      <trkpt lat="43.52051" lon="6.26621">
        <ele>296</ele>
        <time>2023-12-03T12:49:51.000Z</time>
      </trkpt>
      <trkpt lat="43.52053" lon="6.26616">
        <ele>296</ele>
        <time>2023-12-03T12:49:54.000Z</time>
      </trkpt>
      <trkpt lat="43.52055" lon="6.26612">
        <ele>296.1</ele>
        <time>2023-12-03T12:49:56.000Z</time>
      </trkpt>
      <trkpt lat="43.52056" lon="6.26607">
        <ele>296.1</ele>
        <time>2023-12-03T12:49:59.000Z</time>
      </trkpt>
      <trkpt lat="43.52057" lon="6.26602">
        <ele>296.2</ele>
        <time>2023-12-03T12:50:02.000Z</time>
      </trkpt>
      <trkpt lat="43.52059" lon="6.26596">
        <ele>296.2</ele>
        <time>2023-12-03T12:50:06.000Z</time>
      </trkpt>
      <trkpt lat="43.5206" lon="6.26592">
        <ele>296.2</ele>
        <time>2023-12-03T12:50:09.000Z</time>
      </trkpt>
      <trkpt lat="43.52061" lon="6.26587">
        <ele>296.3</ele>
        <time>2023-12-03T12:50:12.000Z</time>
      </trkpt>
      <trkpt lat="43.52063" lon="6.26583">
        <ele>296.4</ele>
        <time>2023-12-03T12:50:15.000Z</time>
      </trkpt>
      <trkpt lat="43.52064" lon="6.26577">
        <ele>296.4</ele>
        <time>2023-12-03T12:50:19.000Z</time>
      </trkpt>
      <trkpt lat="43.52064" lon="6.26575">
        <ele>296.4</ele>
        <time>2023-12-03T12:50:20.000Z</time>
      </trkpt>
      <trkpt lat="43.52064" lon="6.26565">
        <ele>296.5</ele>
        <time>2023-12-03T12:50:27.000Z</time>
      </trkpt>
      <trkpt lat="43.52065" lon="6.26559">
        <ele>296.5</ele>
        <time>2023-12-03T12:50:31.000Z</time>
      </trkpt>
      <trkpt lat="43.52065" lon="6.26554">
        <ele>296.6</ele>
        <time>2023-12-03T12:50:34.000Z</time>
      </trkpt>
      <trkpt lat="43.52065" lon="6.26548">
        <ele>296.6</ele>
        <time>2023-12-03T12:50:38.000Z</time>
      </trkpt>
      <trkpt lat="43.52065" lon="6.26543">
        <ele>296.6</ele>
        <time>2023-12-03T12:50:42.000Z</time>
      </trkpt>
      <trkpt lat="43.52065" lon="6.26537">
        <ele>296.7</ele>
        <time>2023-12-03T12:50:46.000Z</time>
      </trkpt>
      <trkpt lat="43.52066" lon="6.26531">
        <ele>296.8</ele>
        <time>2023-12-03T12:50:50.000Z</time>
      </trkpt>
      <trkpt lat="43.52066" lon="6.26526">
        <ele>296.8</ele>
        <time>2023-12-03T12:50:53.000Z</time>
      </trkpt>
      <trkpt lat="43.52066" lon="6.26521">
        <ele>296.8</ele>
        <time>2023-12-03T12:50:56.000Z</time>
      </trkpt>
      <trkpt lat="43.52066" lon="6.26516">
        <ele>296.9</ele>
        <time>2023-12-03T12:50:59.000Z</time>
      </trkpt>
      <trkpt lat="43.52066" lon="6.26511">
        <ele>297</ele>
        <time>2023-12-03T12:51:03.000Z</time>
      </trkpt>
      <trkpt lat="43.52066" lon="6.26505">
        <ele>297.2</ele>
        <time>2023-12-03T12:51:07.000Z</time>
      </trkpt>
      <trkpt lat="43.52065" lon="6.26501">
        <ele>297.3</ele>
        <time>2023-12-03T12:51:10.000Z</time>
      </trkpt>
      <trkpt lat="43.52065" lon="6.26496">
        <ele>297.4</ele>
        <time>2023-12-03T12:51:13.000Z</time>
      </trkpt>
      <trkpt lat="43.52065" lon="6.2649">
        <ele>297.5</ele>
        <time>2023-12-03T12:51:17.000Z</time>
      </trkpt>
      <trkpt lat="43.52064" lon="6.26485">
        <ele>297.5</ele>
        <time>2023-12-03T12:51:20.000Z</time>
      </trkpt>
      <trkpt lat="43.52064" lon="6.26484">
        <ele>297.5</ele>
        <time>2023-12-03T12:51:21.000Z</time>
      </trkpt>
      <trkpt lat="43.52063" lon="6.26475">
        <ele>297.7</ele>
        <time>2023-12-03T12:51:28.000Z</time>
      </trkpt>
      <trkpt lat="43.52063" lon="6.2647">
        <ele>297.8</ele>
        <time>2023-12-03T12:51:32.000Z</time>
      </trkpt>
      <trkpt lat="43.52063" lon="6.26465">
        <ele>298</ele>
        <time>2023-12-03T12:51:35.000Z</time>
      </trkpt>
      <trkpt lat="43.52062" lon="6.2646">
        <ele>298.2</ele>
        <time>2023-12-03T12:51:38.000Z</time>
      </trkpt>
      <trkpt lat="43.5206" lon="6.26455">
        <ele>298.3</ele>
        <time>2023-12-03T12:51:41.000Z</time>
      </trkpt>
      <trkpt lat="43.5206" lon="6.2645">
        <ele>298.5</ele>
        <time>2023-12-03T12:51:44.000Z</time>
      </trkpt>
      <trkpt lat="43.52059" lon="6.26445">
        <ele>298.6</ele>
        <time>2023-12-03T12:51:47.000Z</time>
      </trkpt>
      <trkpt lat="43.52059" lon="6.2644">
        <ele>298.6</ele>
        <time>2023-12-03T12:51:50.000Z</time>
      </trkpt>
      <trkpt lat="43.52059" lon="6.26434">
        <ele>298.7</ele>
        <time>2023-12-03T12:51:53.000Z</time>
      </trkpt>
      <trkpt lat="43.52058" lon="6.26429">
        <ele>298.8</ele>
        <time>2023-12-03T12:51:57.000Z</time>
      </trkpt>
      <trkpt lat="43.52058" lon="6.26423">
        <ele>298.8</ele>
        <time>2023-12-03T12:52:00.000Z</time>
      </trkpt>
      <trkpt lat="43.52058" lon="6.26418">
        <ele>298.8</ele>
        <time>2023-12-03T12:52:03.000Z</time>
      </trkpt>
      <trkpt lat="43.52058" lon="6.26413">
        <ele>298.8</ele>
        <time>2023-12-03T12:52:06.000Z</time>
      </trkpt>
      <trkpt lat="43.52058" lon="6.26407">
        <ele>298.8</ele>
        <time>2023-12-03T12:52:10.000Z</time>
      </trkpt>
      <trkpt lat="43.52057" lon="6.26401">
        <ele>298.7</ele>
        <time>2023-12-03T12:52:14.000Z</time>
      </trkpt>
      <trkpt lat="43.52056" lon="6.26397">
        <ele>298.6</ele>
        <time>2023-12-03T12:52:18.000Z</time>
      </trkpt>
      <trkpt lat="43.52056" lon="6.26391">
        <ele>298.5</ele>
        <time>2023-12-03T12:52:22.000Z</time>
      </trkpt>
      <trkpt lat="43.52056" lon="6.26389">
        <ele>298.5</ele>
        <time>2023-12-03T12:52:23.000Z</time>
      </trkpt>
      <trkpt lat="43.52058" lon="6.26381">
        <ele>298.4</ele>
        <time>2023-12-03T12:52:27.000Z</time>
      </trkpt>
      <trkpt lat="43.52059" lon="6.26376">
        <ele>298.4</ele>
        <time>2023-12-03T12:52:30.000Z</time>
      </trkpt>
      <trkpt lat="43.52059" lon="6.2637">
        <ele>298.3</ele>
        <time>2023-12-03T12:52:33.000Z</time>
      </trkpt>
      <trkpt lat="43.5206" lon="6.26365">
        <ele>298.3</ele>
        <time>2023-12-03T12:52:36.000Z</time>
      </trkpt>
      <trkpt lat="43.5206" lon="6.2636">
        <ele>298.3</ele>
        <time>2023-12-03T12:52:39.000Z</time>
      </trkpt>
      <trkpt lat="43.52064" lon="6.26356">
        <ele>298.2</ele>
        <time>2023-12-03T12:52:49.000Z</time>
      </trkpt>
      <trkpt lat="43.52062" lon="6.26352">
        <ele>298.2</ele>
        <time>2023-12-03T12:52:53.000Z</time>
      </trkpt>
      <trkpt lat="43.5206" lon="6.26347">
        <ele>298.2</ele>
        <time>2023-12-03T12:52:57.000Z</time>
      </trkpt>
      <trkpt lat="43.52059" lon="6.26341">
        <ele>298.2</ele>
        <time>2023-12-03T12:53:02.000Z</time>
      </trkpt>
      <trkpt lat="43.52059" lon="6.26336">
        <ele>298.2</ele>
        <time>2023-12-03T12:53:06.000Z</time>
      </trkpt>
      <trkpt lat="43.52058" lon="6.26331">
        <ele>298.1</ele>
        <time>2023-12-03T12:53:10.000Z</time>
      </trkpt>
      <trkpt lat="43.52057" lon="6.26326">
        <ele>298.1</ele>
        <time>2023-12-03T12:53:14.000Z</time>
      </trkpt>
      <trkpt lat="43.52055" lon="6.26321">
        <ele>298</ele>
        <time>2023-12-03T12:53:18.000Z</time>
      </trkpt>
      <trkpt lat="43.52054" lon="6.26317">
        <ele>297.9</ele>
        <time>2023-12-03T12:53:22.000Z</time>
      </trkpt>
      <trkpt lat="43.52052" lon="6.26311">
        <ele>297.8</ele>
        <time>2023-12-03T12:53:26.000Z</time>
      </trkpt>
      <trkpt lat="43.52052" lon="6.26309">
        <ele>297.8</ele>
        <time>2023-12-03T12:53:27.000Z</time>
      </trkpt>
      <trkpt lat="43.5205" lon="6.26301">
        <ele>297.5</ele>
        <time>2023-12-03T12:53:33.000Z</time>
      </trkpt>
      <trkpt lat="43.52049" lon="6.26295">
        <ele>297.4</ele>
        <time>2023-12-03T12:53:37.000Z</time>
      </trkpt>
      <trkpt lat="43.52048" lon="6.26289">
        <ele>297.3</ele>
        <time>2023-12-03T12:53:41.000Z</time>
      </trkpt>
      <trkpt lat="43.52047" lon="6.26284">
        <ele>297</ele>
        <time>2023-12-03T12:53:45.000Z</time>
      </trkpt>
      <trkpt lat="43.52046" lon="6.26278">
        <ele>296.8</ele>
        <time>2023-12-03T12:53:49.000Z</time>
      </trkpt>
      <trkpt lat="43.52045" lon="6.26272">
        <ele>296.6</ele>
        <time>2023-12-03T12:53:53.000Z</time>
      </trkpt>
      <trkpt lat="43.52043" lon="6.26267">
        <ele>296.5</ele>
        <time>2023-12-03T12:53:57.000Z</time>
      </trkpt>
      <trkpt lat="43.52043" lon="6.26262">
        <ele>296.4</ele>
        <time>2023-12-03T12:54:00.000Z</time>
      </trkpt>
      <trkpt lat="43.52042" lon="6.26257">
        <ele>296.3</ele>
        <time>2023-12-03T12:54:03.000Z</time>
      </trkpt>
      <trkpt lat="43.52042" lon="6.26252">
        <ele>296.2</ele>
        <time>2023-12-03T12:54:06.000Z</time>
      </trkpt>
      <trkpt lat="43.52041" lon="6.26247">
        <ele>296.2</ele>
        <time>2023-12-03T12:54:09.000Z</time>
      </trkpt>
      <trkpt lat="43.52041" lon="6.26242">
        <ele>296.1</ele>
        <time>2023-12-03T12:54:12.000Z</time>
      </trkpt>
      <trkpt lat="43.5204" lon="6.26237">
        <ele>296</ele>
        <time>2023-12-03T12:54:16.000Z</time>
      </trkpt>
      <trkpt lat="43.5204" lon="6.26231">
        <ele>295.9</ele>
        <time>2023-12-03T12:54:20.000Z</time>
      </trkpt>
      <trkpt lat="43.52038" lon="6.26225">
        <ele>295.7</ele>
        <time>2023-12-03T12:54:24.000Z</time>
      </trkpt>
      <trkpt lat="43.52037" lon="6.2622">
        <ele>295.5</ele>
        <time>2023-12-03T12:54:27.000Z</time>
      </trkpt>
      <trkpt lat="43.52037" lon="6.26218">
        <ele>295.5</ele>
        <time>2023-12-03T12:54:28.000Z</time>
      </trkpt>
      <trkpt lat="43.52036" lon="6.26209">
        <ele>295.2</ele>
        <time>2023-12-03T12:54:33.000Z</time>
      </trkpt>
      <trkpt lat="43.52036" lon="6.26204">
        <ele>295.1</ele>
        <time>2023-12-03T12:54:36.000Z</time>
      </trkpt>
      <trkpt lat="43.52036" lon="6.26198">
        <ele>295.1</ele>
        <time>2023-12-03T12:54:39.000Z</time>
      </trkpt>
      <trkpt lat="43.52036" lon="6.26193">
        <ele>295</ele>
        <time>2023-12-03T12:54:42.000Z</time>
      </trkpt>
      <trkpt lat="43.52035" lon="6.26187">
        <ele>294.9</ele>
        <time>2023-12-03T12:54:46.000Z</time>
      </trkpt>
      <trkpt lat="43.52034" lon="6.26181">
        <ele>294.8</ele>
        <time>2023-12-03T12:54:49.000Z</time>
      </trkpt>
      <trkpt lat="43.52033" lon="6.26176">
        <ele>294.8</ele>
        <time>2023-12-03T12:54:52.000Z</time>
      </trkpt>
      <trkpt lat="43.52033" lon="6.2617">
        <ele>294.7</ele>
        <time>2023-12-03T12:54:55.000Z</time>
      </trkpt>
      <trkpt lat="43.52032" lon="6.26164">
        <ele>294.7</ele>
        <time>2023-12-03T12:54:58.000Z</time>
      </trkpt>
      <trkpt lat="43.52032" lon="6.2616">
        <ele>294.6</ele>
        <time>2023-12-03T12:55:01.000Z</time>
      </trkpt>
      <trkpt lat="43.52031" lon="6.26154">
        <ele>294.6</ele>
        <time>2023-12-03T12:55:05.000Z</time>
      </trkpt>
      <trkpt lat="43.52031" lon="6.26148">
        <ele>294.5</ele>
        <time>2023-12-03T12:55:09.000Z</time>
      </trkpt>
      <trkpt lat="43.5203" lon="6.26143">
        <ele>294.5</ele>
        <time>2023-12-03T12:55:13.000Z</time>
      </trkpt>
      <trkpt lat="43.52029" lon="6.26137">
        <ele>294.4</ele>
        <time>2023-12-03T12:55:18.000Z</time>
      </trkpt>
      <trkpt lat="43.52028" lon="6.26132">
        <ele>294.4</ele>
        <time>2023-12-03T12:55:23.000Z</time>
      </trkpt>
      <trkpt lat="43.52026" lon="6.26127">
        <ele>294.4</ele>
        <time>2023-12-03T12:55:27.000Z</time>
      </trkpt>
      <trkpt lat="43.52024" lon="6.26123">
        <ele>294.4</ele>
        <time>2023-12-03T12:55:30.000Z</time>
      </trkpt>
      <trkpt lat="43.52023" lon="6.26122">
        <ele>294.4</ele>
        <time>2023-12-03T12:55:31.000Z</time>
      </trkpt>
      <trkpt lat="43.52019" lon="6.26115">
        <ele>294.2</ele>
        <time>2023-12-03T12:55:36.000Z</time>
      </trkpt>
      <trkpt lat="43.52016" lon="6.26112">
        <ele>294</ele>
        <time>2023-12-03T12:55:39.000Z</time>
      </trkpt>
      <trkpt lat="43.52013" lon="6.26109">
        <ele>294</ele>
        <time>2023-12-03T12:55:42.000Z</time>
      </trkpt>
      <trkpt lat="43.5201" lon="6.26107">
        <ele>293.9</ele>
        <time>2023-12-03T12:55:45.000Z</time>
      </trkpt>
      <trkpt lat="43.52007" lon="6.26104">
        <ele>293.9</ele>
        <time>2023-12-03T12:55:48.000Z</time>
      </trkpt>
      <trkpt lat="43.52004" lon="6.261">
        <ele>294.1</ele>
        <time>2023-12-03T12:55:52.000Z</time>
      </trkpt>
      <trkpt lat="43.52003" lon="6.26094">
        <ele>294.1</ele>
        <time>2023-12-03T12:55:57.000Z</time>
      </trkpt>
      <trkpt lat="43.52003" lon="6.26088">
        <ele>294.1</ele>
        <time>2023-12-03T12:56:01.000Z</time>
      </trkpt>
      <trkpt lat="43.52003" lon="6.26083">
        <ele>294</ele>
        <time>2023-12-03T12:56:05.000Z</time>
      </trkpt>
      <trkpt lat="43.52002" lon="6.26078">
        <ele>293.9</ele>
        <time>2023-12-03T12:56:08.000Z</time>
      </trkpt>
      <trkpt lat="43.52003" lon="6.26073">
        <ele>293.9</ele>
        <time>2023-12-03T12:56:11.000Z</time>
      </trkpt>
      <trkpt lat="43.52003" lon="6.26067">
        <ele>293.9</ele>
        <time>2023-12-03T12:56:14.000Z</time>
      </trkpt>
      <trkpt lat="43.52003" lon="6.26062">
        <ele>293.8</ele>
        <time>2023-12-03T12:56:17.000Z</time>
      </trkpt>
      <trkpt lat="43.52003" lon="6.26058">
        <ele>293.7</ele>
        <time>2023-12-03T12:56:20.000Z</time>
      </trkpt>
      <trkpt lat="43.52003" lon="6.26052">
        <ele>293.7</ele>
        <time>2023-12-03T12:56:23.000Z</time>
      </trkpt>
      <trkpt lat="43.52004" lon="6.26048">
        <ele>293.7</ele>
        <time>2023-12-03T12:56:26.000Z</time>
      </trkpt>
      <trkpt lat="43.52005" lon="6.26043">
        <ele>293.6</ele>
        <time>2023-12-03T12:56:29.000Z</time>
      </trkpt>
      <trkpt lat="43.52005" lon="6.26037">
        <ele>293.6</ele>
        <time>2023-12-03T12:56:33.000Z</time>
      </trkpt>
      <trkpt lat="43.52005" lon="6.26035">
        <ele>293.6</ele>
        <time>2023-12-03T12:56:34.000Z</time>
      </trkpt>
      <trkpt lat="43.52007" lon="6.26025">
        <ele>293.4</ele>
        <time>2023-12-03T12:56:41.000Z</time>
      </trkpt>
      <trkpt lat="43.52011" lon="6.26022">
        <ele>293</ele>
        <time>2023-12-03T12:57:00.000Z</time>
      </trkpt>
      <trkpt lat="43.52007" lon="6.26019">
        <ele>293.5</ele>
        <time>2023-12-03T12:57:54.000Z</time>
      </trkpt>
      <trkpt lat="43.52007" lon="6.26019">
        <ele>293.5</ele>
        <time>2023-12-03T12:57:55.000Z</time>
      </trkpt>
      <trkpt lat="43.52009" lon="6.26014">
        <ele>293.9</ele>
        <time>2023-12-03T12:58:47.000Z</time>
      </trkpt>
      <trkpt lat="43.52011" lon="6.26009">
        <ele>293.9</ele>
        <time>2023-12-03T12:58:52.000Z</time>
      </trkpt>
      <trkpt lat="43.52014" lon="6.26006">
        <ele>293.9</ele>
        <time>2023-12-03T12:58:57.000Z</time>
      </trkpt>
      <trkpt lat="43.52015" lon="6.26006">
        <ele>293.9</ele>
        <time>2023-12-03T12:58:58.000Z</time>
      </trkpt>
      <trkpt lat="43.52021" lon="6.26002">
        <ele>293.9</ele>
        <time>2023-12-03T12:59:04.000Z</time>
      </trkpt>
      <trkpt lat="43.52025" lon="6.25999">
        <ele>293.9</ele>
        <time>2023-12-03T12:59:08.000Z</time>
      </trkpt>
      <trkpt lat="43.52029" lon="6.25996">
        <ele>293.9</ele>
        <time>2023-12-03T12:59:12.000Z</time>
      </trkpt>
      <trkpt lat="43.52032" lon="6.25994">
        <ele>293.9</ele>
        <time>2023-12-03T12:59:15.000Z</time>
      </trkpt>
      <trkpt lat="43.52036" lon="6.25994">
        <ele>293.9</ele>
        <time>2023-12-03T12:59:18.000Z</time>
      </trkpt>
      <trkpt lat="43.52039" lon="6.25993">
        <ele>294</ele>
        <time>2023-12-03T12:59:22.000Z</time>
      </trkpt>
      <trkpt lat="43.52044" lon="6.25993">
        <ele>294</ele>
        <time>2023-12-03T12:59:26.000Z</time>
      </trkpt>
      <trkpt lat="43.52048" lon="6.25993">
        <ele>294</ele>
        <time>2023-12-03T12:59:30.000Z</time>
      </trkpt>
      <trkpt lat="43.52052" lon="6.25993">
        <ele>294.1</ele>
        <time>2023-12-03T12:59:35.000Z</time>
      </trkpt>
      <trkpt lat="43.52056" lon="6.25993">
        <ele>294.2</ele>
        <time>2023-12-03T12:59:39.000Z</time>
      </trkpt>
      <trkpt lat="43.52059" lon="6.25992">
        <ele>294.3</ele>
        <time>2023-12-03T12:59:42.000Z</time>
      </trkpt>
      <trkpt lat="43.52063" lon="6.25989">
        <ele>294.5</ele>
        <time>2023-12-03T12:59:46.000Z</time>
      </trkpt>
      <trkpt lat="43.52065" lon="6.25984">
        <ele>294.6</ele>
        <time>2023-12-03T12:59:50.000Z</time>
      </trkpt>
      <trkpt lat="43.52066" lon="6.2598">
        <ele>294.7</ele>
        <time>2023-12-03T12:59:54.000Z</time>
      </trkpt>
      <trkpt lat="43.52067" lon="6.25974">
        <ele>294.8</ele>
        <time>2023-12-03T12:59:58.000Z</time>
      </trkpt>
      <trkpt lat="43.52068" lon="6.25973">
        <ele>294.8</ele>
        <time>2023-12-03T12:59:59.000Z</time>
      </trkpt>
      <trkpt lat="43.5207" lon="6.25963">
        <ele>294.8</ele>
        <time>2023-12-03T13:00:07.000Z</time>
      </trkpt>
      <trkpt lat="43.52071" lon="6.25959">
        <ele>294.7</ele>
        <time>2023-12-03T13:00:10.000Z</time>
      </trkpt>
      <trkpt lat="43.52073" lon="6.25955">
        <ele>294.7</ele>
        <time>2023-12-03T13:00:13.000Z</time>
      </trkpt>
      <trkpt lat="43.52075" lon="6.2595">
        <ele>294.6</ele>
        <time>2023-12-03T13:00:16.000Z</time>
      </trkpt>
      <trkpt lat="43.52076" lon="6.25945">
        <ele>294.5</ele>
        <time>2023-12-03T13:00:20.000Z</time>
      </trkpt>
      <trkpt lat="43.52077" lon="6.25939">
        <ele>294.3</ele>
        <time>2023-12-03T13:00:25.000Z</time>
      </trkpt>
      <trkpt lat="43.52078" lon="6.25934">
        <ele>294.1</ele>
        <time>2023-12-03T13:00:29.000Z</time>
      </trkpt>
      <trkpt lat="43.52079" lon="6.25928">
        <ele>293.8</ele>
        <time>2023-12-03T13:00:33.000Z</time>
      </trkpt>
      <trkpt lat="43.5208" lon="6.25923">
        <ele>293.6</ele>
        <time>2023-12-03T13:00:36.000Z</time>
      </trkpt>
      <trkpt lat="43.52082" lon="6.25918">
        <ele>293.3</ele>
        <time>2023-12-03T13:00:40.000Z</time>
      </trkpt>
      <trkpt lat="43.52083" lon="6.25912">
        <ele>293.1</ele>
        <time>2023-12-03T13:00:44.000Z</time>
      </trkpt>
      <trkpt lat="43.52084" lon="6.25907">
        <ele>292.9</ele>
        <time>2023-12-03T13:00:48.000Z</time>
      </trkpt>
      <trkpt lat="43.52085" lon="6.25901">
        <ele>292.8</ele>
        <time>2023-12-03T13:00:51.000Z</time>
      </trkpt>
      <trkpt lat="43.52085" lon="6.25896">
        <ele>292.5</ele>
        <time>2023-12-03T13:00:54.000Z</time>
      </trkpt>
      <trkpt lat="43.52087" lon="6.2589">
        <ele>292.2</ele>
        <time>2023-12-03T13:00:57.000Z</time>
      </trkpt>
      <trkpt lat="43.52086" lon="6.25884">
        <ele>291.9</ele>
        <time>2023-12-03T13:01:01.000Z</time>
      </trkpt>
      <trkpt lat="43.52087" lon="6.25883">
        <ele>291.8</ele>
        <time>2023-12-03T13:01:02.000Z</time>
      </trkpt>
      <trkpt lat="43.52088" lon="6.25873">
        <ele>291.2</ele>
        <time>2023-12-03T13:01:09.000Z</time>
      </trkpt>
      <trkpt lat="43.52089" lon="6.25868">
        <ele>290.9</ele>
        <time>2023-12-03T13:01:12.000Z</time>
      </trkpt>
      <trkpt lat="43.52092" lon="6.25863">
        <ele>290.5</ele>
        <time>2023-12-03T13:01:15.000Z</time>
      </trkpt>
      <trkpt lat="43.52093" lon="6.25858">
        <ele>290</ele>
        <time>2023-12-03T13:01:19.000Z</time>
      </trkpt>
      <trkpt lat="43.52094" lon="6.25852">
        <ele>289.5</ele>
        <time>2023-12-03T13:01:23.000Z</time>
      </trkpt>
      <trkpt lat="43.52096" lon="6.25847">
        <ele>289.1</ele>
        <time>2023-12-03T13:01:27.000Z</time>
      </trkpt>
      <trkpt lat="43.52096" lon="6.25842">
        <ele>288.7</ele>
        <time>2023-12-03T13:01:31.000Z</time>
      </trkpt>
      <trkpt lat="43.52098" lon="6.25837">
        <ele>288.3</ele>
        <time>2023-12-03T13:01:35.000Z</time>
      </trkpt>
      <trkpt lat="43.52099" lon="6.25831">
        <ele>287.7</ele>
        <time>2023-12-03T13:01:41.000Z</time>
      </trkpt>
      <trkpt lat="43.52102" lon="6.25827">
        <ele>287.3</ele>
        <time>2023-12-03T13:01:46.000Z</time>
      </trkpt>
      <trkpt lat="43.52103" lon="6.25821">
        <ele>287</ele>
        <time>2023-12-03T13:01:50.000Z</time>
      </trkpt>
      <trkpt lat="43.52105" lon="6.25817">
        <ele>286.9</ele>
        <time>2023-12-03T13:01:52.000Z</time>
      </trkpt>
      <trkpt lat="43.52106" lon="6.25813">
        <ele>286.8</ele>
        <time>2023-12-03T13:01:54.000Z</time>
      </trkpt>
      <trkpt lat="43.52108" lon="6.25808">
        <ele>286.7</ele>
        <time>2023-12-03T13:01:57.000Z</time>
      </trkpt>
      <trkpt lat="43.52109" lon="6.25803">
        <ele>286.5</ele>
        <time>2023-12-03T13:02:00.000Z</time>
      </trkpt>
      <trkpt lat="43.5211" lon="6.25798">
        <ele>286.4</ele>
        <time>2023-12-03T13:02:03.000Z</time>
      </trkpt>
      <trkpt lat="43.5211" lon="6.25797">
        <ele>286.4</ele>
        <time>2023-12-03T13:02:04.000Z</time>
      </trkpt>
      <trkpt lat="43.52111" lon="6.25787">
        <ele>286.1</ele>
        <time>2023-12-03T13:02:11.000Z</time>
      </trkpt>
      <trkpt lat="43.52112" lon="6.25782">
        <ele>285.9</ele>
        <time>2023-12-03T13:02:14.000Z</time>
      </trkpt>
      <trkpt lat="43.52113" lon="6.25776">
        <ele>285.8</ele>
        <time>2023-12-03T13:02:18.000Z</time>
      </trkpt>
      <trkpt lat="43.52113" lon="6.25771">
        <ele>285.7</ele>
        <time>2023-12-03T13:02:21.000Z</time>
      </trkpt>
      <trkpt lat="43.52114" lon="6.25766">
        <ele>285.7</ele>
        <time>2023-12-03T13:02:24.000Z</time>
      </trkpt>
      <trkpt lat="43.52115" lon="6.2576">
        <ele>285.6</ele>
        <time>2023-12-03T13:02:27.000Z</time>
      </trkpt>
      <trkpt lat="43.52116" lon="6.25756">
        <ele>285.6</ele>
        <time>2023-12-03T13:02:30.000Z</time>
      </trkpt>
      <trkpt lat="43.52117" lon="6.2575">
        <ele>285.6</ele>
        <time>2023-12-03T13:02:34.000Z</time>
      </trkpt>
      <trkpt lat="43.52119" lon="6.25745">
        <ele>285.6</ele>
        <time>2023-12-03T13:02:37.000Z</time>
      </trkpt>
      <trkpt lat="43.5212" lon="6.25739">
        <ele>285.6</ele>
        <time>2023-12-03T13:02:41.000Z</time>
      </trkpt>
      <trkpt lat="43.52121" lon="6.25733">
        <ele>285.6</ele>
        <time>2023-12-03T13:02:45.000Z</time>
      </trkpt>
      <trkpt lat="43.52122" lon="6.25728">
        <ele>285.6</ele>
        <time>2023-12-03T13:02:48.000Z</time>
      </trkpt>
      <trkpt lat="43.52123" lon="6.25724">
        <ele>285.6</ele>
        <time>2023-12-03T13:02:51.000Z</time>
      </trkpt>
      <trkpt lat="43.52124" lon="6.25719">
        <ele>285.6</ele>
        <time>2023-12-03T13:02:54.000Z</time>
      </trkpt>
      <trkpt lat="43.52125" lon="6.25714">
        <ele>285.6</ele>
        <time>2023-12-03T13:02:57.000Z</time>
      </trkpt>
      <trkpt lat="43.52126" lon="6.25709">
        <ele>285.5</ele>
        <time>2023-12-03T13:03:01.000Z</time>
      </trkpt>
      <trkpt lat="43.52127" lon="6.25704">
        <ele>285.5</ele>
        <time>2023-12-03T13:03:05.000Z</time>
      </trkpt>
      <trkpt lat="43.52128" lon="6.25702">
        <ele>285.5</ele>
        <time>2023-12-03T13:03:06.000Z</time>
      </trkpt>
      <trkpt lat="43.5213" lon="6.25694">
        <ele>285.5</ele>
        <time>2023-12-03T13:03:11.000Z</time>
      </trkpt>
      <trkpt lat="43.52131" lon="6.25689">
        <ele>285.5</ele>
        <time>2023-12-03T13:03:14.000Z</time>
      </trkpt>
      <trkpt lat="43.52132" lon="6.25685">
        <ele>285.6</ele>
        <time>2023-12-03T13:03:18.000Z</time>
      </trkpt>
      <trkpt lat="43.52133" lon="6.25679">
        <ele>285.5</ele>
        <time>2023-12-03T13:03:22.000Z</time>
      </trkpt>
      <trkpt lat="43.52133" lon="6.25674">
        <ele>285.5</ele>
        <time>2023-12-03T13:03:26.000Z</time>
      </trkpt>
      <trkpt lat="43.52134" lon="6.25669">
        <ele>285.5</ele>
        <time>2023-12-03T13:03:29.000Z</time>
      </trkpt>
      <trkpt lat="43.52135" lon="6.25663">
        <ele>285.5</ele>
        <time>2023-12-03T13:03:33.000Z</time>
      </trkpt>
      <trkpt lat="43.52136" lon="6.25658">
        <ele>285.5</ele>
        <time>2023-12-03T13:03:37.000Z</time>
      </trkpt>
      <trkpt lat="43.52137" lon="6.25653">
        <ele>285.5</ele>
        <time>2023-12-03T13:03:41.000Z</time>
      </trkpt>
      <trkpt lat="43.52137" lon="6.25647">
        <ele>285.5</ele>
        <time>2023-12-03T13:03:48.000Z</time>
      </trkpt>
      <trkpt lat="43.52139" lon="6.25642">
        <ele>285.4</ele>
        <time>2023-12-03T13:03:53.000Z</time>
      </trkpt>
      <trkpt lat="43.5214" lon="6.25637">
        <ele>285.4</ele>
        <time>2023-12-03T13:03:57.000Z</time>
      </trkpt>
      <trkpt lat="43.52141" lon="6.25632">
        <ele>285.3</ele>
        <time>2023-12-03T13:04:00.000Z</time>
      </trkpt>
      <trkpt lat="43.52142" lon="6.25626">
        <ele>285.2</ele>
        <time>2023-12-03T13:04:04.000Z</time>
      </trkpt>
      <trkpt lat="43.52142" lon="6.25621">
        <ele>285.1</ele>
        <time>2023-12-03T13:04:08.000Z</time>
      </trkpt>
      <trkpt lat="43.52142" lon="6.25619">
        <ele>285.1</ele>
        <time>2023-12-03T13:04:09.000Z</time>
      </trkpt>
      <trkpt lat="43.52144" lon="6.25609">
        <ele>284.8</ele>
        <time>2023-12-03T13:04:17.000Z</time>
      </trkpt>
      <trkpt lat="43.52145" lon="6.25604">
        <ele>284.7</ele>
        <time>2023-12-03T13:04:20.000Z</time>
      </trkpt>
      <trkpt lat="43.52146" lon="6.25599">
        <ele>284.4</ele>
        <time>2023-12-03T13:04:23.000Z</time>
      </trkpt>
      <trkpt lat="43.52147" lon="6.25595">
        <ele>284.1</ele>
        <time>2023-12-03T13:04:26.000Z</time>
      </trkpt>
      <trkpt lat="43.52148" lon="6.25589">
        <ele>284</ele>
        <time>2023-12-03T13:04:29.000Z</time>
      </trkpt>
      <trkpt lat="43.5215" lon="6.25584">
        <ele>283.8</ele>
        <time>2023-12-03T13:04:32.000Z</time>
      </trkpt>
      <trkpt lat="43.52151" lon="6.25579">
        <ele>283.6</ele>
        <time>2023-12-03T13:04:34.000Z</time>
      </trkpt>
      <trkpt lat="43.52152" lon="6.25574">
        <ele>283.4</ele>
        <time>2023-12-03T13:04:37.000Z</time>
      </trkpt>
      <trkpt lat="43.52153" lon="6.25569">
        <ele>283.2</ele>
        <time>2023-12-03T13:04:40.000Z</time>
      </trkpt>
      <trkpt lat="43.52154" lon="6.25564">
        <ele>283</ele>
        <time>2023-12-03T13:04:43.000Z</time>
      </trkpt>
      <trkpt lat="43.52155" lon="6.25559">
        <ele>282.8</ele>
        <time>2023-12-03T13:04:46.000Z</time>
      </trkpt>
      <trkpt lat="43.52156" lon="6.25554">
        <ele>282.6</ele>
        <time>2023-12-03T13:04:49.000Z</time>
      </trkpt>
      <trkpt lat="43.52157" lon="6.25549">
        <ele>282.3</ele>
        <time>2023-12-03T13:04:52.000Z</time>
      </trkpt>
      <trkpt lat="43.52158" lon="6.25543">
        <ele>282</ele>
        <time>2023-12-03T13:04:55.000Z</time>
      </trkpt>
      <trkpt lat="43.52159" lon="6.25538">
        <ele>281.8</ele>
        <time>2023-12-03T13:04:58.000Z</time>
      </trkpt>
      <trkpt lat="43.5216" lon="6.25533">
        <ele>281.6</ele>
        <time>2023-12-03T13:05:01.000Z</time>
      </trkpt>
      <trkpt lat="43.52161" lon="6.25528">
        <ele>281.2</ele>
        <time>2023-12-03T13:05:04.000Z</time>
      </trkpt>
      <trkpt lat="43.52162" lon="6.25523">
        <ele>280.8</ele>
        <time>2023-12-03T13:05:08.000Z</time>
      </trkpt>
      <trkpt lat="43.52163" lon="6.25518">
        <ele>280.4</ele>
        <time>2023-12-03T13:05:11.000Z</time>
      </trkpt>
      <trkpt lat="43.52164" lon="6.25516">
        <ele>280.2</ele>
        <time>2023-12-03T13:05:12.000Z</time>
      </trkpt>
      <trkpt lat="43.52165" lon="6.25507">
        <ele>279.6</ele>
        <time>2023-12-03T13:05:18.000Z</time>
      </trkpt>
      <trkpt lat="43.52165" lon="6.25501">
        <ele>278.9</ele>
        <time>2023-12-03T13:05:26.000Z</time>
      </trkpt>
      <trkpt lat="43.52165" lon="6.25495">
        <ele>278.1</ele>
        <time>2023-12-03T13:05:45.000Z</time>
      </trkpt>
      <trkpt lat="43.52164" lon="6.2549">
        <ele>277.9</ele>
        <time>2023-12-03T13:05:53.000Z</time>
      </trkpt>
      <trkpt lat="43.52163" lon="6.25484">
        <ele>277.8</ele>
        <time>2023-12-03T13:05:59.000Z</time>
      </trkpt>
      <trkpt lat="43.52159" lon="6.25481">
        <ele>277.7</ele>
        <time>2023-12-03T13:06:03.000Z</time>
      </trkpt>
      <trkpt lat="43.52157" lon="6.25477">
        <ele>277.7</ele>
        <time>2023-12-03T13:06:07.000Z</time>
      </trkpt>
      <trkpt lat="43.52153" lon="6.25473">
        <ele>277.7</ele>
        <time>2023-12-03T13:06:12.000Z</time>
      </trkpt>
      <trkpt lat="43.52153" lon="6.25472">
        <ele>277.7</ele>
        <time>2023-12-03T13:06:13.000Z</time>
      </trkpt>
      <trkpt lat="43.52155" lon="6.25465">
        <ele>278.3</ele>
        <time>2023-12-03T13:07:04.000Z</time>
      </trkpt>
      <trkpt lat="43.52158" lon="6.2547">
        <ele>278.4</ele>
        <time>2023-12-03T13:07:15.000Z</time>
      </trkpt>
      <trkpt lat="43.52158" lon="6.2547">
        <ele>278.4</ele>
        <time>2023-12-03T13:07:16.000Z</time>
      </trkpt>
      <trkpt lat="43.52162" lon="6.25479">
        <ele>278.5</ele>
        <time>2023-12-03T13:07:29.000Z</time>
      </trkpt>
      <trkpt lat="43.52165" lon="6.25482">
        <ele>278.6</ele>
        <time>2023-12-03T13:07:36.000Z</time>
      </trkpt>
      <trkpt lat="43.52169" lon="6.25484">
        <ele>278.6</ele>
        <time>2023-12-03T13:07:39.000Z</time>
      </trkpt>
      <trkpt lat="43.52172" lon="6.25486">
        <ele>278.6</ele>
        <time>2023-12-03T13:07:42.000Z</time>
      </trkpt>
      <trkpt lat="43.52176" lon="6.25489">
        <ele>278.7</ele>
        <time>2023-12-03T13:07:48.000Z</time>
      </trkpt>
      <trkpt lat="43.5218" lon="6.2549">
        <ele>278.7</ele>
        <time>2023-12-03T13:07:53.000Z</time>
      </trkpt>
      <trkpt lat="43.52184" lon="6.25491">
        <ele>278.8</ele>
        <time>2023-12-03T13:07:59.000Z</time>
      </trkpt>
      <trkpt lat="43.52188" lon="6.25492">
        <ele>278.8</ele>
        <time>2023-12-03T13:08:05.000Z</time>
      </trkpt>
      <trkpt lat="43.52191" lon="6.25493">
        <ele>278.9</ele>
        <time>2023-12-03T13:08:09.000Z</time>
      </trkpt>
      <trkpt lat="43.52195" lon="6.25495">
        <ele>278.9</ele>
        <time>2023-12-03T13:08:14.000Z</time>
      </trkpt>
      <trkpt lat="43.522" lon="6.25494">
        <ele>279</ele>
        <time>2023-12-03T13:08:19.000Z</time>
      </trkpt>
      <trkpt lat="43.52201" lon="6.25495">
        <ele>279</ele>
        <time>2023-12-03T13:08:20.000Z</time>
      </trkpt>
      <trkpt lat="43.52206" lon="6.25498">
        <ele>279.1</ele>
        <time>2023-12-03T13:08:26.000Z</time>
      </trkpt>
      <trkpt lat="43.5221" lon="6.255">
        <ele>279.1</ele>
        <time>2023-12-03T13:08:28.000Z</time>
      </trkpt>
      <trkpt lat="43.52214" lon="6.25501">
        <ele>279.2</ele>
        <time>2023-12-03T13:08:31.000Z</time>
      </trkpt>
      <trkpt lat="43.52217" lon="6.25502">
        <ele>279.3</ele>
        <time>2023-12-03T13:08:33.000Z</time>
      </trkpt>
      <trkpt lat="43.5222" lon="6.25504">
        <ele>279.3</ele>
        <time>2023-12-03T13:08:36.000Z</time>
      </trkpt>
      <trkpt lat="43.52224" lon="6.25506">
        <ele>279.4</ele>
        <time>2023-12-03T13:08:39.000Z</time>
      </trkpt>
      <trkpt lat="43.52228" lon="6.25509">
        <ele>279.6</ele>
        <time>2023-12-03T13:08:43.000Z</time>
      </trkpt>
      <trkpt lat="43.52232" lon="6.25512">
        <ele>279.8</ele>
        <time>2023-12-03T13:08:47.000Z</time>
      </trkpt>
      <trkpt lat="43.52235" lon="6.25513">
        <ele>279.9</ele>
        <time>2023-12-03T13:08:49.000Z</time>
      </trkpt>
      <trkpt lat="43.52238" lon="6.25514">
        <ele>280</ele>
        <time>2023-12-03T13:08:51.000Z</time>
      </trkpt>
      <trkpt lat="43.52242" lon="6.25516">
        <ele>280.1</ele>
        <time>2023-12-03T13:08:54.000Z</time>
      </trkpt>
      <trkpt lat="43.52246" lon="6.25518">
        <ele>280.2</ele>
        <time>2023-12-03T13:08:57.000Z</time>
      </trkpt>
      <trkpt lat="43.5225" lon="6.2552">
        <ele>280.3</ele>
        <time>2023-12-03T13:09:00.000Z</time>
      </trkpt>
      <trkpt lat="43.52253" lon="6.25522">
        <ele>280.4</ele>
        <time>2023-12-03T13:09:03.000Z</time>
      </trkpt>
      <trkpt lat="43.52257" lon="6.25523">
        <ele>280.4</ele>
        <time>2023-12-03T13:09:06.000Z</time>
      </trkpt>
      <trkpt lat="43.52261" lon="6.25525">
        <ele>280.5</ele>
        <time>2023-12-03T13:09:09.000Z</time>
      </trkpt>
      <trkpt lat="43.52265" lon="6.25526">
        <ele>280.6</ele>
        <time>2023-12-03T13:09:13.000Z</time>
      </trkpt>
      <trkpt lat="43.52269" lon="6.25528">
        <ele>280.6</ele>
        <time>2023-12-03T13:09:18.000Z</time>
      </trkpt>
      <trkpt lat="43.52273" lon="6.25529">
        <ele>280.5</ele>
        <time>2023-12-03T13:09:24.000Z</time>
      </trkpt>
      <trkpt lat="43.52274" lon="6.25529">
        <ele>280.4</ele>
        <time>2023-12-03T13:09:25.000Z</time>
      </trkpt>
      <trkpt lat="43.5228" lon="6.25533">
        <ele>280.2</ele>
        <time>2023-12-03T13:09:30.000Z</time>
      </trkpt>
      <trkpt lat="43.52283" lon="6.25536">
        <ele>280</ele>
        <time>2023-12-03T13:09:33.000Z</time>
      </trkpt>
      <trkpt lat="43.52286" lon="6.25537">
        <ele>279.8</ele>
        <time>2023-12-03T13:09:36.000Z</time>
      </trkpt>
      <trkpt lat="43.5229" lon="6.25539">
        <ele>279.5</ele>
        <time>2023-12-03T13:09:39.000Z</time>
      </trkpt>
      <trkpt lat="43.52294" lon="6.2554">
        <ele>279.1</ele>
        <time>2023-12-03T13:09:43.000Z</time>
      </trkpt>
      <trkpt lat="43.52297" lon="6.25542">
        <ele>278.8</ele>
        <time>2023-12-03T13:09:46.000Z</time>
      </trkpt>
      <trkpt lat="43.523" lon="6.25544">
        <ele>278.5</ele>
        <time>2023-12-03T13:09:49.000Z</time>
      </trkpt>
      <trkpt lat="43.52304" lon="6.25548">
        <ele>278.2</ele>
        <time>2023-12-03T13:09:53.000Z</time>
      </trkpt>
      <trkpt lat="43.52306" lon="6.25553">
        <ele>277.8</ele>
        <time>2023-12-03T13:09:57.000Z</time>
      </trkpt>
      <trkpt lat="43.5231" lon="6.25556">
        <ele>277.3</ele>
        <time>2023-12-03T13:10:01.000Z</time>
      </trkpt>
      <trkpt lat="43.52311" lon="6.25561">
        <ele>276.7</ele>
        <time>2023-12-03T13:10:07.000Z</time>
      </trkpt>
      <trkpt lat="43.52313" lon="6.25566">
        <ele>276.1</ele>
        <time>2023-12-03T13:10:12.000Z</time>
      </trkpt>
      <trkpt lat="43.52316" lon="6.25571">
        <ele>275.4</ele>
        <time>2023-12-03T13:10:16.000Z</time>
      </trkpt>
      <trkpt lat="43.52319" lon="6.25575">
        <ele>275</ele>
        <time>2023-12-03T13:10:19.000Z</time>
      </trkpt>
      <trkpt lat="43.52321" lon="6.25579">
        <ele>274.7</ele>
        <time>2023-12-03T13:10:22.000Z</time>
      </trkpt>
      <trkpt lat="43.52324" lon="6.25583">
        <ele>274.3</ele>
        <time>2023-12-03T13:10:25.000Z</time>
      </trkpt>
      <trkpt lat="43.52325" lon="6.25585">
        <ele>274.2</ele>
        <time>2023-12-03T13:10:26.000Z</time>
      </trkpt>
      <trkpt lat="43.52328" lon="6.2559">
        <ele>273.7</ele>
        <time>2023-12-03T13:10:30.000Z</time>
      </trkpt>
      <trkpt lat="43.52331" lon="6.25595">
        <ele>273.3</ele>
        <time>2023-12-03T13:10:34.000Z</time>
      </trkpt>
      <trkpt lat="43.52333" lon="6.256">
        <ele>273</ele>
        <time>2023-12-03T13:10:37.000Z</time>
      </trkpt>
      <trkpt lat="43.52334" lon="6.25605">
        <ele>272.7</ele>
        <time>2023-12-03T13:10:41.000Z</time>
      </trkpt>
      <trkpt lat="43.52337" lon="6.2561">
        <ele>272.5</ele>
        <time>2023-12-03T13:10:44.000Z</time>
      </trkpt>
      <trkpt lat="43.5234" lon="6.25614">
        <ele>272</ele>
        <time>2023-12-03T13:10:48.000Z</time>
      </trkpt>
      <trkpt lat="43.52342" lon="6.25619">
        <ele>271.6</ele>
        <time>2023-12-03T13:10:52.000Z</time>
      </trkpt>
      <trkpt lat="43.52344" lon="6.25622">
        <ele>271.5</ele>
        <time>2023-12-03T13:10:54.000Z</time>
      </trkpt>
      <trkpt lat="43.52346" lon="6.25626">
        <ele>271.1</ele>
        <time>2023-12-03T13:10:57.000Z</time>
      </trkpt>
      <trkpt lat="43.52348" lon="6.25631">
        <ele>270.6</ele>
        <time>2023-12-03T13:11:01.000Z</time>
      </trkpt>
      <trkpt lat="43.52351" lon="6.25636">
        <ele>270.1</ele>
        <time>2023-12-03T13:11:05.000Z</time>
      </trkpt>
      <trkpt lat="43.52353" lon="6.25641">
        <ele>269.3</ele>
        <time>2023-12-03T13:11:11.000Z</time>
      </trkpt>
      <trkpt lat="43.52354" lon="6.25645">
        <ele>268.7</ele>
        <time>2023-12-03T13:11:16.000Z</time>
      </trkpt>
      <trkpt lat="43.52357" lon="6.25649">
        <ele>268.4</ele>
        <time>2023-12-03T13:11:19.000Z</time>
      </trkpt>
      <trkpt lat="43.52361" lon="6.25652">
        <ele>268.1</ele>
        <time>2023-12-03T13:11:22.000Z</time>
      </trkpt>
      <trkpt lat="43.52364" lon="6.25655">
        <ele>267.5</ele>
        <time>2023-12-03T13:11:26.000Z</time>
      </trkpt>
      <trkpt lat="43.52365" lon="6.25656">
        <ele>267.3</ele>
        <time>2023-12-03T13:11:27.000Z</time>
      </trkpt>
      <trkpt lat="43.52372" lon="6.2566">
        <ele>266.5</ele>
        <time>2023-12-03T13:11:33.000Z</time>
      </trkpt>
      <trkpt lat="43.52375" lon="6.25662">
        <ele>266</ele>
        <time>2023-12-03T13:11:36.000Z</time>
      </trkpt>
      <trkpt lat="43.52378" lon="6.25666">
        <ele>265.6</ele>
        <time>2023-12-03T13:11:39.000Z</time>
      </trkpt>
      <trkpt lat="43.52381" lon="6.25669">
        <ele>265.2</ele>
        <time>2023-12-03T13:11:42.000Z</time>
      </trkpt>
      <trkpt lat="43.52383" lon="6.25673">
        <ele>264.8</ele>
        <time>2023-12-03T13:11:45.000Z</time>
      </trkpt>
      <trkpt lat="43.52386" lon="6.25677">
        <ele>264.3</ele>
        <time>2023-12-03T13:11:49.000Z</time>
      </trkpt>
      <trkpt lat="43.52389" lon="6.2568">
        <ele>263.9</ele>
        <time>2023-12-03T13:11:52.000Z</time>
      </trkpt>
      <trkpt lat="43.52391" lon="6.25683">
        <ele>263.5</ele>
        <time>2023-12-03T13:11:55.000Z</time>
      </trkpt>
      <trkpt lat="43.52394" lon="6.25686">
        <ele>263.2</ele>
        <time>2023-12-03T13:11:58.000Z</time>
      </trkpt>
      <trkpt lat="43.52397" lon="6.2569">
        <ele>262.9</ele>
        <time>2023-12-03T13:12:01.000Z</time>
      </trkpt>
      <trkpt lat="43.52399" lon="6.25693">
        <ele>262.7</ele>
        <time>2023-12-03T13:12:04.000Z</time>
      </trkpt>
      <trkpt lat="43.52403" lon="6.25697">
        <ele>262.3</ele>
        <time>2023-12-03T13:12:07.000Z</time>
      </trkpt>
      <trkpt lat="43.52405" lon="6.257">
        <ele>261.8</ele>
        <time>2023-12-03T13:12:10.000Z</time>
      </trkpt>
      <trkpt lat="43.52407" lon="6.25704">
        <ele>261.5</ele>
        <time>2023-12-03T13:12:13.000Z</time>
      </trkpt>
      <trkpt lat="43.5241" lon="6.25709">
        <ele>261.1</ele>
        <time>2023-12-03T13:12:17.000Z</time>
      </trkpt>
      <trkpt lat="43.52413" lon="6.25713">
        <ele>260.7</ele>
        <time>2023-12-03T13:12:21.000Z</time>
      </trkpt>
      <trkpt lat="43.52416" lon="6.25717">
        <ele>260.4</ele>
        <time>2023-12-03T13:12:24.000Z</time>
      </trkpt>
      <trkpt lat="43.52418" lon="6.25721">
        <ele>260</ele>
        <time>2023-12-03T13:12:27.000Z</time>
      </trkpt>
      <trkpt lat="43.52419" lon="6.25723">
        <ele>259.9</ele>
        <time>2023-12-03T13:12:28.000Z</time>
      </trkpt>
      <trkpt lat="43.52425" lon="6.25726">
        <ele>259.3</ele>
        <time>2023-12-03T13:12:37.000Z</time>
      </trkpt>
      <trkpt lat="43.52429" lon="6.25724">
        <ele>259.1</ele>
        <time>2023-12-03T13:12:41.000Z</time>
      </trkpt>
      <trkpt lat="43.52432" lon="6.25721">
        <ele>259</ele>
        <time>2023-12-03T13:12:45.000Z</time>
      </trkpt>
      <trkpt lat="43.52435" lon="6.25717">
        <ele>258.9</ele>
        <time>2023-12-03T13:12:48.000Z</time>
      </trkpt>
      <trkpt lat="43.52438" lon="6.25714">
        <ele>258.9</ele>
        <time>2023-12-03T13:12:52.000Z</time>
      </trkpt>
      <trkpt lat="43.5244" lon="6.25709">
        <ele>258.8</ele>
        <time>2023-12-03T13:12:56.000Z</time>
      </trkpt>
      <trkpt lat="43.5244" lon="6.25704">
        <ele>258.8</ele>
        <time>2023-12-03T13:13:00.000Z</time>
      </trkpt>
      <trkpt lat="43.52442" lon="6.25698">
        <ele>258.7</ele>
        <time>2023-12-03T13:13:05.000Z</time>
      </trkpt>
      <trkpt lat="43.52443" lon="6.25692">
        <ele>258.5</ele>
        <time>2023-12-03T13:13:10.000Z</time>
      </trkpt>
      <trkpt lat="43.52445" lon="6.25688">
        <ele>258.4</ele>
        <time>2023-12-03T13:13:14.000Z</time>
      </trkpt>
      <trkpt lat="43.52447" lon="6.25683">
        <ele>258.3</ele>
        <time>2023-12-03T13:13:18.000Z</time>
      </trkpt>
      <trkpt lat="43.52447" lon="6.25678">
        <ele>258.3</ele>
        <time>2023-12-03T13:13:21.000Z</time>
      </trkpt>
      <trkpt lat="43.52447" lon="6.25673">
        <ele>258.2</ele>
        <time>2023-12-03T13:13:24.000Z</time>
      </trkpt>
      <trkpt lat="43.52448" lon="6.25667">
        <ele>258</ele>
        <time>2023-12-03T13:13:28.000Z</time>
      </trkpt>
      <trkpt lat="43.52448" lon="6.25666">
        <ele>258</ele>
        <time>2023-12-03T13:13:29.000Z</time>
      </trkpt>
      <trkpt lat="43.52447" lon="6.25656">
        <ele>257.3</ele>
        <time>2023-12-03T13:13:38.000Z</time>
      </trkpt>
      <trkpt lat="43.52446" lon="6.2565">
        <ele>257.1</ele>
        <time>2023-12-03T13:13:42.000Z</time>
      </trkpt>
      <trkpt lat="43.52446" lon="6.25644">
        <ele>257</ele>
        <time>2023-12-03T13:13:46.000Z</time>
      </trkpt>
      <trkpt lat="43.52448" lon="6.2564">
        <ele>256.8</ele>
        <time>2023-12-03T13:13:50.000Z</time>
      </trkpt>
      <trkpt lat="43.5245" lon="6.25636">
        <ele>256.6</ele>
        <time>2023-12-03T13:13:53.000Z</time>
      </trkpt>
      <trkpt lat="43.52452" lon="6.25631">
        <ele>256.4</ele>
        <time>2023-12-03T13:13:56.000Z</time>
      </trkpt>
      <trkpt lat="43.52454" lon="6.25626">
        <ele>256.3</ele>
        <time>2023-12-03T13:13:59.000Z</time>
      </trkpt>
      <trkpt lat="43.52455" lon="6.25621">
        <ele>256.2</ele>
        <time>2023-12-03T13:14:02.000Z</time>
      </trkpt>
      <trkpt lat="43.52456" lon="6.25617">
        <ele>256</ele>
        <time>2023-12-03T13:14:06.000Z</time>
      </trkpt>
      <trkpt lat="43.52456" lon="6.25612">
        <ele>255.9</ele>
        <time>2023-12-03T13:14:09.000Z</time>
      </trkpt>
      <trkpt lat="43.52455" lon="6.25607">
        <ele>255.7</ele>
        <time>2023-12-03T13:14:14.000Z</time>
      </trkpt>
      <trkpt lat="43.52453" lon="6.25602">
        <ele>255.4</ele>
        <time>2023-12-03T13:14:17.000Z</time>
      </trkpt>
      <trkpt lat="43.52451" lon="6.25598">
        <ele>255.3</ele>
        <time>2023-12-03T13:14:20.000Z</time>
      </trkpt>
      <trkpt lat="43.5245" lon="6.25594">
        <ele>255.1</ele>
        <time>2023-12-03T13:14:23.000Z</time>
      </trkpt>
      <trkpt lat="43.52449" lon="6.25589">
        <ele>255</ele>
        <time>2023-12-03T13:14:26.000Z</time>
      </trkpt>
      <trkpt lat="43.52449" lon="6.25583">
        <ele>254.8</ele>
        <time>2023-12-03T13:14:30.000Z</time>
      </trkpt>
      <trkpt lat="43.52449" lon="6.25582">
        <ele>254.8</ele>
        <time>2023-12-03T13:14:31.000Z</time>
      </trkpt>
      <trkpt lat="43.52451" lon="6.25573">
        <ele>254.5</ele>
        <time>2023-12-03T13:14:36.000Z</time>
      </trkpt>
      <trkpt lat="43.52452" lon="6.25568">
        <ele>254.3</ele>
        <time>2023-12-03T13:14:39.000Z</time>
      </trkpt>
      <trkpt lat="43.52452" lon="6.25564">
        <ele>254.2</ele>
        <time>2023-12-03T13:14:42.000Z</time>
      </trkpt>
      <trkpt lat="43.52453" lon="6.25559">
        <ele>254.1</ele>
        <time>2023-12-03T13:14:45.000Z</time>
      </trkpt>
      <trkpt lat="43.52453" lon="6.25553">
        <ele>254.1</ele>
        <time>2023-12-03T13:14:48.000Z</time>
      </trkpt>
      <trkpt lat="43.52453" lon="6.25548">
        <ele>254</ele>
        <time>2023-12-03T13:14:51.000Z</time>
      </trkpt>
      <trkpt lat="43.52452" lon="6.25543">
        <ele>254</ele>
        <time>2023-12-03T13:14:54.000Z</time>
      </trkpt>
      <trkpt lat="43.52453" lon="6.25537">
        <ele>253.9</ele>
        <time>2023-12-03T13:14:58.000Z</time>
      </trkpt>
      <trkpt lat="43.52455" lon="6.25533">
        <ele>253.9</ele>
        <time>2023-12-03T13:15:01.000Z</time>
      </trkpt>
      <trkpt lat="43.52456" lon="6.25528">
        <ele>253.8</ele>
        <time>2023-12-03T13:15:04.000Z</time>
      </trkpt>
      <trkpt lat="43.52456" lon="6.25523">
        <ele>253.7</ele>
        <time>2023-12-03T13:15:07.000Z</time>
      </trkpt>
      <trkpt lat="43.52456" lon="6.25518">
        <ele>253.7</ele>
        <time>2023-12-03T13:15:10.000Z</time>
      </trkpt>
      <trkpt lat="43.52456" lon="6.25513">
        <ele>253.6</ele>
        <time>2023-12-03T13:15:14.000Z</time>
      </trkpt>
      <trkpt lat="43.52456" lon="6.25507">
        <ele>253.5</ele>
        <time>2023-12-03T13:15:18.000Z</time>
      </trkpt>
      <trkpt lat="43.52456" lon="6.25502">
        <ele>253.4</ele>
        <time>2023-12-03T13:15:21.000Z</time>
      </trkpt>
      <trkpt lat="43.52455" lon="6.25496">
        <ele>253.3</ele>
        <time>2023-12-03T13:15:25.000Z</time>
      </trkpt>
      <trkpt lat="43.52454" lon="6.2549">
        <ele>253.1</ele>
        <time>2023-12-03T13:15:30.000Z</time>
      </trkpt>
      <trkpt lat="43.52454" lon="6.25485">
        <ele>252.8</ele>
        <time>2023-12-03T13:15:34.000Z</time>
      </trkpt>
      <trkpt lat="43.52455" lon="6.25484">
        <ele>252.8</ele>
        <time>2023-12-03T13:15:35.000Z</time>
      </trkpt>
      <trkpt lat="43.52455" lon="6.25473">
        <ele>252</ele>
        <time>2023-12-03T13:15:44.000Z</time>
      </trkpt>
      <trkpt lat="43.52455" lon="6.25468">
        <ele>251.7</ele>
        <time>2023-12-03T13:15:48.000Z</time>
      </trkpt>
      <trkpt lat="43.52454" lon="6.25463">
        <ele>251.3</ele>
        <time>2023-12-03T13:15:52.000Z</time>
      </trkpt>
      <trkpt lat="43.52452" lon="6.25459">
        <ele>251</ele>
        <time>2023-12-03T13:15:56.000Z</time>
      </trkpt>
      <trkpt lat="43.52451" lon="6.25454">
        <ele>250.6</ele>
        <time>2023-12-03T13:16:00.000Z</time>
      </trkpt>
      <trkpt lat="43.5245" lon="6.25448">
        <ele>250.3</ele>
        <time>2023-12-03T13:16:04.000Z</time>
      </trkpt>
      <trkpt lat="43.52448" lon="6.25443">
        <ele>250</ele>
        <time>2023-12-03T13:16:07.000Z</time>
      </trkpt>
      <trkpt lat="43.52446" lon="6.25439">
        <ele>249.8</ele>
        <time>2023-12-03T13:16:10.000Z</time>
      </trkpt>
      <trkpt lat="43.52445" lon="6.25435">
        <ele>249.6</ele>
        <time>2023-12-03T13:16:13.000Z</time>
      </trkpt>
      <trkpt lat="43.52443" lon="6.25429">
        <ele>249.4</ele>
        <time>2023-12-03T13:16:16.000Z</time>
      </trkpt>
      <trkpt lat="43.52442" lon="6.25424">
        <ele>249</ele>
        <time>2023-12-03T13:16:20.000Z</time>
      </trkpt>
      <trkpt lat="43.52441" lon="6.25418">
        <ele>248.7</ele>
        <time>2023-12-03T13:16:24.000Z</time>
      </trkpt>
      <trkpt lat="43.52439" lon="6.25413">
        <ele>248.5</ele>
        <time>2023-12-03T13:16:28.000Z</time>
      </trkpt>
      <trkpt lat="43.52438" lon="6.25408">
        <ele>248.3</ele>
        <time>2023-12-03T13:16:31.000Z</time>
      </trkpt>
      <trkpt lat="43.52437" lon="6.25403">
        <ele>248.1</ele>
        <time>2023-12-03T13:16:34.000Z</time>
      </trkpt>
      <trkpt lat="43.52436" lon="6.25398">
        <ele>247.9</ele>
        <time>2023-12-03T13:16:38.000Z</time>
      </trkpt>
      <trkpt lat="43.52435" lon="6.25397">
        <ele>247.8</ele>
        <time>2023-12-03T13:16:39.000Z</time>
      </trkpt>
      <trkpt lat="43.52432" lon="6.25388">
        <ele>247.2</ele>
        <time>2023-12-03T13:16:46.000Z</time>
      </trkpt>
      <trkpt lat="43.52431" lon="6.25383">
        <ele>246.9</ele>
        <time>2023-12-03T13:16:49.000Z</time>
      </trkpt>
      <trkpt lat="43.52429" lon="6.2538">
        <ele>246.8</ele>
        <time>2023-12-03T13:16:51.000Z</time>
      </trkpt>
      <trkpt lat="43.52427" lon="6.25375">
        <ele>246.6</ele>
        <time>2023-12-03T13:16:54.000Z</time>
      </trkpt>
      <trkpt lat="43.52425" lon="6.25371">
        <ele>246.5</ele>
        <time>2023-12-03T13:16:57.000Z</time>
      </trkpt>
      <trkpt lat="43.52423" lon="6.25367">
        <ele>246.3</ele>
        <time>2023-12-03T13:17:01.000Z</time>
      </trkpt>
      <trkpt lat="43.52421" lon="6.25362">
        <ele>246</ele>
        <time>2023-12-03T13:17:06.000Z</time>
      </trkpt>
      <trkpt lat="43.52419" lon="6.25356">
        <ele>245.5</ele>
        <time>2023-12-03T13:17:11.000Z</time>
      </trkpt>
      <trkpt lat="43.52417" lon="6.25351">
        <ele>245.1</ele>
        <time>2023-12-03T13:17:15.000Z</time>
      </trkpt>
      <trkpt lat="43.52415" lon="6.25346">
        <ele>244.7</ele>
        <time>2023-12-03T13:17:18.000Z</time>
      </trkpt>
      <trkpt lat="43.52413" lon="6.25341">
        <ele>244.3</ele>
        <time>2023-12-03T13:17:21.000Z</time>
      </trkpt>
      <trkpt lat="43.52411" lon="6.25337">
        <ele>244</ele>
        <time>2023-12-03T13:17:24.000Z</time>
      </trkpt>
      <trkpt lat="43.52408" lon="6.25333">
        <ele>243.7</ele>
        <time>2023-12-03T13:17:27.000Z</time>
      </trkpt>
      <trkpt lat="43.52405" lon="6.25328">
        <ele>243.2</ele>
        <time>2023-12-03T13:17:31.000Z</time>
      </trkpt>
      <trkpt lat="43.52403" lon="6.25324">
        <ele>242.9</ele>
        <time>2023-12-03T13:17:35.000Z</time>
      </trkpt>
      <trkpt lat="43.52402" lon="6.25319">
        <ele>242.7</ele>
        <time>2023-12-03T13:17:38.000Z</time>
      </trkpt>
      <trkpt lat="43.524" lon="6.25314">
        <ele>242.5</ele>
        <time>2023-12-03T13:17:41.000Z</time>
      </trkpt>
      <trkpt lat="43.524" lon="6.25313">
        <ele>242.4</ele>
        <time>2023-12-03T13:17:42.000Z</time>
      </trkpt>
      <trkpt lat="43.52399" lon="6.25303">
        <ele>241.9</ele>
        <time>2023-12-03T13:17:49.000Z</time>
      </trkpt>
      <trkpt lat="43.52399" lon="6.25298">
        <ele>241.7</ele>
        <time>2023-12-03T13:17:53.000Z</time>
      </trkpt>
      <trkpt lat="43.524" lon="6.25292">
        <ele>241.4</ele>
        <time>2023-12-03T13:17:57.000Z</time>
      </trkpt>
      <trkpt lat="43.52399" lon="6.25288">
        <ele>241.2</ele>
        <time>2023-12-03T13:18:00.000Z</time>
      </trkpt>
      <trkpt lat="43.524" lon="6.25282">
        <ele>241.1</ele>
        <time>2023-12-03T13:18:03.000Z</time>
      </trkpt>
      <trkpt lat="43.52399" lon="6.25276">
        <ele>241</ele>
        <time>2023-12-03T13:18:06.000Z</time>
      </trkpt>
      <trkpt lat="43.524" lon="6.2527">
        <ele>240.8</ele>
        <time>2023-12-03T13:18:09.000Z</time>
      </trkpt>
      <trkpt lat="43.52403" lon="6.25266">
        <ele>240.6</ele>
        <time>2023-12-03T13:18:13.000Z</time>
      </trkpt>
      <trkpt lat="43.52405" lon="6.25262">
        <ele>240.5</ele>
        <time>2023-12-03T13:18:16.000Z</time>
      </trkpt>
      <trkpt lat="43.52407" lon="6.25257">
        <ele>240.3</ele>
        <time>2023-12-03T13:18:20.000Z</time>
      </trkpt>
      <trkpt lat="43.52408" lon="6.25251">
        <ele>240</ele>
        <time>2023-12-03T13:18:24.000Z</time>
      </trkpt>
      <trkpt lat="43.5241" lon="6.25246">
        <ele>239.7</ele>
        <time>2023-12-03T13:18:28.000Z</time>
      </trkpt>
      <trkpt lat="43.52413" lon="6.25242">
        <ele>239.5</ele>
        <time>2023-12-03T13:18:31.000Z</time>
      </trkpt>
      <trkpt lat="43.52416" lon="6.25237">
        <ele>239.3</ele>
        <time>2023-12-03T13:18:34.000Z</time>
      </trkpt>
      <trkpt lat="43.52417" lon="6.25231">
        <ele>239.1</ele>
        <time>2023-12-03T13:18:36.000Z</time>
      </trkpt>
      <trkpt lat="43.52418" lon="6.25227">
        <ele>239</ele>
        <time>2023-12-03T13:18:38.000Z</time>
      </trkpt>
      <trkpt lat="43.5242" lon="6.25222">
        <ele>238.8</ele>
        <time>2023-12-03T13:18:41.000Z</time>
      </trkpt>
      <trkpt lat="43.52423" lon="6.25219">
        <ele>238.6</ele>
        <time>2023-12-03T13:18:44.000Z</time>
      </trkpt>
      <trkpt lat="43.52424" lon="6.25218">
        <ele>238.5</ele>
        <time>2023-12-03T13:18:45.000Z</time>
      </trkpt>
      <trkpt lat="43.5243" lon="6.25212">
        <ele>237.9</ele>
        <time>2023-12-03T13:18:53.000Z</time>
      </trkpt>
      <trkpt lat="43.52434" lon="6.2521">
        <ele>237.5</ele>
        <time>2023-12-03T13:18:57.000Z</time>
      </trkpt>
      <trkpt lat="43.52437" lon="6.25207">
        <ele>237.3</ele>
        <time>2023-12-03T13:19:01.000Z</time>
      </trkpt>
      <trkpt lat="43.5244" lon="6.25205">
        <ele>236.9</ele>
        <time>2023-12-03T13:19:05.000Z</time>
      </trkpt>
      <trkpt lat="43.52443" lon="6.25202">
        <ele>236.5</ele>
        <time>2023-12-03T13:19:09.000Z</time>
      </trkpt>
      <trkpt lat="43.52446" lon="6.25199">
        <ele>236.3</ele>
        <time>2023-12-03T13:19:12.000Z</time>
      </trkpt>
      <trkpt lat="43.52449" lon="6.25195">
        <ele>236.1</ele>
        <time>2023-12-03T13:19:16.000Z</time>
      </trkpt>
      <trkpt lat="43.52452" lon="6.25191">
        <ele>235.8</ele>
        <time>2023-12-03T13:19:20.000Z</time>
      </trkpt>
      <trkpt lat="43.52454" lon="6.25187">
        <ele>235.5</ele>
        <time>2023-12-03T13:19:24.000Z</time>
      </trkpt>
      <trkpt lat="43.52456" lon="6.25181">
        <ele>235.1</ele>
        <time>2023-12-03T13:19:29.000Z</time>
      </trkpt>
      <trkpt lat="43.52456" lon="6.25176">
        <ele>234.9</ele>
        <time>2023-12-03T13:19:32.000Z</time>
      </trkpt>
      <trkpt lat="43.52457" lon="6.2517">
        <ele>234.5</ele>
        <time>2023-12-03T13:19:36.000Z</time>
      </trkpt>
      <trkpt lat="43.52457" lon="6.25164">
        <ele>233.7</ele>
        <time>2023-12-03T13:19:45.000Z</time>
      </trkpt>
      <trkpt lat="43.52457" lon="6.25164">
        <ele>233.6</ele>
        <time>2023-12-03T13:19:46.000Z</time>
      </trkpt>
      <trkpt lat="43.52451" lon="6.25155">
        <ele>232.8</ele>
        <time>2023-12-03T13:20:04.000Z</time>
      </trkpt>
      <trkpt lat="43.52452" lon="6.2515">
        <ele>232.5</ele>
        <time>2023-12-03T13:20:10.000Z</time>
      </trkpt>
      <trkpt lat="43.52454" lon="6.25145">
        <ele>232.2</ele>
        <time>2023-12-03T13:20:15.000Z</time>
      </trkpt>
      <trkpt lat="43.52456" lon="6.25139">
        <ele>232</ele>
        <time>2023-12-03T13:20:20.000Z</time>
      </trkpt>
      <trkpt lat="43.52457" lon="6.25134">
        <ele>231.7</ele>
        <time>2023-12-03T13:20:25.000Z</time>
      </trkpt>
      <trkpt lat="43.5246" lon="6.25129">
        <ele>231.4</ele>
        <time>2023-12-03T13:20:30.000Z</time>
      </trkpt>
      <trkpt lat="43.5246" lon="6.25124">
        <ele>231.1</ele>
        <time>2023-12-03T13:20:34.000Z</time>
      </trkpt>
      <trkpt lat="43.52461" lon="6.2512">
        <ele>230.9</ele>
        <time>2023-12-03T13:20:37.000Z</time>
      </trkpt>
      <trkpt lat="43.52462" lon="6.25115">
        <ele>230.8</ele>
        <time>2023-12-03T13:20:40.000Z</time>
      </trkpt>
      <trkpt lat="43.52464" lon="6.25109">
        <ele>230.5</ele>
        <time>2023-12-03T13:20:44.000Z</time>
      </trkpt>
      <trkpt lat="43.52466" lon="6.25104">
        <ele>230.2</ele>
        <time>2023-12-03T13:20:47.000Z</time>
      </trkpt>
      <trkpt lat="43.52467" lon="6.25103">
        <ele>230.2</ele>
        <time>2023-12-03T13:20:48.000Z</time>
      </trkpt>
      <trkpt lat="43.52472" lon="6.25097">
        <ele>229.9</ele>
        <time>2023-12-03T13:20:53.000Z</time>
      </trkpt>
      <trkpt lat="43.52474" lon="6.25094">
        <ele>229.8</ele>
        <time>2023-12-03T13:20:55.000Z</time>
      </trkpt>
      <trkpt lat="43.52477" lon="6.2509">
        <ele>229.7</ele>
        <time>2023-12-03T13:20:58.000Z</time>
      </trkpt>
      <trkpt lat="43.52479" lon="6.25086">
        <ele>229.6</ele>
        <time>2023-12-03T13:21:01.000Z</time>
      </trkpt>
      <trkpt lat="43.52482" lon="6.25081">
        <ele>229.5</ele>
        <time>2023-12-03T13:21:05.000Z</time>
      </trkpt>
      <trkpt lat="43.52484" lon="6.25077">
        <ele>229.5</ele>
        <time>2023-12-03T13:21:09.000Z</time>
      </trkpt>
      <trkpt lat="43.52488" lon="6.25074">
        <ele>229.3</ele>
        <time>2023-12-03T13:21:13.000Z</time>
      </trkpt>
      <trkpt lat="43.5249" lon="6.25069">
        <ele>228.7</ele>
        <time>2023-12-03T13:21:18.000Z</time>
      </trkpt>
      <trkpt lat="43.52493" lon="6.25065">
        <ele>228.3</ele>
        <time>2023-12-03T13:21:22.000Z</time>
      </trkpt>
      <trkpt lat="43.52495" lon="6.25061">
        <ele>227.9</ele>
        <time>2023-12-03T13:21:26.000Z</time>
      </trkpt>
      <trkpt lat="43.52497" lon="6.25056">
        <ele>227.6</ele>
        <time>2023-12-03T13:21:30.000Z</time>
      </trkpt>
      <trkpt lat="43.52499" lon="6.25051">
        <ele>227.1</ele>
        <time>2023-12-03T13:21:35.000Z</time>
      </trkpt>
      <trkpt lat="43.52501" lon="6.25046">
        <ele>226.7</ele>
        <time>2023-12-03T13:21:39.000Z</time>
      </trkpt>
      <trkpt lat="43.52502" lon="6.2504">
        <ele>226.3</ele>
        <time>2023-12-03T13:21:44.000Z</time>
      </trkpt>
      <trkpt lat="43.52503" lon="6.25035">
        <ele>226.1</ele>
        <time>2023-12-03T13:21:48.000Z</time>
      </trkpt>
      <trkpt lat="43.52503" lon="6.25034">
        <ele>226.1</ele>
        <time>2023-12-03T13:21:49.000Z</time>
      </trkpt>
      <trkpt lat="43.52505" lon="6.25025">
        <ele>225.7</ele>
        <time>2023-12-03T13:21:56.000Z</time>
      </trkpt>
      <trkpt lat="43.52507" lon="6.25019">
        <ele>225.6</ele>
        <time>2023-12-03T13:22:00.000Z</time>
      </trkpt>
      <trkpt lat="43.5251" lon="6.25015">
        <ele>225.5</ele>
        <time>2023-12-03T13:22:04.000Z</time>
      </trkpt>
      <trkpt lat="43.52511" lon="6.2501">
        <ele>225.3</ele>
        <time>2023-12-03T13:22:08.000Z</time>
      </trkpt>
      <trkpt lat="43.52512" lon="6.25004">
        <ele>225.2</ele>
        <time>2023-12-03T13:22:12.000Z</time>
      </trkpt>
      <trkpt lat="43.52513" lon="6.24998">
        <ele>225.1</ele>
        <time>2023-12-03T13:22:16.000Z</time>
      </trkpt>
      <trkpt lat="43.52514" lon="6.24993">
        <ele>225</ele>
        <time>2023-12-03T13:22:19.000Z</time>
      </trkpt>
      <trkpt lat="43.52515" lon="6.24988">
        <ele>224.9</ele>
        <time>2023-12-03T13:22:22.000Z</time>
      </trkpt>
      <trkpt lat="43.52516" lon="6.24982">
        <ele>224.8</ele>
        <time>2023-12-03T13:22:26.000Z</time>
      </trkpt>
      <trkpt lat="43.52518" lon="6.24977">
        <ele>224.6</ele>
        <time>2023-12-03T13:22:30.000Z</time>
      </trkpt>
      <trkpt lat="43.5252" lon="6.24971">
        <ele>224.3</ele>
        <time>2023-12-03T13:22:34.000Z</time>
      </trkpt>
      <trkpt lat="43.5252" lon="6.24967">
        <ele>224.1</ele>
        <time>2023-12-03T13:22:37.000Z</time>
      </trkpt>
      <trkpt lat="43.52522" lon="6.24961">
        <ele>223.8</ele>
        <time>2023-12-03T13:22:41.000Z</time>
      </trkpt>
      <trkpt lat="43.52524" lon="6.24956">
        <ele>223.4</ele>
        <time>2023-12-03T13:22:45.000Z</time>
      </trkpt>
      <trkpt lat="43.52525" lon="6.2495">
        <ele>222.9</ele>
        <time>2023-12-03T13:22:49.000Z</time>
      </trkpt>
      <trkpt lat="43.52525" lon="6.24949">
        <ele>222.8</ele>
        <time>2023-12-03T13:22:50.000Z</time>
      </trkpt>
      <trkpt lat="43.52529" lon="6.24942">
        <ele>222.4</ele>
        <time>2023-12-03T13:22:55.000Z</time>
      </trkpt>
      <trkpt lat="43.52531" lon="6.24937">
        <ele>222.2</ele>
        <time>2023-12-03T13:22:58.000Z</time>
      </trkpt>
      <trkpt lat="43.52533" lon="6.24932">
        <ele>221.9</ele>
        <time>2023-12-03T13:23:02.000Z</time>
      </trkpt>
      <trkpt lat="43.52535" lon="6.24928">
        <ele>221.7</ele>
        <time>2023-12-03T13:23:05.000Z</time>
      </trkpt>
      <trkpt lat="43.52536" lon="6.24924">
        <ele>221.5</ele>
        <time>2023-12-03T13:23:08.000Z</time>
      </trkpt>
      <trkpt lat="43.52538" lon="6.24918">
        <ele>221.4</ele>
        <time>2023-12-03T13:23:12.000Z</time>
      </trkpt>
      <trkpt lat="43.5254" lon="6.24915">
        <ele>221.1</ele>
        <time>2023-12-03T13:23:15.000Z</time>
      </trkpt>
      <trkpt lat="43.52543" lon="6.24911">
        <ele>220.8</ele>
        <time>2023-12-03T13:23:18.000Z</time>
      </trkpt>
      <trkpt lat="43.52545" lon="6.24906">
        <ele>220.5</ele>
        <time>2023-12-03T13:23:22.000Z</time>
      </trkpt>
      <trkpt lat="43.52547" lon="6.24903">
        <ele>220.3</ele>
        <time>2023-12-03T13:23:25.000Z</time>
      </trkpt>
      <trkpt lat="43.52549" lon="6.24899">
        <ele>220.2</ele>
        <time>2023-12-03T13:23:28.000Z</time>
      </trkpt>
      <trkpt lat="43.52551" lon="6.24894">
        <ele>220</ele>
        <time>2023-12-03T13:23:32.000Z</time>
      </trkpt>
      <trkpt lat="43.52553" lon="6.24889">
        <ele>219.7</ele>
        <time>2023-12-03T13:23:36.000Z</time>
      </trkpt>
      <trkpt lat="43.52555" lon="6.24884">
        <ele>219.4</ele>
        <time>2023-12-03T13:23:40.000Z</time>
      </trkpt>
      <trkpt lat="43.52556" lon="6.24879">
        <ele>219.2</ele>
        <time>2023-12-03T13:23:43.000Z</time>
      </trkpt>
      <trkpt lat="43.52558" lon="6.24874">
        <ele>218.9</ele>
        <time>2023-12-03T13:23:47.000Z</time>
      </trkpt>
      <trkpt lat="43.5256" lon="6.2487">
        <ele>218.8</ele>
        <time>2023-12-03T13:23:51.000Z</time>
      </trkpt>
      <trkpt lat="43.5256" lon="6.24868">
        <ele>218.7</ele>
        <time>2023-12-03T13:23:52.000Z</time>
      </trkpt>
      <trkpt lat="43.52562" lon="6.2486">
        <ele>218.2</ele>
        <time>2023-12-03T13:23:59.000Z</time>
      </trkpt>
      <trkpt lat="43.52563" lon="6.24855">
        <ele>217.9</ele>
        <time>2023-12-03T13:24:03.000Z</time>
      </trkpt>
      <trkpt lat="43.52566" lon="6.24851">
        <ele>217.6</ele>
        <time>2023-12-03T13:24:06.000Z</time>
      </trkpt>
      <trkpt lat="43.52569" lon="6.24848">
        <ele>217.4</ele>
        <time>2023-12-03T13:24:08.000Z</time>
      </trkpt>
      <trkpt lat="43.52572" lon="6.24845">
        <ele>217.1</ele>
        <time>2023-12-03T13:24:11.000Z</time>
      </trkpt>
      <trkpt lat="43.52574" lon="6.2484">
        <ele>216.8</ele>
        <time>2023-12-03T13:24:15.000Z</time>
      </trkpt>
      <trkpt lat="43.52576" lon="6.24836">
        <ele>216.7</ele>
        <time>2023-12-03T13:24:17.000Z</time>
      </trkpt>
      <trkpt lat="43.52578" lon="6.24832">
        <ele>216.5</ele>
        <time>2023-12-03T13:24:20.000Z</time>
      </trkpt>
      <trkpt lat="43.52581" lon="6.24828">
        <ele>216.3</ele>
        <time>2023-12-03T13:24:24.000Z</time>
      </trkpt>
      <trkpt lat="43.52585" lon="6.24825">
        <ele>216.1</ele>
        <time>2023-12-03T13:24:27.000Z</time>
      </trkpt>
      <trkpt lat="43.52588" lon="6.2482">
        <ele>215.8</ele>
        <time>2023-12-03T13:24:30.000Z</time>
      </trkpt>
      <trkpt lat="43.52591" lon="6.24817">
        <ele>215.6</ele>
        <time>2023-12-03T13:24:33.000Z</time>
      </trkpt>
      <trkpt lat="43.52594" lon="6.24815">
        <ele>215.4</ele>
        <time>2023-12-03T13:24:36.000Z</time>
      </trkpt>
      <trkpt lat="43.52598" lon="6.24814">
        <ele>215.2</ele>
        <time>2023-12-03T13:24:39.000Z</time>
      </trkpt>
      <trkpt lat="43.52601" lon="6.24813">
        <ele>215.1</ele>
        <time>2023-12-03T13:24:42.000Z</time>
      </trkpt>
      <trkpt lat="43.52605" lon="6.24812">
        <ele>214.9</ele>
        <time>2023-12-03T13:24:45.000Z</time>
      </trkpt>
      <trkpt lat="43.52608" lon="6.24809">
        <ele>214.8</ele>
        <time>2023-12-03T13:24:49.000Z</time>
      </trkpt>
      <trkpt lat="43.52612" lon="6.2481">
        <ele>214.7</ele>
        <time>2023-12-03T13:24:52.000Z</time>
      </trkpt>
      <trkpt lat="43.52614" lon="6.24809">
        <ele>214.7</ele>
        <time>2023-12-03T13:24:53.000Z</time>
      </trkpt>
      <trkpt lat="43.5262" lon="6.24805">
        <ele>214.5</ele>
        <time>2023-12-03T13:25:00.000Z</time>
      </trkpt>
      <trkpt lat="43.52623" lon="6.24802">
        <ele>214.5</ele>
        <time>2023-12-03T13:25:04.000Z</time>
      </trkpt>
      <trkpt lat="43.52628" lon="6.248">
        <ele>214.4</ele>
        <time>2023-12-03T13:25:08.000Z</time>
      </trkpt>
      <trkpt lat="43.52632" lon="6.24798">
        <ele>214.2</ele>
        <time>2023-12-03T13:25:12.000Z</time>
      </trkpt>
      <trkpt lat="43.52635" lon="6.24796">
        <ele>213.9</ele>
        <time>2023-12-03T13:25:16.000Z</time>
      </trkpt>
      <trkpt lat="43.52639" lon="6.24794">
        <ele>213.7</ele>
        <time>2023-12-03T13:25:20.000Z</time>
      </trkpt>
      <trkpt lat="43.52642" lon="6.24792">
        <ele>213.4</ele>
        <time>2023-12-03T13:25:24.000Z</time>
      </trkpt>
      <trkpt lat="43.52646" lon="6.24789">
        <ele>213</ele>
        <time>2023-12-03T13:25:28.000Z</time>
      </trkpt>
      <trkpt lat="43.52649" lon="6.24789">
        <ele>212.5</ele>
        <time>2023-12-03T13:25:31.000Z</time>
      </trkpt>
      <trkpt lat="43.52653" lon="6.24789">
        <ele>212.1</ele>
        <time>2023-12-03T13:25:34.000Z</time>
      </trkpt>
      <trkpt lat="43.52657" lon="6.24787">
        <ele>211.6</ele>
        <time>2023-12-03T13:25:38.000Z</time>
      </trkpt>
      <trkpt lat="43.52662" lon="6.24786">
        <ele>211.1</ele>
        <time>2023-12-03T13:25:41.000Z</time>
      </trkpt>
      <trkpt lat="43.52665" lon="6.24786">
        <ele>210.9</ele>
        <time>2023-12-03T13:25:43.000Z</time>
      </trkpt>
      <trkpt lat="43.52668" lon="6.24786">
        <ele>210.6</ele>
        <time>2023-12-03T13:25:45.000Z</time>
      </trkpt>
      <trkpt lat="43.52671" lon="6.24784">
        <ele>210.4</ele>
        <time>2023-12-03T13:25:47.000Z</time>
      </trkpt>
      <trkpt lat="43.52675" lon="6.24782">
        <ele>210.1</ele>
        <time>2023-12-03T13:25:50.000Z</time>
      </trkpt>
      <trkpt lat="43.52679" lon="6.24779">
        <ele>209.9</ele>
        <time>2023-12-03T13:25:53.000Z</time>
      </trkpt>
      <trkpt lat="43.5268" lon="6.24779">
        <ele>209.8</ele>
        <time>2023-12-03T13:25:54.000Z</time>
      </trkpt>
      <trkpt lat="43.52684" lon="6.2477">
        <ele>209.3</ele>
        <time>2023-12-03T13:26:01.000Z</time>
      </trkpt>
      <trkpt lat="43.52685" lon="6.24764">
        <ele>209.1</ele>
        <time>2023-12-03T13:26:05.000Z</time>
      </trkpt>
      <trkpt lat="43.52686" lon="6.24758">
        <ele>209</ele>
        <time>2023-12-03T13:26:09.000Z</time>
      </trkpt>
      <trkpt lat="43.52687" lon="6.24754">
        <ele>208.8</ele>
        <time>2023-12-03T13:26:12.000Z</time>
      </trkpt>
      <trkpt lat="43.52688" lon="6.24749">
        <ele>208.5</ele>
        <time>2023-12-03T13:26:15.000Z</time>
      </trkpt>
      <trkpt lat="43.52689" lon="6.24744">
        <ele>208.1</ele>
        <time>2023-12-03T13:26:19.000Z</time>
      </trkpt>
      <trkpt lat="43.5269" lon="6.24739">
        <ele>207.9</ele>
        <time>2023-12-03T13:26:22.000Z</time>
      </trkpt>
      <trkpt lat="43.52691" lon="6.24734">
        <ele>207.6</ele>
        <time>2023-12-03T13:26:25.000Z</time>
      </trkpt>
      <trkpt lat="43.52692" lon="6.24729">
        <ele>207.4</ele>
        <time>2023-12-03T13:26:28.000Z</time>
      </trkpt>
      <trkpt lat="43.52693" lon="6.24723">
        <ele>207</ele>
        <time>2023-12-03T13:26:32.000Z</time>
      </trkpt>
      <trkpt lat="43.52694" lon="6.24718">
        <ele>206.6</ele>
        <time>2023-12-03T13:26:36.000Z</time>
      </trkpt>
      <trkpt lat="43.52695" lon="6.24712">
        <ele>206.4</ele>
        <time>2023-12-03T13:26:40.000Z</time>
      </trkpt>
      <trkpt lat="43.52696" lon="6.24708">
        <ele>206.2</ele>
        <time>2023-12-03T13:26:43.000Z</time>
      </trkpt>
      <trkpt lat="43.52696" lon="6.24703">
        <ele>206</ele>
        <time>2023-12-03T13:26:46.000Z</time>
      </trkpt>
      <trkpt lat="43.52697" lon="6.24698">
        <ele>205.8</ele>
        <time>2023-12-03T13:26:49.000Z</time>
      </trkpt>
      <trkpt lat="43.52698" lon="6.24692">
        <ele>205.7</ele>
        <time>2023-12-03T13:26:52.000Z</time>
      </trkpt>
      <trkpt lat="43.52699" lon="6.24686">
        <ele>205.5</ele>
        <time>2023-12-03T13:26:55.000Z</time>
      </trkpt>
      <trkpt lat="43.52699" lon="6.24684">
        <ele>205.5</ele>
        <time>2023-12-03T13:26:56.000Z</time>
      </trkpt>
      <trkpt lat="43.52699" lon="6.24676">
        <ele>205.3</ele>
        <time>2023-12-03T13:27:01.000Z</time>
      </trkpt>
      <trkpt lat="43.527" lon="6.24671">
        <ele>205.2</ele>
        <time>2023-12-03T13:27:04.000Z</time>
      </trkpt>
      <trkpt lat="43.52701" lon="6.24665">
        <ele>205.1</ele>
        <time>2023-12-03T13:27:08.000Z</time>
      </trkpt>
      <trkpt lat="43.52703" lon="6.2466">
        <ele>204.9</ele>
        <time>2023-12-03T13:27:11.000Z</time>
      </trkpt>
      <trkpt lat="43.52704" lon="6.24655">
        <ele>204.7</ele>
        <time>2023-12-03T13:27:15.000Z</time>
      </trkpt>
      <trkpt lat="43.52707" lon="6.24651">
        <ele>204.4</ele>
        <time>2023-12-03T13:27:19.000Z</time>
      </trkpt>
      <trkpt lat="43.52708" lon="6.24646">
        <ele>204.2</ele>
        <time>2023-12-03T13:27:22.000Z</time>
      </trkpt>
      <trkpt lat="43.5271" lon="6.24641">
        <ele>204</ele>
        <time>2023-12-03T13:27:26.000Z</time>
      </trkpt>
      <trkpt lat="43.52711" lon="6.24637">
        <ele>203.7</ele>
        <time>2023-12-03T13:27:29.000Z</time>
      </trkpt>
      <trkpt lat="43.52713" lon="6.24632">
        <ele>203.5</ele>
        <time>2023-12-03T13:27:32.000Z</time>
      </trkpt>
      <trkpt lat="43.52716" lon="6.24628">
        <ele>203.4</ele>
        <time>2023-12-03T13:27:35.000Z</time>
      </trkpt>
      <trkpt lat="43.52719" lon="6.24625">
        <ele>203.2</ele>
        <time>2023-12-03T13:27:38.000Z</time>
      </trkpt>
      <trkpt lat="43.52721" lon="6.24621">
        <ele>203</ele>
        <time>2023-12-03T13:27:41.000Z</time>
      </trkpt>
      <trkpt lat="43.52722" lon="6.24616">
        <ele>202.8</ele>
        <time>2023-12-03T13:27:44.000Z</time>
      </trkpt>
      <trkpt lat="43.52723" lon="6.24611">
        <ele>202.5</ele>
        <time>2023-12-03T13:27:47.000Z</time>
      </trkpt>
      <trkpt lat="43.52726" lon="6.24606">
        <ele>202.2</ele>
        <time>2023-12-03T13:27:51.000Z</time>
      </trkpt>
      <trkpt lat="43.52728" lon="6.24601">
        <ele>201.9</ele>
        <time>2023-12-03T13:27:55.000Z</time>
      </trkpt>
      <trkpt lat="43.52731" lon="6.24596">
        <ele>201.7</ele>
        <time>2023-12-03T13:27:59.000Z</time>
      </trkpt>
      <trkpt lat="43.52732" lon="6.24594">
        <ele>201.7</ele>
        <time>2023-12-03T13:28:00.000Z</time>
      </trkpt>
      <trkpt lat="43.52734" lon="6.24587">
        <ele>201.4</ele>
        <time>2023-12-03T13:28:04.000Z</time>
      </trkpt>
      <trkpt lat="43.52736" lon="6.24581">
        <ele>201.2</ele>
        <time>2023-12-03T13:28:07.000Z</time>
      </trkpt>
      <trkpt lat="43.52738" lon="6.24578">
        <ele>201</ele>
        <time>2023-12-03T13:28:10.000Z</time>
      </trkpt>
      <trkpt lat="43.5274" lon="6.24573">
        <ele>200.9</ele>
        <time>2023-12-03T13:28:13.000Z</time>
      </trkpt>
      <trkpt lat="43.52742" lon="6.2457">
        <ele>200.7</ele>
        <time>2023-12-03T13:28:16.000Z</time>
      </trkpt>
      <trkpt lat="43.52745" lon="6.24566">
        <ele>200.5</ele>
        <time>2023-12-03T13:28:19.000Z</time>
      </trkpt>
      <trkpt lat="43.52747" lon="6.24563">
        <ele>200.3</ele>
        <time>2023-12-03T13:28:22.000Z</time>
      </trkpt>
      <trkpt lat="43.52749" lon="6.24559">
        <ele>200.2</ele>
        <time>2023-12-03T13:28:25.000Z</time>
      </trkpt>
      <trkpt lat="43.52752" lon="6.24554">
        <ele>199.9</ele>
        <time>2023-12-03T13:28:30.000Z</time>
      </trkpt>
      <trkpt lat="43.52755" lon="6.2455">
        <ele>199.6</ele>
        <time>2023-12-03T13:28:35.000Z</time>
      </trkpt>
      <trkpt lat="43.52755" lon="6.24544">
        <ele>199.2</ele>
        <time>2023-12-03T13:28:46.000Z</time>
      </trkpt>
      <trkpt lat="43.52752" lon="6.24541">
        <ele>199</ele>
        <time>2023-12-03T13:28:54.000Z</time>
      </trkpt>
      <trkpt lat="43.52749" lon="6.24537">
        <ele>198.9</ele>
        <time>2023-12-03T13:29:00.000Z</time>
      </trkpt>
      <trkpt lat="43.52749" lon="6.24536">
        <ele>199</ele>
        <time>2023-12-03T13:29:01.000Z</time>
      </trkpt>
      <trkpt lat="43.52745" lon="6.24528">
        <ele>199.3</ele>
        <time>2023-12-03T13:29:10.000Z</time>
      </trkpt>
      <trkpt lat="43.52742" lon="6.24524">
        <ele>199.6</ele>
        <time>2023-12-03T13:29:15.000Z</time>
      </trkpt>
      <trkpt lat="43.52739" lon="6.2452">
        <ele>200</ele>
        <time>2023-12-03T13:29:20.000Z</time>
      </trkpt>
      <trkpt lat="43.52737" lon="6.24516">
        <ele>200.3</ele>
        <time>2023-12-03T13:29:23.000Z</time>
      </trkpt>
      <trkpt lat="43.52735" lon="6.24512">
        <ele>200.6</ele>
        <time>2023-12-03T13:29:27.000Z</time>
      </trkpt>
      <trkpt lat="43.52734" lon="6.24507">
        <ele>200.8</ele>
        <time>2023-12-03T13:29:32.000Z</time>
      </trkpt>
      <trkpt lat="43.52731" lon="6.24503">
        <ele>201.1</ele>
        <time>2023-12-03T13:29:36.000Z</time>
      </trkpt>
      <trkpt lat="43.52728" lon="6.24498">
        <ele>201.4</ele>
        <time>2023-12-03T13:29:40.000Z</time>
      </trkpt>
      <trkpt lat="43.52725" lon="6.24495">
        <ele>201.7</ele>
        <time>2023-12-03T13:29:43.000Z</time>
      </trkpt>
      <trkpt lat="43.52723" lon="6.24491">
        <ele>201.9</ele>
        <time>2023-12-03T13:29:46.000Z</time>
      </trkpt>
      <trkpt lat="43.5272" lon="6.24487">
        <ele>202.1</ele>
        <time>2023-12-03T13:29:50.000Z</time>
      </trkpt>
      <trkpt lat="43.52717" lon="6.24483">
        <ele>202.2</ele>
        <time>2023-12-03T13:29:54.000Z</time>
      </trkpt>
      <trkpt lat="43.52714" lon="6.24479">
        <ele>202.5</ele>
        <time>2023-12-03T13:29:58.000Z</time>
      </trkpt>
      <trkpt lat="43.5271" lon="6.24476">
        <ele>202.7</ele>
        <time>2023-12-03T13:30:02.000Z</time>
      </trkpt>
      <trkpt lat="43.52709" lon="6.24476">
        <ele>202.8</ele>
        <time>2023-12-03T13:30:03.000Z</time>
      </trkpt>
      <trkpt lat="43.52704" lon="6.24472">
        <ele>203</ele>
        <time>2023-12-03T13:30:08.000Z</time>
      </trkpt>
      <trkpt lat="43.527" lon="6.2447">
        <ele>203.1</ele>
        <time>2023-12-03T13:30:11.000Z</time>
      </trkpt>
      <trkpt lat="43.52697" lon="6.24467">
        <ele>203.2</ele>
        <time>2023-12-03T13:30:15.000Z</time>
      </trkpt>
      <trkpt lat="43.52693" lon="6.24465">
        <ele>203.2</ele>
        <time>2023-12-03T13:30:18.000Z</time>
      </trkpt>
      <trkpt lat="43.5269" lon="6.24463">
        <ele>203.3</ele>
        <time>2023-12-03T13:30:21.000Z</time>
      </trkpt>
      <trkpt lat="43.52687" lon="6.24459">
        <ele>203.5</ele>
        <time>2023-12-03T13:30:25.000Z</time>
      </trkpt>
      <trkpt lat="43.52684" lon="6.24455">
        <ele>203.6</ele>
        <time>2023-12-03T13:30:28.000Z</time>
      </trkpt>
      <trkpt lat="43.52681" lon="6.24451">
        <ele>203.7</ele>
        <time>2023-12-03T13:30:32.000Z</time>
      </trkpt>
      <trkpt lat="43.52677" lon="6.24448">
        <ele>203.9</ele>
        <time>2023-12-03T13:30:37.000Z</time>
      </trkpt>
      <trkpt lat="43.52674" lon="6.24444">
        <ele>204.2</ele>
        <time>2023-12-03T13:30:48.000Z</time>
      </trkpt>
      <trkpt lat="43.52671" lon="6.2444">
        <ele>204.3</ele>
        <time>2023-12-03T13:30:57.000Z</time>
      </trkpt>
      <trkpt lat="43.52667" lon="6.24438">
        <ele>204.4</ele>
        <time>2023-12-03T13:31:01.000Z</time>
      </trkpt>
      <trkpt lat="43.52663" lon="6.24435">
        <ele>204.6</ele>
        <time>2023-12-03T13:31:05.000Z</time>
      </trkpt>
      <trkpt lat="43.52662" lon="6.24434">
        <ele>204.6</ele>
        <time>2023-12-03T13:31:06.000Z</time>
      </trkpt>
      <trkpt lat="43.52656" lon="6.24427">
        <ele>205.2</ele>
        <time>2023-12-03T13:31:56.000Z</time>
      </trkpt>
      <trkpt lat="43.52653" lon="6.24424">
        <ele>205.3</ele>
        <time>2023-12-03T13:32:21.000Z</time>
      </trkpt>
      <trkpt lat="43.52652" lon="6.24424">
        <ele>205.3</ele>
        <time>2023-12-03T13:32:22.000Z</time>
      </trkpt>
      <trkpt lat="43.52646" lon="6.24419">
        <ele>205.3</ele>
        <time>2023-12-03T13:32:33.000Z</time>
      </trkpt>
      <trkpt lat="43.52642" lon="6.24417">
        <ele>205.3</ele>
        <time>2023-12-03T13:32:37.000Z</time>
      </trkpt>
      <trkpt lat="43.52638" lon="6.24415">
        <ele>205.3</ele>
        <time>2023-12-03T13:32:41.000Z</time>
      </trkpt>
      <trkpt lat="43.52635" lon="6.24414">
        <ele>205.1</ele>
        <time>2023-12-03T13:32:45.000Z</time>
      </trkpt>
      <trkpt lat="43.52631" lon="6.24412">
        <ele>204.8</ele>
        <time>2023-12-03T13:32:49.000Z</time>
      </trkpt>
      <trkpt lat="43.52627" lon="6.2441">
        <ele>204.6</ele>
        <time>2023-12-03T13:32:53.000Z</time>
      </trkpt>
      <trkpt lat="43.52623" lon="6.24409">
        <ele>204.3</ele>
        <time>2023-12-03T13:32:57.000Z</time>
      </trkpt>
      <trkpt lat="43.5262" lon="6.24407">
        <ele>204.1</ele>
        <time>2023-12-03T13:33:01.000Z</time>
      </trkpt>
      <trkpt lat="43.52616" lon="6.24406">
        <ele>203.8</ele>
        <time>2023-12-03T13:33:05.000Z</time>
      </trkpt>
      <trkpt lat="43.52611" lon="6.24404">
        <ele>203.5</ele>
        <time>2023-12-03T13:33:09.000Z</time>
      </trkpt>
      <trkpt lat="43.52607" lon="6.24402">
        <ele>203.2</ele>
        <time>2023-12-03T13:33:13.000Z</time>
      </trkpt>
      <trkpt lat="43.52603" lon="6.24401">
        <ele>202.9</ele>
        <time>2023-12-03T13:33:17.000Z</time>
      </trkpt>
      <trkpt lat="43.526" lon="6.244">
        <ele>202.7</ele>
        <time>2023-12-03T13:33:20.000Z</time>
      </trkpt>
      <trkpt lat="43.52597" lon="6.24398">
        <ele>202.5</ele>
        <time>2023-12-03T13:33:23.000Z</time>
      </trkpt>
      <trkpt lat="43.52595" lon="6.24398">
        <ele>202.5</ele>
        <time>2023-12-03T13:33:24.000Z</time>
      </trkpt>
      <trkpt lat="43.52589" lon="6.24395">
        <ele>202.2</ele>
        <time>2023-12-03T13:33:30.000Z</time>
      </trkpt>
      <trkpt lat="43.52586" lon="6.24394">
        <ele>201.9</ele>
        <time>2023-12-03T13:33:33.000Z</time>
      </trkpt>
      <trkpt lat="43.52582" lon="6.24392">
        <ele>201.6</ele>
        <time>2023-12-03T13:33:37.000Z</time>
      </trkpt>
      <trkpt lat="43.52577" lon="6.2439">
        <ele>201.3</ele>
        <time>2023-12-03T13:33:41.000Z</time>
      </trkpt>
      <trkpt lat="43.52573" lon="6.24389">
        <ele>201.1</ele>
        <time>2023-12-03T13:33:45.000Z</time>
      </trkpt>
      <trkpt lat="43.5257" lon="6.24387">
        <ele>201</ele>
        <time>2023-12-03T13:33:48.000Z</time>
      </trkpt>
      <trkpt lat="43.52566" lon="6.24386">
        <ele>200.9</ele>
        <time>2023-12-03T13:33:52.000Z</time>
      </trkpt>
      <trkpt lat="43.52563" lon="6.24384">
        <ele>200.7</ele>
        <time>2023-12-03T13:33:56.000Z</time>
      </trkpt>
      <trkpt lat="43.52559" lon="6.24383">
        <ele>200.5</ele>
        <time>2023-12-03T13:34:00.000Z</time>
      </trkpt>
      <trkpt lat="43.52555" lon="6.24381">
        <ele>200.3</ele>
        <time>2023-12-03T13:34:04.000Z</time>
      </trkpt>
      <trkpt lat="43.52551" lon="6.24379">
        <ele>200</ele>
        <time>2023-12-03T13:34:08.000Z</time>
      </trkpt>
      <trkpt lat="43.52547" lon="6.24376">
        <ele>199.7</ele>
        <time>2023-12-03T13:34:12.000Z</time>
      </trkpt>
      <trkpt lat="43.52543" lon="6.24374">
        <ele>199.4</ele>
        <time>2023-12-03T13:34:16.000Z</time>
      </trkpt>
      <trkpt lat="43.52539" lon="6.24371">
        <ele>199</ele>
        <time>2023-12-03T13:34:21.000Z</time>
      </trkpt>
      <trkpt lat="43.52535" lon="6.24369">
        <ele>198.7</ele>
        <time>2023-12-03T13:34:26.000Z</time>
      </trkpt>
      <trkpt lat="43.52534" lon="6.24369">
        <ele>198.7</ele>
        <time>2023-12-03T13:34:27.000Z</time>
      </trkpt>
      <trkpt lat="43.52527" lon="6.24366">
        <ele>198.3</ele>
        <time>2023-12-03T13:34:34.000Z</time>
      </trkpt>
      <trkpt lat="43.52524" lon="6.24366">
        <ele>198.2</ele>
        <time>2023-12-03T13:34:37.000Z</time>
      </trkpt>
      <trkpt lat="43.5252" lon="6.24366">
        <ele>198.2</ele>
        <time>2023-12-03T13:34:40.000Z</time>
      </trkpt>
      <trkpt lat="43.52516" lon="6.24365">
        <ele>198.2</ele>
        <time>2023-12-03T13:34:43.000Z</time>
      </trkpt>
      <trkpt lat="43.52513" lon="6.24365">
        <ele>198.2</ele>
        <time>2023-12-03T13:34:46.000Z</time>
      </trkpt>
      <trkpt lat="43.52509" lon="6.24366">
        <ele>198.2</ele>
        <time>2023-12-03T13:34:49.000Z</time>
      </trkpt>
      <trkpt lat="43.52505" lon="6.24368">
        <ele>198.3</ele>
        <time>2023-12-03T13:34:53.000Z</time>
      </trkpt>
      <trkpt lat="43.52502" lon="6.2437">
        <ele>198.5</ele>
        <time>2023-12-03T13:34:57.000Z</time>
      </trkpt>
      <trkpt lat="43.52499" lon="6.24373">
        <ele>198.8</ele>
        <time>2023-12-03T13:35:01.000Z</time>
      </trkpt>
      <trkpt lat="43.52495" lon="6.24375">
        <ele>199.1</ele>
        <time>2023-12-03T13:35:05.000Z</time>
      </trkpt>
      <trkpt lat="43.52492" lon="6.24377">
        <ele>199.4</ele>
        <time>2023-12-03T13:35:09.000Z</time>
      </trkpt>
      <trkpt lat="43.52488" lon="6.24381">
        <ele>199.7</ele>
        <time>2023-12-03T13:35:13.000Z</time>
      </trkpt>
      <trkpt lat="43.52485" lon="6.24383">
        <ele>199.9</ele>
        <time>2023-12-03T13:35:17.000Z</time>
      </trkpt>
      <trkpt lat="43.5248" lon="6.24385">
        <ele>200</ele>
        <time>2023-12-03T13:35:21.000Z</time>
      </trkpt>
      <trkpt lat="43.52477" lon="6.24385">
        <ele>200.1</ele>
        <time>2023-12-03T13:35:24.000Z</time>
      </trkpt>
      <trkpt lat="43.52473" lon="6.24385">
        <ele>200.1</ele>
        <time>2023-12-03T13:35:28.000Z</time>
      </trkpt>
      <trkpt lat="43.52472" lon="6.24384">
        <ele>200.1</ele>
        <time>2023-12-03T13:35:29.000Z</time>
      </trkpt>
      <trkpt lat="43.52464" lon="6.24383">
        <ele>200</ele>
        <time>2023-12-03T13:35:36.000Z</time>
      </trkpt>
      <trkpt lat="43.52461" lon="6.24383">
        <ele>199.8</ele>
        <time>2023-12-03T13:35:39.000Z</time>
      </trkpt>
      <trkpt lat="43.52458" lon="6.24384">
        <ele>199.6</ele>
        <time>2023-12-03T13:35:42.000Z</time>
      </trkpt>
      <trkpt lat="43.52454" lon="6.24385">
        <ele>199.4</ele>
        <time>2023-12-03T13:35:45.000Z</time>
      </trkpt>
      <trkpt lat="43.52451" lon="6.24385">
        <ele>199.1</ele>
        <time>2023-12-03T13:35:48.000Z</time>
      </trkpt>
      <trkpt lat="43.52446" lon="6.24385">
        <ele>198.7</ele>
        <time>2023-12-03T13:35:52.000Z</time>
      </trkpt>
      <trkpt lat="43.52443" lon="6.24385">
        <ele>198.5</ele>
        <time>2023-12-03T13:35:55.000Z</time>
      </trkpt>
      <trkpt lat="43.52438" lon="6.24385">
        <ele>198.3</ele>
        <time>2023-12-03T13:35:58.000Z</time>
      </trkpt>
      <trkpt lat="43.52435" lon="6.24385">
        <ele>198.1</ele>
        <time>2023-12-03T13:36:01.000Z</time>
      </trkpt>
      <trkpt lat="43.52431" lon="6.24385">
        <ele>198</ele>
        <time>2023-12-03T13:36:04.000Z</time>
      </trkpt>
      <trkpt lat="43.52428" lon="6.24384">
        <ele>197.9</ele>
        <time>2023-12-03T13:36:07.000Z</time>
      </trkpt>
      <trkpt lat="43.52423" lon="6.24385">
        <ele>197.7</ele>
        <time>2023-12-03T13:36:11.000Z</time>
      </trkpt>
      <trkpt lat="43.52419" lon="6.24385">
        <ele>197.6</ele>
        <time>2023-12-03T13:36:15.000Z</time>
      </trkpt>
      <trkpt lat="43.52415" lon="6.24386">
        <ele>197.6</ele>
        <time>2023-12-03T13:36:20.000Z</time>
      </trkpt>
      <trkpt lat="43.52412" lon="6.24385">
        <ele>197.5</ele>
        <time>2023-12-03T13:36:24.000Z</time>
      </trkpt>
      <trkpt lat="43.52407" lon="6.24385">
        <ele>197.7</ele>
        <time>2023-12-03T13:36:29.000Z</time>
      </trkpt>
      <trkpt lat="43.52407" lon="6.24386">
        <ele>197.8</ele>
        <time>2023-12-03T13:36:30.000Z</time>
      </trkpt>
      <trkpt lat="43.524" lon="6.24386">
        <ele>198.3</ele>
        <time>2023-12-03T13:36:37.000Z</time>
      </trkpt>
      <trkpt lat="43.52396" lon="6.24385">
        <ele>198.5</ele>
        <time>2023-12-03T13:36:40.000Z</time>
      </trkpt>
      <trkpt lat="43.52392" lon="6.24384">
        <ele>198.7</ele>
        <time>2023-12-03T13:36:44.000Z</time>
      </trkpt>
      <trkpt lat="43.52388" lon="6.24382">
        <ele>198.8</ele>
        <time>2023-12-03T13:36:47.000Z</time>
      </trkpt>
      <trkpt lat="43.52385" lon="6.24382">
        <ele>198.9</ele>
        <time>2023-12-03T13:36:50.000Z</time>
      </trkpt>
      <trkpt lat="43.52381" lon="6.24381">
        <ele>199</ele>
        <time>2023-12-03T13:36:53.000Z</time>
      </trkpt>
      <trkpt lat="43.52377" lon="6.24381">
        <ele>199.1</ele>
        <time>2023-12-03T13:36:57.000Z</time>
      </trkpt>
      <trkpt lat="43.52373" lon="6.2438">
        <ele>199.3</ele>
        <time>2023-12-03T13:37:01.000Z</time>
      </trkpt>
      <trkpt lat="43.52369" lon="6.24379">
        <ele>199.5</ele>
        <time>2023-12-03T13:37:05.000Z</time>
      </trkpt>
      <trkpt lat="43.52365" lon="6.24378">
        <ele>199.8</ele>
        <time>2023-12-03T13:37:09.000Z</time>
      </trkpt>
      <trkpt lat="43.52362" lon="6.24377">
        <ele>200</ele>
        <time>2023-12-03T13:37:13.000Z</time>
      </trkpt>
      <trkpt lat="43.52358" lon="6.24375">
        <ele>200.4</ele>
        <time>2023-12-03T13:37:17.000Z</time>
      </trkpt>
      <trkpt lat="43.52354" lon="6.24373">
        <ele>200.9</ele>
        <time>2023-12-03T13:37:22.000Z</time>
      </trkpt>
      <trkpt lat="43.52351" lon="6.24372">
        <ele>201.2</ele>
        <time>2023-12-03T13:37:26.000Z</time>
      </trkpt>
      <trkpt lat="43.52347" lon="6.24371">
        <ele>201.6</ele>
        <time>2023-12-03T13:37:29.000Z</time>
      </trkpt>
      <trkpt lat="43.52344" lon="6.24368">
        <ele>201.9</ele>
        <time>2023-12-03T13:37:32.000Z</time>
      </trkpt>
      <trkpt lat="43.52342" lon="6.24367">
        <ele>202</ele>
        <time>2023-12-03T13:37:33.000Z</time>
      </trkpt>
      <trkpt lat="43.52337" lon="6.24363">
        <ele>202.4</ele>
        <time>2023-12-03T13:37:38.000Z</time>
      </trkpt>
      <trkpt lat="43.52333" lon="6.2436">
        <ele>202.6</ele>
        <time>2023-12-03T13:37:42.000Z</time>
      </trkpt>
      <trkpt lat="43.5233" lon="6.24357">
        <ele>202.9</ele>
        <time>2023-12-03T13:37:46.000Z</time>
      </trkpt>
      <trkpt lat="43.52327" lon="6.24354">
        <ele>203.2</ele>
        <time>2023-12-03T13:37:50.000Z</time>
      </trkpt>
      <trkpt lat="43.52324" lon="6.24349">
        <ele>203.7</ele>
        <time>2023-12-03T13:37:55.000Z</time>
      </trkpt>
      <trkpt lat="43.52321" lon="6.24345">
        <ele>204.1</ele>
        <time>2023-12-03T13:38:00.000Z</time>
      </trkpt>
      <trkpt lat="43.52318" lon="6.24341">
        <ele>204.5</ele>
        <time>2023-12-03T13:38:05.000Z</time>
      </trkpt>
      <trkpt lat="43.52315" lon="6.24337">
        <ele>205</ele>
        <time>2023-12-03T13:38:11.000Z</time>
      </trkpt>
      <trkpt lat="43.52311" lon="6.24334">
        <ele>205.4</ele>
        <time>2023-12-03T13:38:16.000Z</time>
      </trkpt>
      <trkpt lat="43.52309" lon="6.24328">
        <ele>206</ele>
        <time>2023-12-03T13:38:21.000Z</time>
      </trkpt>
      <trkpt lat="43.52307" lon="6.24324">
        <ele>206.7</ele>
        <time>2023-12-03T13:38:27.000Z</time>
      </trkpt>
      <trkpt lat="43.52304" lon="6.24319">
        <ele>207.4</ele>
        <time>2023-12-03T13:38:32.000Z</time>
      </trkpt>
      <trkpt lat="43.52303" lon="6.24314">
        <ele>208</ele>
        <time>2023-12-03T13:38:37.000Z</time>
      </trkpt>
      <trkpt lat="43.52302" lon="6.24313">
        <ele>208.1</ele>
        <time>2023-12-03T13:38:38.000Z</time>
      </trkpt>
      <trkpt lat="43.52299" lon="6.24304">
        <ele>208.9</ele>
        <time>2023-12-03T13:38:46.000Z</time>
      </trkpt>
      <trkpt lat="43.52299" lon="6.24298">
        <ele>209.4</ele>
        <time>2023-12-03T13:38:50.000Z</time>
      </trkpt>
      <trkpt lat="43.52298" lon="6.24293">
        <ele>209.7</ele>
        <time>2023-12-03T13:38:53.000Z</time>
      </trkpt>
      <trkpt lat="43.52297" lon="6.24287">
        <ele>209.9</ele>
        <time>2023-12-03T13:38:56.000Z</time>
      </trkpt>
      <trkpt lat="43.52298" lon="6.24282">
        <ele>210.1</ele>
        <time>2023-12-03T13:38:59.000Z</time>
      </trkpt>
      <trkpt lat="43.52297" lon="6.24277">
        <ele>210.2</ele>
        <time>2023-12-03T13:39:02.000Z</time>
      </trkpt>
      <trkpt lat="43.52296" lon="6.24272">
        <ele>210.3</ele>
        <time>2023-12-03T13:39:05.000Z</time>
      </trkpt>
      <trkpt lat="43.52295" lon="6.24267">
        <ele>210.4</ele>
        <time>2023-12-03T13:39:08.000Z</time>
      </trkpt>
      <trkpt lat="43.52294" lon="6.24261">
        <ele>210.5</ele>
        <time>2023-12-03T13:39:12.000Z</time>
      </trkpt>
      <trkpt lat="43.52293" lon="6.24257">
        <ele>210.6</ele>
        <time>2023-12-03T13:39:15.000Z</time>
      </trkpt>
      <trkpt lat="43.52293" lon="6.24251">
        <ele>210.6</ele>
        <time>2023-12-03T13:39:19.000Z</time>
      </trkpt>
      <trkpt lat="43.52292" lon="6.24246">
        <ele>210.7</ele>
        <time>2023-12-03T13:39:22.000Z</time>
      </trkpt>
      <trkpt lat="43.52291" lon="6.24242">
        <ele>210.8</ele>
        <time>2023-12-03T13:39:25.000Z</time>
      </trkpt>
      <trkpt lat="43.5229" lon="6.24236">
        <ele>211</ele>
        <time>2023-12-03T13:39:29.000Z</time>
      </trkpt>
      <trkpt lat="43.5229" lon="6.24231">
        <ele>211.2</ele>
        <time>2023-12-03T13:39:32.000Z</time>
      </trkpt>
      <trkpt lat="43.52289" lon="6.24225">
        <ele>211.5</ele>
        <time>2023-12-03T13:39:36.000Z</time>
      </trkpt>
      <trkpt lat="43.52289" lon="6.24219">
        <ele>211.8</ele>
        <time>2023-12-03T13:39:40.000Z</time>
      </trkpt>
      <trkpt lat="43.52289" lon="6.24218">
        <ele>211.9</ele>
        <time>2023-12-03T13:39:41.000Z</time>
      </trkpt>
      <trkpt lat="43.52289" lon="6.24207">
        <ele>212.2</ele>
        <time>2023-12-03T13:39:48.000Z</time>
      </trkpt>
      <trkpt lat="43.52289" lon="6.24202">
        <ele>212.4</ele>
        <time>2023-12-03T13:39:52.000Z</time>
      </trkpt>
      <trkpt lat="43.52289" lon="6.24197">
        <ele>212.5</ele>
        <time>2023-12-03T13:39:56.000Z</time>
      </trkpt>
      <trkpt lat="43.52289" lon="6.24191">
        <ele>212.6</ele>
        <time>2023-12-03T13:40:00.000Z</time>
      </trkpt>
      <trkpt lat="43.52288" lon="6.24186">
        <ele>212.6</ele>
        <time>2023-12-03T13:40:04.000Z</time>
      </trkpt>
      <trkpt lat="43.52288" lon="6.24181">
        <ele>212.6</ele>
        <time>2023-12-03T13:40:07.000Z</time>
      </trkpt>
      <trkpt lat="43.52289" lon="6.24175">
        <ele>212.6</ele>
        <time>2023-12-03T13:40:10.000Z</time>
      </trkpt>
      <trkpt lat="43.52289" lon="6.2417">
        <ele>212.6</ele>
        <time>2023-12-03T13:40:13.000Z</time>
      </trkpt>
      <trkpt lat="43.52289" lon="6.24164">
        <ele>212.6</ele>
        <time>2023-12-03T13:40:17.000Z</time>
      </trkpt>
      <trkpt lat="43.52289" lon="6.24158">
        <ele>212.6</ele>
        <time>2023-12-03T13:40:21.000Z</time>
      </trkpt>
      <trkpt lat="43.5229" lon="6.24153">
        <ele>212.5</ele>
        <time>2023-12-03T13:40:25.000Z</time>
      </trkpt>
      <trkpt lat="43.52291" lon="6.24147">
        <ele>212.5</ele>
        <time>2023-12-03T13:40:29.000Z</time>
      </trkpt>
      <trkpt lat="43.52291" lon="6.24142">
        <ele>212.4</ele>
        <time>2023-12-03T13:40:32.000Z</time>
      </trkpt>
      <trkpt lat="43.52291" lon="6.24137">
        <ele>212.3</ele>
        <time>2023-12-03T13:40:35.000Z</time>
      </trkpt>
      <trkpt lat="43.52291" lon="6.24131">
        <ele>212.1</ele>
        <time>2023-12-03T13:40:39.000Z</time>
      </trkpt>
      <trkpt lat="43.52291" lon="6.24125">
        <ele>211.9</ele>
        <time>2023-12-03T13:40:43.000Z</time>
      </trkpt>
      <trkpt lat="43.52291" lon="6.24124">
        <ele>211.9</ele>
        <time>2023-12-03T13:40:44.000Z</time>
      </trkpt>
      <trkpt lat="43.52291" lon="6.24114">
        <ele>211.3</ele>
        <time>2023-12-03T13:40:52.000Z</time>
      </trkpt>
      <trkpt lat="43.52291" lon="6.24108">
        <ele>210.9</ele>
        <time>2023-12-03T13:40:56.000Z</time>
      </trkpt>
      <trkpt lat="43.5229" lon="6.24102">
        <ele>210.4</ele>
        <time>2023-12-03T13:41:01.000Z</time>
      </trkpt>
      <trkpt lat="43.5229" lon="6.24097">
        <ele>209.9</ele>
        <time>2023-12-03T13:41:07.000Z</time>
      </trkpt>
      <trkpt lat="43.52287" lon="6.24092">
        <ele>209.4</ele>
        <time>2023-12-03T13:41:12.000Z</time>
      </trkpt>
      <trkpt lat="43.52285" lon="6.24088">
        <ele>209</ele>
        <time>2023-12-03T13:41:16.000Z</time>
      </trkpt>
      <trkpt lat="43.52283" lon="6.24084">
        <ele>208.6</ele>
        <time>2023-12-03T13:41:20.000Z</time>
      </trkpt>
      <trkpt lat="43.52281" lon="6.24079">
        <ele>208</ele>
        <time>2023-12-03T13:41:24.000Z</time>
      </trkpt>
      <trkpt lat="43.52278" lon="6.24075">
        <ele>207.5</ele>
        <time>2023-12-03T13:41:28.000Z</time>
      </trkpt>
      <trkpt lat="43.52275" lon="6.24071">
        <ele>206.8</ele>
        <time>2023-12-03T13:41:34.000Z</time>
      </trkpt>
      <trkpt lat="43.52273" lon="6.24066">
        <ele>206.1</ele>
        <time>2023-12-03T13:41:39.000Z</time>
      </trkpt>
      <trkpt lat="43.5227" lon="6.24062">
        <ele>205.2</ele>
        <time>2023-12-03T13:41:45.000Z</time>
      </trkpt>
      <trkpt lat="43.5227" lon="6.24061">
        <ele>205</ele>
        <time>2023-12-03T13:41:46.000Z</time>
      </trkpt>
      <trkpt lat="43.52265" lon="6.24054">
        <ele>203.7</ele>
        <time>2023-12-03T13:41:55.000Z</time>
      </trkpt>
      <trkpt lat="43.52262" lon="6.2405">
        <ele>203</ele>
        <time>2023-12-03T13:42:00.000Z</time>
      </trkpt>
      <trkpt lat="43.5226" lon="6.24045">
        <ele>202.3</ele>
        <time>2023-12-03T13:42:05.000Z</time>
      </trkpt>
      <trkpt lat="43.52256" lon="6.24041">
        <ele>201.7</ele>
        <time>2023-12-03T13:42:10.000Z</time>
      </trkpt>
      <trkpt lat="43.52254" lon="6.24038">
        <ele>201.3</ele>
        <time>2023-12-03T13:42:13.000Z</time>
      </trkpt>
      <trkpt lat="43.52251" lon="6.24034">
        <ele>200.7</ele>
        <time>2023-12-03T13:42:17.000Z</time>
      </trkpt>
      <trkpt lat="43.52248" lon="6.2403">
        <ele>200</ele>
        <time>2023-12-03T13:42:22.000Z</time>
      </trkpt>
      <trkpt lat="43.52245" lon="6.24025">
        <ele>199.5</ele>
        <time>2023-12-03T13:42:26.000Z</time>
      </trkpt>
      <trkpt lat="43.52242" lon="6.24022">
        <ele>198.8</ele>
        <time>2023-12-03T13:42:30.000Z</time>
      </trkpt>
      <trkpt lat="43.52239" lon="6.24019">
        <ele>198.2</ele>
        <time>2023-12-03T13:42:34.000Z</time>
      </trkpt>
      <trkpt lat="43.52236" lon="6.24015">
        <ele>197.6</ele>
        <time>2023-12-03T13:42:38.000Z</time>
      </trkpt>
      <trkpt lat="43.52233" lon="6.24012">
        <ele>197.1</ele>
        <time>2023-12-03T13:42:42.000Z</time>
      </trkpt>
      <trkpt lat="43.52229" lon="6.2401">
        <ele>196.7</ele>
        <time>2023-12-03T13:42:46.000Z</time>
      </trkpt>
      <trkpt lat="43.52228" lon="6.24009">
        <ele>196.6</ele>
        <time>2023-12-03T13:42:47.000Z</time>
      </trkpt>
      <trkpt lat="43.52224" lon="6.24001">
        <ele>195.9</ele>
        <time>2023-12-03T13:42:53.000Z</time>
      </trkpt>
      <trkpt lat="43.52222" lon="6.23996">
        <ele>195.4</ele>
        <time>2023-12-03T13:42:57.000Z</time>
      </trkpt>
      <trkpt lat="43.5222" lon="6.23991">
        <ele>194.9</ele>
        <time>2023-12-03T13:43:01.000Z</time>
      </trkpt>
      <trkpt lat="43.52219" lon="6.23985">
        <ele>194.4</ele>
        <time>2023-12-03T13:43:05.000Z</time>
      </trkpt>
      <trkpt lat="43.52219" lon="6.2398">
        <ele>194</ele>
        <time>2023-12-03T13:43:08.000Z</time>
      </trkpt>
      <trkpt lat="43.5222" lon="6.23975">
        <ele>193.6</ele>
        <time>2023-12-03T13:43:11.000Z</time>
      </trkpt>
      <trkpt lat="43.5222" lon="6.2397">
        <ele>193.3</ele>
        <time>2023-12-03T13:43:14.000Z</time>
      </trkpt>
      <trkpt lat="43.52219" lon="6.23964">
        <ele>192.9</ele>
        <time>2023-12-03T13:43:18.000Z</time>
      </trkpt>
      <trkpt lat="43.52218" lon="6.2396">
        <ele>192.6</ele>
        <time>2023-12-03T13:43:21.000Z</time>
      </trkpt>
      <trkpt lat="43.52215" lon="6.23956">
        <ele>192.1</ele>
        <time>2023-12-03T13:43:25.000Z</time>
      </trkpt>
      <trkpt lat="43.52212" lon="6.23952">
        <ele>191.8</ele>
        <time>2023-12-03T13:43:28.000Z</time>
      </trkpt>
      <trkpt lat="43.52208" lon="6.2395">
        <ele>191.5</ele>
        <time>2023-12-03T13:43:32.000Z</time>
      </trkpt>
      <trkpt lat="43.52204" lon="6.23947">
        <ele>191.2</ele>
        <time>2023-12-03T13:43:37.000Z</time>
      </trkpt>
      <trkpt lat="43.52202" lon="6.23942">
        <ele>190.8</ele>
        <time>2023-12-03T13:43:50.000Z</time>
      </trkpt>
      <trkpt lat="43.52202" lon="6.23942">
        <ele>190.8</ele>
        <time>2023-12-03T13:43:51.000Z</time>
      </trkpt>
      <trkpt lat="43.52194" lon="6.23941">
        <ele>190.2</ele>
        <time>2023-12-03T13:44:24.000Z</time>
      </trkpt>
      <trkpt lat="43.5219" lon="6.2394">
        <ele>190.1</ele>
        <time>2023-12-03T13:44:29.000Z</time>
      </trkpt>
      <trkpt lat="43.52186" lon="6.23939">
        <ele>190.1</ele>
        <time>2023-12-03T13:44:34.000Z</time>
      </trkpt>
      <trkpt lat="43.52182" lon="6.23939">
        <ele>190.1</ele>
        <time>2023-12-03T13:44:39.000Z</time>
      </trkpt>
      <trkpt lat="43.52178" lon="6.23939">
        <ele>190.1</ele>
        <time>2023-12-03T13:44:44.000Z</time>
      </trkpt>
      <trkpt lat="43.52174" lon="6.23939">
        <ele>190.1</ele>
        <time>2023-12-03T13:44:49.000Z</time>
      </trkpt>
      <trkpt lat="43.5217" lon="6.23938">
        <ele>190.1</ele>
        <time>2023-12-03T13:44:56.000Z</time>
      </trkpt>
      <trkpt lat="43.52169" lon="6.23938">
        <ele>190.1</ele>
        <time>2023-12-03T13:44:57.000Z</time>
      </trkpt>
      <trkpt lat="43.52162" lon="6.23939">
        <ele>190.1</ele>
        <time>2023-12-03T13:45:04.000Z</time>
      </trkpt>
      <trkpt lat="43.52158" lon="6.23938">
        <ele>190.1</ele>
        <time>2023-12-03T13:45:08.000Z</time>
      </trkpt>
      <trkpt lat="43.52155" lon="6.23939">
        <ele>190.3</ele>
        <time>2023-12-03T13:45:12.000Z</time>
      </trkpt>
      <trkpt lat="43.5215" lon="6.23939">
        <ele>190.4</ele>
        <time>2023-12-03T13:45:16.000Z</time>
      </trkpt>
      <trkpt lat="43.52146" lon="6.23939">
        <ele>190.4</ele>
        <time>2023-12-03T13:45:20.000Z</time>
      </trkpt>
      <trkpt lat="43.52141" lon="6.23939">
        <ele>190.5</ele>
        <time>2023-12-03T13:45:24.000Z</time>
      </trkpt>
      <trkpt lat="43.52137" lon="6.23939">
        <ele>190.6</ele>
        <time>2023-12-03T13:45:28.000Z</time>
      </trkpt>
      <trkpt lat="43.52134" lon="6.23939">
        <ele>190.6</ele>
        <time>2023-12-03T13:45:31.000Z</time>
      </trkpt>
      <trkpt lat="43.5213" lon="6.2394">
        <ele>190.6</ele>
        <time>2023-12-03T13:45:34.000Z</time>
      </trkpt>
      <trkpt lat="43.52126" lon="6.2394">
        <ele>190.6</ele>
        <time>2023-12-03T13:45:37.000Z</time>
      </trkpt>
      <trkpt lat="43.52122" lon="6.23941">
        <ele>190.6</ele>
        <time>2023-12-03T13:45:41.000Z</time>
      </trkpt>
      <trkpt lat="43.52118" lon="6.23942">
        <ele>190.6</ele>
        <time>2023-12-03T13:45:45.000Z</time>
      </trkpt>
      <trkpt lat="43.52114" lon="6.23943">
        <ele>190.5</ele>
        <time>2023-12-03T13:45:48.000Z</time>
      </trkpt>
      <trkpt lat="43.52111" lon="6.23944">
        <ele>190.4</ele>
        <time>2023-12-03T13:45:51.000Z</time>
      </trkpt>
      <trkpt lat="43.52106" lon="6.23946">
        <ele>190.3</ele>
        <time>2023-12-03T13:45:55.000Z</time>
      </trkpt>
      <trkpt lat="43.52103" lon="6.23947">
        <ele>190.2</ele>
        <time>2023-12-03T13:46:00.000Z</time>
      </trkpt>
      <trkpt lat="43.52102" lon="6.23947">
        <ele>190.2</ele>
        <time>2023-12-03T13:46:01.000Z</time>
      </trkpt>
      <trkpt lat="43.52095" lon="6.23949">
        <ele>190.1</ele>
        <time>2023-12-03T13:46:08.000Z</time>
      </trkpt>
      <trkpt lat="43.52091" lon="6.23949">
        <ele>190</ele>
        <time>2023-12-03T13:46:11.000Z</time>
      </trkpt>
      <trkpt lat="43.52087" lon="6.2395">
        <ele>190</ele>
        <time>2023-12-03T13:46:15.000Z</time>
      </trkpt>
      <trkpt lat="43.52083" lon="6.2395">
        <ele>190</ele>
        <time>2023-12-03T13:46:19.000Z</time>
      </trkpt>
      <trkpt lat="43.52078" lon="6.23951">
        <ele>190</ele>
        <time>2023-12-03T13:46:23.000Z</time>
      </trkpt>
      <trkpt lat="43.52074" lon="6.23951">
        <ele>189.6</ele>
        <time>2023-12-03T13:46:30.000Z</time>
      </trkpt>
      <trkpt lat="43.5207" lon="6.23952">
        <ele>189.4</ele>
        <time>2023-12-03T13:46:34.000Z</time>
      </trkpt>
      <trkpt lat="43.52067" lon="6.23953">
        <ele>189.3</ele>
        <time>2023-12-03T13:46:38.000Z</time>
      </trkpt>
      <trkpt lat="43.52062" lon="6.23954">
        <ele>189.2</ele>
        <time>2023-12-03T13:46:43.000Z</time>
      </trkpt>
      <trkpt lat="43.52058" lon="6.23952">
        <ele>189.1</ele>
        <time>2023-12-03T13:46:53.000Z</time>
      </trkpt>
      <trkpt lat="43.52054" lon="6.23951">
        <ele>189</ele>
        <time>2023-12-03T13:47:03.000Z</time>
      </trkpt>
      <trkpt lat="43.52053" lon="6.2395">
        <ele>189</ele>
        <time>2023-12-03T13:47:04.000Z</time>
      </trkpt>
      <trkpt lat="43.52046" lon="6.23948">
        <ele>189.1</ele>
        <time>2023-12-03T13:47:37.000Z</time>
      </trkpt>
      <trkpt lat="43.52042" lon="6.23947">
        <ele>189.1</ele>
        <time>2023-12-03T13:47:40.000Z</time>
      </trkpt>
      <trkpt lat="43.52039" lon="6.23948">
        <ele>189.1</ele>
        <time>2023-12-03T13:47:43.000Z</time>
      </trkpt>
      <trkpt lat="43.52034" lon="6.23949">
        <ele>189.1</ele>
        <time>2023-12-03T13:47:47.000Z</time>
      </trkpt>
      <trkpt lat="43.52031" lon="6.23949">
        <ele>189.1</ele>
        <time>2023-12-03T13:47:50.000Z</time>
      </trkpt>
      <trkpt lat="43.52027" lon="6.23949">
        <ele>189.1</ele>
        <time>2023-12-03T13:47:54.000Z</time>
      </trkpt>
      <trkpt lat="43.52022" lon="6.23949">
        <ele>189.1</ele>
        <time>2023-12-03T13:47:58.000Z</time>
      </trkpt>
      <trkpt lat="43.52018" lon="6.2395">
        <ele>189</ele>
        <time>2023-12-03T13:48:03.000Z</time>
      </trkpt>
      <trkpt lat="43.52014" lon="6.2395">
        <ele>188.6</ele>
        <time>2023-12-03T13:48:15.000Z</time>
      </trkpt>
      <trkpt lat="43.52013" lon="6.2395">
        <ele>188.5</ele>
        <time>2023-12-03T13:48:16.000Z</time>
      </trkpt>
      <trkpt lat="43.52006" lon="6.2395">
        <ele>188.4</ele>
        <time>2023-12-03T13:48:22.000Z</time>
      </trkpt>
      <trkpt lat="43.52002" lon="6.2395">
        <ele>188.3</ele>
        <time>2023-12-03T13:48:25.000Z</time>
      </trkpt>
      <trkpt lat="43.51998" lon="6.23951">
        <ele>188.3</ele>
        <time>2023-12-03T13:48:29.000Z</time>
      </trkpt>
      <trkpt lat="43.51995" lon="6.23952">
        <ele>188.1</ele>
        <time>2023-12-03T13:48:33.000Z</time>
      </trkpt>
      <trkpt lat="43.51991" lon="6.23953">
        <ele>187.9</ele>
        <time>2023-12-03T13:48:37.000Z</time>
      </trkpt>
      <trkpt lat="43.51987" lon="6.23955">
        <ele>187.8</ele>
        <time>2023-12-03T13:48:41.000Z</time>
      </trkpt>
      <trkpt lat="43.51983" lon="6.23956">
        <ele>187.7</ele>
        <time>2023-12-03T13:48:45.000Z</time>
      </trkpt>
      <trkpt lat="43.51979" lon="6.23957">
        <ele>187.7</ele>
        <time>2023-12-03T13:48:49.000Z</time>
      </trkpt>
      <trkpt lat="43.51975" lon="6.23959">
        <ele>187.6</ele>
        <time>2023-12-03T13:48:53.000Z</time>
      </trkpt>
      <trkpt lat="43.51972" lon="6.23961">
        <ele>187.5</ele>
        <time>2023-12-03T13:48:56.000Z</time>
      </trkpt>
      <trkpt lat="43.51968" lon="6.23963">
        <ele>187.4</ele>
        <time>2023-12-03T13:49:00.000Z</time>
      </trkpt>
      <trkpt lat="43.51964" lon="6.23966">
        <ele>187.3</ele>
        <time>2023-12-03T13:49:04.000Z</time>
      </trkpt>
      <trkpt lat="43.5196" lon="6.23969">
        <ele>187</ele>
        <time>2023-12-03T13:49:08.000Z</time>
      </trkpt>
      <trkpt lat="43.51957" lon="6.23972">
        <ele>186.9</ele>
        <time>2023-12-03T13:49:12.000Z</time>
      </trkpt>
      <trkpt lat="43.51953" lon="6.23974">
        <ele>186.7</ele>
        <time>2023-12-03T13:49:16.000Z</time>
      </trkpt>
      <trkpt lat="43.51952" lon="6.23975">
        <ele>186.7</ele>
        <time>2023-12-03T13:49:17.000Z</time>
      </trkpt>
      <trkpt lat="43.51947" lon="6.23979">
        <ele>186.5</ele>
        <time>2023-12-03T13:49:22.000Z</time>
      </trkpt>
      <trkpt lat="43.51944" lon="6.23982">
        <ele>186.4</ele>
        <time>2023-12-03T13:49:25.000Z</time>
      </trkpt>
      <trkpt lat="43.51941" lon="6.23985">
        <ele>186.2</ele>
        <time>2023-12-03T13:49:29.000Z</time>
      </trkpt>
      <trkpt lat="43.51937" lon="6.23987">
        <ele>186.1</ele>
        <time>2023-12-03T13:49:32.000Z</time>
      </trkpt>
      <trkpt lat="43.51933" lon="6.23989">
        <ele>186</ele>
        <time>2023-12-03T13:49:36.000Z</time>
      </trkpt>
      <trkpt lat="43.5193" lon="6.2399">
        <ele>185.9</ele>
        <time>2023-12-03T13:49:39.000Z</time>
      </trkpt>
      <trkpt lat="43.51926" lon="6.23992">
        <ele>185.9</ele>
        <time>2023-12-03T13:49:43.000Z</time>
      </trkpt>
      <trkpt lat="43.51922" lon="6.23993">
        <ele>185.8</ele>
        <time>2023-12-03T13:49:46.000Z</time>
      </trkpt>
      <trkpt lat="43.51919" lon="6.23993">
        <ele>185.8</ele>
        <time>2023-12-03T13:49:49.000Z</time>
      </trkpt>
      <trkpt lat="43.51915" lon="6.23994">
        <ele>185.8</ele>
        <time>2023-12-03T13:49:52.000Z</time>
      </trkpt>
      <trkpt lat="43.51912" lon="6.23993">
        <ele>185.7</ele>
        <time>2023-12-03T13:49:55.000Z</time>
      </trkpt>
      <trkpt lat="43.51909" lon="6.23994">
        <ele>185.7</ele>
        <time>2023-12-03T13:49:58.000Z</time>
      </trkpt>
      <trkpt lat="43.51904" lon="6.23993">
        <ele>185.6</ele>
        <time>2023-12-03T13:50:02.000Z</time>
      </trkpt>
      <trkpt lat="43.51901" lon="6.23993">
        <ele>185.6</ele>
        <time>2023-12-03T13:50:05.000Z</time>
      </trkpt>
      <trkpt lat="43.51897" lon="6.23993">
        <ele>185.5</ele>
        <time>2023-12-03T13:50:08.000Z</time>
      </trkpt>
      <trkpt lat="43.51893" lon="6.23993">
        <ele>185.5</ele>
        <time>2023-12-03T13:50:11.000Z</time>
      </trkpt>
      <trkpt lat="43.5189" lon="6.23994">
        <ele>185.4</ele>
        <time>2023-12-03T13:50:14.000Z</time>
      </trkpt>
      <trkpt lat="43.51887" lon="6.23994">
        <ele>185.4</ele>
        <time>2023-12-03T13:50:17.000Z</time>
      </trkpt>
      <trkpt lat="43.51885" lon="6.23995">
        <ele>185.4</ele>
        <time>2023-12-03T13:50:18.000Z</time>
      </trkpt>
      <trkpt lat="43.5188" lon="6.23995">
        <ele>185.3</ele>
        <time>2023-12-03T13:50:23.000Z</time>
      </trkpt>
      <trkpt lat="43.51876" lon="6.23997">
        <ele>185.3</ele>
        <time>2023-12-03T13:50:27.000Z</time>
      </trkpt>
      <trkpt lat="43.51871" lon="6.23998">
        <ele>185.3</ele>
        <time>2023-12-03T13:50:31.000Z</time>
      </trkpt>
      <trkpt lat="43.51868" lon="6.23998">
        <ele>185.2</ele>
        <time>2023-12-03T13:50:34.000Z</time>
      </trkpt>
      <trkpt lat="43.51864" lon="6.23999">
        <ele>185.2</ele>
        <time>2023-12-03T13:50:37.000Z</time>
      </trkpt>
      <trkpt lat="43.51861" lon="6.23999">
        <ele>185.2</ele>
        <time>2023-12-03T13:50:40.000Z</time>
      </trkpt>
      <trkpt lat="43.51857" lon="6.23999">
        <ele>185.2</ele>
        <time>2023-12-03T13:50:43.000Z</time>
      </trkpt>
      <trkpt lat="43.51854" lon="6.24">
        <ele>185.1</ele>
        <time>2023-12-03T13:50:46.000Z</time>
      </trkpt>
      <trkpt lat="43.51849" lon="6.24001">
        <ele>185.1</ele>
        <time>2023-12-03T13:50:50.000Z</time>
      </trkpt>
      <trkpt lat="43.51846" lon="6.24002">
        <ele>185.1</ele>
        <time>2023-12-03T13:50:53.000Z</time>
      </trkpt>
      <trkpt lat="43.51842" lon="6.24003">
        <ele>185</ele>
        <time>2023-12-03T13:50:57.000Z</time>
      </trkpt>
      <trkpt lat="43.51838" lon="6.24003">
        <ele>185</ele>
        <time>2023-12-03T13:51:01.000Z</time>
      </trkpt>
      <trkpt lat="43.51834" lon="6.24004">
        <ele>185</ele>
        <time>2023-12-03T13:51:04.000Z</time>
      </trkpt>
      <trkpt lat="43.51831" lon="6.24003">
        <ele>185</ele>
        <time>2023-12-03T13:51:07.000Z</time>
      </trkpt>
      <trkpt lat="43.51828" lon="6.24004">
        <ele>184.9</ele>
        <time>2023-12-03T13:51:10.000Z</time>
      </trkpt>
      <trkpt lat="43.51823" lon="6.24004">
        <ele>184.9</ele>
        <time>2023-12-03T13:51:14.000Z</time>
      </trkpt>
      <trkpt lat="43.51819" lon="6.24002">
        <ele>184.8</ele>
        <time>2023-12-03T13:51:18.000Z</time>
      </trkpt>
      <trkpt lat="43.51818" lon="6.24002">
        <ele>184.8</ele>
        <time>2023-12-03T13:51:19.000Z</time>
      </trkpt>
      <trkpt lat="43.51811" lon="6.24003">
        <ele>184.7</ele>
        <time>2023-12-03T13:51:26.000Z</time>
      </trkpt>
      <trkpt lat="43.51807" lon="6.24005">
        <ele>184.7</ele>
        <time>2023-12-03T13:51:31.000Z</time>
      </trkpt>
      <trkpt lat="43.51802" lon="6.24005">
        <ele>184.6</ele>
        <time>2023-12-03T13:51:36.000Z</time>
      </trkpt>
      <trkpt lat="43.51799" lon="6.24003">
        <ele>184.5</ele>
        <time>2023-12-03T13:51:40.000Z</time>
      </trkpt>
      <trkpt lat="43.51795" lon="6.24">
        <ele>184.4</ele>
        <time>2023-12-03T13:51:46.000Z</time>
      </trkpt>
      <trkpt lat="43.51798" lon="6.24003">
        <ele>183.9</ele>
        <time>2023-12-03T13:52:28.000Z</time>
      </trkpt>
      <trkpt lat="43.51799" lon="6.24004">
        <ele>183.9</ele>
        <time>2023-12-03T13:52:29.000Z</time>
      </trkpt>
      <trkpt lat="43.51804" lon="6.24011">
        <ele>184.8</ele>
        <time>2023-12-03T13:53:09.000Z</time>
      </trkpt>
      <trkpt lat="43.51805" lon="6.24017">
        <ele>184.9</ele>
        <time>2023-12-03T13:53:14.000Z</time>
      </trkpt>
      <trkpt lat="43.51805" lon="6.24022">
        <ele>184.9</ele>
        <time>2023-12-03T13:53:18.000Z</time>
      </trkpt>
      <trkpt lat="43.51805" lon="6.24028">
        <ele>184.9</ele>
        <time>2023-12-03T13:53:22.000Z</time>
      </trkpt>
      <trkpt lat="43.51806" lon="6.24033">
        <ele>184.9</ele>
        <time>2023-12-03T13:53:26.000Z</time>
      </trkpt>
      <trkpt lat="43.51806" lon="6.24038">
        <ele>185</ele>
        <time>2023-12-03T13:53:30.000Z</time>
      </trkpt>
      <trkpt lat="43.51806" lon="6.2404">
        <ele>185</ele>
        <time>2023-12-03T13:53:31.000Z</time>
      </trkpt>
      <trkpt lat="43.51806" lon="6.24049">
        <ele>185.2</ele>
        <time>2023-12-03T13:53:38.000Z</time>
      </trkpt>
      <trkpt lat="43.51807" lon="6.24055">
        <ele>185.3</ele>
        <time>2023-12-03T13:53:42.000Z</time>
      </trkpt>
      <trkpt lat="43.51808" lon="6.2406">
        <ele>185.5</ele>
        <time>2023-12-03T13:53:46.000Z</time>
      </trkpt>
      <trkpt lat="43.51809" lon="6.24065">
        <ele>185.6</ele>
        <time>2023-12-03T13:53:50.000Z</time>
      </trkpt>
      <trkpt lat="43.5181" lon="6.24071">
        <ele>185.7</ele>
        <time>2023-12-03T13:53:55.000Z</time>
      </trkpt>
      <trkpt lat="43.51812" lon="6.24074">
        <ele>185.7</ele>
        <time>2023-12-03T13:53:59.000Z</time>
      </trkpt>
      <trkpt lat="43.51816" lon="6.24076">
        <ele>185.6</ele>
        <time>2023-12-03T13:54:03.000Z</time>
      </trkpt>
      <trkpt lat="43.5182" lon="6.24079">
        <ele>185.6</ele>
        <time>2023-12-03T13:54:08.000Z</time>
      </trkpt>
      <trkpt lat="43.51823" lon="6.24082">
        <ele>185.6</ele>
        <time>2023-12-03T13:54:12.000Z</time>
      </trkpt>
      <trkpt lat="43.51826" lon="6.24086">
        <ele>185.6</ele>
        <time>2023-12-03T13:54:16.000Z</time>
      </trkpt>
      <trkpt lat="43.51828" lon="6.24089">
        <ele>185.5</ele>
        <time>2023-12-03T13:54:20.000Z</time>
      </trkpt>
      <trkpt lat="43.51832" lon="6.24092">
        <ele>185.5</ele>
        <time>2023-12-03T13:54:24.000Z</time>
      </trkpt>
      <trkpt lat="43.51835" lon="6.24095">
        <ele>185.5</ele>
        <time>2023-12-03T13:54:27.000Z</time>
      </trkpt>
      <trkpt lat="43.51838" lon="6.24099">
        <ele>185.5</ele>
        <time>2023-12-03T13:54:31.000Z</time>
      </trkpt>
      <trkpt lat="43.51839" lon="6.24099">
        <ele>185.5</ele>
        <time>2023-12-03T13:54:32.000Z</time>
      </trkpt>
      <trkpt lat="43.51844" lon="6.24106">
        <ele>185.5</ele>
        <time>2023-12-03T13:54:39.000Z</time>
      </trkpt>
      <trkpt lat="43.51846" lon="6.2411">
        <ele>185.5</ele>
        <time>2023-12-03T13:54:42.000Z</time>
      </trkpt>
      <trkpt lat="43.51849" lon="6.24114">
        <ele>185.5</ele>
        <time>2023-12-03T13:54:45.900Z</time>
      </trkpt>
      <trkpt lat="43.51851" lon="6.24119">
        <ele>185.5</ele>
        <time>2023-12-03T13:54:50.000Z</time>
      </trkpt>
      <trkpt lat="43.51854" lon="6.24123">
        <ele>185.5</ele>
        <time>2023-12-03T13:54:53.000Z</time>
      </trkpt>
      <trkpt lat="43.51856" lon="6.24129">
        <ele>185.5</ele>
        <time>2023-12-03T13:54:57.000Z</time>
      </trkpt>
      <trkpt lat="43.51858" lon="6.24134">
        <ele>185.6</ele>
        <time>2023-12-03T13:55:01.000Z</time>
      </trkpt>
      <trkpt lat="43.51859" lon="6.24139">
        <ele>185.6</ele>
        <time>2023-12-03T13:55:05.000Z</time>
      </trkpt>
      <trkpt lat="43.51861" lon="6.24144">
        <ele>185.5</ele>
        <time>2023-12-03T13:55:09.000Z</time>
      </trkpt>
      <trkpt lat="43.51862" lon="6.24149">
        <ele>185.4</ele>
        <time>2023-12-03T13:55:13.000Z</time>
      </trkpt>
      <trkpt lat="43.51863" lon="6.24155">
        <ele>185.2</ele>
        <time>2023-12-03T13:55:18.000Z</time>
      </trkpt>
      <trkpt lat="43.51863" lon="6.2416">
        <ele>184.9</ele>
        <time>2023-12-03T13:55:23.000Z</time>
      </trkpt>
      <trkpt lat="43.51864" lon="6.24166">
        <ele>184.6</ele>
        <time>2023-12-03T13:55:27.000Z</time>
      </trkpt>
      <trkpt lat="43.51864" lon="6.24172">
        <ele>184</ele>
        <time>2023-12-03T13:55:32.000Z</time>
      </trkpt>
      <trkpt lat="43.51864" lon="6.24173">
        <ele>183.9</ele>
        <time>2023-12-03T13:55:33.000Z</time>
      </trkpt>
      <trkpt lat="43.51865" lon="6.24184">
        <ele>182.7</ele>
        <time>2023-12-03T13:55:44.000Z</time>
      </trkpt>
      <trkpt lat="43.51867" lon="6.2419">
        <ele>182.2</ele>
        <time>2023-12-03T13:55:48.000Z</time>
      </trkpt>
      <trkpt lat="43.51868" lon="6.24194">
        <ele>181.9</ele>
        <time>2023-12-03T13:55:51.000Z</time>
      </trkpt>
      <trkpt lat="43.51869" lon="6.24199">
        <ele>181.5</ele>
        <time>2023-12-03T13:55:54.000Z</time>
      </trkpt>
      <trkpt lat="43.5187" lon="6.24205">
        <ele>180.9</ele>
        <time>2023-12-03T13:55:58.000Z</time>
      </trkpt>
      <trkpt lat="43.51871" lon="6.24211">
        <ele>180.2</ele>
        <time>2023-12-03T13:56:03.000Z</time>
      </trkpt>
      <trkpt lat="43.51871" lon="6.24217">
        <ele>179.4</ele>
        <time>2023-12-03T13:56:09.000Z</time>
      </trkpt>
      <trkpt lat="43.5187" lon="6.24222">
        <ele>178.7</ele>
        <time>2023-12-03T13:56:14.000Z</time>
      </trkpt>
      <trkpt lat="43.51869" lon="6.24227">
        <ele>178.1</ele>
        <time>2023-12-03T13:56:18.000Z</time>
      </trkpt>
      <trkpt lat="43.5187" lon="6.24233">
        <ele>177.5</ele>
        <time>2023-12-03T13:56:23.000Z</time>
      </trkpt>
      <trkpt lat="43.51871" lon="6.24239">
        <ele>176.8</ele>
        <time>2023-12-03T13:56:28.000Z</time>
      </trkpt>
      <trkpt lat="43.5187" lon="6.24245">
        <ele>176.2</ele>
        <time>2023-12-03T13:56:33.000Z</time>
      </trkpt>
      <trkpt lat="43.5187" lon="6.24246">
        <ele>176.1</ele>
        <time>2023-12-03T13:56:34.000Z</time>
      </trkpt>
      <trkpt lat="43.51871" lon="6.24257">
        <ele>174.7</ele>
        <time>2023-12-03T13:56:46.000Z</time>
      </trkpt>
      <trkpt lat="43.51871" lon="6.24262">
        <ele>173.5</ele>
        <time>2023-12-03T13:56:53.000Z</time>
      </trkpt>
      <trkpt lat="43.5187" lon="6.24268">
        <ele>172.7</ele>
        <time>2023-12-03T13:56:59.000Z</time>
      </trkpt>
      <trkpt lat="43.5187" lon="6.24274">
        <ele>172.1</ele>
        <time>2023-12-03T13:57:04.000Z</time>
      </trkpt>
      <trkpt lat="43.51869" lon="6.2428">
        <ele>171.5</ele>
        <time>2023-12-03T13:57:09.000Z</time>
      </trkpt>
      <trkpt lat="43.51867" lon="6.24285">
        <ele>171.1</ele>
        <time>2023-12-03T13:57:13.000Z</time>
      </trkpt>
      <trkpt lat="43.51866" lon="6.2429">
        <ele>170.8</ele>
        <time>2023-12-03T13:57:17.000Z</time>
      </trkpt>
      <trkpt lat="43.51865" lon="6.24295">
        <ele>170.7</ele>
        <time>2023-12-03T13:57:20.000Z</time>
      </trkpt>
      <trkpt lat="43.51863" lon="6.24299">
        <ele>170.5</ele>
        <time>2023-12-03T13:57:23.000Z</time>
      </trkpt>
      <trkpt lat="43.51862" lon="6.24305">
        <ele>170.4</ele>
        <time>2023-12-03T13:57:26.000Z</time>
      </trkpt>
      <trkpt lat="43.51862" lon="6.24311">
        <ele>170.2</ele>
        <time>2023-12-03T13:57:29.000Z</time>
      </trkpt>
      <trkpt lat="43.51861" lon="6.24316">
        <ele>170</ele>
        <time>2023-12-03T13:57:33.000Z</time>
      </trkpt>
      <trkpt lat="43.5186" lon="6.24322">
        <ele>169.6</ele>
        <time>2023-12-03T13:57:38.000Z</time>
      </trkpt>
      <trkpt lat="43.51859" lon="6.24324">
        <ele>169.6</ele>
        <time>2023-12-03T13:57:39.000Z</time>
      </trkpt>
      <trkpt lat="43.51857" lon="6.24331">
        <ele>169.3</ele>
        <time>2023-12-03T13:57:44.000Z</time>
      </trkpt>
      <trkpt lat="43.51856" lon="6.24335">
        <ele>169.1</ele>
        <time>2023-12-03T13:57:47.000Z</time>
      </trkpt>
      <trkpt lat="43.51854" lon="6.24341">
        <ele>168.9</ele>
        <time>2023-12-03T13:57:51.000Z</time>
      </trkpt>
      <trkpt lat="43.51852" lon="6.24346">
        <ele>168.6</ele>
        <time>2023-12-03T13:57:55.000Z</time>
      </trkpt>
      <trkpt lat="43.51852" lon="6.24351">
        <ele>168.5</ele>
        <time>2023-12-03T13:57:59.000Z</time>
      </trkpt>
      <trkpt lat="43.5185" lon="6.24356">
        <ele>168.4</ele>
        <time>2023-12-03T13:58:02.000Z</time>
      </trkpt>
      <trkpt lat="43.51849" lon="6.2436">
        <ele>168.4</ele>
        <time>2023-12-03T13:58:04.000Z</time>
      </trkpt>
      <trkpt lat="43.51847" lon="6.24365">
        <ele>168.4</ele>
        <time>2023-12-03T13:58:07.000Z</time>
      </trkpt>
      <trkpt lat="43.51846" lon="6.2437">
        <ele>168.3</ele>
        <time>2023-12-03T13:58:10.000Z</time>
      </trkpt>
      <trkpt lat="43.51845" lon="6.24375">
        <ele>168.3</ele>
        <time>2023-12-03T13:58:13.000Z</time>
      </trkpt>
      <trkpt lat="43.51843" lon="6.24381">
        <ele>168.3</ele>
        <time>2023-12-03T13:58:16.000Z</time>
      </trkpt>
      <trkpt lat="43.51841" lon="6.24386">
        <ele>168.2</ele>
        <time>2023-12-03T13:58:20.000Z</time>
      </trkpt>
      <trkpt lat="43.51839" lon="6.24391">
        <ele>168.1</ele>
        <time>2023-12-03T13:58:24.000Z</time>
      </trkpt>
      <trkpt lat="43.51837" lon="6.24396">
        <ele>168.1</ele>
        <time>2023-12-03T13:58:27.000Z</time>
      </trkpt>
      <trkpt lat="43.51835" lon="6.244">
        <ele>168</ele>
        <time>2023-12-03T13:58:30.000Z</time>
      </trkpt>
      <trkpt lat="43.51833" lon="6.24404">
        <ele>168</ele>
        <time>2023-12-03T13:58:33.000Z</time>
      </trkpt>
      <trkpt lat="43.51832" lon="6.24409">
        <ele>167.9</ele>
        <time>2023-12-03T13:58:36.000Z</time>
      </trkpt>
      <trkpt lat="43.5183" lon="6.24413">
        <ele>167.9</ele>
        <time>2023-12-03T13:58:39.000Z</time>
      </trkpt>
      <trkpt lat="43.5183" lon="6.24415">
        <ele>167.9</ele>
        <time>2023-12-03T13:58:40.000Z</time>
      </trkpt>
      <trkpt lat="43.51828" lon="6.24422">
        <ele>167.8</ele>
        <time>2023-12-03T13:58:45.000Z</time>
      </trkpt>
      <trkpt lat="43.51826" lon="6.24427">
        <ele>168</ele>
        <time>2023-12-03T13:58:49.000Z</time>
      </trkpt>
      <trkpt lat="43.51824" lon="6.24432">
        <ele>168.1</ele>
        <time>2023-12-03T13:58:52.000Z</time>
      </trkpt>
      <trkpt lat="43.51823" lon="6.24436">
        <ele>168.2</ele>
        <time>2023-12-03T13:58:55.000Z</time>
      </trkpt>
      <trkpt lat="43.51821" lon="6.2444">
        <ele>168.4</ele>
        <time>2023-12-03T13:58:58.000Z</time>
      </trkpt>
      <trkpt lat="43.51819" lon="6.24445">
        <ele>168.5</ele>
        <time>2023-12-03T13:59:02.000Z</time>
      </trkpt>
      <trkpt lat="43.51817" lon="6.2445">
        <ele>168.5</ele>
        <time>2023-12-03T13:59:05.000Z</time>
      </trkpt>
      <trkpt lat="43.51815" lon="6.24454">
        <ele>168.6</ele>
        <time>2023-12-03T13:59:09.000Z</time>
      </trkpt>
      <trkpt lat="43.51812" lon="6.24457">
        <ele>168.6</ele>
        <time>2023-12-03T13:59:13.000Z</time>
      </trkpt>
      <trkpt lat="43.51808" lon="6.24457">
        <ele>168.4</ele>
        <time>2023-12-03T13:59:17.000Z</time>
      </trkpt>
      <trkpt lat="43.51805" lon="6.24454">
        <ele>167.8</ele>
        <time>2023-12-03T13:59:22.000Z</time>
      </trkpt>
      <trkpt lat="43.51802" lon="6.2445">
        <ele>167.1</ele>
        <time>2023-12-03T13:59:27.000Z</time>
      </trkpt>
      <trkpt lat="43.51799" lon="6.24446">
        <ele>166.7</ele>
        <time>2023-12-03T13:59:31.000Z</time>
      </trkpt>
      <trkpt lat="43.51794" lon="6.24447">
        <ele>166.1</ele>
        <time>2023-12-03T13:59:36.000Z</time>
      </trkpt>
      <trkpt lat="43.51791" lon="6.24451">
        <ele>165.7</ele>
        <time>2023-12-03T13:59:40.000Z</time>
      </trkpt>
      <trkpt lat="43.51791" lon="6.24452">
        <ele>165.6</ele>
        <time>2023-12-03T13:59:41.000Z</time>
      </trkpt>
      <trkpt lat="43.51785" lon="6.24458">
        <ele>165.1</ele>
        <time>2023-12-03T13:59:48.000Z</time>
      </trkpt>
      <trkpt lat="43.51782" lon="6.24462">
        <ele>164.9</ele>
        <time>2023-12-03T13:59:52.000Z</time>
      </trkpt>
      <trkpt lat="43.51779" lon="6.24465">
        <ele>164.7</ele>
        <time>2023-12-03T13:59:55.000Z</time>
      </trkpt>
      <trkpt lat="43.51775" lon="6.24468">
        <ele>164.5</ele>
        <time>2023-12-03T13:59:59.000Z</time>
      </trkpt>
      <trkpt lat="43.51772" lon="6.24472">
        <ele>164.4</ele>
        <time>2023-12-03T14:00:03.000Z</time>
      </trkpt>
      <trkpt lat="43.51769" lon="6.24476">
        <ele>164.3</ele>
        <time>2023-12-03T14:00:07.000Z</time>
      </trkpt>
      <trkpt lat="43.51766" lon="6.24479">
        <ele>164.2</ele>
        <time>2023-12-03T14:00:10.000Z</time>
      </trkpt>
      <trkpt lat="43.51764" lon="6.24482">
        <ele>164.2</ele>
        <time>2023-12-03T14:00:13.000Z</time>
      </trkpt>
      <trkpt lat="43.51761" lon="6.24485">
        <ele>164.1</ele>
        <time>2023-12-03T14:00:16.000Z</time>
      </trkpt>
      <trkpt lat="43.51758" lon="6.24489">
        <ele>164.1</ele>
        <time>2023-12-03T14:00:20.000Z</time>
      </trkpt>
      <trkpt lat="43.51755" lon="6.24492">
        <ele>164</ele>
        <time>2023-12-03T14:00:24.000Z</time>
      </trkpt>
      <trkpt lat="43.51751" lon="6.24495">
        <ele>164</ele>
        <time>2023-12-03T14:00:28.000Z</time>
      </trkpt>
      <trkpt lat="43.51748" lon="6.24497">
        <ele>164</ele>
        <time>2023-12-03T14:00:32.000Z</time>
      </trkpt>
      <trkpt lat="43.51744" lon="6.24499">
        <ele>164</ele>
        <time>2023-12-03T14:00:36.000Z</time>
      </trkpt>
      <trkpt lat="43.51741" lon="6.245">
        <ele>164</ele>
        <time>2023-12-03T14:00:39.000Z</time>
      </trkpt>
      <trkpt lat="43.51736" lon="6.24502">
        <ele>163.9</ele>
        <time>2023-12-03T14:00:43.000Z</time>
      </trkpt>
      <trkpt lat="43.51735" lon="6.24502">
        <ele>163.9</ele>
        <time>2023-12-03T14:00:44.000Z</time>
      </trkpt>
      <trkpt lat="43.51728" lon="6.24505">
        <ele>163.9</ele>
        <time>2023-12-03T14:00:51.000Z</time>
      </trkpt>
      <trkpt lat="43.51724" lon="6.24505">
        <ele>163.9</ele>
        <time>2023-12-03T14:00:55.000Z</time>
      </trkpt>
      <trkpt lat="43.5172" lon="6.24504">
        <ele>163.8</ele>
        <time>2023-12-03T14:00:58.000Z</time>
      </trkpt>
      <trkpt lat="43.51717" lon="6.24503">
        <ele>163.6</ele>
        <time>2023-12-03T14:01:01.000Z</time>
      </trkpt>
      <trkpt lat="43.51713" lon="6.24501">
        <ele>163.4</ele>
        <time>2023-12-03T14:01:05.000Z</time>
      </trkpt>
      <trkpt lat="43.51709" lon="6.245">
        <ele>163.3</ele>
        <time>2023-12-03T14:01:08.000Z</time>
      </trkpt>
      <trkpt lat="43.51705" lon="6.24499">
        <ele>163.2</ele>
        <time>2023-12-03T14:01:12.000Z</time>
      </trkpt>
      <trkpt lat="43.51701" lon="6.24498">
        <ele>163.2</ele>
        <time>2023-12-03T14:01:16.000Z</time>
      </trkpt>
      <trkpt lat="43.51698" lon="6.24497">
        <ele>163.1</ele>
        <time>2023-12-03T14:01:19.000Z</time>
      </trkpt>
      <trkpt lat="43.51694" lon="6.24496">
        <ele>163</ele>
        <time>2023-12-03T14:01:22.000Z</time>
      </trkpt>
      <trkpt lat="43.5169" lon="6.24494">
        <ele>162.9</ele>
        <time>2023-12-03T14:01:26.000Z</time>
      </trkpt>
      <trkpt lat="43.51686" lon="6.24492">
        <ele>162.9</ele>
        <time>2023-12-03T14:01:30.000Z</time>
      </trkpt>
      <trkpt lat="43.51682" lon="6.2449">
        <ele>162.9</ele>
        <time>2023-12-03T14:01:34.000Z</time>
      </trkpt>
      <trkpt lat="43.51678" lon="6.24489">
        <ele>162.9</ele>
        <time>2023-12-03T14:01:39.000Z</time>
      </trkpt>
      <trkpt lat="43.51674" lon="6.24486">
        <ele>162.9</ele>
        <time>2023-12-03T14:01:43.000Z</time>
      </trkpt>
      <trkpt lat="43.51671" lon="6.24484">
        <ele>162.9</ele>
        <time>2023-12-03T14:01:46.000Z</time>
      </trkpt>
      <trkpt lat="43.5167" lon="6.24484">
        <ele>162.9</ele>
        <time>2023-12-03T14:01:47.000Z</time>
      </trkpt>
      <trkpt lat="43.51664" lon="6.24482">
        <ele>162.8</ele>
        <time>2023-12-03T14:01:53.000Z</time>
      </trkpt>
      <trkpt lat="43.51659" lon="6.2448">
        <ele>162.7</ele>
        <time>2023-12-03T14:01:58.000Z</time>
      </trkpt>
      <trkpt lat="43.51655" lon="6.24481">
        <ele>162.7</ele>
        <time>2023-12-03T14:02:02.000Z</time>
      </trkpt>
      <trkpt lat="43.51652" lon="6.24481">
        <ele>162.7</ele>
        <time>2023-12-03T14:02:06.000Z</time>
      </trkpt>
      <trkpt lat="43.51649" lon="6.24482">
        <ele>162.8</ele>
        <time>2023-12-03T14:02:09.000Z</time>
      </trkpt>
      <trkpt lat="43.51645" lon="6.24483">
        <ele>162.8</ele>
        <time>2023-12-03T14:02:12.000Z</time>
      </trkpt>
      <trkpt lat="43.51641" lon="6.24482">
        <ele>162.9</ele>
        <time>2023-12-03T14:02:15.000Z</time>
      </trkpt>
      <trkpt lat="43.51637" lon="6.24481">
        <ele>162.9</ele>
        <time>2023-12-03T14:02:18.000Z</time>
      </trkpt>
      <trkpt lat="43.51634" lon="6.24478">
        <ele>163</ele>
        <time>2023-12-03T14:02:21.000Z</time>
      </trkpt>
      <trkpt lat="43.5163" lon="6.24478">
        <ele>163</ele>
        <time>2023-12-03T14:02:25.000Z</time>
      </trkpt>
      <trkpt lat="43.51626" lon="6.24478">
        <ele>162.9</ele>
        <time>2023-12-03T14:02:28.000Z</time>
      </trkpt>
      <trkpt lat="43.51622" lon="6.24477">
        <ele>162.8</ele>
        <time>2023-12-03T14:02:32.000Z</time>
      </trkpt>
      <trkpt lat="43.51618" lon="6.24476">
        <ele>162.7</ele>
        <time>2023-12-03T14:02:36.000Z</time>
      </trkpt>
      <trkpt lat="43.51615" lon="6.24476">
        <ele>162.7</ele>
        <time>2023-12-03T14:02:39.000Z</time>
      </trkpt>
      <trkpt lat="43.5161" lon="6.24475">
        <ele>162.5</ele>
        <time>2023-12-03T14:02:43.000Z</time>
      </trkpt>
      <trkpt lat="43.51606" lon="6.24475">
        <ele>162.3</ele>
        <time>2023-12-03T14:02:47.000Z</time>
      </trkpt>
      <trkpt lat="43.51605" lon="6.24474">
        <ele>162.3</ele>
        <time>2023-12-03T14:02:48.000Z</time>
      </trkpt>
      <trkpt lat="43.51598" lon="6.24473">
        <ele>161.6</ele>
        <time>2023-12-03T14:03:00.000Z</time>
      </trkpt>
      <trkpt lat="43.51594" lon="6.24472">
        <ele>161.2</ele>
        <time>2023-12-03T14:03:05.000Z</time>
      </trkpt>
      <trkpt lat="43.5159" lon="6.24472">
        <ele>160.8</ele>
        <time>2023-12-03T14:03:10.000Z</time>
      </trkpt>
      <trkpt lat="43.51587" lon="6.24472">
        <ele>160.5</ele>
        <time>2023-12-03T14:03:13.000Z</time>
      </trkpt>
      <trkpt lat="43.51583" lon="6.24472">
        <ele>160.1</ele>
        <time>2023-12-03T14:03:17.000Z</time>
      </trkpt>
      <trkpt lat="43.51579" lon="6.24471">
        <ele>159.5</ele>
        <time>2023-12-03T14:03:21.000Z</time>
      </trkpt>
      <trkpt lat="43.51576" lon="6.24467">
        <ele>159</ele>
        <time>2023-12-03T14:03:26.000Z</time>
      </trkpt>
      <trkpt lat="43.51575" lon="6.24462">
        <ele>158.5</ele>
        <time>2023-12-03T14:03:31.000Z</time>
      </trkpt>
      <trkpt lat="43.51574" lon="6.24456">
        <ele>158</ele>
        <time>2023-12-03T14:03:36.000Z</time>
      </trkpt>
      <trkpt lat="43.51575" lon="6.24451">
        <ele>157.3</ele>
        <time>2023-12-03T14:03:47.000Z</time>
      </trkpt>
      <trkpt lat="43.51576" lon="6.24445">
        <ele>157</ele>
        <time>2023-12-03T14:03:56.000Z</time>
      </trkpt>
      <trkpt lat="43.51577" lon="6.24445">
        <ele>157</ele>
        <time>2023-12-03T14:03:57.000Z</time>
      </trkpt>
      <trkpt lat="43.51571" lon="6.24437">
        <ele>156.5</ele>
        <time>2023-12-03T14:04:23.000Z</time>
      </trkpt>
      <trkpt lat="43.51569" lon="6.24432">
        <ele>156.5</ele>
        <time>2023-12-03T14:04:36.000Z</time>
      </trkpt>
      <trkpt lat="43.51567" lon="6.24427">
        <ele>156.5</ele>
        <time>2023-12-03T14:04:41.000Z</time>
      </trkpt>
      <trkpt lat="43.51564" lon="6.24423">
        <ele>156.5</ele>
        <time>2023-12-03T14:04:45.000Z</time>
      </trkpt>
      <trkpt lat="43.51562" lon="6.24418">
        <ele>156.5</ele>
        <time>2023-12-03T14:04:49.000Z</time>
      </trkpt>
      <trkpt lat="43.5156" lon="6.24414">
        <ele>156.6</ele>
        <time>2023-12-03T14:04:52.000Z</time>
      </trkpt>
      <trkpt lat="43.51558" lon="6.2441">
        <ele>156.6</ele>
        <time>2023-12-03T14:04:55.000Z</time>
      </trkpt>
      <trkpt lat="43.51557" lon="6.24405">
        <ele>156.6</ele>
        <time>2023-12-03T14:04:59.000Z</time>
      </trkpt>
      <trkpt lat="43.51557" lon="6.24404">
        <ele>156.6</ele>
        <time>2023-12-03T14:05:00.000Z</time>
      </trkpt>
      <trkpt lat="43.51559" lon="6.24395">
        <ele>156.7</ele>
        <time>2023-12-03T14:05:07.000Z</time>
      </trkpt>
      <trkpt lat="43.51561" lon="6.2439">
        <ele>156.7</ele>
        <time>2023-12-03T14:05:11.000Z</time>
      </trkpt>
      <trkpt lat="43.51563" lon="6.24384">
        <ele>156.8</ele>
        <time>2023-12-03T14:05:16.000Z</time>
      </trkpt>
      <trkpt lat="43.51563" lon="6.24379">
        <ele>156.8</ele>
        <time>2023-12-03T14:05:22.000Z</time>
      </trkpt>
      <trkpt lat="43.51565" lon="6.24375">
        <ele>156.8</ele>
        <time>2023-12-03T14:05:26.000Z</time>
      </trkpt>
      <trkpt lat="43.51567" lon="6.2437">
        <ele>157.2</ele>
        <time>2023-12-03T14:05:38.000Z</time>
      </trkpt>
      <trkpt lat="43.51569" lon="6.24365">
        <ele>157.3</ele>
        <time>2023-12-03T14:05:43.000Z</time>
      </trkpt>
      <trkpt lat="43.51572" lon="6.2436">
        <ele>157.4</ele>
        <time>2023-12-03T14:05:48.000Z</time>
      </trkpt>
      <trkpt lat="43.51575" lon="6.24356">
        <ele>157.5</ele>
        <time>2023-12-03T14:05:53.000Z</time>
      </trkpt>
      <trkpt lat="43.51577" lon="6.24352">
        <ele>157.7</ele>
        <time>2023-12-03T14:05:58.000Z</time>
      </trkpt>
      <trkpt lat="43.5158" lon="6.24348">
        <ele>157.8</ele>
        <time>2023-12-03T14:06:02.000Z</time>
      </trkpt>
      <trkpt lat="43.5158" lon="6.24347">
        <ele>157.9</ele>
        <time>2023-12-03T14:06:03.000Z</time>
      </trkpt>
      <trkpt lat="43.51579" lon="6.24347">
        <ele>159</ele>
        <time>2023-12-03T14:06:21.000Z</time>
      </trkpt>
      <trkpt lat="43.51578" lon="6.24352">
        <ele>159.5</ele>
        <time>2023-12-03T14:06:27.000Z</time>
      </trkpt>
      <trkpt lat="43.51574" lon="6.24355">
        <ele>160.4</ele>
        <time>2023-12-03T14:06:57.000Z</time>
      </trkpt>
      <trkpt lat="43.5157" lon="6.24356">
        <ele>160.6</ele>
        <time>2023-12-03T14:07:03.000Z</time>
      </trkpt>
      <trkpt lat="43.51569" lon="6.24356">
        <ele>160.6</ele>
        <time>2023-12-03T14:07:04.000Z</time>
      </trkpt>
      <trkpt lat="43.51568" lon="6.24345">
        <ele>162.1</ele>
        <time>2023-12-03T14:07:21.000Z</time>
      </trkpt>
      <trkpt lat="43.51568" lon="6.24339">
        <ele>163.5</ele>
        <time>2023-12-03T14:07:41.000Z</time>
      </trkpt>
      <trkpt lat="43.51569" lon="6.24333">
        <ele>164.1</ele>
        <time>2023-12-03T14:07:51.000Z</time>
      </trkpt>
      <trkpt lat="43.5157" lon="6.24328">
        <ele>164.6</ele>
        <time>2023-12-03T14:08:05.000Z</time>
      </trkpt>
      <trkpt lat="43.5157" lon="6.24328">
        <ele>164.6</ele>
        <time>2023-12-03T14:08:06.000Z</time>
      </trkpt>
      <trkpt lat="43.51564" lon="6.24336">
        <ele>165.1</ele>
        <time>2023-12-03T14:09:17.000Z</time>
      </trkpt>
      <trkpt lat="43.51564" lon="6.24336">
        <ele>165.1</ele>
        <time>2023-12-03T14:09:18.000Z</time>
      </trkpt>
      <trkpt lat="43.51559" lon="6.24344">
        <ele>165.6</ele>
        <time>2023-12-03T14:09:34.000Z</time>
      </trkpt>
      <trkpt lat="43.51556" lon="6.24349">
        <ele>166.4</ele>
        <time>2023-12-03T14:09:44.000Z</time>
      </trkpt>
      <trkpt lat="43.51554" lon="6.24353">
        <ele>168.5</ele>
        <time>2023-12-03T14:10:01.000Z</time>
      </trkpt>
      <trkpt lat="43.5155" lon="6.24356">
        <ele>169.2</ele>
        <time>2023-12-03T14:10:07.000Z</time>
      </trkpt>
      <trkpt lat="43.51547" lon="6.24359">
        <ele>170</ele>
        <time>2023-12-03T14:10:13.000Z</time>
      </trkpt>
      <trkpt lat="43.51543" lon="6.24362">
        <ele>170.9</ele>
        <time>2023-12-03T14:10:21.000Z</time>
      </trkpt>
      <trkpt lat="43.51543" lon="6.24362">
        <ele>171</ele>
        <time>2023-12-03T14:10:22.000Z</time>
      </trkpt>
      <trkpt lat="43.51543" lon="6.24366">
        <ele>172.9</ele>
        <time>2023-12-03T14:10:40.000Z</time>
      </trkpt>
      <trkpt lat="43.51547" lon="6.24363">
        <ele>173.3</ele>
        <time>2023-12-03T14:10:44.000Z</time>
      </trkpt>
      <trkpt lat="43.51549" lon="6.24359">
        <ele>173.8</ele>
        <time>2023-12-03T14:10:50.000Z</time>
      </trkpt>
      <trkpt lat="43.51547" lon="6.24353">
        <ele>174.2</ele>
        <time>2023-12-03T14:10:56.000Z</time>
      </trkpt>
      <trkpt lat="43.51543" lon="6.24352">
        <ele>174.6</ele>
        <time>2023-12-03T14:11:01.000Z</time>
      </trkpt>
      <trkpt lat="43.5154" lon="6.24351">
        <ele>174.8</ele>
        <time>2023-12-03T14:11:04.000Z</time>
      </trkpt>
      <trkpt lat="43.51536" lon="6.2435">
        <ele>175</ele>
        <time>2023-12-03T14:11:09.000Z</time>
      </trkpt>
      <trkpt lat="43.51532" lon="6.24348">
        <ele>175.3</ele>
        <time>2023-12-03T14:11:17.000Z</time>
      </trkpt>
      <trkpt lat="43.51532" lon="6.24342">
        <ele>175.7</ele>
        <time>2023-12-03T14:11:47.000Z</time>
      </trkpt>
      <trkpt lat="43.51532" lon="6.24342">
        <ele>175.7</ele>
        <time>2023-12-03T14:11:48.000Z</time>
      </trkpt>
      <trkpt lat="43.51533" lon="6.24336">
        <ele>175.8</ele>
        <time>2023-12-03T14:12:53.000Z</time>
      </trkpt>
      <trkpt lat="43.51528" lon="6.24329">
        <ele>174.5</ele>
        <time>2023-12-03T14:13:28.000Z</time>
      </trkpt>
      <trkpt lat="43.51524" lon="6.24326">
        <ele>173.7</ele>
        <time>2023-12-03T14:13:47.000Z</time>
      </trkpt>
      <trkpt lat="43.5152" lon="6.24326">
        <ele>173.2</ele>
        <time>2023-12-03T14:13:55.000Z</time>
      </trkpt>
      <trkpt lat="43.51519" lon="6.24326">
        <ele>173.2</ele>
        <time>2023-12-03T14:13:56.000Z</time>
      </trkpt>
      <trkpt lat="43.51512" lon="6.2433">
        <ele>172.4</ele>
        <time>2023-12-03T14:14:12.000Z</time>
      </trkpt>
      <trkpt lat="43.51507" lon="6.2433">
        <ele>171.8</ele>
        <time>2023-12-03T14:14:19.000Z</time>
      </trkpt>
      <trkpt lat="43.51503" lon="6.24329">
        <ele>171.3</ele>
        <time>2023-12-03T14:14:24.000Z</time>
      </trkpt>
      <trkpt lat="43.51499" lon="6.24327">
        <ele>170.6</ele>
        <time>2023-12-03T14:14:31.000Z</time>
      </trkpt>
      <trkpt lat="43.51496" lon="6.24324">
        <ele>169.8</ele>
        <time>2023-12-03T14:14:38.000Z</time>
      </trkpt>
      <trkpt lat="43.51492" lon="6.24321">
        <ele>168.9</ele>
        <time>2023-12-03T14:14:46.000Z</time>
      </trkpt>
      <trkpt lat="43.51489" lon="6.24317">
        <ele>168.1</ele>
        <time>2023-12-03T14:14:53.000Z</time>
      </trkpt>
      <trkpt lat="43.51486" lon="6.24313">
        <ele>167.4</ele>
        <time>2023-12-03T14:14:59.000Z</time>
      </trkpt>
      <trkpt lat="43.51485" lon="6.24312">
        <ele>167.3</ele>
        <time>2023-12-03T14:15:00.000Z</time>
      </trkpt>
      <trkpt lat="43.5148" lon="6.24305">
        <ele>166.5</ele>
        <time>2023-12-03T14:15:09.000Z</time>
      </trkpt>
      <trkpt lat="43.51479" lon="6.24299">
        <ele>166.1</ele>
        <time>2023-12-03T14:15:15.000Z</time>
      </trkpt>
      <trkpt lat="43.51479" lon="6.24294">
        <ele>165.9</ele>
        <time>2023-12-03T14:15:19.000Z</time>
      </trkpt>
      <trkpt lat="43.51478" lon="6.24289">
        <ele>165.8</ele>
        <time>2023-12-03T14:15:23.000Z</time>
      </trkpt>
      <trkpt lat="43.51479" lon="6.24283">
        <ele>165.7</ele>
        <time>2023-12-03T14:15:27.000Z</time>
      </trkpt>
      <trkpt lat="43.51478" lon="6.24277">
        <ele>165.6</ele>
        <time>2023-12-03T14:15:32.000Z</time>
      </trkpt>
      <trkpt lat="43.51479" lon="6.24271">
        <ele>165.6</ele>
        <time>2023-12-03T14:15:37.000Z</time>
      </trkpt>
      <trkpt lat="43.51481" lon="6.24267">
        <ele>165.5</ele>
        <time>2023-12-03T14:15:41.000Z</time>
      </trkpt>
      <trkpt lat="43.51483" lon="6.24262">
        <ele>165.4</ele>
        <time>2023-12-03T14:15:46.000Z</time>
      </trkpt>
      <trkpt lat="43.51484" lon="6.24256">
        <ele>165.2</ele>
        <time>2023-12-03T14:15:51.000Z</time>
      </trkpt>
      <trkpt lat="43.51485" lon="6.2425">
        <ele>164.9</ele>
        <time>2023-12-03T14:15:56.000Z</time>
      </trkpt>
      <trkpt lat="43.51486" lon="6.24246">
        <ele>164.7</ele>
        <time>2023-12-03T14:16:00.000Z</time>
      </trkpt>
      <trkpt lat="43.51487" lon="6.24245">
        <ele>164.7</ele>
        <time>2023-12-03T14:16:01.000Z</time>
      </trkpt>
      <trkpt lat="43.51493" lon="6.24239">
        <ele>163.8</ele>
        <time>2023-12-03T14:16:11.000Z</time>
      </trkpt>
      <trkpt lat="43.51497" lon="6.24237">
        <ele>163.5</ele>
        <time>2023-12-03T14:16:17.000Z</time>
      </trkpt>
      <trkpt lat="43.51501" lon="6.24236">
        <ele>163.3</ele>
        <time>2023-12-03T14:16:21.000Z</time>
      </trkpt>
      <trkpt lat="43.51505" lon="6.24236">
        <ele>162.9</ele>
        <time>2023-12-03T14:16:26.000Z</time>
      </trkpt>
      <trkpt lat="43.51509" lon="6.24236">
        <ele>162.6</ele>
        <time>2023-12-03T14:16:31.000Z</time>
      </trkpt>
      <trkpt lat="43.51513" lon="6.24236">
        <ele>162.3</ele>
        <time>2023-12-03T14:16:36.000Z</time>
      </trkpt>
      <trkpt lat="43.51514" lon="6.24231">
        <ele>161.6</ele>
        <time>2023-12-03T14:16:52.000Z</time>
      </trkpt>
      <trkpt lat="43.51511" lon="6.24227">
        <ele>161.3</ele>
        <time>2023-12-03T14:16:58.000Z</time>
      </trkpt>
      <trkpt lat="43.51507" lon="6.24226">
        <ele>161</ele>
        <time>2023-12-03T14:17:03.000Z</time>
      </trkpt>
      <trkpt lat="43.51506" lon="6.24225">
        <ele>161</ele>
        <time>2023-12-03T14:17:04.000Z</time>
      </trkpt>
      <trkpt lat="43.515" lon="6.24219">
        <ele>160.6</ele>
        <time>2023-12-03T14:17:14.000Z</time>
      </trkpt>
      <trkpt lat="43.51498" lon="6.24215">
        <ele>160.5</ele>
        <time>2023-12-03T14:17:19.000Z</time>
      </trkpt>
      <trkpt lat="43.51498" lon="6.24211">
        <ele>160.5</ele>
        <time>2023-12-03T14:17:22.000Z</time>
      </trkpt>
      <trkpt lat="43.51498" lon="6.24204">
        <ele>160.5</ele>
        <time>2023-12-03T14:17:26.000Z</time>
      </trkpt>
      <trkpt lat="43.51499" lon="6.242">
        <ele>160.5</ele>
        <time>2023-12-03T14:17:28.000Z</time>
      </trkpt>
      <trkpt lat="43.51501" lon="6.24195">
        <ele>160.5</ele>
        <time>2023-12-03T14:17:31.000Z</time>
      </trkpt>
      <trkpt lat="43.51505" lon="6.24192">
        <ele>160.5</ele>
        <time>2023-12-03T14:17:34.000Z</time>
      </trkpt>
      <trkpt lat="43.51508" lon="6.24188">
        <ele>160.5</ele>
        <time>2023-12-03T14:17:38.000Z</time>
      </trkpt>
      <trkpt lat="43.51512" lon="6.24184">
        <ele>160.7</ele>
        <time>2023-12-03T14:17:42.000Z</time>
      </trkpt>
      <trkpt lat="43.51515" lon="6.2418">
        <ele>160.9</ele>
        <time>2023-12-03T14:17:48.000Z</time>
      </trkpt>
      <trkpt lat="43.51516" lon="6.24174">
        <ele>161.1</ele>
        <time>2023-12-03T14:17:55.000Z</time>
      </trkpt>
      <trkpt lat="43.51515" lon="6.24168">
        <ele>161.9</ele>
        <time>2023-12-03T14:18:09.000Z</time>
      </trkpt>
      <trkpt lat="43.51515" lon="6.24168">
        <ele>162</ele>
        <time>2023-12-03T14:18:10.000Z</time>
      </trkpt>
      <trkpt lat="43.5152" lon="6.24166">
        <ele>162.8</ele>
        <time>2023-12-03T14:19:17.000Z</time>
      </trkpt>
      <trkpt lat="43.51511" lon="6.24165">
        <ele>162.4</ele>
        <time>2023-12-03T14:20:14.000Z</time>
      </trkpt>
      <trkpt lat="43.51507" lon="6.24165">
        <ele>162.8</ele>
        <time>2023-12-03T14:20:38.000Z</time>
      </trkpt>
    </trkseg>
  </trk>
</gpx>